# Wetter Temperatur Luftdruck Luftfeuchtigkeit Sichtweite Windgeschwindigkeit Windrichtung Zeit
1 Clouds 27 1016 88 16093 3.46 250 09:20 14.07.2020
2 Clouds 27 1016 79 16093 1.5 230 08:44 14.07.2020
3 Clouds 27 1016 79 16093 1.5 230 08:24 14.07.2020
4 Clouds 27 1016 79 16093 1.5 230 07:58 14.07.2020
5 Clouds 27 1017 79 16093 2.1 250 07:38 14.07.2020
6 Clouds 27 1017 79 16093 2.1 250 07:18 14.07.2020
7 Clouds 28 1017 79 16093 3.1 250 06:44 14.07.2020
8 Clouds 28 1017 79 16093 3.1 250 06:24 14.07.2020
9 Clouds 28 1016 79 16093 3.1 250 05:34 14.07.2020
10 Clouds 29 1016 79 16093 1.5 180 04:37 14.07.2020
11 Clouds 28 1016 79 16093 1.5 160 03:36 14.07.2020
12 Clouds 30 1016 70 16093 1.5 160 02:49 14.07.2020
13 Clouds 30 1016 70 16093 1.5 160 02:25 14.07.2020
14 Clouds 30 1015 70 16093 3.1 160 01:36 14.07.2020
15 Clouds 30 1015 62 16093 4.99 230 00:55 14.07.2020
16 Clouds 31 1015 62 16093 4.99 230 00:36 14.07.2020
17 Clouds 31 1015 62 16093 4.58 229 00:18 14.07.2020
18 Rain 30 1015 78 16093 3.1 270 23:37 13.07.2020
19 Rain 30 1015 78 16093 3.1 270 23:19 13.07.2020
20 Clouds 30 1016 66 16093 3.1 300 22:42 13.07.2020
21 Clouds 30 1016 66 16093 3.1 300 22:22 13.07.2020
22 Clouds 31 1016 66 16093 3.1 300 21:57 13.07.2020
23 Clouds 32 1016 52 16093 5.1 260 21:39 13.07.2020
24 Clouds 33 1016 52 16093 5.1 260 21:20 13.07.2020
25 Clouds 33 1016 52 16093 5.1 260 20:58 13.07.2020
26 Clouds 32 1016 56 16093 4.6 250 20:40 13.07.2020
27 Thunderstorm 32 1016 55 16093 4.6 230 20:21 13.07.2020
28 Thunderstorm 31 1016 59 16093 6.7 270 19:56 13.07.2020
29 Thunderstorm 32 1016 59 16093 6.7 270 19:38 13.07.2020
30 Clouds 32 1016 59 16093 5.7 280 19:18 13.07.2020
31 Rain 32 1016 55 16093 4.6 270 18:42 13.07.2020
32 Rain 32 1016 55 16093 4.6 270 18:24 13.07.2020
33 Clouds 32 1016 62 16093 4.6 230 17:58 13.07.2020
34 Clouds 32 1016 62 16093 4.6 230 17:39 13.07.2020
35 Clouds 32 1016 62 16093 4.6 230 17:21 13.07.2020
36 Clouds 32 1016 62 16093 4.6 200 16:56 13.07.2020
37 Clouds 31 1016 62 16093 4.6 200 16:38 13.07.2020
38 Clouds 31 1016 62 16093 4.6 200 16:19 13.07.2020
39 Clouds 31 1016 62 16093 4.6 200 15:57 13.07.2020
40 Clouds 30 1016 66 16093 3.1 220 15:37 13.07.2020
41 Clouds 30 1016 66 16093 3.1 220 15:19 13.07.2020
42 Clouds 29 1016 78 16093 3.1 210 14:56 13.07.2020
43 Clouds 29 1016 78 16093 3.1 210 14:38 13.07.2020
44 Clouds 28 1016 78 16093 3.1 210 14:19 13.07.2020
45 Clouds 27 1015 83 16093 2.1 190 13:43 13.07.2020
46 Clouds 27 1015 83 16093 2.1 190 13:22 13.07.2020
47 Clouds 27 1015 78 16093 1.5 220 12:55 13.07.2020
48 Clouds 27 1015 78 16093 1.5 220 12:37 13.07.2020
49 Clouds 27 1015 78 16093 1.5 220 12:18 13.07.2020
50 Clouds 27 1015 78 16093 1.5 180 11:41 13.07.2020
51 Clouds 27 1015 78 16093 1.5 180 11:23 13.07.2020
52 Clear 27 1015 78 16093 2.1 200 10:45 13.07.2020
53 Clear 27 1015 78 16093 2.1 200 10:21 13.07.2020
54 Clear 27 1015 78 16093 2.1 200 09:58 13.07.2020
55 Clouds 27 1014 74 16093 2.6 190 09:40 13.07.2020
56 Clouds 27 1014 74 16093 2.6 190 09:20 13.07.2020
57 Clouds 27 1015 74 16093 2.1 180 08:49 13.07.2020
58 Clouds 27 1015 74 16093 2.1 180 08:30 13.07.2020
59 Clouds 27 1015 74 16093 2.6 190 07:25 13.07.2020
60 Clouds 27 1015 78 16093 2.1 180 06:54 13.07.2020
61 Clouds 27 1015 78 16093 2.1 180 06:36 13.07.2020
62 Clouds 27 1015 69 16093 2.6 0 05:52 13.07.2020
63 Clouds 27 1015 74 16093 2.1 210 04:28 13.07.2020
64 Clouds 29 1014 70 16093 3.6 260 01:46 13.07.2020
65 Clouds 29 1014 70 16093 3.6 260 01:25 13.07.2020
66 Clouds 29 1014 70 16093 2.6 280 00:46 13.07.2020
67 Clouds 30 1014 70 16093 2.6 280 00:24 13.07.2020
68 Clouds 30 1014 66 16093 3.6 280 23:56 12.07.2020
69 Clouds 30 1014 66 16093 3.6 280 23:38 12.07.2020
70 Clouds 31 1014 66 16093 3.6 280 23:19 12.07.2020
71 Clouds 32 1015 59 16093 4.1 290 22:37 12.07.2020
72 Clouds 32 1015 59 16093 4.1 290 22:19 12.07.2020
73 Clouds 31 1015 59 16093 4.1 290 21:57 12.07.2020
74 Clouds 31 1015 59 16093 4.1 290 21:57 12.07.2020
75 Rain 32 1015 55 16093 5.7 260 21:39 12.07.2020
76 Rain 31 1015 55 16093 5.7 260 21:20 12.07.2020
77 Rain 32 1015 55 16093 5.7 260 20:58 12.07.2020
78 Clouds 31 1015 59 16093 6.7 230 20:39 12.07.2020
79 Clouds 31 1015 59 16093 6.7 230 20:19 12.07.2020
80 Rain 30 1015 62 16093 7.2 210 19:54 12.07.2020
81 Clouds 29 1015 62 16093 7.2 210 19:36 12.07.2020
82 Rain 29 1015 66 16093 3.6 260 19:18 12.07.2020
83 Clouds 31 1015 66 16093 3.6 260 18:40 12.07.2020
84 Clouds 32 1015 66 16093 3.6 260 18:19 12.07.2020
85 Clouds 32 1015 59 16093 6.7 190 17:41 12.07.2020
86 Clouds 32 1015 59 16093 6.7 190 17:22 12.07.2020
87 Clouds 31 1015 59 16093 6.7 190 16:58 12.07.2020
88 Clouds 31 1015 66 16093 3.6 210 16:40 12.07.2020
89 Clouds 30 1015 66 16093 3.6 210 16:18 12.07.2020
90 Clouds 29 1015 74 16093 2.1 210 15:43 12.07.2020
91 Clouds 29 1015 74 16093 2.1 210 15:23 12.07.2020
92 Clouds 27 1015 83 16093 2.6 200 14:43 12.07.2020
93 Clouds 27 1015 83 16093 2.6 200 14:25 12.07.2020
94 Clouds 27 1014 83 16093 1.5 200 13:54 12.07.2020
95 Clouds 27 1014 83 16093 1.5 200 13:36 12.07.2020
96 Clouds 27 1014 83 16093 1.5 200 13:18 12.07.2020
97 Clouds 27 1014 83 16093 1.5 220 12:42 12.07.2020
98 Clouds 27 1014 83 16093 1.5 220 12:20 12.07.2020
99 Clouds 27 1013 83 16093 1.5 240 11:58 12.07.2020
100 Clouds 27 1013 83 16093 1.5 240 11:40 12.07.2020
101 Clouds 27 1013 83 16093 1.5 240 11:19 12.07.2020
102 Clouds 27 1014 83 16093 1.5 190 10:42 12.07.2020
103 Clouds 27 1014 83 16093 1.5 190 10:20 12.07.2020
104 Clouds 27 1014 83 16093 2.6 0 09:43 12.07.2020
105 Clouds 27 1014 83 16093 2.6 0 09:22 12.07.2020
106 Clouds 27 1014 83 16093 2.6 0 08:58 12.07.2020
107 Clouds 27 1014 83 16093 1.5 180 08:40 12.07.2020
108 Clouds 27 1014 83 16093 1.5 180 08:21 12.07.2020
109 Clouds 27 1015 83 16093 1.5 190 07:50 12.07.2020
110 Clouds 27 1015 83 16093 1.5 190 07:31 12.07.2020
111 Clouds 27 1015 83 16093 2.6 190 06:57 12.07.2020
112 Clouds 27 1015 83 16093 2.6 190 06:38 12.07.2020
113 Rain 27 1015 83 16093 2.6 190 06:19 12.07.2020
114 Clouds 26 1016 83 16093 2.6 170 05:22 12.07.2020
115 Clouds 26 1015 88 16093 2.6 170 04:29 12.07.2020
116 Clouds 26 1015 88 16093 1.5 220 03:48 12.07.2020
117 Clouds 27 1015 88 16093 1.5 220 03:28 12.07.2020
118 Clouds 26 1014 78 16093 2.6 190 02:27 12.07.2020
119 Rain 26 1014 83 16093 2.6 180 01:36 12.07.2020
120 Rain 27 1015 83 12874 5.58 213 00:41 12.07.2020
121 Rain 27 1015 83 12874 4.81 188 00:22 12.07.2020
122 Rain 27 1015 83 16093 4.6 210 23:55 11.07.2020
123 Rain 27 1015 83 16093 4.6 210 23:37 11.07.2020
124 Rain 28 1015 78 16093 5.1 230 23:18 11.07.2020
125 Clouds 28 1015 70 16093 4.99 173 22:44 11.07.2020
126 Clouds 29 1015 70 16093 4.41 179 22:25 11.07.2020
127 Clear 28 1015 74 16093 3.1 140 21:57 11.07.2020
128 Clouds 28 1015 74 16093 2.6 160 21:38 11.07.2020
129 Clouds 28 1015 74 16093 2.6 160 21:20 11.07.2020
130 Rain 28 1015 83 16093 2.6 120 20:55 11.07.2020
131 Rain 28 1015 83 16093 2.6 120 20:37 11.07.2020
132 Rain 29 1015 83 16093 2.6 120 20:19 11.07.2020
133 Rain 27 1016 88 16093 1.5 180 19:55 11.07.2020
134 Rain 27 1016 88 16093 1.5 180 19:37 11.07.2020
135 Rain 27 1016 88 16093 1.5 180 19:19 11.07.2020
136 Thunderstorm 26 1016 83 16093 2.6 120 18:54 11.07.2020
137 Rain 27 1016 83 16093 2.6 120 18:36 11.07.2020
138 Rain 27 1016 83 4828 5.7 300 18:18 11.07.2020
139 Thunderstorm 29 1015 88 1609 4.1 310 17:40 11.07.2020
140 Thunderstorm 32 1015 66 16093 3.66 273 17:21 11.07.2020
141 Thunderstorm 32 1015 66 16093 3.66 273 16:58 11.07.2020
142 Clouds 32 1015 66 16093 3.1 290 16:38 11.07.2020
143 Clouds 31 1015 66 16093 3.1 290 16:19 11.07.2020
144 Clouds 31 1015 66 16093 1.5 310 15:42 11.07.2020
145 Clouds 30 1015 66 16093 1.5 310 15:21 11.07.2020
146 Clouds 28 1015 83 16093 3.6 270 14:59 11.07.2020
147 Clouds 28 1015 74 16093 2.6 270 14:40 11.07.2020
148 Clouds 28 1015 83 16093 3.6 270 14:22 11.07.2020
149 Clouds 28 1014 83 16093 1.5 0 13:44 11.07.2020
150 Clouds 27 1014 83 16093 1.5 0 13:23 11.07.2020
151 Clouds 27 1014 83 16093 1.5 0 12:59 11.07.2020
152 Clouds 27 1014 83 16093 1.5 240 12:41 11.07.2020
153 Clouds 27 1014 83 16093 1.5 240 12:23 11.07.2020
154 Clouds 27 1014 83 16093 1.5 210 11:57 11.07.2020
155 Clouds 27 1014 83 16093 1.5 210 11:39 11.07.2020
156 Clouds 27 1014 83 16093 1.5 210 11:19 11.07.2020
157 Clouds 28 1014 83 16093 2.1 240 10:44 11.07.2020
158 Clouds 28 1014 83 16093 2.1 240 10:26 11.07.2020
159 Clouds 28 1015 83 16093 2.1 220 09:56 11.07.2020
160 Clouds 28 1015 83 16093 2.1 220 09:36 11.07.2020
161 Clouds 28 1015 83 16093 2.1 220 09:18 11.07.2020
162 Clouds 28 1016 83 16093 1.5 220 08:37 11.07.2020
163 Clouds 28 1016 83 16093 1.5 220 08:19 11.07.2020
164 Clouds 28 1016 83 16093 2.6 200 07:46 11.07.2020
165 Clouds 27 1016 83 16093 2.6 200 07:27 11.07.2020
166 Clouds 27 1016 83 16093 3.1 210 06:56 11.07.2020
167 Clouds 28 1016 83 16093 3.1 210 06:22 11.07.2020
168 Clouds 28 1016 83 16093 3.6 210 05:36 11.07.2020
169 Clouds 28 1016 78 16093 1.5 200 04:56 11.07.2020
170 Clouds 27 1016 78 16093 1.5 200 04:33 11.07.2020
171 Clouds 27 1016 83 16093 3.6 140 03:32 11.07.2020
172 Rain 26 1016 83 16093 2.1 160 02:48 11.07.2020
173 Rain 26 1016 88 9656 5.7 170 01:51 11.07.2020
174 Thunderstorm 27 1016 88 9656 5.7 170 01:19 11.07.2020
175 Rain 27 1015 83 16093 5.44 232 00:41 11.07.2020
176 Thunderstorm 27 1015 83 16093 4.07 231 00:22 11.07.2020
177 Rain 27 1015 88 16093 3.1 120 23:58 10.07.2020
178 Rain 27 1015 88 16093 3.1 120 23:40 10.07.2020
179 Rain 28 1015 70 8047 5.1 340 23:20 10.07.2020
180 Rain 28 1015 70 8047 5.1 340 22:46 10.07.2020
181 Rain 28 1015 70 8047 5.1 340 22:22 10.07.2020
182 Rain 31 1015 70 8047 5.1 340 21:58 10.07.2020
183 Thunderstorm 33 1015 63 16093 5.7 140 21:38 10.07.2020
184 Thunderstorm 33 1015 63 16093 3.84 184 21:19 10.07.2020
185 Clouds 34 1015 47 16093 2.88 211 20:43 10.07.2020
186 Clouds 34 1015 47 16093 2.51 233 20:24 10.07.2020
187 Clouds 34 1015 47 16093 2.51 233 19:59 10.07.2020
188 Clouds 34 1016 47 16093 3.1 320 19:40 10.07.2020
189 Clouds 35 1016 47 16093 3.1 320 19:21 10.07.2020
190 Clouds 34 1016 52 16093 4.1 290 18:42 10.07.2020
191 Clouds 34 1016 52 16093 4.1 290 18:22 10.07.2020
192 Clouds 33 1016 62 16093 1.5 300 17:59 10.07.2020
193 Clouds 33 1016 62 16093 1.5 300 17:41 10.07.2020
194 Clouds 32 1016 62 16093 1.5 300 17:22 10.07.2020
195 Clouds 32 1016 62 16093 2.6 0 16:56 10.07.2020
196 Clouds 32 1016 62 16093 2.6 0 16:37 10.07.2020
197 Clouds 31 1016 62 16093 2.6 0 16:18 10.07.2020
198 Clouds 31 1016 70 16093 3.1 270 15:42 10.07.2020
199 Clouds 30 1016 70 16093 3.1 270 15:18 10.07.2020
200 Clouds 29 1016 74 16093 1.5 290 14:43 10.07.2020
201 Clouds 29 1016 74 16093 1.5 290 14:22 10.07.2020
202 Clear 28 1015 83 16093 2.1 270 13:58 10.07.2020
203 Clear 27 1015 83 16093 2.1 270 13:40 10.07.2020
204 Clouds 27 1015 79 16093 2.1 300 13:22 10.07.2020
205 Clouds 28 1015 74 16093 1.5 230 12:58 10.07.2020
206 Clouds 28 1015 74 16093 1.5 230 12:40 10.07.2020
207 Clouds 27 1015 74 16093 1.5 230 12:21 10.07.2020
208 Clouds 27 1015 74 16093 1.5 260 11:43 10.07.2020
209 Clouds 27 1015 74 16093 1.5 260 11:22 10.07.2020
210 Clouds 27 1015 74 16093 1.5 250 10:58 10.07.2020
211 Clouds 27 1015 74 16093 1.5 250 10:40 10.07.2020
212 Clouds 27 1015 74 16093 1.5 250 10:21 10.07.2020
213 Clouds 28 1015 74 16093 2.1 260 09:42 10.07.2020
214 Clouds 28 1015 74 16093 2.1 260 09:23 10.07.2020
215 Clouds 28 1015 74 16093 2.1 260 08:59 10.07.2020
216 Clouds 28 1016 70 16093 2.6 240 08:41 10.07.2020
217 Clouds 28 1016 70 16093 2.6 240 08:23 10.07.2020
218 Clouds 29 1016 66 16093 3.6 220 07:58 10.07.2020
219 Clouds 29 1016 66 16093 3.6 220 07:39 10.07.2020
220 Clouds 29 1016 66 16093 3.6 220 07:19 10.07.2020
221 Clouds 29 1016 66 16093 2.6 220 06:43 10.07.2020
222 Clouds 30 1015 62 16093 3.6 250 05:50 10.07.2020
223 Clouds 30 1015 62 16093 5.1 230 04:31 10.07.2020
224 Clouds 31 1014 59 16093 3.6 260 03:22 10.07.2020
225 Clouds 31 1013 62 16093 4.1 170 02:41 10.07.2020
226 Clouds 32 1013 59 16093 4.6 170 01:33 10.07.2020
227 Clouds 33 1013 52 16093 3.1 0 00:40 10.07.2020
228 Clouds 33 1013 52 16093 3.1 0 00:18 10.07.2020
229 Clouds 34 1013 37 16093 2.1 290 23:39 09.07.2020
230 Clouds 34 1013 37 16093 2.1 290 23:19 09.07.2020
231 Clouds 34 1013 37 16093 2.1 290 22:57 09.07.2020
232 Clouds 35 1013 32 16093 5.28 175 22:39 09.07.2020
233 Clouds 35 1013 32 16093 5 176 22:20 09.07.2020
234 Clear 34 1014 44 16093 2.6 0 21:55 09.07.2020
235 Clouds 34 1014 34 16093 2.6 0 21:36 09.07.2020
236 Clouds 35 1014 34 16093 2.6 0 21:18 09.07.2020
237 Clouds 34 1015 39 16093 3.1 0 20:41 09.07.2020
238 Clouds 34 1015 39 16093 3.1 0 20:23 09.07.2020
239 Clouds 34 1015 46 16093 2.6 0 19:55 09.07.2020
240 Clouds 34 1015 46 16093 2.6 0 19:37 09.07.2020
241 Clouds 34 1015 46 16093 2.6 0 19:18 09.07.2020
242 Clouds 33 1015 49 16093 1.56 189 18:41 09.07.2020
243 Clouds 33 1015 49 16093 1.33 269 18:19 09.07.2020
244 Clouds 32 1015 59 16093 2.6 300 17:43 09.07.2020
245 Clouds 31 1015 59 16093 2.6 300 17:25 09.07.2020
246 Clouds 31 1015 59 16093 2.6 300 16:59 09.07.2020
247 Clouds 30 1015 66 16093 2.1 0 16:41 09.07.2020
248 Clouds 30 1015 66 16093 2.1 0 16:19 09.07.2020
249 Clouds 29 1015 66 16093 2.1 0 15:59 09.07.2020
250 Clouds 29 1015 74 16093 1.5 0 15:40 09.07.2020
251 Clouds 29 1015 74 16093 1.5 0 15:21 09.07.2020
252 Clouds 28 1015 78 16093 2.6 330 14:58 09.07.2020
253 Clouds 28 1015 78 16093 2.6 330 14:40 09.07.2020
254 Clouds 27 1015 78 16093 2.6 330 14:22 09.07.2020
255 Clouds 27 1015 83 16093 2.1 300 13:57 09.07.2020
256 Clouds 27 1015 83 16093 2.1 300 13:38 09.07.2020
257 Clouds 27 1015 83 16093 2.1 300 13:19 09.07.2020
258 Clear 26 1014 83 16093 2.6 320 12:42 09.07.2020
259 Clouds 27 1014 83 16093 1.5 300 12:24 09.07.2020
260 Clouds 27 1014 83 16093 1.5 300 11:59 09.07.2020
261 Clouds 27 1014 83 16093 3.94 311 11:41 09.07.2020
262 Clouds 27 1014 83 16093 4.2 309 11:21 09.07.2020
263 Clouds 27 1014 83 16093 1.5 310 10:57 09.07.2020
264 Clouds 27 1014 83 16093 1.5 310 10:57 09.07.2020
265 Clouds 27 1014 83 16093 1.5 310 10:38 09.07.2020
266 Clouds 27 1014 83 16093 1.5 310 10:20 09.07.2020
267 Clouds 27 1014 83 16093 1.5 300 09:43 09.07.2020
268 Clouds 27 1014 83 16093 1.5 300 09:23 09.07.2020
269 Clouds 27 1014 88 16093 3.83 319 08:54 09.07.2020
270 Clouds 27 1014 88 16093 3.83 319 08:36 09.07.2020
271 Clouds 27 1014 88 16093 4.33 320 08:18 09.07.2020
272 Rain 27 1015 88 16093 1.5 80 07:42 09.07.2020
273 Rain 27 1015 88 16093 1.5 80 07:21 09.07.2020
274 Rain 27 1016 83 16093 3.1 290 06:21 09.07.2020
275 Rain 27 1015 83 16093 2.6 160 05:57 09.07.2020
276 Thunderstorm 29 1014 66 16093 2.1 200 04:29 09.07.2020
277 Clouds 29 1014 62 16093 2.1 200 03:24 09.07.2020
278 Clouds 30 1013 66 16093 3.6 210 01:56 09.07.2020
279 Clouds 30 1013 66 16093 3.6 210 01:19 09.07.2020
280 Thunderstorm 30 1014 70 16093 4.1 140 00:41 09.07.2020
281 Rain 30 1014 70 16093 4.1 140 00:22 09.07.2020
282 Rain 30 1014 70 16093 5.1 120 23:43 08.07.2020
283 Rain 31 1014 66 16093 6.2 80 23:25 08.07.2020
284 Thunderstorm 32 1014 50 16093 3.6 190 22:56 08.07.2020
285 Thunderstorm 33 1014 50 16093 3.6 190 22:38 08.07.2020
286 Thunderstorm 33 1014 50 16093 3.6 190 22:38 08.07.2020
287 Thunderstorm 33 1014 50 16093 3.6 190 22:20 08.07.2020
288 Thunderstorm 33 1014 50 16093 3.6 190 22:20 08.07.2020
289 Thunderstorm 33 1015 52 16093 4.1 150 21:56 08.07.2020
290 Thunderstorm 33 1015 52 16093 4.1 150 21:37 08.07.2020
291 Clouds 33 1015 55 16093 4.1 170 21:19 08.07.2020
292 Clouds 34 1015 52 16093 4.12 148 20:41 08.07.2020
293 Clouds 34 1015 52 16093 3.84 139 20:23 08.07.2020
294 Clouds 33 1016 52 16093 3.84 139 19:56 08.07.2020
295 Clouds 33 1016 52 16093 3.84 139 19:37 08.07.2020
296 Clouds 34 1016 52 16093 3.6 135 19:19 08.07.2020
297 Clouds 33 1017 59 16093 3.6 135 18:42 08.07.2020
298 Clouds 33 1017 59 16093 3.4 140 18:21 08.07.2020
299 Clouds 32 1017 62 16093 2.6 120 17:57 08.07.2020
300 Clouds 31 1017 62 16093 2.6 120 17:39 08.07.2020
301 Clouds 31 1017 62 16093 2.6 120 17:20 08.07.2020
302 Clouds 31 1017 62 16093 2.6 120 16:57 08.07.2020
303 Clouds 31 1017 66 16093 1.5 110 16:38 08.07.2020
304 Clouds 30 1017 66 16093 1.5 110 16:18 08.07.2020
305 Clouds 30 1017 66 16093 1.5 110 15:58 08.07.2020
306 Clouds 30 1017 70 16093 2.53 145 15:38 08.07.2020
307 Rain 30 1017 70 16093 1.96 149 15:38 08.07.2020
308 Rain 29 1017 70 16093 1.96 149 15:19 08.07.2020
309 Rain 28 1017 79 16093 1.96 149 14:42 08.07.2020
310 Rain 28 1017 79 16093 0.61 230 14:23 08.07.2020
311 Clouds 27 1016 78 16093 0.61 230 13:57 08.07.2020
312 Clear 27 1016 83 16093 0.61 230 13:38 08.07.2020
313 Clouds 27 1016 78 16093 1.23 258 13:18 08.07.2020
314 Clouds 27 1016 78 16093 1.23 258 12:41 08.07.2020
315 Clouds 27 1016 78 16093 1.69 252 12:20 08.07.2020
316 Clouds 26 1016 83 16093 1.69 252 11:55 08.07.2020
317 Clouds 26 1016 83 16093 1.69 252 11:37 08.07.2020
318 Clouds 26 1016 83 16093 1.88 240 11:19 08.07.2020
319 Clouds 27 1016 78 16093 1.5 30 10:42 08.07.2020
320 Clouds 27 1016 78 16093 1.5 30 10:23 08.07.2020
321 Clouds 27 1016 78 16093 2.18 222 09:45 08.07.2020
322 Clouds 27 1016 78 16093 2.41 221 09:25 08.07.2020
323 Clouds 27 1017 78 16093 1.5 350 08:44 08.07.2020
324 Clouds 27 1017 78 16093 1.5 350 08:25 08.07.2020
325 Clouds 28 1018 70 16093 2.1 10 07:57 08.07.2020
326 Clouds 28 1018 70 16093 2.1 10 07:38 08.07.2020
327 Clouds 28 1018 70 16093 2.1 10 07:19 08.07.2020
328 Clouds 28 1018 74 16093 2.1 245 06:43 08.07.2020
329 Clouds 28 1018 74 16093 2.17 242 06:24 08.07.2020
330 Clouds 28 1018 74 16093 1.5 330 05:44 08.07.2020
331 Clouds 29 1018 70 16093 2.56 238 04:44 08.07.2020
332 Clouds 29 1017 66 16093 2.1 140 03:33 08.07.2020
333 Clouds 30 1017 62 16093 3.1 140 02:19 08.07.2020
334 Clouds 31 1016 59 16093 3.1 160 01:38 08.07.2020
335 Clouds 32 1016 59 16093 4.1 140 00:51 08.07.2020
336 Clouds 32 1016 59 16093 4.1 140 00:19 08.07.2020
337 Clouds 32 1017 59 16093 3.1 80 23:43 07.07.2020
338 Clouds 33 1017 59 16093 3.1 80 23:22 07.07.2020
339 Clouds 32 1017 55 16093 2.1 110 22:56 07.07.2020
340 Clouds 32 1017 55 16093 2.1 110 22:38 07.07.2020
341 Clouds 32 1017 55 16093 2.1 110 22:19 07.07.2020
342 Thunderstorm 32 1018 59 16093 4.62 138 21:42 07.07.2020
343 Thunderstorm 32 1018 59 16093 4.62 138 21:42 07.07.2020
344 Thunderstorm 33 1018 59 16093 4.56 132 21:22 07.07.2020
345 Thunderstorm 33 1018 59 16093 4.56 132 20:59 07.07.2020
346 Thunderstorm 33 1018 62 16093 4.56 132 20:41 07.07.2020
347 Thunderstorm 33 1019 66 16093 3.1 320 20:23 07.07.2020
348 Thunderstorm 33 1019 59 16093 3.6 140 19:58 07.07.2020
349 Thunderstorm 32 1019 59 16093 3.6 140 19:39 07.07.2020
350 Thunderstorm 33 1019 59 16093 3.6 140 19:19 07.07.2020
351 Rain 32 1019 62 16093 2.1 80 18:55 07.07.2020
352 Rain 32 1019 62 16093 2.1 80 18:37 07.07.2020
353 Rain 32 1019 62 16093 2.1 80 18:18 07.07.2020
354 Clouds 32 1019 62 16093 4.1 110 17:44 07.07.2020
355 Clouds 32 1019 62 16093 4.1 110 17:23 07.07.2020
356 Clouds 32 1019 62 16093 4.1 110 16:59 07.07.2020
357 Clouds 32 1019 70 16093 2.6 130 16:40 07.07.2020
358 Clouds 31 1019 66 16093 3.32 108 16:22 07.07.2020
359 Clouds 31 1019 74 16093 3.32 108 15:55 07.07.2020
360 Clouds 31 1019 74 16093 3.32 108 15:37 07.07.2020
361 Clouds 30 1019 74 16093 3.08 100 15:18 07.07.2020
362 Clouds 28 1018 83 16093 3.08 100 14:42 07.07.2020
363 Clouds 28 1018 83 16093 1.47 62 14:24 07.07.2020
364 Clouds 26 1018 83 16093 1.47 62 13:43 07.07.2020
365 Clouds 26 1018 83 16093 1.33 67 13:20 07.07.2020
366 Clouds 27 1018 83 16093 1.33 67 12:56 07.07.2020
367 Clouds 27 1018 83 16093 1.33 67 12:36 07.07.2020
368 Clouds 26 1018 83 16093 1.23 74 12:18 07.07.2020
369 Clouds 26 1017 83 16093 1.23 74 11:43 07.07.2020
370 Clouds 26 1017 83 16093 1.41 105 11:22 07.07.2020
371 Clouds 26 1017 83 16093 1.41 105 10:58 07.07.2020
372 Clouds 26 1017 83 16093 1.41 105 10:39 07.07.2020
373 Clouds 26 1017 83 16093 2.05 115 10:20 07.07.2020
374 Clouds 26 1018 78 16093 1.5 360 09:43 07.07.2020
375 Clouds 26 1018 78 16093 1.5 360 09:21 07.07.2020
376 Clouds 27 1018 78 16093 1.5 360 08:57 07.07.2020
377 Clouds 27 1018 78 16093 1.5 350 08:39 07.07.2020
378 Clouds 27 1018 78 16093 1.5 350 08:19 07.07.2020
379 Clouds 26 1019 83 16093 1.5 350 07:38 07.07.2020
380 Clouds 27 1019 83 16093 1.5 350 07:19 07.07.2020
381 Clouds 26 1019 83 16093 2.41 192 06:45 07.07.2020
382 Clouds 26 1019 83 16093 2.75 184 06:26 07.07.2020
383 Clouds 27 1019 78 16093 1.5 350 05:43 07.07.2020
384 Clouds 27 1018 78 16093 2.81 176 04:53 07.07.2020
385 Clouds 27 1018 70 16093 2.86 167 03:49 07.07.2020
386 Clouds 27 1018 70 16093 2.86 167 03:30 07.07.2020
387 Clouds 27 1018 70 16093 2.86 167 03:30 07.07.2020
388 Clouds 28 1018 70 16093 1.5 360 01:50 07.07.2020
389 Clouds 28 1018 70 16093 1.5 360 00:59 07.07.2020
390 Clouds 28 1018 74 16093 3.06 355 00:40 07.07.2020
391 Clouds 28 1018 74 16093 5.07 343 00:20 07.07.2020
392 Rain 27 1018 78 16093 1.5 360 23:44 06.07.2020
393 Rain 27 1018 78 16093 1.5 360 23:44 06.07.2020
394 Rain 27 1018 83 16093 5.53 307 23:25 06.07.2020
395 Rain 27 1018 83 16093 5.53 307 22:57 06.07.2020
396 Thunderstorm 27 1018 83 16093 5.53 307 22:57 06.07.2020
397 Rain 26 1019 83 11265 5.53 307 22:39 06.07.2020
398 Rain 27 1019 83 11265 4.05 221 22:18 06.07.2020
399 Thunderstorm 30 1018 59 16093 4.05 221 21:56 06.07.2020
400 Thunderstorm 29 1018 62 16093 1.5 220 21:37 06.07.2020
401 Thunderstorm 31 1018 59 16093 1.5 180 21:18 06.07.2020
402 Thunderstorm 30 1018 70 16093 1.5 0 20:41 06.07.2020
403 Thunderstorm 31 1018 70 16093 1.5 0 20:22 06.07.2020
404 Thunderstorm 31 1018 70 16093 1.5 0 19:59 06.07.2020
405 Rain 31 1019 66 16093 3.1 200 19:41 06.07.2020
406 Rain 31 1019 66 16093 3.1 200 19:23 06.07.2020
407 Clouds 29 1019 74 16093 3.1 160 18:58 06.07.2020
408 Clouds 29 1019 74 16093 3.1 160 18:40 06.07.2020
409 Clouds 29 1019 74 16093 3.1 160 18:22 06.07.2020
410 Rain 30 1019 70 16093 3.6 160 17:54 06.07.2020
411 Rain 30 1019 70 16093 3.6 160 17:36 06.07.2020
412 Rain 30 1019 70 16093 3.6 160 17:36 06.07.2020
413 Rain 30 1018 78 16093 2.9 141 17:18 06.07.2020
414 Rain 30 1018 66 12874 4.6 200 16:42 06.07.2020
415 Rain 31 1018 70 16093 3.6 140 16:23 06.07.2020
416 Clear 31 1018 74 16093 2.6 160 15:55 06.07.2020
417 Clear 31 1018 74 16093 2.6 160 15:37 06.07.2020
418 Clear 31 1018 74 16093 2.6 160 15:36 06.07.2020
419 Clear 30 1018 74 16093 2.6 160 15:18 06.07.2020
420 Clouds 29 1017 78 16093 2.19 142 14:41 06.07.2020
421 Clouds 28 1017 78 16093 1.86 203 14:23 06.07.2020
422 Clouds 28 1017 78 16093 1.86 203 13:59 06.07.2020
423 Clouds 27 1017 83 16093 1.86 203 13:40 06.07.2020
424 Clouds 26 1017 83 16093 1.85 206 13:21 06.07.2020
425 Clouds 25 1016 78 16093 1.85 206 12:44 06.07.2020
426 Clouds 25 1016 78 16093 1.55 204 12:20 06.07.2020
427 Clouds 25 1016 78 16093 1.55 204 11:59 06.07.2020
428 Clouds 25 1016 78 16093 1.55 204 11:40 06.07.2020
429 Clouds 26 1016 78 16093 1.58 192 11:22 06.07.2020
430 Clouds 26 1016 78 16093 1.58 192 10:58 06.07.2020
431 Clouds 25 1015 83 16093 1.58 192 10:58 06.07.2020
432 Clouds 25 1015 83 16093 1.58 192 10:40 06.07.2020
433 Clouds 25 1015 83 16093 1.58 189 10:19 06.07.2020
434 Clouds 25 1016 83 16093 3.1 90 09:46 06.07.2020
435 Clouds 25 1016 83 16093 3.1 90 09:22 06.07.2020
436 Rain 25 1016 83 16093 3.1 90 08:59 06.07.2020
437 Rain 25 1017 83 16093 1.89 216 08:40 06.07.2020
438 Rain 25 1017 83 16093 1.24 215 08:20 06.07.2020
439 Clouds 26 1018 74 16093 2.1 280 07:47 06.07.2020
440 Clouds 26 1018 74 16093 2.1 280 07:29 06.07.2020
441 Rain 25 1017 83 16093 2.1 240 06:49 06.07.2020
442 Rain 25 1017 83 16093 2.1 240 06:31 06.07.2020
443 Rain 25 1018 83 16093 4.6 230 05:44 06.07.2020
444 Rain 25 1018 83 16093 4.6 230 05:25 06.07.2020
445 Rain 25 1016 83 16093 2.1 190 03:52 06.07.2020
446 Rain 25 1017 78 16093 3.6 190 02:29 06.07.2020
447 Thunderstorm 26 1017 69 16093 2.1 50 01:45 06.07.2020
448 Thunderstorm 29 1015 55 16093 1.5 160 00:44 06.07.2020
449 Thunderstorm 30 1015 55 16093 1.5 160 00:22 06.07.2020
450 Thunderstorm 31 1015 62 16093 4.1 170 23:54 05.07.2020
451 Rain 31 1015 62 16093 4.1 170 23:36 05.07.2020
452 Rain 31 1015 70 16093 5.1 170 23:18 05.07.2020
453 Clouds 33 1015 59 16093 2.6 160 22:41 05.07.2020
454 Clouds 33 1015 59 16093 2.6 160 22:20 05.07.2020
455 Clouds 32 1015 59 16093 2.6 160 21:58 05.07.2020
456 Clouds 33 1015 56 16093 5.1 150 21:40 05.07.2020
457 Clouds 33 1015 56 16093 5.1 150 21:19 05.07.2020
458 Thunderstorm 32 1016 59 16093 8.2 170 20:58 05.07.2020
459 Thunderstorm 32 1016 59 16093 5.7 150 20:40 05.07.2020
460 Rain 32 1016 59 16093 5.7 150 20:21 05.07.2020
461 Rain 32 1016 59 16093 4.1 160 19:55 05.07.2020
462 Thunderstorm 32 1016 59 16093 4.1 160 19:37 05.07.2020
463 Clouds 33 1016 55 16093 2.1 160 19:18 05.07.2020
464 Thunderstorm 33 1016 49 16093 1.5 0 18:42 05.07.2020
465 Clouds 33 1016 55 16093 2.6 240 18:22 05.07.2020
466 Clouds 32 1016 55 16093 2.1 170 17:56 05.07.2020
467 Clouds 32 1016 55 16093 2.1 170 17:38 05.07.2020
468 Clouds 32 1016 55 16093 2.1 170 17:19 05.07.2020
469 Clouds 31 1016 62 16093 2.05 200 16:44 05.07.2020
470 Clouds 31 1016 62 16093 2.28 231 16:25 05.07.2020
471 Clouds 29 1016 66 16093 2.28 231 15:56 05.07.2020
472 Clouds 29 1016 66 16093 2.28 231 15:37 05.07.2020
473 Clouds 29 1016 66 16093 2.09 229 15:18 05.07.2020
474 Clouds 28 1016 70 16093 2.1 200 14:41 05.07.2020
475 Clouds 28 1016 70 16093 2.1 200 14:22 05.07.2020
476 Clouds 28 1015 78 16093 2.22 240 13:43 05.07.2020
477 Clouds 28 1015 78 16093 2.44 242 13:24 05.07.2020
478 Clouds 27 1014 78 16093 2.44 242 12:56 05.07.2020
479 Clouds 27 1014 78 16093 2.44 242 12:38 05.07.2020
480 Clouds 27 1014 78 16093 2.39 238 12:20 05.07.2020
481 Clouds 27 1014 78 16093 2.39 238 11:54 05.07.2020
482 Clouds 27 1014 78 16093 2.39 238 11:36 05.07.2020
483 Clouds 27 1014 78 16093 2.39 241 11:18 05.07.2020
484 Clouds 28 1014 74 16093 2.39 241 10:42 05.07.2020
485 Clouds 28 1014 74 16093 2.6 240 10:19 05.07.2020
486 Clouds 28 1014 74 16093 2.6 240 09:58 05.07.2020
487 Clouds 28 1014 74 16093 2.6 240 09:40 05.07.2020
488 Clouds 28 1014 74 16093 2.57 241 09:20 05.07.2020
489 Clouds 29 1015 74 16093 2.1 280 08:47 05.07.2020
490 Clouds 29 1015 74 16093 2.1 280 08:29 05.07.2020
491 Clouds 28 1015 70 16093 1.5 270 07:48 05.07.2020
492 Clouds 29 1015 70 16093 1.5 270 07:29 05.07.2020
493 Clear 29 1015 66 16093 2.1 260 06:52 05.07.2020
494 Clouds 29 1015 66 16093 1.5 220 05:42 05.07.2020
495 Clouds 30 1014 62 16093 3.6 200 03:35 05.07.2020
496 Clouds 30 1013 59 16093 4.6 210 02:43 05.07.2020
497 Clouds 31 1013 59 16093 4.6 210 02:25 05.07.2020
498 Clouds 31 1013 59 16093 5.1 210 01:41 05.07.2020
499 Clouds 31 1013 59 16093 5.1 210 01:18 05.07.2020
500 Clouds 31 1013 55 16093 3.1 180 00:40 05.07.2020
501 Clouds 31 1013 58 16093 4.1 240 00:21 05.07.2020
502 Clouds 32 1013 55 16093 5.1 200 23:47 04.07.2020
503 Clouds 32 1013 55 16093 5.1 200 23:28 04.07.2020
504 Clouds 33 1014 52 16093 4.6 190 22:57 04.07.2020
505 Clouds 33 1014 52 16093 4.6 190 22:37 04.07.2020
506 Clouds 33 1014 52 16093 4.6 190 22:19 04.07.2020
507 Clouds 33 1014 55 16093 4.6 150 21:43 04.07.2020
508 Thunderstorm 33 1014 49 16093 4.6 170 21:23 04.07.2020
509 Thunderstorm 32 1014 49 16093 4.6 170 20:58 04.07.2020
510 Thunderstorm 32 1015 59 16093 4.6 170 20:40 04.07.2020
511 Clouds 32 1015 55 16093 5.1 170 20:20 04.07.2020
512 Clouds 32 1015 62 16093 4.1 160 19:45 04.07.2020
513 Thunderstorm 33 1015 49 16093 3.45 185 19:22 04.07.2020
514 Clouds 33 1015 52 16093 3.1 270 18:57 04.07.2020
515 Clouds 33 1015 52 16093 3.1 270 18:39 04.07.2020
516 Clouds 32 1015 52 16093 3.1 270 18:21 04.07.2020
517 Clouds 32 1015 59 16093 1.5 320 17:44 04.07.2020
518 Clouds 32 1015 59 16093 1.5 320 17:26 04.07.2020
519 Clouds 31 1015 59 16093 1.5 320 16:58 04.07.2020
520 Clouds 31 1015 62 16093 0.73 219 16:38 04.07.2020
521 Clouds 31 1015 62 16093 1.49 313 16:20 04.07.2020
522 Clouds 31 1015 62 16093 1.49 313 15:55 04.07.2020
523 Clouds 30 1015 62 16093 1.49 313 15:37 04.07.2020
524 Clouds 30 1015 62 16093 2.26 323 15:18 04.07.2020
525 Clouds 29 1015 74 16093 1.5 0 14:38 04.07.2020
526 Clouds 28 1015 74 16093 1.5 0 14:19 04.07.2020
527 Clouds 28 1015 74 16093 1.5 0 13:59 04.07.2020
528 Clouds 27 1015 78 16093 2.47 312 13:40 04.07.2020
529 Clouds 27 1015 78 16093 2.71 297 13:18 04.07.2020
530 Clouds 27 1015 78 16093 2.71 297 13:18 04.07.2020
531 Clouds 27 1014 78 16093 1.5 300 12:42 04.07.2020
532 Clouds 27 1014 78 16093 1.5 300 12:21 04.07.2020
533 Clouds 27 1014 78 16093 3.17 284 11:56 04.07.2020
534 Clouds 28 1014 78 16093 3.17 284 11:38 04.07.2020
535 Clouds 28 1014 78 16093 3.35 281 11:19 04.07.2020
536 Clouds 27 1014 78 16093 1.5 280 10:42 04.07.2020
537 Clouds 28 1014 78 16093 1.5 280 10:22 04.07.2020
538 Clouds 28 1014 78 16093 1.5 280 09:59 04.07.2020
539 Clouds 28 1014 74 16093 2.6 270 09:40 04.07.2020
540 Clouds 28 1014 74 16093 2.6 270 09:20 04.07.2020
541 Clouds 28 1014 74 16093 1.5 250 08:48 04.07.2020
542 Clouds 28 1014 74 16093 1.5 250 08:30 04.07.2020
543 Clouds 28 1014 74 16093 1.5 250 08:30 04.07.2020
544 Clouds 28 1014 78 16093 2.1 240 07:54 04.07.2020
545 Clouds 28 1014 78 16093 2.1 240 07:35 04.07.2020
546 Clouds 29 1015 74 16093 1.5 240 06:56 04.07.2020
547 Clouds 29 1015 74 16093 1.5 240 06:23 04.07.2020
548 Clouds 29 1015 74 16093 1.5 240 06:23 04.07.2020
549 Clouds 29 1015 70 16093 3.1 220 05:40 04.07.2020
550 Clouds 30 1015 70 16093 3.1 220 04:57 04.07.2020
551 Clouds 30 1013 70 16093 2.1 180 03:34 04.07.2020
552 Clouds 30 1013 66 16093 3.6 210 02:35 04.07.2020
553 Clouds 31 1013 66 16093 1.5 0 01:37 04.07.2020
554 Clouds 30 1013 74 16093 2.1 0 00:47 04.07.2020
555 Clouds 30 1013 74 16093 2.1 0 00:29 04.07.2020
556 Rain 30 1014 83 16093 6.39 179 23:41 03.07.2020
557 Clear 31 1013 58 16093 5.7 180 23:19 03.07.2020
558 Thunderstorm 31 1014 59 16093 6.7 180 22:59 03.07.2020
559 Thunderstorm 32 1014 62 16093 4.1 130 22:39 03.07.2020
560 Thunderstorm 32 1014 62 16093 4.1 130 22:39 03.07.2020
561 Thunderstorm 32 1014 62 16093 4.1 130 22:21 03.07.2020
562 Clouds 33 1014 56 16093 5.1 120 21:56 03.07.2020
563 Clouds 33 1014 56 16093 5.1 120 21:37 03.07.2020
564 Clouds 34 1014 56 16093 5.1 120 21:18 03.07.2020
565 Clouds 34 1015 52 16093 2.6 140 20:42 03.07.2020
566 Clouds 34 1015 52 16093 2.6 140 20:24 03.07.2020
567 Clouds 34 1015 49 16093 1.5 0 19:42 03.07.2020
568 Clouds 34 1015 49 16093 1.5 0 19:21 03.07.2020
569 Clouds 33 1016 52 16093 4.11 148 18:58 03.07.2020
570 Clouds 33 1016 52 16093 4.11 148 18:40 03.07.2020
571 Clouds 33 1016 52 16093 2.9 156 18:22 03.07.2020
572 Clouds 33 1016 52 16093 1.5 0 17:45 03.07.2020
573 Clouds 33 1016 52 16093 1.5 0 17:23 03.07.2020
574 Clouds 32 1016 52 16093 1.5 0 16:58 03.07.2020
575 Clouds 32 1016 62 16093 1.84 188 16:39 03.07.2020
576 Clouds 31 1016 62 16093 1.7 227 16:19 03.07.2020
577 Clouds 31 1015 62 16093 1.7 227 15:39 03.07.2020
578 Clouds 30 1015 62 16093 1.93 248 15:20 03.07.2020
579 Clouds 29 1015 74 16093 1.5 220 14:55 03.07.2020
580 Clouds 29 1015 74 16093 1.5 220 14:36 03.07.2020
581 Clouds 29 1015 74 16093 1.5 220 14:36 03.07.2020
582 Clouds 29 1015 74 16093 1.5 220 14:18 03.07.2020
583 Clouds 28 1015 74 16093 2.6 220 13:41 03.07.2020
584 Clouds 27 1015 74 16093 2.6 220 13:22 03.07.2020
585 Clouds 27 1014 74 16093 1.5 200 12:43 03.07.2020
586 Clouds 27 1014 74 16093 1.5 200 12:22 03.07.2020
587 Clouds 27 1014 74 16093 1.5 190 11:56 03.07.2020
588 Clouds 27 1014 74 16093 1.5 190 11:38 03.07.2020
589 Clouds 27 1014 74 16093 1.5 190 11:19 03.07.2020
590 Clouds 27 1014 74 16093 1.5 210 10:42 03.07.2020
591 Clouds 27 1014 74 16093 1.5 210 10:21 03.07.2020
592 Clouds 27 1014 74 16093 1.5 210 09:59 03.07.2020
593 Clouds 27 1015 69 16093 1.5 230 09:40 03.07.2020
594 Clouds 28 1015 69 16093 1.5 230 09:21 03.07.2020
595 Clouds 28 1015 69 16093 1.5 230 08:57 03.07.2020
596 Clouds 28 1015 65 16093 1.5 230 08:38 03.07.2020
597 Clouds 28 1015 65 16093 1.5 230 08:18 03.07.2020
598 Clouds 28 1015 62 16093 2.97 268 07:47 03.07.2020
599 Clouds 28 1015 62 16093 3.47 255 07:22 03.07.2020
600 Clouds 28 1016 62 16093 3.47 255 06:37 03.07.2020
601 Clouds 28 1015 69 16093 3.8 238 05:55 03.07.2020
602 Clouds 28 1015 69 16093 3.8 238 05:55 03.07.2020
603 Clouds 28 1015 69 16093 1.5 160 04:26 03.07.2020
604 Rain 28 1015 66 16093 1.5 250 02:57 03.07.2020
605 Rain 28 1015 66 16093 1.5 250 02:32 03.07.2020
606 Rain 28 1015 69 16093 4.6 240 01:43 03.07.2020
607 Rain 28 1015 69 16093 4.6 240 01:20 03.07.2020
608 Rain 29 1015 69 16093 4.6 240 01:20 03.07.2020
609 Clouds 30 1014 66 16093 4.1 150 00:42 03.07.2020
610 Clouds 32 1014 66 16093 4.1 150 23:59 02.07.2020
611 Clouds 33 1014 55 16093 5.1 120 23:39 02.07.2020
612 Clouds 33 1014 55 16093 5.1 120 23:19 02.07.2020
613 Clouds 34 1015 49 16093 5.7 140 22:56 02.07.2020
614 Clouds 34 1015 49 16093 5.7 140 22:38 02.07.2020
615 Clouds 33 1015 49 16093 5.7 140 22:19 02.07.2020
616 Clouds 34 1015 46 16093 5.7 110 21:42 02.07.2020
617 Rain 33 1015 46 16093 5.7 110 21:21 02.07.2020
618 Clouds 33 1015 46 16093 5.7 110 20:59 02.07.2020
619 Clouds 33 1016 49 16093 4.6 130 20:41 02.07.2020
620 Clouds 33 1016 49 16093 4.6 130 20:20 02.07.2020
621 Clouds 33 1016 59 16093 5.7 120 19:56 02.07.2020
622 Clouds 33 1016 59 16093 5.7 120 19:38 02.07.2020
623 Clouds 33 1016 59 16093 5.7 120 19:38 02.07.2020
624 Clouds 33 1016 59 16093 5.7 120 19:19 02.07.2020
625 Clouds 33 1016 52 16093 1.5 0 18:55 02.07.2020
626 Clouds 33 1016 52 16093 1.5 0 18:37 02.07.2020
627 Clouds 33 1016 52 16093 1.5 0 18:18 02.07.2020
628 Clouds 32 1016 59 16093 3.73 163 17:39 02.07.2020
629 Clouds 32 1016 59 16093 3.04 174 17:20 02.07.2020
630 Clouds 31 1016 66 16093 3.04 174 16:55 02.07.2020
631 Clouds 31 1016 66 16093 3.04 174 16:55 02.07.2020
632 Clouds 31 1016 66 16093 3.04 174 16:37 02.07.2020
633 Clouds 31 1016 66 16093 2.61 181 16:18 02.07.2020
634 Clouds 30 1016 66 16093 2.61 181 15:39 02.07.2020
635 Clouds 30 1016 66 16093 2.36 192 15:21 02.07.2020
636 Clouds 29 1015 74 16093 1.5 220 14:46 02.07.2020
637 Clouds 28 1015 74 16093 1.5 220 14:28 02.07.2020
638 Clouds 26 1015 83 16093 1.78 211 13:58 02.07.2020
639 Clear 26 1015 88 16093 1.78 211 13:58 02.07.2020
640 Clouds 26 1015 83 16093 1.78 211 13:40 02.07.2020
641 Clouds 26 1015 83 16093 1.73 210 13:20 02.07.2020
642 Clouds 26 1015 83 16093 1.73 210 12:58 02.07.2020
643 Clouds 26 1015 83 16093 1.73 210 12:39 02.07.2020
644 Rain 25 1015 83 16093 1.91 212 12:21 02.07.2020
645 Clouds 25 1015 83 16093 1.91 212 11:44 02.07.2020
646 Clouds 25 1015 83 16093 2.28 223 11:26 02.07.2020
647 Clouds 26 1015 78 16093 2.28 223 10:50 02.07.2020
648 Clouds 26 1015 78 16093 2.53 215 10:29 02.07.2020
649 Clouds 26 1015 78 16093 2.53 215 09:59 02.07.2020
650 Clouds 26 1015 78 16093 2.53 215 09:41 02.07.2020
651 Clouds 26 1015 78 16093 1.63 204 09:21 02.07.2020
652 Clouds 26 1016 88 16093 1.63 204 08:56 02.07.2020
653 Clouds 26 1016 88 16093 1.63 204 08:37 02.07.2020
654 Clouds 26 1016 88 16093 1.09 231 08:18 02.07.2020
655 Clouds 26 1016 83 16093 1.09 231 07:40 02.07.2020
656 Clouds 26 1016 83 16093 1.27 268 07:20 02.07.2020
657 Clouds 25 1017 83 16093 1.27 268 06:41 02.07.2020
658 Clouds 25 1017 83 16093 1.22 259 06:20 02.07.2020
659 Clouds 25 1017 83 16093 1.22 259 05:45 02.07.2020
660 Rain 25 1016 83 16093 3.08 335 04:21 02.07.2020
661 Rain 25 1017 83 16093 2.1 50 03:32 02.07.2020
662 Clear 31 1014 62 16093 5.1 140 01:44 02.07.2020
663 Clouds 33 1014 55 16093 4.6 140 00:26 02.07.2020
664 Clouds 33 1014 58 16093 6.76 170 23:51 01.07.2020
665 Clear 33 1014 52 16093 6.2 200 23:31 01.07.2020
666 Thunderstorm 34 1014 49 16093 3.6 220 22:57 01.07.2020
667 Rain 34 1014 52 16093 5.7 140 22:38 01.07.2020
668 Rain 34 1014 46 16093 4.6 150 22:20 01.07.2020
669 Clouds 34 1015 46 16093 5.7 150 21:59 01.07.2020
670 Clouds 34 1015 46 16093 5.7 150 21:41 01.07.2020
671 Thunderstorm 34 1015 49 16093 4.6 130 21:22 01.07.2020
672 Thunderstorm 33 1015 49 16093 4.6 130 20:59 01.07.2020
673 Clouds 34 1016 47 16093 7.2 130 20:41 01.07.2020
674 Clouds 34 1016 47 16093 7.2 130 20:23 01.07.2020
675 Thunderstorm 33 1016 52 16093 4.6 170 19:56 01.07.2020
676 Thunderstorm 34 1016 52 16093 4.6 170 19:38 01.07.2020
677 Clouds 33 1016 49 16093 4.1 110 19:19 01.07.2020
678 Rain 33 1017 49 16093 2.1 150 18:42 01.07.2020
679 Rain 33 1017 49 16093 2.1 150 18:21 01.07.2020
680 Rain 33 1017 49 16093 2.1 150 18:21 01.07.2020
681 Rain 33 1017 49 16093 2.1 150 18:21 01.07.2020
682 Clouds 32 1017 49 16093 2.1 150 17:59 01.07.2020
683 Clouds 32 1017 59 16093 4.02 169 17:39 01.07.2020
684 Clouds 32 1017 59 16093 2.99 182 17:19 01.07.2020
685 Clouds 32 1017 59 16093 1.5 0 16:47 01.07.2020
686 Clouds 31 1017 59 16093 1.5 0 16:28 01.07.2020
687 Clouds 31 1016 66 16093 1.5 0 15:56 01.07.2020
688 Clouds 31 1016 66 16093 1.5 0 15:38 01.07.2020
689 Clouds 30 1016 66 16093 1.5 0 15:20 01.07.2020
690 Clouds 30 1016 74 16093 1.5 220 14:44 01.07.2020
691 Clouds 29 1016 74 16093 1.5 220 14:22 01.07.2020
692 Clouds 28 1016 74 16093 1.5 220 13:58 01.07.2020
693 Clouds 28 1015 78 16093 1.5 250 13:39 01.07.2020
694 Clouds 27 1015 78 16093 1.5 250 13:20 01.07.2020
695 Clouds 28 1015 78 16093 2.1 210 12:57 01.07.2020
696 Clouds 28 1015 78 16093 2.1 210 12:38 01.07.2020
697 Clouds 28 1015 78 16093 2.1 210 12:20 01.07.2020
698 Clouds 28 1015 78 16093 3.1 220 11:44 01.07.2020
699 Clouds 28 1015 78 16093 3.1 220 11:24 01.07.2020
700 Clouds 28 1015 78 16093 3.1 220 10:58 01.07.2020
701 Clouds 28 1015 74 16093 1.5 200 10:40 01.07.2020
702 Clouds 28 1015 74 16093 1.5 200 10:21 01.07.2020
703 Clouds 28 1015 74 16093 1.5 210 09:54 01.07.2020
704 Clouds 28 1015 74 16093 1.5 210 09:36 01.07.2020
705 Clouds 28 1015 74 16093 1.5 210 09:18 01.07.2020
706 Clouds 28 1015 74 16093 2.2 277 08:41 01.07.2020
707 Clouds 28 1015 74 16093 2.62 259 08:22 01.07.2020
708 Clouds 28 1016 74 16093 2.62 259 07:57 01.07.2020
709 Clouds 28 1016 74 16093 2.62 259 07:36 01.07.2020
710 Clouds 28 1016 74 16093 3.03 253 07:18 01.07.2020
711 Clouds 28 1016 70 16093 2.1 230 06:48 01.07.2020
712 Clouds 28 1016 70 16093 2.1 230 06:27 01.07.2020
713 Clouds 29 1016 66 16093 3.1 190 04:31 01.07.2020
714 Clouds 30 1016 62 16093 3.6 160 03:46 01.07.2020
715 Clouds 30 1016 62 16093 3.6 160 03:26 01.07.2020
716 Clouds 30 1015 62 16093 4.6 150 02:41 01.07.2020
717 Thunderstorm 30 1015 62 16093 4.6 140 01:47 01.07.2020
718 Clouds 32 1015 59 16093 5.7 120 00:42 01.07.2020
719 Clouds 32 1015 59 16093 5.7 120 00:23 01.07.2020
720 Clouds 33 1015 52 16093 4.1 140 23:41 30.06.2020
721 Clouds 33 1015 52 16093 4.1 140 23:22 30.06.2020
722 Clouds 33 1015 52 16093 5.1 130 22:56 30.06.2020
723 Clouds 33 1015 52 16093 5.1 130 22:38 30.06.2020
724 Clouds 34 1015 52 16093 5.1 130 22:18 30.06.2020
725 Clouds 34 1016 39 16093 6.66 154 21:40 30.06.2020
726 Clouds 34 1016 39 16093 5.66 152 21:19 30.06.2020
727 Clouds 34 1016 41 16093 3.1 0 20:43 30.06.2020
728 Clouds 34 1016 41 16093 3.1 0 20:21 30.06.2020
729 Clouds 34 1017 46 16093 1.5 70 19:59 30.06.2020
730 Clouds 34 1017 46 16093 1.5 70 19:59 30.06.2020
731 Clouds 34 1017 46 16093 1.5 70 19:39 30.06.2020
732 Clouds 34 1017 46 16093 1.5 70 19:19 30.06.2020
733 Clouds 33 1017 52 16093 1.5 150 18:42 30.06.2020
734 Clouds 33 1017 52 16093 1.5 150 18:21 30.06.2020
735 Clouds 33 1017 52 16093 2.6 0 17:57 30.06.2020
736 Clouds 33 1017 52 16093 2.6 0 17:37 30.06.2020
737 Clouds 32 1017 52 16093 2.6 0 17:18 30.06.2020
738 Clouds 32 1017 52 16093 1.5 0 16:41 30.06.2020
739 Clouds 31 1017 52 16093 1.5 0 16:23 30.06.2020
740 Clouds 31 1017 52 16093 1.5 0 15:57 30.06.2020
741 Clouds 31 1017 58 16093 2.1 270 15:39 30.06.2020
742 Clouds 30 1017 58 16093 2.1 270 15:20 30.06.2020
743 Clouds 29 1017 74 16093 1.58 224 14:47 30.06.2020
744 Clouds 29 1017 74 16093 1.58 224 14:47 30.06.2020
745 Clouds 28 1017 74 16093 2.02 218 14:22 30.06.2020
746 Clouds 28 1017 74 16093 2.02 218 13:59 30.06.2020
747 Clouds 26 1016 78 16093 1.5 200 13:39 30.06.2020
748 Clear 26 1016 88 16093 2.07 226 13:20 30.06.2020
749 Clouds 26 1015 83 16093 2.07 226 12:57 30.06.2020
750 Clouds 26 1015 83 16093 2.07 226 12:39 30.06.2020
751 Clouds 26 1015 83 16093 1.65 228 12:20 30.06.2020
752 Clouds 26 1015 78 16093 1.65 228 11:57 30.06.2020
753 Clouds 26 1015 78 16093 1.65 228 11:38 30.06.2020
754 Clouds 27 1015 78 16093 1.68 230 11:19 30.06.2020
755 Clouds 27 1015 74 16093 1.68 230 10:55 30.06.2020
756 Clouds 32 1019 62 16093 3.1 130 16:38 28.06.2020
757 Clouds 32 1019 62 16093 3.1 130 16:19 28.06.2020
758 Clouds 31 1018 66 16093 3.6 130 15:55 28.06.2020
759 Clouds 31 1018 66 16093 3.6 130 15:37 28.06.2020
760 Clouds 30 1018 66 16093 3.6 130 15:18 28.06.2020
761 Clouds 29 1018 70 16093 2.1 110 14:42 28.06.2020
762 Clouds 30 1018 70 16093 2.1 110 14:24 28.06.2020
763 Clouds 29 1017 74 16093 3.1 100 13:55 28.06.2020
764 Clouds 28 1017 74 16093 3.1 100 13:36 28.06.2020
765 Clouds 28 1017 74 16093 3.1 100 13:18 28.06.2020
766 Clouds 28 1017 74 16093 2.6 110 12:55 28.06.2020
767 Clouds 28 1017 74 16093 2.6 110 12:55 28.06.2020
768 Clouds 28 1017 74 16093 2.6 110 12:36 28.06.2020
769 Clouds 28 1017 74 16093 2.6 110 12:18 28.06.2020
770 Clouds 28 1017 70 16093 3.1 90 11:42 28.06.2020
771 Clouds 28 1017 70 16093 3.1 90 11:21 28.06.2020
772 Clouds 28 1017 70 16093 3.1 90 10:59 28.06.2020
773 Clouds 28 1017 70 16093 3.1 90 10:59 28.06.2020
774 Clouds 28 1017 74 16093 3.6 90 10:40 28.06.2020
775 Clouds 28 1017 74 16093 3.6 90 10:22 28.06.2020
776 Clouds 28 1017 70 16093 4.1 110 09:42 28.06.2020
777 Clouds 28 1017 70 16093 4.1 110 09:23 28.06.2020
778 Clouds 28 1017 70 16093 4.1 110 08:57 28.06.2020
779 Clouds 28 1018 74 16093 4.1 90 08:39 28.06.2020
780 Clouds 28 1018 74 16093 4.1 90 08:20 28.06.2020
781 Clouds 28 1019 74 16093 5.1 100 07:37 28.06.2020
782 Clouds 28 1019 74 16093 4.6 90 06:57 28.06.2020
783 Clouds 28 1019 74 16093 4.6 90 06:32 28.06.2020
784 Clouds 28 1019 74 16093 3.6 70 05:50 28.06.2020
785 Clouds 29 1019 70 16093 5.1 80 04:36 28.06.2020
786 Clouds 29 1018 70 16093 4.6 80 03:18 28.06.2020
787 Clear 29 1018 66 16093 4.1 100 02:22 28.06.2020
788 Clouds 30 1017 59 16093 4.1 80 01:46 28.06.2020
789 Clouds 30 1017 59 16093 4.1 80 01:22 28.06.2020
790 Clouds 31 1018 59 16093 4.6 90 00:31 28.06.2020
791 Clouds 32 1018 55 16093 4.6 100 23:58 27.06.2020
792 Clouds 32 1018 55 16093 4.6 100 23:40 27.06.2020
793 Clouds 32 1018 55 16093 4.6 100 23:21 27.06.2020
794 Clouds 32 1018 55 16093 4.1 110 22:54 27.06.2020
795 Clouds 32 1018 55 16093 4.1 110 22:36 27.06.2020
796 Clouds 32 1018 55 16093 4.1 110 22:18 27.06.2020
797 Clouds 33 1019 52 16093 5.1 100 21:42 27.06.2020
798 Clouds 33 1019 52 16093 5.1 100 21:20 27.06.2020
799 Clouds 33 1020 59 16093 5.7 100 20:56 27.06.2020
800 Clouds 33 1020 59 16093 5.7 100 20:37 27.06.2020
801 Clouds 33 1020 59 16093 5.7 100 20:18 27.06.2020
802 Clouds 33 1020 59 16093 5.1 110 19:38 27.06.2020
803 Clouds 33 1020 59 16093 5.1 110 19:19 27.06.2020
804 Clouds 33 1020 59 16093 5.1 90 18:57 27.06.2020
805 Clouds 32 1020 59 16093 5.1 90 18:37 27.06.2020
806 Clouds 32 1020 59 16093 5.1 90 18:19 27.06.2020
807 Clouds 32 1020 59 16093 4.6 80 17:41 27.06.2020
808 Clouds 32 1020 59 16093 4.6 80 17:41 27.06.2020
809 Clouds 32 1020 59 16093 4.6 80 17:20 27.06.2020
810 Clouds 32 1020 59 16093 4.6 80 16:57 27.06.2020
811 Clouds 31 1020 62 16093 4.1 70 16:38 27.06.2020
812 Clouds 31 1020 62 16093 4.1 70 16:19 27.06.2020
813 Clouds 30 1020 66 16093 5.1 60 15:43 27.06.2020
814 Clouds 30 1020 66 16093 5.1 60 15:24 27.06.2020
815 Clouds 30 1020 66 16093 5.1 60 14:57 27.06.2020
816 Clouds 30 1019 70 16093 3.1 70 14:38 27.06.2020
817 Clouds 29 1019 70 16093 3.1 70 14:19 27.06.2020
818 Clouds 29 1019 74 16093 3.6 90 13:42 27.06.2020
819 Clouds 28 1019 74 16093 3.6 90 13:20 27.06.2020
820 Clouds 28 1019 74 16093 4.6 90 12:58 27.06.2020
821 Clouds 28 1019 74 16093 4.6 90 12:40 27.06.2020
822 Clouds 28 1019 74 16093 4.6 90 12:21 27.06.2020
823 Clouds 28 1019 74 16093 4.6 90 11:57 27.06.2020
824 Clouds 28 1019 74 16093 4.6 90 11:37 27.06.2020
825 Clouds 28 1019 74 16093 4.6 90 11:37 27.06.2020
826 Clouds 28 1019 74 16093 4.6 90 11:19 27.06.2020
827 Clouds 28 1019 74 16093 3.6 90 10:40 27.06.2020
828 Clouds 28 1019 74 16093 3.6 90 10:19 27.06.2020
829 Clouds 28 1019 74 16093 3.6 90 09:57 27.06.2020
830 Clouds 28 1019 74 16093 1.5 40 09:38 27.06.2020
831 Clouds 28 1019 74 16093 1.5 40 09:20 27.06.2020
832 Clouds 28 1020 74 16093 3.1 50 08:41 27.06.2020
833 Clouds 28 1020 74 16093 3.1 50 08:22 27.06.2020
834 Clouds 28 1021 78 16093 3.1 60 07:47 27.06.2020
835 Clouds 28 1021 78 16093 3.1 60 07:25 27.06.2020
836 Clouds 29 1021 74 16093 5.1 90 06:51 27.06.2020
837 Clouds 29 1021 74 16093 5.1 90 06:33 27.06.2020
838 Clouds 29 1020 70 16093 4.6 60 04:24 27.06.2020
839 Clouds 29 1020 70 16093 4.6 60 03:59 27.06.2020
840 Clouds 29 1020 70 16093 4.1 70 03:41 27.06.2020
841 Clear 29 1020 70 16093 5.1 90 02:39 27.06.2020
842 Clear 29 1020 70 16093 5.1 90 02:20 27.06.2020
843 Clear 30 1020 62 16093 5.7 70 01:24 27.06.2020
844 Clouds 31 1020 62 16093 4.6 60 00:41 27.06.2020
845 Clouds 32 1020 59 16093 6.2 60 23:47 26.06.2020
846 Clouds 32 1020 59 16093 6.2 60 23:27 26.06.2020
847 Clouds 32 1020 59 16093 6.2 60 22:57 26.06.2020
848 Clouds 33 1020 52 16093 4.1 100 22:39 26.06.2020
849 Clouds 32 1020 52 16093 4.1 100 22:20 26.06.2020
850 Clouds 33 1020 52 16093 4.1 100 21:57 26.06.2020
851 Clouds 33 1021 52 16093 4.1 110 21:38 26.06.2020
852 Clouds 33 1021 52 16093 4.1 110 21:20 26.06.2020
853 Clouds 33 1021 52 16093 4.1 110 21:20 26.06.2020
854 Clouds 33 1021 49 16093 4.6 110 20:46 26.06.2020
855 Clouds 33 1021 49 16093 4.6 110 20:26 26.06.2020
856 Clouds 33 1022 49 16093 4.6 100 19:47 26.06.2020
857 Clouds 33 1022 49 16093 4.6 100 19:24 26.06.2020
858 Clouds 33 1022 49 16093 4.6 100 18:58 26.06.2020
859 Clouds 33 1022 52 16093 6.2 130 18:38 26.06.2020
860 Clouds 32 1022 52 16093 6.2 130 18:20 26.06.2020
861 Clouds 32 1022 62 16093 6.2 120 17:44 26.06.2020
862 Clouds 32 1022 62 16093 6.2 120 17:26 26.06.2020
863 Clouds 32 1022 62 16093 7.2 110 16:51 26.06.2020
864 Clouds 31 1022 62 16093 7.2 110 16:29 26.06.2020
865 Clouds 31 1022 62 16093 7.2 110 15:58 26.06.2020
866 Clouds 31 1022 66 16093 6.7 100 15:39 26.06.2020
867 Clouds 30 1022 66 16093 6.7 100 15:21 26.06.2020
868 Clouds 30 1022 66 16093 6.7 100 14:57 26.06.2020
869 Clouds 30 1021 70 16093 6.7 90 14:38 26.06.2020
870 Clouds 30 1021 70 16093 6.7 90 14:20 26.06.2020
871 Clouds 29 1020 74 16093 5.1 90 13:44 26.06.2020
872 Clouds 29 1020 74 16093 5.1 90 13:23 26.06.2020
873 Clouds 28 1020 74 16093 3.6 80 12:56 26.06.2020
874 Clouds 28 1020 74 16093 3.6 80 12:38 26.06.2020
875 Clouds 28 1020 74 16093 3.6 80 12:18 26.06.2020
876 Clouds 29 1020 74 16093 2.6 100 11:56 26.06.2020
877 Clouds 29 1020 74 16093 2.6 100 11:56 26.06.2020
878 Clouds 28 1020 74 16093 2.6 100 11:37 26.06.2020
879 Clouds 29 1020 74 16093 2.6 100 11:18 26.06.2020
880 Clouds 29 1020 74 16093 4.1 100 10:55 26.06.2020
881 Clouds 29 1020 74 16093 4.1 100 10:37 26.06.2020
882 Clouds 29 1020 74 16093 4.1 100 10:18 26.06.2020
883 Clouds 29 1021 74 16093 3.6 90 09:41 26.06.2020
884 Clouds 29 1021 74 16093 3.6 90 09:19 26.06.2020
885 Clouds 29 1021 74 16093 5.7 90 08:45 26.06.2020
886 Clouds 29 1021 74 16093 5.7 90 08:27 26.06.2020
887 Clouds 29 1021 74 16093 5.1 80 07:48 26.06.2020
888 Clouds 29 1021 74 16093 5.1 80 07:23 26.06.2020
889 Clouds 29 1021 74 16093 4.1 80 06:52 26.06.2020
890 Clouds 29 1021 74 16093 4.1 80 06:30 26.06.2020
891 Clouds 29 1021 74 16093 4.6 100 05:53 26.06.2020
892 Clouds 29 1021 74 16093 4.6 100 05:21 26.06.2020
893 Clouds 30 1019 66 16093 4.6 90 02:32 26.06.2020
894 Clouds 31 1019 59 16093 5.1 80 01:39 26.06.2020
895 Clouds 32 1019 55 16093 4.6 110 00:52 26.06.2020
896 Clouds 32 1019 55 16093 4.6 110 00:31 26.06.2020
897 Clouds 32 1019 52 16093 5.1 110 23:48 25.06.2020
898 Clouds 32 1019 52 16093 5.1 110 23:22 25.06.2020
899 Clouds 33 1019 52 16093 5.1 110 22:58 25.06.2020
900 Clouds 33 1019 52 16093 6.2 80 22:39 25.06.2020
901 Clouds 33 1019 52 16093 6.2 80 22:20 25.06.2020
902 Clouds 33 1019 52 16093 6.2 80 21:58 25.06.2020
903 Clouds 33 1020 59 16093 5.7 90 21:39 25.06.2020
904 Clouds 33 1020 59 16093 5.7 90 21:21 25.06.2020
905 Clouds 34 1020 56 16093 4.6 110 20:57 25.06.2020
906 Clouds 33 1020 56 16093 4.6 110 20:39 25.06.2020
907 Clouds 33 1020 56 16093 4.6 110 20:21 25.06.2020
908 Clouds 33 1020 63 16093 4.6 120 19:54 25.06.2020
909 Clouds 33 1020 63 16093 4.6 120 19:36 25.06.2020
910 Clouds 33 1020 59 16093 6.2 110 19:18 25.06.2020
911 Clouds 33 1020 59 16093 6.2 110 18:39 25.06.2020
912 Clouds 33 1020 59 16093 6.2 110 18:21 25.06.2020
913 Clouds 33 1020 59 16093 4.6 110 17:45 25.06.2020
914 Clouds 32 1020 59 16093 4.6 110 17:20 25.06.2020
915 Clouds 32 1020 59 16093 4.6 110 16:59 25.06.2020
916 Clouds 32 1020 62 16093 4.1 140 16:40 25.06.2020
917 Clouds 32 1020 62 16093 4.1 140 16:19 25.06.2020
918 Clouds 31 1020 62 16093 4.6 130 15:43 25.06.2020
919 Clouds 31 1020 62 16093 4.6 130 15:25 25.06.2020
920 Clouds 30 1019 70 16093 4.6 100 14:56 25.06.2020
921 Clouds 30 1019 70 16093 4.6 100 14:37 25.06.2020
922 Clouds 30 1019 70 16093 4.6 100 14:19 25.06.2020
923 Clouds 29 1019 79 16093 2.1 120 13:42 25.06.2020
924 Clouds 29 1019 79 16093 2.1 120 13:20 25.06.2020
925 Clouds 28 1019 79 16093 2.1 120 12:59 25.06.2020
926 Clouds 28 1019 79 16093 2.1 120 12:59 25.06.2020
927 Clouds 28 1018 74 16093 1.5 110 12:40 25.06.2020
928 Clouds 28 1018 74 16093 1.5 110 12:20 25.06.2020
929 Clouds 28 1017 79 16093 3.1 100 11:43 25.06.2020
930 Clouds 28 1017 79 16093 3.1 100 11:22 25.06.2020
931 Clouds 29 1018 74 16093 2.6 90 10:45 25.06.2020
932 Clouds 29 1018 74 16093 2.6 90 10:26 25.06.2020
933 Clouds 29 1018 74 16093 2.6 90 09:59 25.06.2020
934 Clouds 29 1018 74 16093 3.6 90 09:40 25.06.2020
935 Clouds 29 1018 74 16093 3.6 90 09:20 25.06.2020
936 Clouds 28 1018 79 16093 3.6 100 08:43 25.06.2020
937 Clouds 29 1018 79 16093 3.6 100 08:19 25.06.2020
938 Clouds 29 1018 74 16093 4.1 100 07:45 25.06.2020
939 Clouds 29 1018 74 16093 4.1 100 07:26 25.06.2020
940 Clouds 29 1018 83 16093 3.1 130 06:48 25.06.2020
941 Clouds 29 1018 83 16093 3.1 130 06:26 25.06.2020
942 Clouds 29 1018 74 16093 3.1 120 05:51 25.06.2020
943 Clear 29 1016 74 16093 3.6 150 03:56 25.06.2020
944 Clear 29 1016 74 16093 3.6 150 03:26 25.06.2020
945 Clear 30 1017 70 16093 3.1 140 02:41 25.06.2020
946 Clouds 31 1016 62 16093 3.6 140 01:55 25.06.2020
947 Clouds 31 1016 62 16093 3.6 140 01:19 25.06.2020
948 Clouds 32 1016 59 16093 4.6 120 00:42 25.06.2020
949 Clouds 32 1016 59 16093 4.6 120 00:20 25.06.2020
950 Clouds 33 1017 59 16093 5.1 130 23:44 24.06.2020
951 Clouds 33 1017 59 16093 5.1 130 23:25 24.06.2020
952 Clouds 33 1017 59 16093 5.1 130 22:57 24.06.2020
953 Clouds 33 1017 59 16093 5.1 120 22:38 24.06.2020
954 Clouds 33 1017 59 16093 5.1 120 22:19 24.06.2020
955 Clouds 33 1017 52 16093 5.1 120 21:55 24.06.2020
956 Clouds 33 1017 52 16093 5.1 120 21:36 24.06.2020
957 Clouds 33 1017 52 16093 5.1 120 21:18 24.06.2020
958 Clouds 33 1017 52 16093 5.1 120 20:57 24.06.2020
959 Clouds 33 1017 52 16093 5.1 120 20:57 24.06.2020
960 Clouds 33 1017 56 16093 4.6 120 20:38 24.06.2020
961 Clouds 33 1017 56 16093 4.6 120 20:19 24.06.2020
962 Clouds 33 1017 56 16093 2.6 150 19:55 24.06.2020
963 Clouds 33 1017 56 16093 2.6 150 19:36 24.06.2020
964 Clouds 33 1017 56 16093 2.6 150 19:18 24.06.2020
965 Clouds 33 1018 55 16093 3.1 120 18:57 24.06.2020
966 Clouds 33 1018 55 16093 3.1 120 18:38 24.06.2020
967 Clouds 33 1018 55 16093 3.1 120 18:19 24.06.2020
968 Clouds 32 1018 55 16093 3.09 122 17:43 24.06.2020
969 Clouds 32 1018 55 16093 2.01 135 17:19 24.06.2020
970 Clouds 32 1018 55 16093 2.01 135 16:58 24.06.2020
971 Clouds 32 1018 62 16093 2.01 135 16:40 24.06.2020
972 Clouds 32 1018 62 16093 0.97 146 16:21 24.06.2020
973 Clouds 31 1018 66 16093 2.1 230 15:57 24.06.2020
974 Clouds 31 1018 66 16093 2.1 230 15:39 24.06.2020
975 Clouds 30 1018 66 16093 2.1 230 15:20 24.06.2020
976 Clouds 29 1018 79 16093 1.5 240 14:54 24.06.2020
977 Clouds 29 1018 79 16093 1.5 240 14:36 24.06.2020
978 Clouds 29 1018 79 16093 1.5 240 14:18 24.06.2020
979 Clouds 28 1017 79 16093 1.33 194 13:41 24.06.2020
980 Clouds 27 1018 94 16093 1.26 191 13:19 24.06.2020
981 Clouds 27 1017 83 16093 1.26 191 12:41 24.06.2020
982 Clouds 27 1017 83 16093 1.07 200 12:20 24.06.2020
983 Clouds 27 1017 74 16093 1.5 220 11:57 24.06.2020
984 Clouds 27 1017 74 16093 1.5 220 11:38 24.06.2020
985 Clouds 28 1017 74 16093 1.5 220 11:19 24.06.2020
986 Clouds 28 1017 79 16093 1.5 250 10:43 24.06.2020
987 Clouds 28 1017 79 16093 1.5 250 10:19 24.06.2020
988 Clouds 28 1017 79 16093 1.5 250 10:19 24.06.2020
989 Clouds 28 1016 78 16093 1.5 160 09:44 24.06.2020
990 Clouds 28 1016 78 16093 1.5 160 09:23 24.06.2020
991 Clouds 28 1017 74 16093 2.09 180 08:45 24.06.2020
992 Clouds 28 1017 74 16093 2.48 182 08:26 24.06.2020
993 Clouds 28 1017 74 16093 2.6 150 07:58 24.06.2020
994 Clouds 28 1017 74 16093 2.6 150 07:40 24.06.2020
995 Clouds 28 1017 74 16093 2.6 150 07:18 24.06.2020
996 Clouds 28 1017 74 16093 2.41 188 06:40 24.06.2020
997 Clouds 29 1017 74 16093 2.32 177 06:21 24.06.2020
998 Clouds 29 1017 74 16093 3.1 140 05:32 24.06.2020
999 Clouds 29 1017 70 16093 2.6 130 04:37 24.06.2020
1000 Clouds 29 1017 74 16093 2.6 130 03:37 24.06.2020
1001 Clouds 29 1016 70 16093 4.1 120 02:53 24.06.2020
1002 Clear 30 1015 70 16093 4.6 130 01:59 24.06.2020
1003 Clouds 31 1015 62 16093 4.1 140 00:50 24.06.2020
1004 Clouds 31 1015 62 16093 4.1 140 00:31 24.06.2020
1005 Clouds 32 1015 63 16093 5.1 140 23:47 23.06.2020
1006 Clouds 32 1015 63 16093 5.1 140 23:21 23.06.2020
1007 Clouds 32 1016 59 16093 6.7 120 22:57 23.06.2020
1008 Clouds 32 1016 59 16093 6.7 120 22:39 23.06.2020
1009 Clouds 33 1016 59 16093 6.7 120 22:18 23.06.2020
1010 Clouds 33 1016 59 16093 6.7 120 22:18 23.06.2020
1011 Clouds 33 1016 56 16093 5.7 130 21:42 23.06.2020
1012 Clouds 33 1016 56 16093 5.7 130 21:20 23.06.2020
1013 Clouds 33 1017 52 16093 4.6 140 20:57 23.06.2020
1014 Clouds 33 1017 52 16093 4.6 140 20:39 23.06.2020
1015 Clouds 33 1017 52 16093 4.6 140 20:19 23.06.2020
1016 Clouds 33 1018 59 16093 3.6 140 19:59 23.06.2020
1017 Clouds 33 1018 59 16093 3.6 140 19:40 23.06.2020
1018 Clouds 33 1018 59 16093 3.6 140 19:22 23.06.2020
1019 Clouds 32 1018 59 16093 4.1 130 18:38 23.06.2020
1020 Clouds 33 1018 59 16093 4.1 130 18:18 23.06.2020
1021 Clouds 32 1018 59 16093 2.1 0 17:42 23.06.2020
1022 Clouds 32 1018 59 16093 2.1 0 17:23 23.06.2020
1023 Clouds 31 1018 66 16093 3.73 150 16:57 23.06.2020
1024 Clouds 31 1018 66 16093 3.73 150 16:38 23.06.2020
1025 Clouds 31 1018 66 16093 3.09 155 16:20 23.06.2020
1026 Clouds 31 1018 70 16093 2.1 150 15:57 23.06.2020
1027 Clouds 31 1018 70 16093 2.1 150 15:38 23.06.2020
1028 Clouds 30 1018 70 16093 2.1 150 15:18 23.06.2020
1029 Clouds 29 1018 79 16093 2.84 155 14:42 23.06.2020
1030 Clouds 29 1018 79 16093 2.61 155 14:19 23.06.2020
1031 Clouds 28 1018 83 16093 2.61 155 13:57 23.06.2020
1032 Clouds 28 1018 83 16093 2.61 155 13:39 23.06.2020
1033 Clouds 27 1018 83 16093 2.42 162 13:20 23.06.2020
1034 Clouds 27 1018 83 16093 2.42 162 12:44 23.06.2020
1035 Clouds 27 1018 83 16093 2.55 162 12:23 23.06.2020
1036 Clouds 26 1017 88 16093 2.55 162 11:58 23.06.2020
1037 Clouds 27 1017 88 16093 2.55 162 11:40 23.06.2020
1038 Clouds 27 1017 88 16093 2.41 163 11:19 23.06.2020
1039 Clouds 27 1018 83 16093 1.5 150 10:56 23.06.2020
1040 Clouds 27 1018 83 16093 1.5 150 10:38 23.06.2020
1041 Clouds 27 1018 83 16093 1.5 150 10:20 23.06.2020
1042 Clouds 28 1018 83 16093 1.5 140 09:42 23.06.2020
1043 Clouds 28 1018 83 16093 1.5 140 09:20 23.06.2020
1044 Clouds 28 1018 78 16093 2.1 110 08:57 23.06.2020
1045 Clouds 28 1018 78 16093 2.1 110 08:38 23.06.2020
1046 Clouds 28 1018 78 16093 2.1 110 08:19 23.06.2020
1047 Clouds 28 1019 78 16093 2.1 110 07:40 23.06.2020
1048 Clouds 28 1019 78 16093 2.1 110 07:21 23.06.2020
1049 Clouds 28 1019 79 16093 1.5 110 06:49 23.06.2020
1050 Clouds 28 1019 79 16093 1.5 110 06:30 23.06.2020
1051 Clouds 28 1019 79 16093 1.5 110 05:39 23.06.2020
1052 Clouds 29 1018 79 16093 2.6 150 03:39 23.06.2020
1053 Clouds 29 1018 74 16093 3.1 140 02:56 23.06.2020
1054 Clouds 29 1018 74 16093 3.1 140 02:36 23.06.2020
1055 Clouds 29 1018 70 16093 4.1 120 01:51 23.06.2020
1056 Clouds 29 1018 70 16093 4.1 120 01:32 23.06.2020
1057 Clouds 30 1018 70 16093 4.6 140 00:56 23.06.2020
1058 Clouds 30 1018 70 16093 4.6 140 00:24 23.06.2020
1059 Clouds 31 1018 62 16093 4.1 150 23:56 22.06.2020
1060 Clouds 31 1018 62 16093 4.1 150 23:38 22.06.2020
1061 Clouds 31 1018 62 16093 4.1 150 23:19 22.06.2020
1062 Clouds 31 1018 62 16093 4.1 150 23:19 22.06.2020
1063 Clouds 32 1018 59 16093 4.1 120 22:56 22.06.2020
1064 Clouds 32 1018 59 16093 4.1 120 22:37 22.06.2020
1065 Clouds 32 1018 59 16093 4.1 120 22:19 22.06.2020
1066 Clouds 32 1019 59 16093 6.2 120 21:57 22.06.2020
1067 Clouds 32 1019 59 16093 6.2 120 21:38 22.06.2020
1068 Clouds 32 1019 59 16093 6.2 120 21:20 22.06.2020
1069 Clouds 32 1019 59 16093 6.2 120 21:20 22.06.2020
1070 Clouds 33 1019 59 16093 5.1 120 20:41 22.06.2020
1071 Clouds 33 1019 59 16093 5.1 120 20:23 22.06.2020
1072 Clouds 33 1019 63 16093 6.7 130 19:56 22.06.2020
1073 Clear 33 1018 68 0 1.79 130 19:37 22.06.2020
1074 Clouds 33 1019 55 16093 4.6 100 19:18 22.06.2020
1075 Clouds 32 1019 55 16093 4.6 100 18:40 22.06.2020
1076 Clouds 32 1019 55 16093 4.6 100 18:21 22.06.2020
1077 Clouds 32 1020 62 16093 2.6 130 17:57 22.06.2020
1078 Clouds 32 1020 62 16093 2.6 130 17:38 22.06.2020
1079 Clouds 31 1020 62 16093 2.6 130 17:19 22.06.2020
1080 Clouds 31 1020 62 16093 1.5 340 16:55 22.06.2020
1081 Clouds 31 1020 66 16093 3.86 98 16:37 22.06.2020
1082 Clouds 30 1020 66 16093 3.06 90 16:18 22.06.2020
1083 Clouds 30 1020 74 16093 2.6 40 15:44 22.06.2020
1084 Clouds 30 1020 74 16093 2.6 40 15:25 22.06.2020
1085 Clouds 29 1019 78 16093 2.1 40 14:57 22.06.2020
1086 Clouds 28 1019 78 16093 2.1 40 14:36 22.06.2020
1087 Clouds 28 1019 78 16093 2.1 40 14:18 22.06.2020
1088 Clouds 27 1019 83 16093 2.1 360 13:40 22.06.2020
1089 Clear 26 1019 88 16093 1.5 30 13:21 22.06.2020
1090 Clear 26 1018 88 16093 2.1 10 12:59 22.06.2020
1091 Clear 26 1018 88 16093 2.1 10 12:40 22.06.2020
1092 Clear 26 1018 88 16093 2.1 10 12:22 22.06.2020
1093 Clouds 26 1018 78 16093 1.5 350 11:38 22.06.2020
1094 Clouds 26 1018 78 16093 1.5 350 11:19 22.06.2020
1095 Clouds 26 1018 83 16093 2.01 109 10:57 22.06.2020
1096 Clouds 26 1018 83 16093 2.01 109 10:38 22.06.2020
1097 Clouds 26 1018 83 16093 2.21 119 10:19 22.06.2020
1098 Clouds 27 1019 83 16093 2.21 119 09:57 22.06.2020
1099 Clouds 27 1019 83 16093 2.21 119 09:38 22.06.2020
1100 Clouds 27 1019 83 16093 2.5 148 09:19 22.06.2020
1101 Clouds 27 1018 78 16093 2.5 148 08:56 22.06.2020
1102 Clouds 27 1018 78 16093 2.5 148 08:37 22.06.2020
1103 Clouds 28 1018 78 16093 3.19 154 08:18 22.06.2020
1104 Clouds 28 1018 78 16093 1.5 120 07:46 22.06.2020
1105 Clouds 27 1018 78 16093 1.5 120 07:25 22.06.2020
1106 Clouds 27 1018 78 16093 1.5 130 06:39 22.06.2020
1107 Clouds 27 1018 78 16093 1.5 130 06:20 22.06.2020
1108 Clouds 28 1018 78 16093 1.5 100 05:42 22.06.2020
1109 Clouds 28 1017 74 16093 1.5 130 03:47 22.06.2020
1110 Clouds 29 1018 70 16093 2.1 140 01:53 22.06.2020
1111 Clouds 29 1018 66 16093 2.1 180 00:58 22.06.2020
1112 Clouds 30 1018 66 16093 2.1 180 00:29 22.06.2020
1113 Clouds 31 1018 59 16093 4.37 127 23:57 21.06.2020
1114 Clouds 31 1018 59 16093 4.37 127 23:38 21.06.2020
1115 Clouds 31 1018 59 16093 4.43 135 23:20 21.06.2020
1116 Clouds 31 1018 59 16093 2.6 120 22:56 21.06.2020
1117 Clouds 31 1018 59 16093 2.6 120 22:36 21.06.2020
1118 Clouds 32 1018 59 16093 2.6 120 22:18 21.06.2020
1119 Rain 30 1018 70 16093 4.1 130 21:55 21.06.2020
1120 Rain 30 1018 70 16093 4.1 130 21:37 21.06.2020
1121 Rain 30 1018 70 16093 4.1 130 21:19 21.06.2020
1122 Rain 29 1019 83 16093 2.1 170 20:56 21.06.2020
1123 Rain 29 1019 83 16093 2.1 170 20:36 21.06.2020
1124 Rain 29 1019 83 16093 2.1 170 20:18 21.06.2020
1125 Rain 29 1019 83 16093 2.1 170 20:18 21.06.2020
1126 Thunderstorm 29 1019 70 16093 3.1 150 19:41 21.06.2020
1127 Thunderstorm 29 1019 70 16093 3.1 150 19:21 21.06.2020
1128 Thunderstorm 30 1019 62 16093 2.1 130 18:57 21.06.2020
1129 Clouds 31 1019 59 16093 3.85 125 18:39 21.06.2020
1130 Clouds 31 1019 59 16093 3.27 126 18:21 21.06.2020
1131 Clouds 31 1019 62 16093 3.27 126 17:56 21.06.2020
1132 Clouds 30 1019 62 16093 3.27 126 17:38 21.06.2020
1133 Clouds 30 1019 62 16093 2.91 125 17:19 21.06.2020
1134 Clouds 30 1019 74 16093 1.5 150 16:40 21.06.2020
1135 Clouds 29 1019 74 16093 1.5 150 16:22 21.06.2020
1136 Clouds 29 1019 74 16093 2.7 124 15:42 21.06.2020
1137 Clouds 29 1019 74 16093 2.01 122 15:24 21.06.2020
1138 Clouds 29 1018 79 16093 2.01 122 14:59 21.06.2020
1139 Clouds 29 1018 79 16093 2.01 122 14:59 21.06.2020
1140 Clouds 28 1018 79 16093 2.01 122 14:38 21.06.2020
1141 Clouds 28 1018 79 16093 1.71 141 14:20 21.06.2020
1142 Clouds 27 1018 83 16093 1.92 143 13:56 21.06.2020
1143 Clouds 27 1018 83 16093 1.92 143 13:56 21.06.2020
1144 Rain 26 1018 83 16093 1.92 143 13:38 21.06.2020
1145 Clouds 26 1018 83 16093 2.2 148 13:19 21.06.2020
1146 Clouds 26 1017 83 16093 2.2 148 12:44 21.06.2020
1147 Clouds 26 1017 83 16093 2.22 155 12:25 21.06.2020
1148 Clouds 26 1017 83 16093 2.22 155 11:55 21.06.2020
1149 Clouds 26 1017 83 16093 2.22 155 11:36 21.06.2020
1150 Clouds 26 1017 83 16093 2.33 151 11:18 21.06.2020
1151 Clouds 26 1017 83 16093 2.33 151 10:54 21.06.2020
1152 Clouds 26 1017 83 16093 2.33 151 10:36 21.06.2020
1153 Clouds 27 1017 83 16093 2.41 147 10:18 21.06.2020
1154 Clouds 27 1017 78 16093 2.41 147 09:40 21.06.2020
1155 Clouds 27 1017 78 16093 2.73 133 09:19 21.06.2020
1156 Clouds 27 1017 83 16093 2.1 120 08:55 21.06.2020
1157 Clouds 27 1017 83 16093 2.1 120 08:37 21.06.2020
1158 Clouds 27 1017 83 16093 2.1 120 08:19 21.06.2020
1159 Clouds 27 1017 83 16093 2.74 137 07:41 21.06.2020
1160 Clouds 27 1017 83 16093 2.81 142 07:21 21.06.2020
1161 Clouds 27 1018 83 16093 2.1 120 06:48 21.06.2020
1162 -273 0 0 0 0 0 05:59 21.06.2020
1163 Clouds 28 1018 74 16093 2.92 137 05:30 21.06.2020
1164 Clouds 28 1017 79 16093 2.1 140 03:21 21.06.2020
1165 Clouds 28 1016 74 16093 2.6 120 02:59 21.06.2020
1166 Clouds 29 1016 74 16093 2.6 120 02:19 21.06.2020
1167 Clear 29 1016 74 16093 4.6 120 01:24 21.06.2020
1168 Clouds 30 1016 70 0 4.1 120 00:56 21.06.2020
1169 Clouds 30 1016 59 16093 3.6 160 00:38 21.06.2020
1170 Clouds 31 1016 59 16093 3.6 160 00:19 21.06.2020
1171 Clouds 31 1016 62 16093 4.1 120 23:44 20.06.2020
1172 Clouds 31 1016 62 16093 4.1 120 23:22 20.06.2020
1173 Clouds 31 1016 62 16093 4.1 130 22:56 20.06.2020
1174 Clouds 31 1016 62 16093 4.1 130 22:37 20.06.2020
1175 Clouds 31 1016 62 16093 4.1 130 22:18 20.06.2020
1176 Clouds 31 1018 62 16093 3.6 160 21:56 20.06.2020
1177 Clouds 31 1018 62 16093 3.6 160 21:38 20.06.2020
1178 Clouds 31 1018 62 16093 3.6 160 21:19 20.06.2020
1179 Clouds 31 1018 66 16093 4.6 120 20:56 20.06.2020
1180 Rain 31 1018 66 16093 4.6 120 20:38 20.06.2020
1181 Rain 31 1018 66 16093 4.6 120 20:19 20.06.2020
1182 Thunderstorm 30 1018 62 16093 4.6 130 19:44 20.06.2020
1183 Rain 30 1018 62 16093 4.6 130 19:23 20.06.2020
1184 Thunderstorm 32 1018 59 16093 6.2 110 18:55 20.06.2020
1185 Thunderstorm 32 1018 59 16093 6.2 110 18:37 20.06.2020
1186 Thunderstorm 32 1018 59 16093 6.2 110 18:19 20.06.2020
1187 Clouds 31 1018 62 16093 3.1 140 17:56 20.06.2020
1188 Clouds 31 1018 62 16093 3.1 140 17:37 20.06.2020
1189 Clouds 31 1018 62 16093 3.1 140 17:18 20.06.2020
1190 Clouds 31 1018 70 16093 3.6 100 16:40 20.06.2020
1191 Clouds 30 1018 70 16093 3.6 100 16:19 20.06.2020
1192 Clouds 30 1018 70 16093 3.6 100 16:19 20.06.2020
1193 Clouds 30 1018 79 16093 3.1 90 15:57 20.06.2020
1194 Clouds 29 1018 79 16093 3.1 90 15:38 20.06.2020
1195 Clouds 29 1018 79 16093 3.1 90 15:18 20.06.2020
1196 Clear 28 1017 79 16093 1.5 10 14:42 20.06.2020
1197 Rain 28 1017 79 16093 1.5 10 14:20 20.06.2020
1198 Rain 26 1017 88 16093 3.25 136 13:42 20.06.2020
1199 Clouds 26 1017 88 16093 2.61 126 13:20 20.06.2020
1200 Clouds 26 1017 88 16093 2.61 126 12:56 20.06.2020
1201 Clouds 26 1017 88 16093 2.61 126 12:38 20.06.2020
1202 Clouds 26 1017 88 16093 2.75 117 12:18 20.06.2020
1203 Clouds 26 1017 88 16093 2.75 117 11:39 20.06.2020
1204 Clouds 26 1017 88 16093 3.31 127 11:20 20.06.2020
1205 Clouds 26 1017 88 16093 3.31 127 10:58 20.06.2020
1206 Clouds 26 1017 88 16093 3.31 127 10:40 20.06.2020
1207 Clouds 26 1017 88 16093 3.38 120 10:20 20.06.2020
1208 Clouds 26 1017 88 16093 3.38 120 09:43 20.06.2020
1209 Clouds 26 1017 88 16093 4.45 120 09:25 20.06.2020
1210 Clouds 27 1017 88 16093 2.1 100 08:58 20.06.2020
1211 Clouds 27 1017 88 16093 2.1 100 08:39 20.06.2020
1212 Clouds 26 1017 88 16093 2.1 100 08:21 20.06.2020
1213 Clouds 26 1017 83 16093 4.62 111 07:50 20.06.2020
1214 Clouds 26 1017 83 16093 4.18 103 07:25 20.06.2020
1215 Clouds 26 1018 83 16093 2.1 50 06:44 20.06.2020
1216 Clouds 26 1018 83 16093 2.1 50 06:20 20.06.2020
1217 Clouds 26 1018 88 16093 2.1 20 05:47 20.06.2020
1218 Rain 24 1017 88 16093 1.5 100 03:55 20.06.2020
1219 Thunderstorm 24 1018 94 2012 5.7 30 01:55 20.06.2020
1220 Thunderstorm 27 1017 83 3219 7.2 350 01:37 20.06.2020
1221 Clouds 30 1016 70 16093 2.6 130 00:49 20.06.2020
1222 Clouds 30 1016 70 16093 2.6 130 00:20 20.06.2020
1223 Clouds 30 1016 66 16093 2.6 150 23:46 19.06.2020
1224 Clouds 31 1016 66 16093 2.6 150 23:20 19.06.2020
1225 Clouds 31 1016 62 16093 5.1 140 22:56 19.06.2020
1226 Clouds 31 1016 62 16093 5.1 140 22:38 19.06.2020
1227 Clouds 31 1016 62 16093 5.1 140 22:20 19.06.2020
1228 Clouds 31 1017 62 16093 5.7 140 21:55 19.06.2020
1229 Clouds 31 1017 62 16093 5.7 140 21:37 19.06.2020
1230 Clouds 31 1017 62 16093 5.7 140 21:18 19.06.2020
1231 Clouds 31 1018 70 16093 3.1 170 20:56 19.06.2020
1232 Clouds 31 1018 70 16093 3.1 170 20:38 19.06.2020
1233 Clouds 32 1018 70 16093 3.1 170 20:20 19.06.2020
1234 Clouds 31 1018 66 16093 4.6 140 19:54 19.06.2020
1235 Clouds 31 1018 66 16093 4.6 140 19:36 19.06.2020
1236 Clouds 31 1018 66 16093 4.6 140 19:18 19.06.2020
1237 Clouds 30 1018 66 16093 4.6 130 18:40 19.06.2020
1238 Clouds 30 1018 66 16093 4.6 130 18:21 19.06.2020
1239 Clouds 30 1019 74 16093 2.6 170 17:43 19.06.2020
1240 Clouds 30 1019 74 16093 2.6 170 17:23 19.06.2020
1241 Clouds 29 1018 79 16093 2.6 140 16:59 19.06.2020
1242 Clouds 29 1018 79 16093 2.6 140 16:41 19.06.2020
1243 Clouds 29 1018 79 16093 2.6 140 16:22 19.06.2020
1244 Clouds 28 1018 79 16093 3.6 110 15:49 19.06.2020
1245 Clouds 28 1018 79 16093 3.6 110 15:27 19.06.2020
1246 Clouds 28 1017 83 16093 3.1 110 14:59 19.06.2020
1247 Clouds 28 1017 83 16093 3.1 110 14:40 19.06.2020
1248 Clouds 28 1017 83 16093 3.1 110 14:21 19.06.2020
1249 Clouds 27 1016 83 16093 2.1 100 13:59 19.06.2020
1250 Clouds 27 1016 83 16093 2.1 100 13:40 19.06.2020
1251 Clouds 27 1016 83 16093 2.1 100 13:22 19.06.2020
1252 Clouds 27 1016 88 16093 1.5 130 12:45 19.06.2020
1253 Clouds 27 1016 88 16093 1.5 130 12:22 19.06.2020
1254 Clouds 27 1016 88 16093 3.1 90 11:57 19.06.2020
1255 Clouds 27 1016 88 16093 3.1 90 11:37 19.06.2020
1256 Clouds 27 1016 88 16093 3.1 90 11:18 19.06.2020
1257 Clouds 27 1016 78 16093 2.6 90 10:45 19.06.2020
1258 Clouds 27 1016 83 16093 2.1 0 10:26 19.06.2020
1259 Clouds 27 1016 83 16093 4.98 123 09:57 19.06.2020
1260 Clouds 27 1016 83 16093 4.98 123 09:39 19.06.2020
1261 Clouds 27 1016 83 16093 6.01 109 09:19 19.06.2020
1262 Clouds 27 1016 83 16093 3.1 100 08:41 19.06.2020
1263 Clouds 27 1016 83 16093 3.1 100 08:23 19.06.2020
1264 Clouds 27 1017 83 16093 4.1 90 07:55 19.06.2020
1265 Clouds 27 1017 83 16093 4.1 90 07:36 19.06.2020
1266 Clouds 27 1017 83 16093 3.1 60 07:18 19.06.2020
1267 Rain 27 1017 83 16093 3.1 60 06:23 19.06.2020
1268 Clouds 26 1017 83 16093 2.1 20 05:41 19.06.2020
1269 Clouds 26 1017 83 16093 2.6 360 04:23 19.06.2020
1270 Clouds 25 1017 78 16093 1.5 20 02:33 19.06.2020
1271 Clouds 25 1017 83 16093 3.6 330 00:48 19.06.2020
1272 Clouds 25 1017 83 16093 3.6 330 00:22 19.06.2020
1273 Thunderstorm 24 1017 88 16093 3.1 300 23:58 18.06.2020
1274 Thunderstorm 25 1017 88 16093 3.1 300 23:40 18.06.2020
1275 Rain 25 1017 88 16093 3.1 300 23:22 18.06.2020
1276 Rain 24 1017 88 4023 1.5 310 22:57 18.06.2020
1277 Rain 24 1017 88 4023 1.5 310 22:36 18.06.2020
1278 Thunderstorm 26 1017 88 4023 1.5 310 22:18 18.06.2020
1279 Rain 28 1016 79 14484 1.5 10 21:38 18.06.2020
1280 Rain 29 1016 79 14484 1.5 10 21:19 18.06.2020
1281 Thunderstorm 30 1016 66 16093 4.1 130 20:55 18.06.2020
1282 Thunderstorm 30 1016 66 16093 4.1 130 20:36 18.06.2020
1283 Thunderstorm 30 1016 66 16093 4.1 130 20:18 18.06.2020
1284 Clouds 32 1017 59 16093 2.6 160 19:42 18.06.2020
1285 Clouds 31 1017 59 16093 2.6 160 19:20 18.06.2020
1286 Clouds 31 1017 70 16093 2.6 140 18:57 18.06.2020
1287 Clouds 31 1017 70 16093 2.6 140 18:37 18.06.2020
1288 Clouds 31 1017 70 16093 2.6 140 18:18 18.06.2020
1289 Rain 29 1018 74 16093 2.1 110 17:43 18.06.2020
1290 Rain 29 1018 74 16093 2.1 110 17:25 18.06.2020
1291 Rain 27 1017 83 16093 2.6 200 16:55 18.06.2020
1292 Rain 26 1017 88 8047 2.6 180 16:37 18.06.2020
1293 Rain 26 1017 88 8047 2.6 180 16:18 18.06.2020
1294 Clouds 28 1017 78 16093 3.1 220 15:40 18.06.2020
1295 Clouds 28 1017 78 16093 3.1 220 15:21 18.06.2020
1296 Clouds 27 1016 83 16093 3.4 116 14:58 18.06.2020
1297 Clouds 27 1016 83 16093 3.4 116 14:58 18.06.2020
1298 Clouds 27 1016 83 16093 3.4 116 14:40 18.06.2020
1299 Clouds 27 1016 83 16093 3.91 111 14:21 18.06.2020
1300 Clouds 27 1016 83 16093 1.5 140 13:56 18.06.2020
1301 Clouds 27 1016 83 16093 1.5 140 13:38 18.06.2020
1302 Clouds 27 1016 83 16093 1.5 140 13:19 18.06.2020
1303 Clouds 27 1016 88 16093 3.25 118 12:55 18.06.2020
1304 Clouds 27 1016 88 16093 3.25 118 12:37 18.06.2020
1305 Clouds 27 1016 88 16093 3.05 123 12:19 18.06.2020
1306 Clouds 27 1016 88 16093 2.1 100 11:46 18.06.2020
1307 Clouds 27 1016 88 16093 2.1 100 11:21 18.06.2020
1308 Clouds 27 1016 88 16093 1.5 110 10:41 18.06.2020
1309 Clouds 27 1016 88 16093 1.5 110 10:20 18.06.2020
1310 Clouds 26 1016 94 16093 3.89 125 09:59 18.06.2020
1311 Clouds 26 1016 94 16093 3.89 125 09:41 18.06.2020
1312 Clouds 26 1016 94 16093 4.75 123 09:22 18.06.2020
1313 Clouds 26 1017 88 16093 2.6 110 08:41 18.06.2020
1314 Clouds 26 1017 88 16093 2.6 110 08:23 18.06.2020
1315 Clouds 26 1017 88 16093 4.1 100 07:58 18.06.2020
1316 Clouds 26 1017 88 16093 4.1 100 07:40 18.06.2020
1317 Clouds 26 1017 88 16093 4.1 100 07:21 18.06.2020
1318 Clouds 25 1018 94 16093 5.1 110 06:22 18.06.2020
1319 Rain 24 1018 94 11265 2.6 80 04:26 18.06.2020
1320 Rain 24 1018 88 14484 2.6 120 03:26 18.06.2020
1321 Rain 24 1018 88 9656 4.1 40 01:39 18.06.2020
1322 Rain 25 1018 88 9656 4.1 40 01:18 18.06.2020
1323 Rain 26 1017 78 11265 5.7 60 00:48 18.06.2020
1324 Clouds 27 1017 78 16093 5.7 90 00:24 18.06.2020
1325 Rain 26 1017 83 16093 5.1 80 23:46 17.06.2020
1326 Rain 26 1017 83 16093 5.1 80 23:22 17.06.2020
1327 Rain 26 1018 83 16093 6.7 90 22:59 17.06.2020
1328 Rain 26 1018 83 16093 6.7 90 22:40 17.06.2020
1329 Rain 26 1018 83 16093 6.7 90 22:21 17.06.2020
1330 Rain 26 1018 83 16093 6.7 90 22:21 17.06.2020
1331 Rain 26 1018 83 16093 6.7 90 22:21 17.06.2020
1332 Rain 27 1017 69 16093 3.1 60 21:55 17.06.2020
1333 Rain 27 1017 69 16093 3.1 60 21:37 17.06.2020
1334 Rain 28 1017 69 16093 3.1 60 21:19 17.06.2020
1335 Rain 28 1018 69 16093 5.1 90 20:38 17.06.2020
1336 Rain 28 1018 69 16093 5.1 90 20:20 17.06.2020
1337 Clouds 29 1018 69 16093 6.7 70 19:57 17.06.2020
1338 Clouds 28 1018 69 16093 6.7 70 19:39 17.06.2020
1339 Clouds 29 1018 69 16093 6.7 70 19:19 17.06.2020
1340 Clouds 29 1018 74 16093 4.6 70 18:45 17.06.2020
1341 Clouds 29 1018 74 16093 4.6 70 18:27 17.06.2020
1342 Rain 29 1018 66 16093 5.1 90 17:46 17.06.2020
1343 Rain 28 1018 66 16093 5.1 90 17:23 17.06.2020
1344 Rain 29 1018 66 11265 5.1 70 16:58 17.06.2020
1345 Rain 28 1018 66 11265 5.1 70 16:40 17.06.2020
1346 Rain 28 1018 66 11265 5.1 70 16:21 17.06.2020
1347 Clouds 29 1018 74 16093 3.1 50 15:58 17.06.2020
1348 Clear 29 1017 67 0 1.34 59 15:39 17.06.2020
1349 Clouds 28 1017 74 16093 2.1 20 15:20 17.06.2020
1350 Clouds 27 1017 74 16093 2.1 20 14:58 17.06.2020
1351 Clouds 28 1017 74 16093 2.1 20 14:39 17.06.2020
1352 Clouds 27 1017 74 16093 2.1 20 14:19 17.06.2020
1353 Clouds 27 1017 74 16093 1.5 360 13:57 17.06.2020
1354 Clouds 26 1017 74 16093 1.5 360 13:38 17.06.2020
1355 Clouds 26 1017 74 16093 1.5 360 13:20 17.06.2020
1356 Clouds 26 1017 74 16093 1.5 360 13:20 17.06.2020
1357 Clouds 26 1017 74 16093 1.5 360 12:43 17.06.2020
1358 Clouds 26 1017 74 16093 1.5 360 12:23 17.06.2020
1359 Clouds 26 1017 78 16093 2.1 360 11:58 17.06.2020
1360 Clouds 26 1017 78 16093 2.1 360 11:40 17.06.2020
1361 Clouds 26 1017 78 16093 2.1 360 11:21 17.06.2020
1362 Clouds 26 1017 78 16093 2.1 100 10:39 17.06.2020
1363 Clouds 26 1017 78 16093 2.1 100 10:19 17.06.2020
1364 Clouds 26 1017 78 16093 2.1 100 10:19 17.06.2020
1365 Clouds 26 1017 78 16093 2.1 100 10:19 17.06.2020
1366 Clouds 26 1017 74 16093 3.6 90 09:58 17.06.2020
1367 Clouds 26 1017 74 16093 3.6 90 09:40 17.06.2020
1368 Clouds 26 1017 74 16093 3.6 90 09:21 17.06.2020
1369 Clouds 26 1018 74 16093 4.1 90 08:46 17.06.2020
1370 Clouds 26 1018 74 16093 4.1 90 08:21 17.06.2020
1371 Clouds 27 1018 74 16093 3.6 90 07:57 17.06.2020
1372 Clouds 27 1018 74 16093 3.6 90 07:39 17.06.2020
1373 Clouds 27 1018 74 16093 3.6 90 07:21 17.06.2020
1374 Clouds 27 1018 69 16093 5.1 90 06:55 17.06.2020
1375 Clouds 27 1018 69 16093 5.1 90 06:37 17.06.2020
1376 Clouds 27 1018 69 16093 5.1 90 06:19 17.06.2020
1377 Clouds 27 1018 61 16093 3.1 60 04:56 17.06.2020
1378 Clouds 27 1017 54 16093 4.6 50 02:59 17.06.2020
1379 Clouds 28 1017 54 16093 5.1 40 01:43 17.06.2020
1380 Clouds 29 1017 54 16093 4.6 60 00:41 17.06.2020
1381 Clouds 29 1017 54 16093 4.6 60 00:23 17.06.2020
1382 Clouds 30 1017 48 16093 6.2 80 23:56 16.06.2020
1383 Clouds 30 1017 48 16093 6.2 80 23:37 16.06.2020
1384 Clouds 30 1017 48 16093 6.2 80 23:19 16.06.2020
1385 Clouds 30 1017 48 16093 6.2 80 22:54 16.06.2020
1386 Clouds 30 1017 48 16093 6.2 80 22:36 16.06.2020
1387 Clouds 30 1017 48 16093 6.2 80 22:18 16.06.2020
1388 Clouds 30 1017 58 16093 6.2 50 21:45 16.06.2020
1389 Clouds 30 1017 58 16093 6.2 50 21:23 16.06.2020
1390 Clouds 31 1018 52 16093 5.7 80 20:57 16.06.2020
1391 Clouds 31 1018 52 16093 5.7 80 20:39 16.06.2020
1392 Clouds 31 1018 52 16093 5.7 80 20:19 16.06.2020
1393 Clouds 30 1018 51 16093 4.1 40 19:56 16.06.2020
1394 Clouds 31 1018 51 16093 4.1 40 19:38 16.06.2020
1395 Clouds 30 1018 51 16093 4.1 40 19:19 16.06.2020
1396 Clouds 30 1018 51 16093 2.6 0 18:45 16.06.2020
1397 Clouds 30 1018 51 16093 2.6 0 18:22 16.06.2020
1398 Clouds 29 1018 66 16093 3.1 30 17:58 16.06.2020
1399 Clouds 29 1018 66 16093 3.1 30 17:39 16.06.2020
1400 Clouds 29 1018 66 16093 3.1 30 17:21 16.06.2020
1401 Clouds 28 1018 69 16093 2.6 0 16:59 16.06.2020
1402 Clouds 28 1018 69 16093 2.6 0 16:40 16.06.2020
1403 Clouds 28 1018 69 16093 2.6 0 16:20 16.06.2020
1404 Clouds 27 1018 78 16093 3.1 30 15:57 16.06.2020
1405 Clouds 27 1018 78 16093 3.1 30 15:39 16.06.2020
1406 Clouds 27 1018 78 16093 3.1 30 15:21 16.06.2020
1407 Haze 26 1018 78 805 4.6 30 14:56 16.06.2020
1408 Clear 26 1017 83 16093 3.6 10 14:38 16.06.2020
1409 Clear 25 1017 83 16093 3.6 10 14:19 16.06.2020
1410 Rain 24 1017 94 16093 1.5 360 13:45 16.06.2020
1411 Rain 23 1017 94 16093 1.5 360 13:25 16.06.2020
1412 Clouds 23 1017 94 16093 1.5 10 12:55 16.06.2020
1413 Clouds 23 1017 94 16093 1.5 10 12:37 16.06.2020
1414 Clouds 23 1017 94 16093 1.5 10 12:18 16.06.2020
1415 Clouds 24 1016 94 16093 2.1 360 11:41 16.06.2020
1416 Clouds 24 1016 94 16093 2.1 360 11:23 16.06.2020
1417 Clouds 24 1016 94 16093 1.5 350 10:59 16.06.2020
1418 Clouds 24 1016 94 16093 1.5 350 10:40 16.06.2020
1419 Clouds 24 1016 94 16093 1.5 350 10:20 16.06.2020
1420 Clouds 24 1017 94 16093 4.56 30 09:47 16.06.2020
1421 Clouds 24 1017 94 16093 4.14 35 09:24 16.06.2020
1422 Clouds 24 1017 94 16093 2.52 43 08:58 16.06.2020
1423 Clouds 24 1017 94 16093 2.52 43 08:40 16.06.2020
1424 Clouds 24 1017 94 16093 2.44 51 08:22 16.06.2020
1425 Clouds 24 1017 94 16093 2.44 51 07:42 16.06.2020
1426 Clouds 24 1017 94 16093 2.61 65 07:24 16.06.2020
1427 Clouds 24 1017 94 16093 1.5 330 06:34 16.06.2020
1428 Clouds 24 1018 94 16093 2.9 80 05:52 16.06.2020
1429 Clouds 24 1018 94 16093 3.29 72 05:19 16.06.2020
1430 Rain 24 1018 94 16093 1.5 240 04:26 16.06.2020
1431 Rain 25 1017 88 12874 3.6 200 02:47 16.06.2020
1432 Rain 25 1016 78 16093 2.6 70 01:34 16.06.2020
1433 Clouds 25 1016 83 16093 3.1 80 00:58 16.06.2020
1434 Rain 25 1016 88 16093 6.2 50 00:29 16.06.2020
1435 Thunderstorm 24 1016 88 9656 1.5 0 23:59 15.06.2020
1436 Rain 26 1016 88 9656 1.5 0 23:41 15.06.2020
1437 Clouds 28 1016 83 16093 3.6 130 23:21 15.06.2020
1438 Clouds 28 1016 83 16093 3.6 130 23:21 15.06.2020
1439 Rain 28 1015 62 16093 5.7 120 22:42 15.06.2020
1440 Rain 28 1015 62 16093 5.7 120 22:42 15.06.2020
1441 Rain 29 1015 62 16093 5.7 120 22:23 15.06.2020
1442 Rain 29 1016 62 16093 4.6 120 21:59 15.06.2020
1443 Thunderstorm 30 1016 62 16093 4.6 120 21:38 15.06.2020
1444 Thunderstorm 30 1016 62 16093 4.6 120 21:20 15.06.2020
1445 Clouds 30 1016 66 16093 4.1 110 20:59 15.06.2020
1446 Clouds 30 1016 66 16093 4.1 110 20:39 15.06.2020
1447 Clouds 30 1016 66 16093 4.1 110 20:20 15.06.2020
1448 Clouds 31 1017 58 16093 3.1 10 20:00 15.06.2020
1449 Rain 30 1017 58 16093 3.1 10 19:40 15.06.2020
1450 Clouds 30 1017 58 16093 3.1 10 19:22 15.06.2020
1451 Clouds 31 1017 58 16093 1.5 0 18:58 15.06.2020
1452 Clouds 31 1017 58 16093 1.5 0 18:39 15.06.2020
1453 Clouds 31 1017 58 16093 1.5 0 18:20 15.06.2020
1454 Clouds 30 1017 62 16093 1.5 0 17:58 15.06.2020
1455 Clouds 30 1017 62 16093 1.5 0 17:40 15.06.2020
1456 Clouds 30 1017 62 16093 1.5 0 17:19 15.06.2020
1457 Clouds 29 1017 70 16093 2.27 93 16:54 15.06.2020
1458 Clouds 29 1017 70 16093 2.27 93 16:36 15.06.2020
1459 Clouds 29 1017 70 16093 2 69 16:18 15.06.2020
1460 Clouds 27 1017 78 16093 2 69 15:40 15.06.2020
1461 Clouds 27 1017 78 16093 1.87 70 15:20 15.06.2020
1462 Clouds 27 1016 83 16093 1.87 70 14:57 15.06.2020
1463 Clouds 27 1016 83 16093 1.87 70 14:39 15.06.2020
1464 Clouds 26 1016 83 16093 1.42 53 14:18 15.06.2020
1465 Clouds 26 1016 88 16093 0.61 149 13:56 15.06.2020
1466 Clouds 25 1016 88 16093 0.61 149 13:37 15.06.2020
1467 Clouds 25 1016 88 16093 0.5 156 13:18 15.06.2020
1468 Clouds 25 1016 88 16093 0.5 156 12:41 15.06.2020
1469 Clouds 25 1016 88 16093 0.55 179 12:21 15.06.2020
1470 Clouds 25 1016 94 16093 1.5 310 11:46 15.06.2020
1471 Clouds 25 1016 94 16093 1.5 310 11:26 15.06.2020
1472 Clouds 25 1015 94 16093 1.06 234 10:58 15.06.2020
1473 Clouds 25 1015 94 16093 1.06 234 10:39 15.06.2020
1474 Rain 25 1015 94 16093 1.68 188 10:20 15.06.2020
1475 Rain 25 1016 88 16093 1.68 188 09:43 15.06.2020
1476 Clouds 25 1016 88 16093 2.97 139 09:23 15.06.2020
1477 Clouds 25 1016 88 16093 2.97 139 08:47 15.06.2020
1478 Clouds 25 1016 88 16093 3.68 130 08:27 15.06.2020
1479 Rain 25 1016 88 16093 3.68 130 07:57 15.06.2020
1480 Rain 25 1016 88 16093 3.68 130 07:37 15.06.2020
1481 Rain 25 1016 88 16093 3.87 127 07:19 15.06.2020
1482 Mist 25 1017 100 6437 2.1 120 06:27 15.06.2020
1483 Rain 25 1017 83 16093 3.66 125 05:51 15.06.2020
1484 Rain 26 1017 66 16093 3.31 128 05:29 15.06.2020
1485 Clouds 27 1017 78 16093 1.5 60 04:22 15.06.2020
1486 Rain 27 1016 78 16093 2.1 140 03:48 15.06.2020
1487 Clear 27 1016 78 16093 4.1 140 02:56 15.06.2020
1488 Clear 27 1016 78 16093 4.1 140 02:29 15.06.2020
1489 Thunderstorm 27 1016 74 16093 3.1 130 01:47 15.06.2020
1490 Thunderstorm 28 1016 74 16093 3.1 130 01:24 15.06.2020
1491 Clouds 28 1016 74 16093 4.1 100 00:45 15.06.2020
1492 Clouds 28 1016 74 16093 4.1 100 00:23 15.06.2020
1493 Clouds 28 1016 78 16093 4.1 80 23:57 14.06.2020
1494 Clouds 28 1015 70 16093 3.6 130 23:39 14.06.2020
1495 Clouds 28 1015 70 16093 3.6 130 23:21 14.06.2020
1496 Clear 28 1015 74 16093 5.1 130 22:56 14.06.2020
1497 Clear 28 1015 74 16093 5.1 130 22:37 14.06.2020
1498 Clear 28 1015 74 16093 5.1 130 22:18 14.06.2020
1499 Rain 28 1016 74 16093 3.1 120 21:56 14.06.2020
1500 Rain 29 1016 74 16093 3.1 120 21:37 14.06.2020
1501 Rain 29 1016 74 16093 3.1 120 21:18 14.06.2020
1502 Rain 29 1016 78 16093 3.6 110 20:57 14.06.2020
1503 Rain 30 1016 70 16093 5.1 110 20:37 14.06.2020
1504 Rain 30 1016 70 16093 5.1 110 20:18 14.06.2020
1505 Rain 30 1017 66 16093 3.6 110 19:56 14.06.2020
1506 Rain 30 1016 70 16093 4.1 110 19:37 14.06.2020
1507 Rain 30 1016 70 16093 4.1 110 19:18 14.06.2020
1508 Rain 30 1017 78 16093 3.6 60 18:55 14.06.2020
1509 Rain 30 1017 78 16093 3.6 60 18:37 14.06.2020
1510 Rain 30 1017 78 16093 3.6 60 18:18 14.06.2020
1511 Clouds 29 1017 62 16093 3.6 100 17:55 14.06.2020
1512 Clouds 29 1017 62 16093 3.6 100 17:36 14.06.2020
1513 Clouds 29 1017 62 16093 3.6 100 17:18 14.06.2020
1514 Clouds 29 1017 70 16093 4.1 80 16:40 14.06.2020
1515 Clouds 29 1017 70 16093 4.1 80 16:20 14.06.2020
1516 Clouds 28 1016 78 16093 2.1 100 15:57 14.06.2020
1517 Clouds 28 1016 78 16093 2.1 100 15:38 14.06.2020
1518 Clouds 27 1016 78 16093 2.1 100 15:18 14.06.2020
1519 Clouds 26 1016 83 16093 2.1 90 14:55 14.06.2020
1520 Clouds 26 1016 83 16093 2.1 90 14:36 14.06.2020
1521 Clouds 26 1016 83 16093 2.1 90 14:18 14.06.2020
1522 Clouds 25 1015 83 16093 2.6 80 13:41 14.06.2020
1523 Clouds 25 1015 83 16093 2.6 80 13:22 14.06.2020
1524 Rain 25 1015 83 16093 2.1 100 12:59 14.06.2020
1525 Rain 25 1015 83 16093 2.1 100 12:40 14.06.2020
1526 Rain 25 1015 83 16093 2.1 100 12:21 14.06.2020
1527 Rain 25 1015 74 16093 5.7 100 11:58 14.06.2020
1528 Rain 25 1014 78 16093 1.5 40 11:40 14.06.2020
1529 Rain 26 1014 74 16093 3.6 60 11:21 14.06.2020
1530 Clouds 27 1014 74 16093 2.6 100 10:57 14.06.2020
1531 Clouds 27 1014 74 16093 2.6 100 10:38 14.06.2020
1532 Clouds 27 1014 74 16093 2.6 100 10:18 14.06.2020
1533 Clouds 27 1014 78 16093 4.1 100 09:42 14.06.2020
1534 Clouds 27 1014 78 16093 4.1 100 09:23 14.06.2020
1535 Clouds 27 1014 78 16093 4.1 100 08:42 14.06.2020
1536 Clouds 27 1014 78 16093 4.1 100 08:22 14.06.2020
1537 Clouds 27 1015 74 16093 5.1 90 07:52 14.06.2020
1538 Clouds 27 1015 74 16093 5.1 90 07:34 14.06.2020
1539 Rain 27 1015 74 16093 3.6 100 06:54 14.06.2020
1540 Clouds 27 1015 69 16093 3.6 80 05:54 14.06.2020
1541 Clouds 27 1015 69 16093 3.6 80 05:29 14.06.2020
1542 Rain 27 1015 69 16093 5.1 80 04:38 14.06.2020
1543 Clouds 28 1014 69 16093 4.6 60 03:54 14.06.2020
1544 Clouds 28 1014 69 16093 5.7 80 02:35 14.06.2020
1545 Clouds 28 1014 69 16093 6.2 70 01:55 14.06.2020
1546 Clouds 28 1014 69 16093 6.2 70 01:27 14.06.2020
1547 Clouds 28 1013 66 16093 7.2 90 00:48 14.06.2020
1548 Clouds 29 1013 66 16093 7.2 90 00:20 14.06.2020
1549 Clouds 30 1013 55 16093 5.7 90 23:46 13.06.2020
1550 Clouds 31 1013 55 16093 5.7 90 23:26 13.06.2020
1551 Clouds 31 1013 58 16093 5.1 100 22:58 13.06.2020
1552 Clouds 31 1013 58 16093 5.1 100 22:38 13.06.2020
1553 Clouds 31 1013 58 16093 5.1 100 22:19 13.06.2020
1554 Clouds 31 1014 58 16093 6.2 90 21:57 13.06.2020
1555 Clouds 31 1014 58 16093 6.2 90 21:39 13.06.2020
1556 Clouds 31 1014 58 16093 6.2 90 21:21 13.06.2020
1557 Clouds 31 1014 58 16093 6.2 140 20:44 13.06.2020
1558 Clouds 31 1014 58 16093 6.2 140 20:21 13.06.2020
1559 Clouds 31 1014 58 16093 6.2 110 19:59 13.06.2020
1560 Clouds 31 1014 58 16093 6.2 110 19:38 13.06.2020
1561 Clouds 31 1014 58 16093 6.2 110 19:19 13.06.2020
1562 Clouds 30 1015 62 16093 5.7 100 18:58 13.06.2020
1563 Clouds 30 1015 62 16093 5.7 100 18:38 13.06.2020
1564 Clouds 30 1015 62 16093 5.7 100 18:19 13.06.2020
1565 Clouds 30 1015 62 16093 3.1 110 17:55 13.06.2020
1566 Clouds 30 1015 62 16093 3.1 110 17:37 13.06.2020
1567 Clouds 30 1015 62 16093 3.1 110 17:19 13.06.2020
1568 Clouds 30 1015 66 16093 4.1 80 16:41 13.06.2020
1569 Clouds 29 1015 66 16093 4.1 80 16:20 13.06.2020
1570 Clouds 29 1015 66 16093 4.6 100 15:59 13.06.2020
1571 Clouds 29 1015 66 16093 4.6 100 15:41 13.06.2020
1572 Clouds 29 1015 66 16093 4.6 100 15:20 13.06.2020
1573 Rain 28 1014 74 16093 2.1 80 14:43 13.06.2020
1574 Rain 28 1014 74 16093 2.1 80 14:23 13.06.2020
1575 Clouds 27 1014 74 16093 4.1 60 13:56 13.06.2020
1576 Clouds 27 1014 74 16093 4.1 60 13:37 13.06.2020
1577 Clouds 27 1014 74 16093 4.1 60 13:37 13.06.2020
1578 Clouds 27 1014 74 16093 4.1 60 13:18 13.06.2020
1579 Clouds 27 1014 74 16093 2.1 80 12:43 13.06.2020
1580 Clouds 27 1014 74 16093 2.1 80 12:25 13.06.2020
1581 Clouds 27 1013 78 16093 2.1 80 11:55 13.06.2020
1582 Clouds 27 1013 78 16093 2.1 80 11:55 13.06.2020
1583 Clouds 27 1013 78 16093 2.1 80 11:37 13.06.2020
1584 Clouds 27 1013 78 16093 2.1 80 11:18 13.06.2020
1585 Clouds 26 1013 74 16093 4.1 90 10:49 13.06.2020
1586 Clouds 26 1013 74 16093 4.1 90 10:27 13.06.2020
1587 Clouds 27 1014 78 16093 4.6 110 09:56 13.06.2020
1588 Clouds 27 1014 78 16093 4.6 110 09:38 13.06.2020
1589 Clouds 27 1014 78 16093 4.6 110 09:19 13.06.2020
1590 Clouds 27 1014 69 16093 4.1 90 08:44 13.06.2020
1591 Clouds 27 1014 69 16093 4.1 90 08:26 13.06.2020
1592 Clouds 27 1015 74 16093 4.6 90 07:45 13.06.2020
1593 Clouds 27 1015 74 16093 4.6 90 07:26 13.06.2020
1594 Clouds 27 1015 74 16093 5.7 90 06:44 13.06.2020
1595 Clouds 28 1015 74 16093 5.7 90 06:26 13.06.2020
1596 Clouds 27 1015 78 16093 5.1 90 05:30 13.06.2020
1597 Clouds 27 1015 78 16093 5.1 130 04:46 13.06.2020
1598 Rain 27 1015 78 16093 4.1 60 03:44 13.06.2020
1599 Clouds 27 1014 69 16093 4.1 90 02:53 13.06.2020
1600 Clouds 27 1014 69 16093 4.1 90 02:18 13.06.2020
1601 Clouds 28 1014 65 16093 4.1 100 01:25 13.06.2020
1602 Clouds 28 1014 65 16093 4.1 90 00:56 13.06.2020
1603 Clouds 28 1014 65 16093 4.1 90 00:37 13.06.2020
1604 Clouds 28 1014 65 16093 4.1 90 00:19 13.06.2020
1605 Clouds 29 1015 66 16093 7.2 90 23:39 12.06.2020
1606 Clouds 28 1015 66 16093 7.2 90 23:18 12.06.2020
1607 Clouds 28 1015 66 16093 6.7 90 22:54 12.06.2020
1608 Clouds 29 1015 66 16093 6.7 90 22:36 12.06.2020
1609 Clouds 29 1015 66 16093 6.7 90 22:18 12.06.2020
1610 Rain 29 1016 78 14484 6.7 110 21:42 12.06.2020
1611 Rain 29 1016 78 14484 6.7 110 21:23 12.06.2020
1612 Clouds 30 1017 52 16093 6.2 60 20:57 12.06.2020
1613 Clouds 29 1017 52 16093 6.2 60 20:37 12.06.2020
1614 Clouds 30 1017 52 16093 6.2 60 20:19 12.06.2020
1615 Clouds 31 1017 55 16093 4.6 90 19:42 12.06.2020
1616 Clouds 31 1017 55 16093 4.6 90 19:21 12.06.2020
1617 Clouds 31 1017 52 16093 4.1 70 18:58 12.06.2020
1618 Clouds 31 1017 52 16093 4.1 70 18:37 12.06.2020
1619 Clouds 31 1017 52 16093 4.1 70 18:18 12.06.2020
1620 Clouds 30 1017 66 16093 4.1 50 17:43 12.06.2020
1621 Clouds 30 1017 66 16093 4.1 50 17:25 12.06.2020
1622 Clouds 29 1017 65 16093 6.2 90 16:47 12.06.2020
1623 Clouds 29 1017 65 16093 6.2 90 16:22 12.06.2020
1624 Clouds 28 1017 65 16093 5.1 70 15:53 12.06.2020
1625 Clouds 28 1017 65 16093 5.1 70 15:29 12.06.2020
1626 Clouds 28 1017 65 16093 3.1 60 14:59 12.06.2020
1627 Clouds 28 1017 65 16093 3.1 60 14:41 12.06.2020
1628 Clouds 28 1017 65 16093 3.1 60 14:21 12.06.2020
1629 Clouds 27 1017 69 16093 2.1 50 13:44 12.06.2020
1630 Clouds 27 1017 69 16093 2.1 50 13:22 12.06.2020
1631 Clouds 27 1016 69 16093 2.6 60 12:57 12.06.2020
1632 Clouds 27 1016 69 16093 2.6 60 12:39 12.06.2020
1633 Clouds 26 1016 69 16093 2.6 60 12:18 12.06.2020
1634 Clouds 26 1016 69 16093 2.1 50 11:44 12.06.2020
1635 Clouds 26 1016 69 16093 2.1 50 11:23 12.06.2020
1636 Clouds 27 1016 69 16093 2.1 40 10:54 12.06.2020
1637 Clouds 27 1016 69 16093 2.1 40 10:36 12.06.2020
1638 Clouds 27 1016 69 16093 2.1 40 10:18 12.06.2020
1639 Clouds 26 1017 65 16093 3.1 70 09:43 12.06.2020
1640 Clouds 26 1017 65 16093 3.1 70 09:19 12.06.2020
1641 Clouds 27 1017 69 16093 4.1 80 08:41 12.06.2020
1642 Clouds 27 1017 69 16093 4.1 80 08:23 12.06.2020
1643 Clouds 27 1018 61 16093 3.6 80 07:42 12.06.2020
1644 Clouds 27 1018 61 16093 3.6 80 07:24 12.06.2020
1645 Clouds 27 1018 69 16093 5.7 80 06:41 12.06.2020
1646 Clouds 27 1018 69 16093 5.7 80 06:21 12.06.2020
1647 Clouds 27 1018 65 16093 4.6 70 05:49 12.06.2020
1648 Clouds 27 1018 65 16093 4.6 70 05:23 12.06.2020
1649 Clouds 27 1018 61 16093 3.6 50 03:53 12.06.2020
1650 Clouds 27 1018 54 16093 4.6 90 02:42 12.06.2020
1651 Clouds 28 1017 54 16093 4.6 70 01:39 12.06.2020
1652 Clouds 28 1017 54 16093 4.6 70 01:19 12.06.2020
1653 Clouds 29 1017 54 16093 5.1 70 00:39 12.06.2020
1654 Clouds 29 1017 54 16093 5.1 70 00:39 12.06.2020
1655 Clouds 29 1017 54 16093 5.1 70 00:20 12.06.2020
1656 Clouds 30 1017 55 16093 6.7 80 23:57 11.06.2020
1657 Clouds 30 1017 55 16093 6.7 80 23:38 11.06.2020
1658 Clouds 30 1017 55 16093 6.7 80 23:19 11.06.2020
1659 Clouds 30 1017 58 16093 6.2 90 22:54 11.06.2020
1660 Clouds 30 1017 58 16093 6.2 90 22:36 11.06.2020
1661 Clouds 30 1017 58 16093 6.2 90 22:18 11.06.2020
1662 Clouds 30 1018 58 16093 6.7 70 21:42 11.06.2020
1663 Clouds 30 1018 58 16093 6.7 70 21:20 11.06.2020
1664 Clouds 30 1018 58 16093 7.2 80 20:57 11.06.2020
1665 Clouds 30 1018 58 16093 7.2 80 20:39 11.06.2020
1666 Clouds 30 1018 58 16093 7.2 80 20:20 11.06.2020
1667 Clouds 31 1018 62 16093 5.7 70 19:43 11.06.2020
1668 Clouds 31 1018 62 16093 5.7 70 19:22 11.06.2020
1669 Clouds 31 1019 62 16093 5.1 90 18:54 11.06.2020
1670 Clouds 30 1019 62 16093 5.1 90 18:36 11.06.2020
1671 Clouds 30 1019 62 16093 5.1 90 18:18 11.06.2020
1672 Clouds 29 1019 70 16093 4.6 90 17:55 11.06.2020
1673 Clouds 29 1019 70 16093 4.6 90 17:37 11.06.2020
1674 Clouds 29 1019 70 16093 4.6 90 17:18 11.06.2020
1675 Clouds 29 1018 83 16093 6.8 87 16:42 11.06.2020
1676 Rain 28 1018 88 16093 6.33 90 16:23 11.06.2020
1677 Rain 28 1018 88 16093 1.5 0 15:57 11.06.2020
1678 Rain 28 1018 88 16093 1.5 0 15:38 11.06.2020
1679 Rain 28 1018 83 16093 5.72 98 15:20 11.06.2020
1680 Rain 27 1018 88 9656 1.5 290 14:44 11.06.2020
1681 Rain 27 1018 88 6437 3.1 110 14:21 11.06.2020
1682 Rain 27 1018 83 16093 2.6 100 13:57 11.06.2020
1683 Rain 27 1018 83 16093 2.6 100 13:39 11.06.2020
1684 Clouds 27 1018 83 16093 2.6 100 13:20 11.06.2020
1685 Clouds 27 1017 78 16093 4.1 110 12:56 11.06.2020
1686 Clouds 27 1017 78 16093 4.1 110 12:56 11.06.2020
1687 Clouds 26 1017 78 16093 4.1 110 12:38 11.06.2020
1688 Clouds 26 1017 78 16093 4.1 110 12:19 11.06.2020
1689 Clouds 26 1016 78 16093 1.5 20 11:57 11.06.2020
1690 Clouds 26 1016 78 16093 1.5 20 11:38 11.06.2020
1691 Rain 26 1016 78 16093 1.5 20 11:20 11.06.2020
1692 Rain 26 1016 78 16093 4.76 105 10:54 11.06.2020
1693 Rain 26 1016 78 16093 4.76 105 10:36 11.06.2020
1694 Clouds 26 1016 78 16093 4.48 101 10:18 11.06.2020
1695 Clouds 26 1016 74 16093 3.1 40 09:40 11.06.2020
1696 Clouds 26 1016 74 16093 3.1 40 09:22 11.06.2020
1697 Clouds 26 1017 78 16093 4.11 98 08:44 11.06.2020
1698 Clouds 26 1017 78 16093 3.76 91 08:20 11.06.2020
1699 Clouds 26 1018 78 16093 2.1 180 07:42 11.06.2020
1700 Rain 26 1018 69 16093 2.6 150 07:24 11.06.2020
1701 Thunderstorm 27 1018 78 16093 2.6 40 06:40 11.06.2020
1702 Thunderstorm 27 1018 78 16093 2.6 40 06:22 11.06.2020
1703 Clouds 28 1018 74 16093 2.1 30 05:36 11.06.2020
1704 Clouds 29 1017 74 16093 3.1 130 03:30 11.06.2020
1705 Clouds 29 1017 70 16093 3.6 110 02:52 11.06.2020
1706 Clouds 29 1017 70 16093 3.6 110 02:32 11.06.2020
1707 Clouds 30 1016 66 16093 4.6 130 01:47 11.06.2020
1708 Clouds 30 1016 66 16093 4.6 130 01:24 11.06.2020
1709 Clouds 30 1016 62 16093 3.6 120 00:49 11.06.2020
1710 Clouds 31 1016 62 16093 3.6 120 00:27 11.06.2020
1711 Clouds 32 1016 59 16093 4.1 120 23:46 10.06.2020
1712 Clouds 31 1016 59 16093 4.1 120 23:27 10.06.2020
1713 Clouds 32 1016 55 16093 4.1 120 22:56 10.06.2020
1714 Clouds 32 1016 55 16093 4.1 120 22:38 10.06.2020
1715 Clouds 32 1016 55 16093 4.1 120 22:19 10.06.2020
1716 Clouds 32 1016 55 16093 5.1 130 21:56 10.06.2020
1717 Clouds 32 1016 55 16093 5.1 130 21:38 10.06.2020
1718 Clouds 32 1016 55 16093 5.1 130 21:18 10.06.2020
1719 Clouds 32 1017 55 16093 3.1 120 20:56 10.06.2020
1720 Clouds 32 1017 55 16093 3.1 120 20:38 10.06.2020
1721 Clouds 32 1017 55 16093 3.1 120 20:20 10.06.2020
1722 Clouds 32 1017 55 16093 4.6 120 19:41 10.06.2020
1723 Clouds 32 1017 55 16093 4.6 120 19:20 10.06.2020
1724 Clouds 32 1017 55 16093 4.6 110 18:58 10.06.2020
1725 Clouds 32 1017 55 16093 4.6 110 18:40 10.06.2020
1726 Clouds 32 1017 55 16093 4.6 110 18:19 10.06.2020
1727 Clouds 31 1017 58 16093 4.1 110 17:55 10.06.2020
1728 Clouds 31 1017 58 16093 4.1 110 17:37 10.06.2020
1729 Clouds 31 1017 58 16093 4.1 110 17:37 10.06.2020
1730 Clouds 31 1017 58 16093 4.1 110 17:19 10.06.2020
1731 Clouds 30 1017 66 16093 3.1 120 16:57 10.06.2020
1732 Clouds 30 1017 66 16093 3.1 120 16:39 10.06.2020
1733 Clouds 30 1017 66 16093 3.1 120 16:19 10.06.2020
1734 Clouds 30 1017 66 16093 4.1 100 15:40 10.06.2020
1735 Clouds 30 1017 66 16093 4.1 100 15:21 10.06.2020
1736 Clouds 29 1016 74 16093 2.6 50 14:56 10.06.2020
1737 Clouds 29 1016 74 16093 2.6 50 14:38 10.06.2020
1738 Clouds 29 1016 74 16093 2.6 50 14:19 10.06.2020
1739 Clouds 27 1016 78 16093 2.1 50 13:40 10.06.2020
1740 Clouds 27 1016 78 16093 2.1 50 13:21 10.06.2020
1741 Clouds 27 1015 83 16093 1.5 40 12:45 10.06.2020
1742 Clouds 27 1015 83 16093 1.5 40 12:23 10.06.2020
1743 Clouds 27 1015 78 16093 2.1 30 11:58 10.06.2020
1744 Clouds 27 1015 78 16093 2.1 30 11:40 10.06.2020
1745 Clouds 27 1015 78 16093 2.1 30 11:19 10.06.2020
1746 Clouds 27 1015 78 16093 1.5 30 10:57 10.06.2020
1747 Clouds 27 1015 78 16093 1.5 30 10:39 10.06.2020
1748 Clouds 27 1015 78 16093 1.5 30 10:20 10.06.2020
1749 Clouds 27 1015 78 16093 2.6 100 09:41 10.06.2020
1750 Clouds 27 1015 78 16093 2.6 100 09:41 10.06.2020
1751 Clouds 27 1015 78 16093 2.6 100 09:41 10.06.2020
1752 Clouds 28 1015 78 16093 2.6 100 09:23 10.06.2020
1753 Clouds 28 1016 78 16093 2.1 100 08:57 10.06.2020
1754 Clouds 28 1016 78 16093 2.1 100 08:38 10.06.2020
1755 Clouds 28 1016 78 16093 2.1 100 08:20 10.06.2020
1756 Clouds 28 1016 74 16093 2.1 120 07:39 10.06.2020
1757 Clouds 28 1016 74 16093 2.1 120 07:20 10.06.2020
1758 Clouds 28 1017 78 16093 3.1 110 06:44 10.06.2020
1759 Clouds 28 1017 78 16093 3.1 110 06:22 10.06.2020
1760 Clouds 28 1017 78 16093 3.6 120 05:56 10.06.2020
1761 Clouds 28 1017 78 16093 3.6 120 05:26 10.06.2020
1762 Clouds 28 1016 78 16093 3.1 100 04:35 10.06.2020
1763 Clouds 29 1015 74 16093 3.6 100 02:57 10.06.2020
1764 Clouds 29 1015 74 16093 3.6 100 02:21 10.06.2020
1765 Clouds 29 1014 70 16093 4.1 150 01:36 10.06.2020
1766 Clouds 31 1014 66 16093 4.1 140 00:40 10.06.2020
1767 Clouds 31 1014 66 16093 4.1 140 00:22 10.06.2020
1768 Clouds 31 1014 66 16093 4.1 140 00:21 10.06.2020
1769 Clouds 31 1014 62 16093 3.6 150 23:57 09.06.2020
1770 Clouds 31 1014 62 16093 3.6 150 23:38 09.06.2020
1771 Clouds 32 1014 62 16093 3.6 150 23:20 09.06.2020
1772 Clouds 31 1015 59 16093 3.6 150 22:56 09.06.2020
1773 Clouds 32 1015 59 16093 3.6 150 22:37 09.06.2020
1774 Clouds 32 1015 59 16093 3.6 150 22:19 09.06.2020
1775 Clouds 32 1015 59 16093 5.1 110 21:56 09.06.2020
1776 Clouds 32 1015 59 16093 5.1 110 21:38 09.06.2020
1777 Clouds 32 1015 59 16093 5.1 110 21:19 09.06.2020
1778 Clouds 32 1016 62 16093 4.1 90 20:56 09.06.2020
1779 Clouds 32 1016 62 16093 4.1 90 20:38 09.06.2020
1780 Clouds 32 1016 62 16093 4.1 90 20:18 09.06.2020
1781 Clouds 32 1016 62 16093 3.6 140 19:56 09.06.2020
1782 Clouds 32 1016 62 16093 3.6 140 19:38 09.06.2020
1783 Clouds 32 1016 62 16093 3.6 140 19:20 09.06.2020
1784 Clouds 31 1016 66 16093 4.6 120 18:45 09.06.2020
1785 Clouds 31 1016 66 16093 4.6 120 18:26 09.06.2020
1786 Clouds 31 1016 66 16093 5.1 120 17:58 09.06.2020
1787 Clouds 31 1016 66 16093 5.1 120 17:40 09.06.2020
1788 Clouds 31 1016 66 16093 5.1 120 17:22 09.06.2020
1789 Clouds 30 1016 70 16093 5.1 130 16:58 09.06.2020
1790 Clouds 30 1016 70 16093 5.1 130 16:39 09.06.2020
1791 Clouds 30 1016 70 16093 5.1 130 16:20 09.06.2020
1792 Clouds 30 1016 79 16093 5.1 130 15:40 09.06.2020
1793 Clouds 29 1016 79 16093 5.1 130 15:22 09.06.2020
1794 Clouds 29 1016 79 16093 5.1 130 14:59 09.06.2020
1795 Clouds 29 1015 78 16093 2.1 120 14:39 09.06.2020
1796 Clouds 28 1015 78 16093 2.1 120 14:19 09.06.2020
1797 Clouds 28 1015 88 16093 2.1 120 13:56 09.06.2020
1798 Clouds 28 1015 88 16093 2.1 120 13:56 09.06.2020
1799 Clouds 27 1015 88 16093 2.1 120 13:38 09.06.2020
1800 Clouds 27 1015 88 16093 2.1 120 13:20 09.06.2020
1801 Clouds 27 1015 83 16093 2.6 100 12:42 09.06.2020
1802 Clouds 27 1015 83 16093 2.6 100 12:21 09.06.2020
1803 Clouds 27 1014 83 16093 2.1 100 11:58 09.06.2020
1804 Clouds 27 1014 83 16093 2.1 100 11:40 09.06.2020
1805 Clouds 27 1014 83 16093 2.1 100 11:20 09.06.2020
1806 Clouds 27 1014 83 16093 2.1 110 10:55 09.06.2020
1807 Clouds 27 1014 83 16093 2.1 110 10:36 09.06.2020
1808 Clouds 27 1014 83 16093 2.1 110 10:18 09.06.2020
1809 Clouds 27 1015 88 16093 1.5 110 09:41 09.06.2020
1810 Clouds 27 1015 88 16093 1.5 110 09:22 09.06.2020
1811 Clouds 27 1015 94 16093 2.1 120 08:55 09.06.2020
1812 Clouds 27 1015 94 16093 2.1 120 08:36 09.06.2020
1813 Clouds 27 1015 94 16093 2.1 120 08:18 09.06.2020
1814 Clouds 28 1016 88 16093 2.6 100 07:37 09.06.2020
1815 Clouds 28 1016 88 16093 2.6 100 07:18 09.06.2020
1816 Clouds 28 1016 88 16093 2.1 100 06:52 09.06.2020
1817 Clouds 28 1016 88 16093 2.1 100 06:28 09.06.2020
1818 Clouds 28 1015 88 16093 2.1 100 04:39 09.06.2020
1819 Clouds 28 1015 79 16093 3.6 120 02:52 09.06.2020
1820 Clouds 29 1015 74 16093 2.1 0 01:40 09.06.2020
1821 Clouds 30 1015 74 16093 2.1 0 01:19 09.06.2020
1822 Clouds 31 1015 70 16093 2.6 170 00:44 09.06.2020
1823 Clouds 31 1015 70 16093 2.6 170 00:20 09.06.2020
1824 Clouds 31 1015 66 16093 2.6 130 23:54 08.06.2020
1825 Clouds 31 1015 66 16093 2.6 130 23:36 08.06.2020
1826 Clouds 31 1015 66 16093 2.6 130 23:18 08.06.2020
1827 Clouds 31 1015 70 16093 2.6 180 22:39 08.06.2020
1828 Clouds 31 1015 70 16093 2.6 180 22:20 08.06.2020
1829 Clouds 30 1016 83 16093 2.1 190 21:57 08.06.2020
1830 Clouds 30 1016 83 16093 2.1 190 21:39 08.06.2020
1831 Clouds 30 1016 83 16093 2.1 190 21:20 08.06.2020
1832 Clouds 30 1017 70 16093 2.1 220 20:55 08.06.2020
1833 Clouds 29 1017 70 16093 2.1 220 20:37 08.06.2020
1834 Rain 30 1017 70 16093 2.1 220 20:19 08.06.2020
1835 Rain 29 1017 69 16093 2.1 170 19:44 08.06.2020
1836 Rain 28 1017 83 16093 3.6 180 19:22 08.06.2020
1837 Rain 28 1017 88 16093 2.1 180 18:58 08.06.2020
1838 Rain 28 1017 88 16093 2.1 180 18:39 08.06.2020
1839 Rain 29 1017 83 16093 1.5 160 18:18 08.06.2020
1840 Rain 29 1017 83 16093 3.6 220 17:54 08.06.2020
1841 Rain 29 1017 83 16093 3.6 220 17:36 08.06.2020
1842 Rain 29 1017 83 16093 3.6 220 17:18 08.06.2020
1843 Rain 29 1017 83 9656 2.1 190 16:42 08.06.2020
1844 Clouds 30 1017 79 16093 3.1 130 16:22 08.06.2020
1845 Clouds 30 1016 83 16093 2.1 140 15:44 08.06.2020
1846 Clouds 30 1016 83 16093 2.1 140 15:22 08.06.2020
1847 Clouds 29 1016 88 16093 2.6 160 14:59 08.06.2020
1848 Clouds 29 1016 88 16093 2.6 160 14:40 08.06.2020
1849 Clouds 28 1016 88 16093 2.6 160 14:20 08.06.2020
1850 Clouds 28 1015 88 16093 2.1 170 13:44 08.06.2020
1851 Clouds 28 1015 88 16093 2.1 170 13:26 08.06.2020
1852 Clouds 28 1014 83 16093 2.6 170 12:54 08.06.2020
1853 Clouds 28 1014 83 16093 2.6 170 12:36 08.06.2020
1854 Clouds 28 1014 83 16093 2.6 170 12:18 08.06.2020
1855 Clouds 28 1014 88 16093 2.1 150 11:42 08.06.2020
1856 Clouds 28 1014 88 16093 2.1 150 11:23 08.06.2020
1857 Clouds 28 1014 88 16093 3.1 150 10:59 08.06.2020
1858 Clouds 28 1014 88 16093 3.1 150 10:40 08.06.2020
1859 Clouds 28 1014 88 16093 3.1 150 10:21 08.06.2020
1860 Clouds 28 1014 88 16093 4.1 130 09:58 08.06.2020
1861 Clouds 28 1014 88 16093 4.1 130 09:58 08.06.2020
1862 Clouds 28 1014 88 16093 4.1 130 09:40 08.06.2020
1863 Clouds 28 1014 88 16093 4.1 130 09:22 08.06.2020
1864 Clouds 28 1015 88 16093 2.6 140 08:47 08.06.2020
1865 Clouds 28 1015 88 16093 2.6 140 08:47 08.06.2020
1866 Clouds 28 1015 88 16093 2.6 140 08:23 08.06.2020
1867 Clouds 28 1015 88 16093 3.1 120 07:46 08.06.2020
1868 Clouds 28 1015 88 16093 3.1 120 07:24 08.06.2020
1869 Clouds 28 1015 88 16093 3.1 140 06:51 08.06.2020
1870 Clouds 28 1015 88 16093 3.1 140 06:33 08.06.2020
1871 Clouds 28 1015 88 16093 3.6 140 05:52 08.06.2020
1872 Clouds 28 1015 88 16093 3.1 0 04:29 08.06.2020
1873 Clouds 29 1015 83 16093 4.1 140 02:46 08.06.2020
1874 Clouds 29 1015 83 16093 4.1 140 02:21 08.06.2020
1875 Clouds 29 1014 83 16093 5.1 150 01:34 08.06.2020
1876 Clouds 30 1014 79 16093 5.1 130 00:33 08.06.2020
1877 Clouds 30 1014 74 16093 6.2 140 23:59 07.06.2020
1878 Clouds 31 1014 74 16093 6.2 140 23:37 07.06.2020
1879 Clouds 31 1014 74 16093 6.2 140 23:18 07.06.2020
1880 Clouds 31 1014 70 16093 7.2 130 22:40 07.06.2020
1881 Clouds 31 1014 70 16093 7.2 130 22:20 07.06.2020
1882 -273 0 0 0 0 0 22:00 07.06.2020
1883 Clouds 31 1015 66 16093 4.6 150 21:41 07.06.2020
1884 Clouds 32 1015 66 16093 4.6 150 21:23 07.06.2020
1885 Clouds 31 1015 62 16093 4.6 170 20:57 07.06.2020
1886 Clouds 32 1015 62 16093 4.6 170 20:38 07.06.2020
1887 Clouds 32 1015 62 16093 4.6 170 20:20 07.06.2020
1888 Clouds 32 1015 62 16093 4.1 180 19:56 07.06.2020
1889 Clouds 32 1015 62 16093 4.1 180 19:38 07.06.2020
1890 Clouds 32 1015 62 16093 4.1 180 19:19 07.06.2020
1891 Clouds 31 1016 66 16093 6.2 180 18:55 07.06.2020
1892 Clouds 31 1016 66 16093 6.2 180 18:37 07.06.2020
1893 Clouds 31 1016 66 16093 6.2 180 18:18 07.06.2020
1894 Clouds 31 1016 66 16093 3.6 180 17:55 07.06.2020
1895 Clouds 31 1016 66 16093 3.6 180 17:37 07.06.2020
1896 Clouds 31 1016 66 16093 3.6 180 17:19 07.06.2020
1897 Clouds 30 1015 79 16093 5.1 160 16:42 07.06.2020
1898 Clouds 30 1015 79 16093 5.1 160 16:21 07.06.2020
1899 Clouds 30 1015 79 16093 5.1 160 16:21 07.06.2020
1900 Rain 29 1015 83 16093 4.1 170 15:40 07.06.2020
1901 Clouds 29 1015 83 16093 4.1 170 15:20 07.06.2020
1902 Clouds 29 1015 88 16093 4.6 170 14:40 07.06.2020
1903 Clouds 29 1015 88 16093 4.6 170 14:21 07.06.2020
1904 Clouds 28 1015 88 16093 4.1 160 13:48 07.06.2020
1905 Clouds 28 1015 88 16093 4.1 160 13:21 07.06.2020
1906 Clouds 28 1014 88 16093 5.7 150 12:55 07.06.2020
1907 Clouds 28 1014 88 16093 5.7 150 12:37 07.06.2020
1908 Clouds 28 1014 88 16093 5.7 150 12:18 07.06.2020
1909 Clouds 28 1014 88 12874 5.7 150 11:55 07.06.2020
1910 Clouds 28 1014 88 12874 5.7 150 11:36 07.06.2020
1911 Clouds 28 1014 88 12874 5.7 150 11:18 07.06.2020
1912 Clouds 28 1014 88 16093 4.6 140 10:43 07.06.2020
1913 Clouds 28 1014 88 16093 4.6 140 10:20 07.06.2020
1914 Clouds 28 1014 88 16093 4.6 150 09:57 07.06.2020
1915 Clouds 28 1014 88 16093 4.6 150 09:39 07.06.2020
1916 Clouds 28 1014 88 16093 4.6 150 09:20 07.06.2020
1917 Clouds 28 1015 88 16093 5.1 140 08:57 07.06.2020
1918 Clouds 28 1015 88 16093 5.1 140 08:39 07.06.2020
1919 Clouds 28 1015 88 16093 5.1 140 08:20 07.06.2020
1920 Clouds 28 1015 88 16093 4.6 140 07:32 07.06.2020
1921 Clouds 28 1016 88 16093 4.1 140 06:51 07.06.2020
1922 Clouds 28 1016 83 16093 3.6 150 05:52 07.06.2020
1923 Clouds 28 1015 83 16093 4.6 140 04:21 07.06.2020
1924 Clouds 29 1015 79 16093 4.6 140 02:57 07.06.2020
1925 Clouds 29 1014 74 16093 3.6 150 02:18 07.06.2020
1926 Clouds 29 1014 79 16093 5.1 150 01:25 07.06.2020
1927 Clouds 30 1015 70 16093 5.7 170 00:47 07.06.2020
1928 Clouds 30 1015 70 16093 5.7 170 00:20 07.06.2020
1929 Clouds 30 1014 66 16093 4.6 150 23:58 06.06.2020
1930 Clouds 30 1014 66 16093 4.6 150 23:37 06.06.2020
1931 Clouds 30 1014 66 16093 4.6 150 23:19 06.06.2020
1932 Clouds 31 1015 66 16093 6.2 150 22:56 06.06.2020
1933 Clouds 31 1015 66 16093 6.2 150 22:38 06.06.2020
1934 Clouds 31 1015 66 16093 6.2 150 22:19 06.06.2020
1935 Clouds 31 1015 66 16093 6.2 150 22:19 06.06.2020
1936 Clouds 31 1016 70 16093 5.7 140 21:46 06.06.2020
1937 Clouds 31 1016 70 16093 5.7 140 21:22 06.06.2020
1938 Clouds 31 1016 70 16093 5.7 140 21:22 06.06.2020
1939 Clouds 30 1016 70 16093 5.7 140 20:58 06.06.2020
1940 Clouds 31 1016 70 16093 5.7 150 20:39 06.06.2020
1941 Clouds 31 1016 70 16093 5.7 150 20:18 06.06.2020
1942 Clouds 31 1016 74 16093 5.7 150 19:57 06.06.2020
1943 Clouds 31 1016 74 16093 5.7 150 19:38 06.06.2020
1944 Clouds 30 1016 79 16093 6.2 130 19:20 06.06.2020
1945 Clouds 30 1016 83 16093 5.7 130 18:54 06.06.2020
1946 Clouds 30 1016 83 16093 5.7 130 18:36 06.06.2020
1947 Clouds 30 1016 83 16093 5.7 130 18:18 06.06.2020
1948 Clouds 29 1016 83 16093 6.2 130 17:41 06.06.2020
1949 Clouds 29 1016 83 16093 6.2 130 17:19 06.06.2020
1950 Clouds 29 1016 83 16093 6.7 130 16:55 06.06.2020
1951 Clouds 29 1016 83 16093 6.7 130 16:36 06.06.2020
1952 Clouds 29 1016 83 16093 6.7 130 16:18 06.06.2020
1953 Clouds 29 1016 88 16093 6.7 120 15:42 06.06.2020
1954 Clouds 29 1016 88 16093 6.7 120 15:20 06.06.2020
1955 Clouds 28 1015 83 16093 6.2 120 14:54 06.06.2020
1956 Clouds 28 1015 83 16093 6.2 120 14:36 06.06.2020
1957 Clouds 28 1015 83 16093 6.2 120 14:18 06.06.2020
1958 Clouds 28 1015 88 16093 4.6 120 13:41 06.06.2020
1959 Clouds 28 1015 88 16093 4.6 120 13:19 06.06.2020
1960 Clouds 28 1015 83 16093 5.1 120 12:55 06.06.2020
1961 Clouds 28 1015 83 16093 6.2 120 12:37 06.06.2020
1962 Clouds 28 1015 83 16093 6.2 120 12:18 06.06.2020
1963 Clouds 28 1014 83 14484 5.7 120 11:40 06.06.2020
1964 Clouds 28 1014 83 14484 5.7 120 11:20 06.06.2020
1965 Clouds 28 1014 83 14484 5.7 120 10:59 06.06.2020
1966 Clouds 28 1015 83 14484 5.7 120 10:40 06.06.2020
1967 Clouds 28 1015 88 12874 5.1 120 10:22 06.06.2020
1968 Clouds 28 1015 88 12874 5.1 120 09:59 06.06.2020
1969 Clouds 28 1015 88 12874 5.7 120 09:41 06.06.2020
1970 Clouds 28 1015 88 16093 5.1 120 09:22 06.06.2020
1971 Rain 28 1015 88 12874 4.6 100 08:45 06.06.2020
1972 Rain 28 1015 88 12874 4.6 100 08:24 06.06.2020
1973 Clouds 28 1016 88 16093 4.1 100 07:55 06.06.2020
1974 Clouds 28 1016 88 16093 4.1 100 07:36 06.06.2020
1975 Clouds 28 1016 88 16093 4.1 100 07:18 06.06.2020
1976 Clouds 28 1017 88 16093 3.6 100 06:42 06.06.2020
1977 Clouds 28 1017 88 16093 3.6 100 06:23 06.06.2020
1978 Clouds 28 1017 88 16093 4.6 110 05:32 06.06.2020
1979 Clouds 28 1016 83 16093 5.1 110 04:47 06.06.2020
1980 Clouds 28 1016 83 16093 4.1 100 03:29 06.06.2020
1981 Clouds 28 1016 88 16093 3.6 110 01:59 06.06.2020
1982 Clouds 29 1016 83 16093 4.6 110 01:21 06.06.2020
1983 Clouds 29 1016 79 16093 5.1 140 00:56 06.06.2020
1984 Clouds 29 1016 79 16093 5.1 140 00:37 06.06.2020
1985 Clouds 29 1016 79 16093 5.1 140 00:19 06.06.2020
1986 Clouds 29 1016 83 16093 4.6 130 23:39 05.06.2020
1987 Thunderstorm 29 1015 83 16093 5.1 140 23:19 05.06.2020
1988 Rain 29 1015 83 16093 5.7 120 22:56 05.06.2020
1989 Rain 29 1015 83 16093 5.7 120 22:38 05.06.2020
1990 Clouds 29 1015 83 16093 5.7 120 22:19 05.06.2020
1991 Clouds 29 1015 83 16093 5.7 120 22:19 05.06.2020
1992 Clouds 29 1015 83 16093 6.7 120 21:43 05.06.2020
1993 Clouds 29 1015 83 16093 6.7 120 21:23 05.06.2020
1994 Clouds 30 1015 83 16093 6.7 120 20:58 05.06.2020
1995 Clouds 30 1016 79 16093 8.2 130 20:40 05.06.2020
1996 Clouds 31 1016 79 16093 8.2 130 20:21 05.06.2020
1997 Clouds 30 1017 79 16093 5.7 130 19:44 05.06.2020
1998 Clouds 30 1017 79 16093 5.7 130 19:24 05.06.2020
1999 Clouds 31 1017 79 16093 7.2 140 18:58 05.06.2020
2000 Clouds 31 1017 79 16093 7.2 140 18:58 05.06.2020
2001 Clouds 31 1017 79 16093 7.2 140 18:39 05.06.2020
2002 Clouds 30 1017 79 16093 7.2 140 18:20 05.06.2020
2003 -273 0 0 0 0 0 17:58 05.06.2020
2004 Clouds 31 1017 79 16093 5.7 110 17:40 05.06.2020
2005 Clouds 31 1017 79 16093 5.7 110 17:19 05.06.2020
2006 Clouds 30 1017 83 16093 4.1 130 16:40 05.06.2020
2007 Clouds 30 1017 83 16093 4.1 130 16:22 05.06.2020
2008 Clouds 30 1017 83 16093 5.1 120 15:57 05.06.2020
2009 Clouds 29 1017 83 16093 5.1 120 15:37 05.06.2020
2010 Clouds 29 1017 88 16093 4.6 140 15:19 05.06.2020
2011 Clouds 28 1016 88 16093 3.6 110 14:56 05.06.2020
2012 Clouds 28 1016 88 16093 3.6 110 14:37 05.06.2020
2013 Clouds 28 1016 88 16093 3.6 110 14:19 05.06.2020
2014 Clouds 27 1016 94 16093 2.6 120 13:42 05.06.2020
2015 Clouds 27 1016 94 16093 2.6 120 13:23 05.06.2020
2016 Clouds 27 1016 88 16093 3.1 130 12:43 05.06.2020
2017 Clouds 27 1016 88 16093 3.1 130 12:20 05.06.2020
2018 Clouds 27 1015 88 16093 2.6 120 11:57 05.06.2020
2019 Clouds 27 1015 88 16093 2.6 120 11:39 05.06.2020
2020 Clouds 27 1015 88 16093 2.6 120 11:20 05.06.2020
2021 Clouds 27 1015 88 16093 3.1 110 10:55 05.06.2020
2022 Clouds 27 1015 88 16093 3.1 110 10:36 05.06.2020
2023 Clouds 27 1015 88 16093 3.1 110 10:18 05.06.2020
2024 Clouds 27 1015 88 16093 3.6 120 09:55 05.06.2020
2025 Clouds 27 1015 88 16093 3.6 120 09:36 05.06.2020
2026 Clouds 27 1015 88 16093 3.6 120 09:18 05.06.2020
2027 Clouds 27 1015 88 16093 3.6 120 09:18 05.06.2020
2028 Clouds 27 1016 83 16093 3.6 130 08:41 05.06.2020
2029 Clouds 27 1016 83 16093 3.6 130 08:20 05.06.2020
2030 Clouds 27 1017 83 16093 2.6 130 07:58 05.06.2020
2031 Clouds 27 1017 83 16093 2.6 130 07:39 05.06.2020
2032 Clouds 27 1017 83 16093 2.6 130 07:19 05.06.2020
2033 -273 0 0 0 0 0 05:58 05.06.2020
2034 Clouds 26 1017 83 16093 1.5 30 05:19 05.06.2020
2035 Clear 26 1016 83 16093 2.31 51 03:54 05.06.2020
2036 Clouds 26 1016 83 16093 1.5 120 02:53 05.06.2020
2037 Clouds 26 1016 83 16093 1.5 120 02:24 05.06.2020
2038 Clouds 26 1015 78 16093 2.6 70 01:55 05.06.2020
2039 Clouds 26 1015 78 16093 2.6 70 01:26 05.06.2020
2040 Rain 26 1015 83 16093 3.1 120 00:42 05.06.2020
2041 Rain 26 1015 83 16093 3.1 120 00:20 05.06.2020
2042 Rain 26 1015 88 16093 2.6 130 23:46 04.06.2020
2043 Rain 26 1015 88 16093 2.6 130 23:27 04.06.2020
2044 Rain 25 1015 94 14484 2.6 100 22:55 04.06.2020
2045 Rain 25 1015 94 14484 2.6 100 22:36 04.06.2020
2046 Rain 25 1015 94 14484 2.6 100 22:18 04.06.2020
2047 Rain 25 1016 83 8047 7.7 200 21:55 04.06.2020
2048 Rain 25 1016 88 9656 4.1 170 21:36 04.06.2020
2049 Rain 25 1016 88 9656 4.1 170 21:18 04.06.2020
2050 Rain 26 1016 88 4023 9.8 180 20:40 04.06.2020
2051 Rain 28 1016 74 16093 4.6 140 20:21 04.06.2020
2052 Rain 27 1017 83 16093 5.1 120 19:59 04.06.2020
2053 Rain 27 1017 83 16093 5.1 120 19:38 04.06.2020
2054 Rain 26 1017 83 16093 5.1 120 19:20 04.06.2020
2055 Rain 26 1017 74 16093 7.7 140 18:54 04.06.2020
2056 Rain 26 1017 74 16093 7.7 140 18:36 04.06.2020
2057 Rain 26 1017 74 16093 7.7 140 18:18 04.06.2020
2058 Rain 26 1016 78 16093 2.1 0 17:41 04.06.2020
2059 Rain 26 1016 78 16093 2.1 0 17:21 04.06.2020
2060 Rain 24 1016 83 16093 4.1 140 16:41 04.06.2020
2061 Rain 25 1016 74 16093 5.1 150 16:21 04.06.2020
2062 Rain 25 1015 83 16093 1.5 80 15:58 04.06.2020
2063 Rain 26 1015 83 16093 1.5 80 15:40 04.06.2020
2064 Clouds 26 1015 83 16093 1.5 80 15:22 04.06.2020
2065 Clouds 26 1015 83 16093 1.5 80 15:22 04.06.2020
2066 Clouds 25 1015 83 16093 1.5 60 14:39 04.06.2020
2067 Clouds 25 1015 83 16093 1.5 60 14:20 04.06.2020
2068 Rain 24 1015 94 16093 5.09 153 13:56 04.06.2020
2069 Rain 24 1015 94 16093 5.09 153 13:37 04.06.2020
2070 Rain 24 1015 94 16093 4.99 183 13:19 04.06.2020
2071 Rain 23 1015 100 8047 1.5 180 12:55 04.06.2020
2072 Rain 23 1015 100 8047 1.5 180 12:36 04.06.2020
2073 Rain 23 1015 100 8047 1.5 180 12:18 04.06.2020
2074 Thunderstorm 23 1015 94 9656 4.89 187 11:40 04.06.2020
2075 Rain 23 1016 94 1207 3.1 180 11:20 04.06.2020
2076 Rain 26 1014 83 16093 2.1 140 10:59 04.06.2020
2077 Rain 26 1014 83 16093 2.1 140 10:38 04.06.2020
2078 Rain 27 1014 83 16093 2.1 140 10:20 04.06.2020
2079 Clouds 27 1014 83 16093 2.1 130 09:46 04.06.2020
2080 Clouds 27 1014 83 16093 2.1 130 09:28 04.06.2020
2081 Clouds 26 1015 88 16093 1.5 110 08:50 04.06.2020
2082 Clouds 26 1015 88 16093 1.5 110 08:30 04.06.2020
2083 Clouds 26 1015 88 16093 3.46 105 07:59 04.06.2020
2084 Clouds 26 1015 88 16093 3.46 105 07:30 04.06.2020
2085 Clouds 26 1016 94 16093 3.66 105 06:45 04.06.2020
2086 Clouds 25 1016 94 16093 3.69 98 06:26 04.06.2020
2087 Rain 25 1016 88 16093 3.69 98 05:51 04.06.2020
2088 Rain 25 1016 88 16093 3.69 98 05:31 04.06.2020
2089 Rain 25 1016 94 16093 1.77 121 03:31 04.06.2020
2090 Rain 26 1015 88 16093 1.5 350 01:59 04.06.2020
2091 Rain 25 1015 88 16093 1.5 50 01:20 04.06.2020
2092 Thunderstorm 26 1015 88 9656 4.1 180 00:53 04.06.2020
2093 Clouds 28 1014 74 16093 4.1 120 23:56 03.06.2020
2094 Clouds 28 1014 74 16093 4.1 120 23:36 03.06.2020
2095 Clouds 28 1014 74 16093 4.1 120 23:18 03.06.2020
2096 Clouds 28 1015 74 16093 5.1 120 22:40 03.06.2020
2097 Clouds 28 1015 74 16093 5.1 120 22:19 03.06.2020
2098 Clouds 29 1016 70 16093 6.7 130 21:59 03.06.2020
2099 Clouds 29 1016 70 16093 6.7 130 21:59 03.06.2020
2100 Clouds 29 1016 70 16093 6.7 130 21:40 03.06.2020
2101 Clouds 29 1016 70 16093 6.7 130 21:21 03.06.2020
2102 Clouds 29 1016 70 16093 6.7 130 21:21 03.06.2020
2103 Clouds 29 1016 66 16093 5.1 130 20:58 03.06.2020
2104 Clouds 29 1016 66 16093 5.1 130 20:39 03.06.2020
2105 Clouds 30 1016 66 16093 5.1 130 20:20 03.06.2020
2106 Clouds 29 1016 62 16093 5.1 130 19:57 03.06.2020
2107 Clouds 29 1016 62 16093 5.1 130 19:38 03.06.2020
2108 Clouds 30 1016 66 16093 6.2 120 19:19 03.06.2020
2109 Clouds 29 1017 78 16093 2.6 70 18:56 03.06.2020
2110 Clouds 29 1017 78 16093 2.6 70 18:38 03.06.2020
2111 Clouds 28 1017 78 16093 2.6 70 18:18 03.06.2020
2112 Rain 27 1017 88 16093 2.6 10 17:42 03.06.2020
2113 Rain 27 1017 88 16093 2.6 10 17:22 03.06.2020
2114 Rain 27 1017 100 9656 6.99 115 16:56 03.06.2020
2115 Rain 27 1017 100 9656 6.99 115 16:38 03.06.2020
2116 Rain 27 1017 100 9656 6.99 115 16:38 03.06.2020
2117 Rain 27 1017 83 11265 4.1 170 16:19 03.06.2020
2118 Rain 27 1017 88 16093 6.94 108 15:41 03.06.2020
2119 Rain 27 1017 88 16093 6.85 108 15:21 03.06.2020
2120 Rain 26 1017 88 16093 6.85 108 14:59 03.06.2020
2121 Clouds 26 1017 88 16093 2.6 240 14:40 03.06.2020
2122 Clouds 26 1017 88 16093 2.6 240 14:21 03.06.2020
2123 Clouds 26 1016 88 16093 2.6 90 13:39 03.06.2020
2124 Clouds 26 1016 88 16093 2.6 90 13:20 03.06.2020
2125 Clouds 26 1016 88 16093 3.6 100 12:43 03.06.2020
2126 Clouds 26 1016 88 16093 3.6 100 12:22 03.06.2020
2127 Rain 26 1016 94 16093 5.85 114 11:57 03.06.2020
2128 Rain 26 1016 94 16093 5.85 114 11:39 03.06.2020
2129 Rain 26 1016 94 16093 5.87 114 11:21 03.06.2020
2130 Rain 26 1016 94 16093 5.87 114 10:42 03.06.2020
2131 Rain 26 1016 94 2414 4.6 100 10:24 03.06.2020
2132 Rain 26 1016 94 16093 5.82 113 09:45 03.06.2020
2133 Clouds 26 1016 88 16093 5.39 111 09:21 03.06.2020
2134 Rain 26 1016 88 16093 5.39 111 08:59 03.06.2020
2135 Rain 26 1017 88 16093 1.5 30 08:40 03.06.2020
2136 Rain 26 1017 88 16093 1.5 30 08:19 03.06.2020
2137 Clouds 25 1017 88 16093 5.32 118 07:43 03.06.2020
2138 Clouds 25 1017 88 16093 5.64 122 07:20 03.06.2020
2139 Clouds 25 1018 88 16093 2.6 90 06:54 03.06.2020
2140 Clouds 25 1018 83 16093 2.6 50 06:32 03.06.2020
2141 Clouds 25 1018 83 16093 2.6 80 05:47 03.06.2020
2142 Rain 26 1018 83 8047 3.1 100 04:57 03.06.2020
2143 Rain 26 1018 83 16093 4.6 90 03:51 03.06.2020
2144 Clouds 27 1018 83 16093 4.6 90 03:20 03.06.2020
2145 Rain 27 1017 83 16093 3.6 60 02:23 03.06.2020
2146 Rain 27 1017 83 16093 4.1 90 00:47 03.06.2020
2147 Clouds 27 1017 83 16093 4.1 90 00:25 03.06.2020
2148 Rain 27 1017 88 16093 3.6 130 23:52 02.06.2020
2149 Rain 26 1017 88 16093 3.6 130 23:28 02.06.2020
2150 Rain 26 1017 88 16093 3.6 130 23:28 02.06.2020
2151 Rain 27 1017 88 16093 3.6 130 22:58 02.06.2020
2152 Rain 27 1017 78 16093 7.2 80 22:39 02.06.2020
2153 Rain 28 1017 78 16093 7.2 80 22:19 02.06.2020
2154 Rain 28 1017 78 16093 7.2 80 22:19 02.06.2020
2155 Rain 29 1018 83 16093 5.7 120 21:56 02.06.2020
2156 Rain 29 1018 83 16093 5.7 120 21:38 02.06.2020
2157 Rain 29 1018 83 16093 5.7 120 21:19 02.06.2020
2158 Clouds 30 1018 62 16093 6.7 120 20:58 02.06.2020
2159 Clouds 30 1018 62 16093 6.7 120 20:39 02.06.2020
2160 Clouds 31 1018 62 16093 6.7 120 20:20 02.06.2020
2161 Rain 30 1019 70 16093 5.7 130 19:44 02.06.2020
2162 Rain 30 1019 70 16093 5.7 130 19:25 02.06.2020
2163 Rain 30 1019 70 16093 6.2 110 18:58 02.06.2020
2164 Rain 29 1019 70 16093 6.2 110 18:39 02.06.2020
2165 Rain 30 1019 70 16093 6.2 110 18:20 02.06.2020
2166 Clouds 30 1019 66 16093 5.1 100 17:55 02.06.2020
2167 Clouds 30 1019 66 16093 5.1 100 17:37 02.06.2020
2168 Clouds 30 1019 66 16093 5.1 100 17:18 02.06.2020
2169 Clouds 30 1019 66 16093 6.2 90 16:41 02.06.2020
2170 Clouds 30 1019 66 16093 4.6 110 16:21 02.06.2020
2171 Clouds 30 1019 66 16093 4.6 110 16:21 02.06.2020
2172 Clouds 30 1019 66 16093 4.6 110 15:59 02.06.2020
2173 Clouds 29 1019 70 16093 4.6 110 15:40 02.06.2020
2174 Clouds 29 1019 70 16093 4.6 110 15:20 02.06.2020
2175 Clouds 29 1019 70 16093 4.6 110 15:20 02.06.2020
2176 Clouds 28 1018 74 16093 4.1 90 14:46 02.06.2020
2177 Clouds 28 1018 74 16093 4.1 90 14:27 02.06.2020
2178 Clouds 28 1018 78 16093 4.6 80 13:55 02.06.2020
2179 Clouds 27 1018 78 16093 4.6 80 13:36 02.06.2020
2180 Clouds 27 1018 78 16093 4.6 80 13:18 02.06.2020
2181 Clouds 27 1017 78 16093 3.6 90 12:54 02.06.2020
2182 Clouds 27 1017 78 16093 3.6 90 12:36 02.06.2020
2183 Clouds 27 1017 78 16093 3.6 90 12:36 02.06.2020
2184 Clouds 27 1017 78 16093 3.6 90 12:18 02.06.2020
2185 Clouds 27 1017 78 16093 4.6 90 11:40 02.06.2020
2186 Clouds 27 1017 78 16093 4.6 90 11:21 02.06.2020
2187 Clouds 27 1017 78 16093 3.6 90 10:55 02.06.2020
2188 Clouds 27 1017 78 16093 3.6 90 10:37 02.06.2020
2189 Clouds 27 1017 78 16093 3.6 90 10:18 02.06.2020
2190 Clouds 27 1018 74 16093 2.6 90 09:42 02.06.2020
2191 Clouds 27 1018 74 16093 2.6 90 09:21 02.06.2020
2192 Clouds 27 1018 69 16093 3.1 80 08:53 02.06.2020
2193 Clouds 27 1018 69 16093 3.1 80 08:28 02.06.2020
2194 Clouds 27 1018 69 16093 4.1 90 07:58 02.06.2020
2195 Clouds 27 1018 69 16093 4.1 90 07:32 02.06.2020
2196 Clouds 28 1019 69 16093 4.1 90 06:58 02.06.2020
2197 Clouds 27 1019 69 16093 4.1 90 06:36 02.06.2020
2198 Clouds 28 1019 74 16093 5.1 90 05:37 02.06.2020
2199 Clouds 28 1019 74 16093 5.7 90 04:20 02.06.2020
2200 Clouds 28 1017 74 16093 6.2 90 02:37 02.06.2020
2201 Clouds 29 1017 66 16093 7.2 90 01:53 02.06.2020
2202 Clouds 29 1017 70 16093 6.2 80 00:46 02.06.2020
2203 Clouds 29 1017 70 16093 6.2 80 00:20 02.06.2020
2204 Clouds 30 1017 62 16093 5.7 70 23:39 01.06.2020
2205 Clouds 31 1017 62 16093 5.7 70 23:19 01.06.2020
2206 Clouds 31 1017 59 16093 6.2 80 22:56 01.06.2020
2207 Clouds 31 1017 59 16093 6.2 80 22:38 01.06.2020
2208 Clouds 32 1017 59 16093 6.2 80 22:19 01.06.2020
2209 Clouds 31 1017 55 16093 4.6 80 21:42 01.06.2020
2210 Clouds 32 1017 55 16093 4.6 80 21:21 01.06.2020
2211 Clouds 32 1017 55 16093 4.6 80 20:59 01.06.2020
2212 Clouds 32 1018 55 16093 4.1 80 20:41 01.06.2020
2213 Clouds 32 1018 59 16093 3.6 90 20:20 01.06.2020
2214 Clouds 32 1018 59 16093 3.6 90 19:58 01.06.2020
2215 Clouds 32 1018 59 16093 3.6 90 19:39 01.06.2020
2216 Clouds 32 1018 59 16093 3.6 90 19:20 01.06.2020
2217 Clouds 32 1018 59 16093 4.1 100 18:57 01.06.2020
2218 Clouds 31 1018 59 16093 4.1 100 18:38 01.06.2020
2219 Clouds 32 1018 59 16093 4.1 100 18:19 01.06.2020
2220 Clouds 31 1018 58 16093 1.5 0 17:41 01.06.2020
2221 Clouds 31 1018 58 16093 1.5 0 17:21 01.06.2020
2222 Clouds 30 1018 70 16093 2.6 0 16:58 01.06.2020
2223 Clouds 30 1018 70 16093 2.6 0 16:39 01.06.2020
2224 Clouds 30 1018 70 16093 2.6 0 16:19 01.06.2020
2225 Clouds 30 1018 74 16093 3.29 87 15:54 01.06.2020
2226 Clouds 30 1018 74 16093 3.29 87 15:36 01.06.2020
2227 Clouds 29 1018 74 16093 3.12 90 15:18 01.06.2020
2228 Clouds 28 1017 78 16093 3.12 90 14:41 01.06.2020
2229 Clouds 28 1017 78 16093 3.22 94 14:23 01.06.2020
2230 Clouds 27 1017 78 16093 3.22 94 13:58 01.06.2020
2231 Clouds 26 1017 83 16093 3.22 94 13:39 01.06.2020
2232 Clouds 26 1017 83 16093 2.91 95 13:20 01.06.2020
2233 Clouds 26 1016 83 16093 1.5 360 12:57 01.06.2020
2234 Clouds 26 1016 83 16093 1.5 360 12:39 01.06.2020
2235 Clouds 26 1016 83 16093 1.5 360 12:39 01.06.2020
2236 Clouds 26 1016 83 16093 1.5 360 12:20 01.06.2020
2237 Clouds 26 1016 78 16093 2.8 103 11:41 01.06.2020
2238 Clouds 26 1016 78 16093 2.95 115 11:23 01.06.2020
2239 Clouds 26 1016 83 16093 2.95 115 10:59 01.06.2020
2240 Clouds 26 1016 83 16093 2.95 115 10:39 01.06.2020
2241 Clouds 26 1016 83 16093 3.03 128 10:20 01.06.2020
2242 Clouds 26 1016 78 16093 3.03 128 09:56 01.06.2020
2243 Clouds 26 1016 78 16093 3.03 128 09:38 01.06.2020
2244 Clouds 27 1016 78 16093 3.15 132 09:19 01.06.2020
2245 Clouds 27 1017 74 16093 1.5 120 08:46 01.06.2020
2246 Clouds 27 1017 74 16093 1.5 120 08:25 01.06.2020
2247 Clouds 27 1017 78 16093 2.1 130 07:45 01.06.2020
2248 Clouds 27 1017 78 16093 2.1 130 07:27 01.06.2020
2249 Clouds 27 1017 78 16093 2.6 130 06:57 01.06.2020
2250 Clouds 27 1017 78 16093 2.6 130 06:24 01.06.2020
2251 Clouds 27 1017 78 16093 4.1 120 05:53 01.06.2020
2252 Clouds 27 1017 78 16093 3.6 130 04:25 01.06.2020
2253 Clouds 27 1017 78 16093 3.6 120 03:47 01.06.2020
2254 Clouds 27 1017 78 16093 3.6 120 03:24 01.06.2020
2255 Clouds 28 1016 74 16093 5.7 120 02:19 01.06.2020
2256 Clouds 29 1016 66 16093 5.7 110 01:34 01.06.2020
2257 Clouds 30 1015 62 16093 5.1 110 00:58 01.06.2020
2258 Clouds 30 1015 62 16093 5.1 110 00:39 01.06.2020
2259 Clouds 30 1015 62 16093 5.1 110 00:21 01.06.2020
2260 Clouds 30 1015 62 16093 5.1 110 00:21 01.06.2020
2261 Clouds 31 1015 58 16093 4.6 110 23:56 31.05.2020
2262 Clouds 31 1015 58 16093 4.6 110 23:38 31.05.2020
2263 Clouds 31 1015 58 16093 4.6 110 23:20 31.05.2020
2264 Clouds 31 1015 58 16093 4.6 110 23:20 31.05.2020
2265 Clouds 31 1015 58 16093 2.6 120 22:44 31.05.2020
2266 Clouds 31 1015 58 16093 2.6 120 22:44 31.05.2020
2267 Clouds 31 1015 58 16093 2.6 120 22:26 31.05.2020
2268 Clouds 31 1016 55 16093 4.6 110 21:59 31.05.2020
2269 Clouds 32 1016 55 16093 4.6 110 21:41 31.05.2020
2270 Clouds 31 1016 55 16093 4.6 110 21:23 31.05.2020
2271 Clouds 31 1017 58 16093 4.1 120 20:57 31.05.2020
2272 Clouds 31 1017 58 16093 4.1 120 20:38 31.05.2020
2273 Clouds 31 1017 58 16093 4.1 120 20:19 31.05.2020
2274 Clouds 31 1017 62 16093 4.1 120 19:55 31.05.2020
2275 Clouds 31 1017 62 16093 4.1 120 19:36 31.05.2020
2276 Clouds 32 1017 62 16093 4.1 120 19:18 31.05.2020
2277 Clouds 31 1017 62 16093 2.6 150 18:43 31.05.2020
2278 Clouds 31 1017 62 16093 2.6 150 18:25 31.05.2020
2279 Clouds 31 1018 70 16093 3.6 120 17:46 31.05.2020
2280 Clouds 30 1018 70 16093 3.6 120 17:25 31.05.2020
2281 Clouds 30 1017 70 16093 3.6 120 16:59 31.05.2020
2282 Clouds 30 1017 70 16093 3.6 120 16:40 31.05.2020
2283 Clouds 30 1017 70 16093 3.6 120 16:21 31.05.2020
2284 Clouds 29 1017 74 16093 3.6 120 15:40 31.05.2020
2285 Clouds 29 1017 74 16093 3.6 120 15:21 31.05.2020
2286 Clouds 28 1017 78 16093 2.61 135 14:47 31.05.2020
2287 Clouds 27 1017 78 16093 2.38 137 14:22 31.05.2020
2288 Clouds 26 1016 83 16093 2.5 141 13:57 31.05.2020
2289 Clouds 26 1016 83 16093 2.5 141 13:38 31.05.2020
2290 Clouds 26 1016 83 16093 2.64 132 13:20 31.05.2020
2291 Clouds 26 1015 83 16093 1.5 360 12:58 31.05.2020
2292 Clouds 26 1015 83 16093 1.5 360 12:38 31.05.2020
2293 Clouds 26 1015 83 16093 1.5 360 12:19 31.05.2020
2294 Clouds 26 1015 83 16093 2.89 136 11:49 31.05.2020
2295 Clouds 26 1015 83 16093 2.58 140 11:24 31.05.2020
2296 Clouds 27 1015 78 16093 2.1 140 10:57 31.05.2020
2297 Clouds 27 1015 78 16093 2.1 140 10:39 31.05.2020
2298 Clouds 27 1015 78 16093 2.1 140 10:20 31.05.2020
2299 Clouds 27 1016 74 16093 2.1 120 09:42 31.05.2020
2300 Clouds 27 1016 74 16093 2.1 120 09:23 31.05.2020
2301 Clouds 27 1016 74 16093 2.6 120 08:59 31.05.2020
2302 Clouds 27 1016 74 16093 2.6 120 08:40 31.05.2020
2303 Clouds 27 1016 74 16093 2.6 120 08:21 31.05.2020
2304 Clouds 27 1017 74 16093 3.1 120 07:46 31.05.2020
2305 Clouds 27 1017 74 16093 3.1 120 07:21 31.05.2020
2306 Clear 27 1017 74 16093 4.1 110 06:54 31.05.2020
2307 Clear 27 1017 74 16093 4.1 110 06:32 31.05.2020
2308 Clouds 27 1017 74 16093 4.6 110 05:45 31.05.2020
2309 Clouds 27 1017 69 16093 4.1 110 04:33 31.05.2020
2310 Clouds 27 1016 69 16093 5.7 90 03:56 31.05.2020
2311 Clouds 28 1015 65 16093 5.1 110 02:59 31.05.2020
2312 Clouds 28 1015 62 16093 5.1 90 01:51 31.05.2020
2313 Clouds 28 1015 62 16093 5.1 90 01:30 31.05.2020
2314 Clouds 30 1015 62 16093 5.1 140 00:33 31.05.2020
2315 Clouds 30 1015 55 16093 5.7 120 23:59 30.05.2020
2316 Clouds 31 1015 55 16093 5.7 120 23:41 30.05.2020
2317 Clouds 31 1015 55 16093 5.7 120 23:23 30.05.2020
2318 Clouds 31 1016 55 16093 5.7 130 22:42 30.05.2020
2319 Clouds 31 1016 55 16093 5.7 130 22:23 30.05.2020
2320 Clouds 31 1016 58 16093 5.1 120 21:58 30.05.2020
2321 Clouds 31 1016 58 16093 5.1 120 21:39 30.05.2020
2322 Clouds 31 1016 58 16093 5.1 120 21:20 30.05.2020
2323 Clouds 31 1016 55 16093 5.1 140 20:57 30.05.2020
2324 Clouds 31 1016 55 16093 5.1 140 20:39 30.05.2020
2325 Clouds 31 1016 55 16093 5.1 140 20:20 30.05.2020
2326 Clouds 31 1017 62 16093 5.1 130 19:43 30.05.2020
2327 Clouds 31 1017 62 16093 5.1 130 19:22 30.05.2020
2328 Clouds 31 1017 55 16093 3.1 100 18:56 30.05.2020
2329 Clouds 30 1017 55 16093 3.1 100 18:38 30.05.2020
2330 Clouds 30 1017 55 16093 3.1 100 18:18 30.05.2020
2331 Clouds 30 1017 58 16093 4.1 110 17:39 30.05.2020
2332 Clouds 30 1017 58 16093 4.1 110 17:20 30.05.2020
2333 Clouds 29 1017 74 16093 4.6 120 16:44 30.05.2020
2334 Clouds 29 1017 74 16093 4.6 120 16:23 30.05.2020
2335 Clouds 29 1017 69 16093 4.1 120 15:58 30.05.2020
2336 Clouds 29 1017 69 16093 4.1 120 15:39 30.05.2020
2337 Clouds 29 1017 69 16093 4.1 120 15:21 30.05.2020
2338 Clouds 28 1017 74 16093 3.6 100 14:42 30.05.2020
2339 Clouds 28 1017 74 16093 3.6 100 14:22 30.05.2020
2340 Clouds 27 1017 78 16093 3.1 110 13:42 30.05.2020
2341 Clouds 27 1017 78 16093 3.1 110 13:20 30.05.2020
2342 Clouds 26 1016 83 16093 3.1 130 12:42 30.05.2020
2343 Clouds 26 1016 83 16093 3.1 130 12:20 30.05.2020
2344 Clouds 27 1016 78 16093 3.6 110 11:56 30.05.2020
2345 Clouds 27 1016 78 16093 3.6 110 11:38 30.05.2020
2346 Clouds 27 1016 78 16093 3.6 110 11:20 30.05.2020
2347 Clouds 27 1017 78 16093 5.1 110 10:39 30.05.2020
2348 Clouds 27 1017 78 16093 5.1 110 10:21 30.05.2020
2349 Clouds 27 1017 78 16093 3.1 110 09:48 30.05.2020
2350 Clouds 27 1017 78 16093 3.1 110 09:30 30.05.2020
2351 Clouds 27 1017 83 16093 3.6 110 08:47 30.05.2020
2352 Clouds 27 1017 83 16093 3.6 110 08:28 30.05.2020
2353 Clouds 27 1018 78 16093 5.1 100 07:44 30.05.2020
2354 Clouds 27 1018 78 16093 5.1 100 07:23 30.05.2020
2355 Clouds 27 1018 78 16093 4.6 100 06:39 30.05.2020
2356 Clouds 27 1018 78 16093 4.6 100 06:20 30.05.2020
2357 Thunderstorm 28 1018 78 16093 4.6 110 05:49 30.05.2020
2358 Clouds 28 1017 78 16093 6.7 110 03:39 30.05.2020
2359 Clouds 28 1016 70 16093 5.7 110 02:30 30.05.2020
2360 Clouds 29 1016 70 16093 5.7 110 01:48 30.05.2020
2361 Clouds 30 1016 70 16093 5.1 130 00:38 30.05.2020
2362 Clouds 30 1016 70 16093 5.1 130 00:19 30.05.2020
2363 Clouds 30 1016 70 16093 6.2 130 23:57 29.05.2020
2364 Clouds 30 1016 70 16093 6.2 130 23:37 29.05.2020
2365 Clouds 30 1016 70 16093 6.2 130 23:18 29.05.2020
2366 Clouds 31 1016 62 16093 6.2 110 22:40 29.05.2020
2367 Clouds 31 1016 62 16093 6.2 110 22:19 29.05.2020
2368 Clouds 31 1016 66 16093 5.7 130 21:58 29.05.2020
2369 Clouds 31 1016 66 16093 5.7 130 21:38 29.05.2020
2370 Clouds 31 1016 66 16093 5.7 130 21:20 29.05.2020
2371 Clouds 31 1017 66 16093 6.2 100 20:45 29.05.2020
2372 Clouds 30 1017 66 16093 6.2 100 20:21 29.05.2020
2373 Clouds 31 1017 66 16093 6.2 120 19:59 29.05.2020
2374 Clouds 31 1017 66 16093 6.2 120 19:40 29.05.2020
2375 Clouds 30 1017 66 16093 6.2 120 19:22 29.05.2020
2376 Clouds 30 1017 70 16093 6.2 100 18:47 29.05.2020
2377 Clouds 30 1017 70 16093 6.2 100 18:20 29.05.2020
2378 Clouds 30 1017 70 16093 6.2 110 17:56 29.05.2020
2379 Clouds 30 1017 70 16093 6.2 110 17:38 29.05.2020
2380 Clouds 30 1017 70 16093 6.2 110 17:19 29.05.2020
2381 Clouds 29 1018 69 16093 6.2 110 16:44 29.05.2020
2382 Clouds 29 1018 69 16093 6.2 110 16:25 29.05.2020
2383 Clouds 29 1018 69 16093 5.1 110 15:57 29.05.2020
2384 Clouds 29 1018 69 16093 5.1 110 15:38 29.05.2020
2385 Clouds 28 1018 69 16093 5.1 110 15:19 29.05.2020
2386 Clouds 28 1018 69 16093 4.6 100 14:50 29.05.2020
2387 Clouds 28 1018 78 16093 4.1 120 14:23 29.05.2020
2388 Clouds 27 1017 83 16093 3.1 110 13:58 29.05.2020
2389 Clouds 27 1017 83 16093 3.1 110 13:58 29.05.2020
2390 Clouds 27 1017 83 16093 3.1 110 13:39 29.05.2020
2391 Clouds 26 1017 83 16093 3.1 110 13:18 29.05.2020
2392 Clouds 26 1017 83 16093 3.1 110 12:44 29.05.2020
2393 Clouds 26 1017 83 16093 3.1 110 12:25 29.05.2020
2394 Clouds 27 1017 78 16093 3.6 90 11:46 29.05.2020
2395 Clouds 27 1017 78 16093 3.6 90 11:27 29.05.2020
2396 Clouds 27 1017 78 16093 2.1 60 10:58 29.05.2020
2397 Clouds 26 1017 78 16093 2.1 60 10:38 29.05.2020
2398 Clouds 26 1017 78 16093 2.1 60 10:20 29.05.2020
2399 Clouds 27 1018 78 16093 4.6 90 09:45 29.05.2020
2400 Clouds 27 1018 78 16093 4.6 90 09:21 29.05.2020
2401 Clouds 27 1018 78 16093 5.1 90 08:57 29.05.2020
2402 Clouds 27 1018 78 16093 5.1 90 08:39 29.05.2020
2403 Clouds 27 1018 78 16093 5.1 90 08:20 29.05.2020
2404 Clouds 27 1018 78 16093 4.1 100 07:44 29.05.2020
2405 Clouds 27 1018 78 16093 4.1 100 07:26 29.05.2020
2406 Clouds 27 1018 74 16093 4.6 90 06:49 29.05.2020
2407 Clouds 27 1018 74 16093 4.6 90 06:28 29.05.2020
2408 Clouds 27 1019 78 16093 4.1 80 05:53 29.05.2020
2409 Clouds 28 1017 78 16093 5.1 90 03:55 29.05.2020
2410 Clouds 28 1016 74 16093 6.2 110 01:47 29.05.2020
2411 Clouds 29 1016 74 16093 6.2 110 01:25 29.05.2020
2412 Clouds 29 1016 74 16093 6.2 100 00:47 29.05.2020
2413 Clouds 29 1016 74 16093 6.2 100 00:22 29.05.2020
2414 Clouds 29 1016 74 16093 5.1 120 23:40 28.05.2020
2415 Clouds 29 1016 74 16093 5.1 120 23:19 28.05.2020
2416 Clouds 30 1017 70 16093 4.6 120 22:45 28.05.2020
2417 Clouds 30 1017 70 16093 4.6 120 22:27 28.05.2020
2418 Clouds 31 1017 70 16093 6.7 120 21:59 28.05.2020
2419 Clouds 31 1017 70 16093 6.7 120 21:40 28.05.2020
2420 Clouds 31 1017 70 16093 6.7 120 21:21 28.05.2020
2421 Clouds 31 1018 66 16093 5.7 140 20:58 28.05.2020
2422 Clouds 31 1018 66 16093 5.7 140 20:40 28.05.2020
2423 Clouds 31 1018 66 16093 5.7 140 20:19 28.05.2020
2424 Clouds 31 1018 66 16093 4.6 120 19:57 28.05.2020
2425 Clouds 31 1018 66 16093 4.6 120 19:39 28.05.2020
2426 Clouds 31 1018 66 16093 4.6 120 19:20 28.05.2020
2427 Clouds 31 1019 74 16093 5.1 120 18:54 28.05.2020
2428 Clouds 31 1019 74 16093 5.1 120 18:36 28.05.2020
2429 Clouds 31 1019 74 16093 5.1 120 18:18 28.05.2020
2430 Clouds 31 1019 74 16093 4.6 130 17:40 28.05.2020
2431 Clouds 30 1019 74 16093 4.6 130 17:21 28.05.2020
2432 Clouds 30 1019 74 16093 4.6 120 16:46 28.05.2020
2433 Clouds 30 1019 74 16093 4.6 120 16:21 28.05.2020
2434 Clouds 30 1019 74 16093 3.1 120 15:55 28.05.2020
2435 Clouds 29 1019 74 16093 3.1 120 15:36 28.05.2020
2436 Clouds 29 1019 74 16093 3.1 120 15:18 28.05.2020
2437 Rain 27 1018 78 16093 2.6 160 14:42 28.05.2020
2438 Rain 27 1018 78 16093 2.6 160 14:22 28.05.2020
2439 Rain 27 1018 94 16093 1.5 140 13:46 28.05.2020
2440 Clouds 27 1018 94 16093 3.23 142 13:27 28.05.2020
2441 Clouds 26 1017 94 16093 1.5 120 12:44 28.05.2020
2442 Clouds 26 1017 94 16093 1.5 120 12:20 28.05.2020
2443 Clouds 26 1017 88 16093 2.66 148 11:57 28.05.2020
2444 Clouds 26 1017 88 16093 2.66 148 11:39 28.05.2020
2445 Clouds 26 1017 88 16093 2.72 149 11:20 28.05.2020
2446 Clouds 26 1017 88 16093 1.5 130 10:46 28.05.2020
2447 Clouds 26 1017 88 16093 1.5 130 10:28 28.05.2020
2448 Clouds 27 1017 94 16093 2.6 130 09:57 28.05.2020
2449 Clouds 27 1017 94 16093 2.6 130 09:38 28.05.2020
2450 Clouds 27 1017 94 16093 2.6 130 09:18 28.05.2020
2451 Clouds 27 1017 94 16093 2.6 110 08:44 28.05.2020
2452 Clouds 27 1017 94 16093 2.6 110 08:24 28.05.2020
2453 Clouds 27 1017 94 16093 2.1 110 07:43 28.05.2020
2454 Clouds 26 1017 94 16093 2.1 110 07:23 28.05.2020
2455 Clouds 27 1017 94 16093 2.1 150 06:45 28.05.2020
2456 Clouds 27 1017 94 16093 2.1 150 06:27 28.05.2020
2457 Clouds 27 1017 94 16093 1.5 140 05:39 28.05.2020
2458 Clouds 27 1017 83 16093 2.1 130 04:39 28.05.2020
2459 Clouds 27 1017 83 16093 2.1 130 04:20 28.05.2020
2460 Rain 28 1016 83 16093 3.1 130 02:59 28.05.2020
2461 Rain 28 1016 83 16093 3.1 130 02:38 28.05.2020
2462 Thunderstorm 28 1015 66 16093 3.1 100 01:45 28.05.2020
2463 Thunderstorm 29 1016 62 16093 2.1 20 00:50 28.05.2020
2464 Thunderstorm 30 1015 66 16093 5.7 120 00:21 28.05.2020
2465 Thunderstorm 30 1015 70 16093 6.2 120 23:56 27.05.2020
2466 Clouds 31 1015 70 16093 5.7 120 23:38 27.05.2020
2467 Clouds 30 1015 70 16093 5.7 120 23:19 27.05.2020
2468 Rain 30 1015 74 16093 3.6 140 22:43 27.05.2020
2469 Rain 30 1015 74 16093 3.6 140 22:23 27.05.2020
2470 Rain 30 1015 74 16093 4.1 130 21:57 27.05.2020
2471 Rain 29 1015 83 16093 3.1 160 21:39 27.05.2020
2472 Rain 29 1015 83 16093 3.1 160 21:20 27.05.2020
2473 Thunderstorm 29 1016 74 16093 3.6 170 20:58 27.05.2020
2474 Thunderstorm 29 1016 74 16093 3.6 170 20:39 27.05.2020
2475 Thunderstorm 29 1016 74 16093 3.6 170 20:20 27.05.2020
2476 Thunderstorm 30 1015 74 16093 5.7 160 19:46 27.05.2020
2477 Clouds 31 1015 74 16093 5.1 140 19:21 27.05.2020
2478 Clouds 31 1015 74 16093 5.1 140 18:56 27.05.2020
2479 Clouds 31 1016 74 16093 4.6 140 18:37 27.05.2020
2480 Clouds 31 1016 74 16093 4.6 140 18:18 27.05.2020
2481 Clouds 30 1016 74 16093 4.1 140 17:42 27.05.2020
2482 Clouds 30 1016 74 16093 4.1 140 17:24 27.05.2020
2483 Clouds 30 1015 78 16093 4.6 160 16:56 27.05.2020
2484 Clouds 30 1015 78 16093 4.6 160 16:38 27.05.2020
2485 Clouds 30 1015 78 16093 4.6 160 16:20 27.05.2020
2486 Clouds 29 1015 83 16093 4.1 150 15:49 27.05.2020
2487 Clouds 28 1015 83 16093 4.1 150 15:23 27.05.2020
2488 Clouds 27 1014 88 16093 2.1 150 14:58 27.05.2020
2489 Clouds 27 1014 88 16093 2.1 150 14:39 27.05.2020
2490 Clouds 27 1014 88 16093 2.1 150 14:20 27.05.2020
2491 Clouds 25 1014 100 16093 1.5 150 13:42 27.05.2020
2492 Rain 25 1014 100 16093 1.5 150 13:24 27.05.2020
2493 Rain 25 1014 100 16093 1.5 150 12:43 27.05.2020
2494 Clouds 25 1014 100 16093 1.5 150 12:24 27.05.2020
2495 Clouds 25 1014 100 11265 5.14 182 11:59 27.05.2020
2496 Clouds 25 1014 100 11265 5.14 182 11:37 27.05.2020
2497 Clouds 25 1014 100 11265 5.06 188 11:19 27.05.2020
2498 Clouds 25 1014 94 16093 5.06 188 10:55 27.05.2020
2499 Clouds 25 1014 94 16093 5.06 188 10:36 27.05.2020
2500 Clouds 25 1014 94 16093 4.76 184 10:18 27.05.2020
2501 Clouds 25 1014 83 16093 2.1 120 09:40 27.05.2020
2502 Clouds 25 1014 83 16093 2.1 120 09:21 27.05.2020
2503 Clouds 25 1014 88 16093 3.1 110 08:43 27.05.2020
2504 Clouds 24 1014 88 16093 3.1 110 08:25 27.05.2020
2505 Clouds 24 1014 88 16093 4.97 174 07:57 27.05.2020
2506 Clouds 24 1014 88 16093 4.97 174 07:38 27.05.2020
2507 Clouds 24 1014 88 16093 4.67 174 07:20 27.05.2020
2508 Clouds 23 1015 83 16093 2.1 160 06:41 27.05.2020
2509 Clouds 23 1015 83 16093 2.1 160 06:19 27.05.2020
2510 Clouds 23 1014 78 16093 4.44 176 05:47 27.05.2020
2511 Clouds 23 1014 88 16093 2.1 210 04:19 27.05.2020
2512 Rain 23 1014 88 16093 6.7 160 02:30 27.05.2020
2513 Rain 23 1014 94 8047 7.2 190 01:53 27.05.2020
2514 Rain 23 1013 100 4828 4.6 150 01:23 27.05.2020
2515 Rain 23 1015 100 1207 3.1 20 00:45 27.05.2020
2516 Thunderstorm 24 1012 94 402 8.7 310 00:19 27.05.2020
2517 Rain 25 1012 100 402 7.7 330 23:44 26.05.2020
2518 Rain 27 1010 94 3219 7.2 290 23:25 26.05.2020
2519 Rain 28 1011 83 12874 2.1 150 22:59 26.05.2020
2520 Rain 28 1011 83 12874 2.1 150 22:39 26.05.2020
2521 Rain 27 1011 83 12874 2.1 150 22:20 26.05.2020
2522 Rain 27 1011 83 12874 2.1 150 22:20 26.05.2020
2523 Rain 28 1012 88 6437 4.1 280 21:57 26.05.2020
2524 Rain 30 1012 70 16093 5.7 190 21:39 26.05.2020
2525 Thunderstorm 30 1012 70 16093 5.7 190 21:20 26.05.2020
2526 Rain 30 1012 74 16093 4.6 170 20:43 26.05.2020
2527 Rain 30 1012 74 16093 4.6 170 20:43 26.05.2020
2528 Rain 30 1012 74 16093 4.6 170 20:21 26.05.2020
2529 Rain 29 1013 74 16093 4.1 180 19:57 26.05.2020
2530 Clouds 28 1013 74 16093 4.1 180 19:37 26.05.2020
2531 Clouds 27 1013 74 16093 4.1 180 19:19 26.05.2020
2532 Rain 26 1013 74 16093 5.7 190 18:43 26.05.2020
2533 Rain 26 1013 74 16093 5.7 190 18:22 26.05.2020
2534 Rain 28 1013 69 16093 8.7 190 17:57 26.05.2020
2535 Clouds 29 1013 74 16093 8.2 190 17:38 26.05.2020
2536 Rain 29 1013 74 16093 8.2 190 17:20 26.05.2020
2537 Clouds 29 1013 78 16093 5.1 210 16:42 26.05.2020
2538 Clouds 29 1013 78 16093 5.1 210 16:20 26.05.2020
2539 Clouds 28 1013 88 16093 3.6 180 15:55 26.05.2020
2540 Clouds 27 1013 88 16093 3.6 180 15:36 26.05.2020
2541 Clouds 27 1013 88 16093 3.6 180 15:18 26.05.2020
2542 Clouds 26 1012 88 16093 3.6 170 14:43 26.05.2020
2543 Clouds 25 1012 88 16093 3.6 170 14:22 26.05.2020
2544 Clouds 25 1012 94 11265 2.6 160 13:55 26.05.2020
2545 Clouds 25 1012 94 11265 2.6 160 13:37 26.05.2020
2546 Clouds 25 1012 94 11265 2.6 160 13:18 26.05.2020
2547 Clouds 25 1011 94 11265 1.5 160 12:41 26.05.2020
2548 Rain 24 1011 94 11265 1.5 160 12:20 26.05.2020
2549 Rain 24 1011 100 11265 1.5 160 11:57 26.05.2020
2550 Clouds 24 1011 100 11265 4.79 189 11:39 26.05.2020
2551 Clouds 24 1011 100 11265 5.31 185 11:18 26.05.2020
2552 Clouds 24 1011 94 16093 3.1 90 10:41 26.05.2020
2553 Clouds 24 1011 94 16093 3.1 90 10:41 26.05.2020
2554 Clouds 24 1011 94 16093 3.1 90 10:19 26.05.2020
2555 Clouds 24 1011 100 16093 2.6 90 09:40 26.05.2020
2556 Clouds 23 1011 100 16093 2.6 90 09:20 26.05.2020
2557 Clouds 24 1011 94 16093 2.1 0 08:43 26.05.2020
2558 Clouds 24 1011 94 16093 2.1 0 08:22 26.05.2020
2559 Rain 24 1011 100 8047 2.6 270 07:57 26.05.2020
2560 Mist 25 1012 94 6437 6.4 170 07:37 26.05.2020
2561 Mist 25 1012 94 6437 6.43 163 07:18 26.05.2020
2562 Clouds 25 1012 100 16093 6.43 163 06:44 26.05.2020
2563 Clouds 25 1012 100 16093 1.5 100 05:55 26.05.2020
2564 Clouds 25 1012 94 16093 7.19 157 05:35 26.05.2020
2565 Clouds 25 1011 88 16093 7.33 158 04:54 26.05.2020
2566 Clouds 25 1011 88 16093 7.33 158 04:33 26.05.2020
2567 Rain 25 1011 94 16093 8.38 155 03:59 26.05.2020
2568 Rain 25 1011 88 16093 2.6 130 02:45 26.05.2020
2569 Rain 25 1010 94 16093 3.1 130 01:49 26.05.2020
2570 Rain 25 1010 94 16093 3.1 130 01:28 26.05.2020
2571 Rain 25 1011 100 11265 3.1 140 00:39 26.05.2020
2572 Rain 24 1011 100 11265 3.1 140 00:19 26.05.2020
2573 Rain 24 1011 94 4828 4.6 110 23:56 25.05.2020
2574 Rain 24 1011 94 2012 5.1 130 23:37 25.05.2020
2575 Rain 24 1011 94 2012 5.1 130 23:18 25.05.2020
2576 Rain 24 1011 100 3219 4.6 140 22:55 25.05.2020
2577 Rain 24 1011 100 1207 7.7 170 22:36 25.05.2020
2578 Rain 24 1011 100 1207 7.7 170 22:36 25.05.2020
2579 Rain 25 1011 100 1207 7.7 170 22:18 25.05.2020
2580 Rain 25 1011 100 1207 7.7 170 22:18 25.05.2020
2581 Rain 25 1011 100 1207 7.7 170 22:18 25.05.2020
2582 Rain 25 1011 88 11265 5.7 150 21:55 25.05.2020
2583 Rain 25 1011 88 9656 4.1 120 21:36 25.05.2020
2584 Rain 25 1011 88 9656 4.1 120 21:36 25.05.2020
2585 Rain 25 1011 88 9656 4.1 120 21:18 25.05.2020
2586 Rain 25 1012 100 9656 7.86 160 20:42 25.05.2020
2587 Rain 25 1012 100 9656 7.86 160 20:42 25.05.2020
2588 Mist 24 1012 100 9656 8.36 151 20:22 25.05.2020
2589 Rain 24 1013 100 1609 3.6 100 19:59 25.05.2020
2590 Rain 24 1013 94 4828 6.2 160 19:41 25.05.2020
2591 Rain 24 1013 94 4828 6.2 160 19:19 25.05.2020
2592 Rain 24 1013 94 8047 7.2 140 18:57 25.05.2020
2593 Rain 24 1013 94 16093 5.1 140 18:38 25.05.2020
2594 Rain 24 1013 94 16093 5.1 140 18:20 25.05.2020
2595 Rain 24 1013 94 11265 7.7 140 17:44 25.05.2020
2596 Rain 24 1013 94 11265 7.7 140 17:23 25.05.2020
2597 Rain 24 1013 94 8047 9.3 130 16:57 25.05.2020
2598 Rain 24 1012 94 16093 7.2 130 16:39 25.05.2020
2599 Rain 24 1012 94 16093 7.2 130 16:20 25.05.2020
2600 Rain 24 1012 94 16093 7.7 140 15:44 25.05.2020
2601 Rain 24 1012 94 16093 7.7 140 15:20 25.05.2020
2602 Rain 24 1012 94 16093 8.2 160 14:59 25.05.2020
2603 Rain 24 1012 94 16093 6.7 150 14:38 25.05.2020
2604 Rain 24 1012 94 16093 6.7 150 14:20 25.05.2020
2605 Rain 25 1011 88 11265 6.7 120 13:40 25.05.2020
2606 Rain 25 1011 88 11265 6.7 120 13:40 25.05.2020
2607 Rain 25 1011 88 11265 6.7 120 13:21 25.05.2020
2608 Rain 25 1011 94 9656 4.6 100 12:58 25.05.2020
2609 Rain 25 1011 94 9656 4.6 100 12:39 25.05.2020
2610 Rain 25 1011 94 9656 4.6 100 12:20 25.05.2020
2611 Mist 25 1011 100 9656 5.1 110 11:40 25.05.2020
2612 Rain 25 1011 100 9656 5.1 110 11:21 25.05.2020
2613 Rain 25 1011 94 9656 5.1 110 10:59 25.05.2020
2614 Mist 25 1011 94 9656 5.1 110 10:41 25.05.2020
2615 Rain 25 1011 94 9656 5.1 110 10:20 25.05.2020
2616 Rain 25 1011 94 9656 6.7 100 09:55 25.05.2020
2617 Mist 25 1011 94 6437 8.2 110 09:36 25.05.2020
2618 Rain 25 1011 94 6437 8.2 110 09:18 25.05.2020
2619 Rain 25 1011 94 6437 8.2 110 09:18 25.05.2020
2620 Rain 24 1012 94 1609 7.2 100 08:40 25.05.2020
2621 Rain 24 1012 94 1609 7.2 100 08:21 25.05.2020
2622 Rain 24 1013 94 8047 7.2 90 07:58 25.05.2020
2623 Rain 24 1013 94 11265 6.2 80 07:38 25.05.2020
2624 Rain 24 1013 94 11265 6.2 80 07:19 25.05.2020
2625 Rain 24 1014 94 16093 7.2 80 06:41 25.05.2020
2626 Clouds 24 1014 94 16093 7.2 80 06:19 25.05.2020
2627 Rain 25 1014 88 16093 8.7 90 03:31 25.05.2020
2628 Rain 25 1014 94 16093 5.1 90 02:57 25.05.2020
2629 Rain 25 1013 94 16093 5.7 80 02:36 25.05.2020
2630 Rain 24 1014 94 16093 3.1 80 01:42 25.05.2020
2631 Rain 25 1014 88 16093 4.6 80 00:49 25.05.2020
2632 Rain 25 1014 88 16093 4.6 80 00:31 25.05.2020
2633 Rain 25 1014 94 11265 5.1 110 23:59 24.05.2020
2634 Rain 25 1014 88 16093 4.6 90 23:39 24.05.2020
2635 Rain 25 1014 88 16093 4.6 90 23:39 24.05.2020
2636 Rain 25 1014 88 16093 4.6 90 23:21 24.05.2020
2637 Rain 25 1014 83 16093 4.1 90 22:56 24.05.2020
2638 Rain 25 1014 88 16093 4.1 100 22:37 24.05.2020
2639 Rain 25 1014 88 16093 4.1 100 22:18 24.05.2020
2640 Rain 25 1015 88 11265 5.1 80 21:55 24.05.2020
2641 Rain 25 1015 88 11265 5.1 80 21:37 24.05.2020
2642 Rain 25 1015 88 11265 5.1 80 21:18 24.05.2020
2643 Rain 24 1015 94 9656 5.1 90 20:43 24.05.2020
2644 Rain 24 1015 94 9656 5.1 90 20:21 24.05.2020
2645 Rain 24 1016 100 3219 7.7 100 19:56 24.05.2020
2646 Rain 24 1016 100 3219 7.7 100 19:38 24.05.2020
2647 Rain 24 1016 100 8047 4.1 100 19:19 24.05.2020
2648 Rain 24 1016 94 9656 4.1 70 18:43 24.05.2020
2649 Rain 24 1016 94 9656 4.1 70 18:23 24.05.2020
2650 Rain 24 1016 94 8047 3.6 100 17:59 24.05.2020
2651 Mist 24 1016 94 8047 3.6 100 17:40 24.05.2020
2652 Rain 24 1016 94 8047 3.6 100 17:21 24.05.2020
2653 Rain 23 1016 100 2816 3.6 90 16:56 24.05.2020
2654 Rain 24 1016 100 4828 1.5 80 16:38 24.05.2020
2655 Rain 24 1016 100 4828 1.5 80 16:19 24.05.2020
2656 Mist 24 1016 100 4023 3.1 110 15:55 24.05.2020
2657 Rain 23 1016 100 2414 4.1 100 15:37 24.05.2020
2658 Rain 23 1016 100 2414 4.1 100 15:18 24.05.2020
2659 Rain 23 1016 100 1207 3.1 170 14:44 24.05.2020
2660 Rain 24 1015 94 2414 2.1 50 14:24 24.05.2020
2661 Rain 24 1015 94 11265 5.1 100 13:57 24.05.2020
2662 Rain 24 1015 94 11265 5.1 100 13:38 24.05.2020
2663 Rain 24 1015 94 11265 5.1 100 13:20 24.05.2020
2664 Rain 24 1014 88 16093 4.1 100 12:57 24.05.2020
2665 Rain 25 1014 88 16093 4.1 100 12:38 24.05.2020
2666 Rain 25 1014 88 16093 4.1 100 12:38 24.05.2020
2667 Rain 25 1014 88 16093 4.1 100 12:20 24.05.2020
2668 Rain 25 1014 88 16093 3.1 110 11:56 24.05.2020
2669 Rain 25 1014 88 16093 3.1 110 11:56 24.05.2020
2670 Rain 25 1014 88 16093 3.1 110 11:38 24.05.2020
2671 Rain 25 1014 88 16093 3.1 110 11:20 24.05.2020
2672 Rain 25 1015 94 12874 5.1 130 10:55 24.05.2020
2673 Rain 24 1015 94 12874 5.1 130 10:36 24.05.2020
2674 Rain 24 1015 94 12874 5.1 130 10:18 24.05.2020
2675 Rain 26 1015 83 16093 5.1 90 09:41 24.05.2020
2676 Clouds 26 1015 83 16093 5.1 90 09:18 24.05.2020
2677 Clouds 26 1016 83 16093 6.7 110 08:54 24.05.2020
2678 Clouds 26 1016 83 16093 6.7 110 08:36 24.05.2020
2679 Clouds 26 1016 83 16093 6.7 110 08:18 24.05.2020
2680 Clouds 26 1016 83 16093 4.6 90 07:41 24.05.2020
2681 Clouds 26 1016 83 16093 4.6 90 07:22 24.05.2020
2682 Clouds 26 1016 83 16093 5.7 100 06:47 24.05.2020
2683 Rain 25 1016 88 16093 4.1 110 05:50 24.05.2020
2684 Rain 25 1016 94 16093 2.6 90 04:52 24.05.2020
2685 Rain 24 1017 94 12874 6.7 110 03:41 24.05.2020
2686 Rain 26 1016 78 16093 4.1 70 02:31 24.05.2020
2687 Rain 26 1016 78 16093 3.6 60 01:46 24.05.2020
2688 Rain 27 1016 74 16093 6.2 80 00:39 24.05.2020
2689 Rain 27 1016 74 16093 6.2 80 00:21 24.05.2020
2690 Rain 28 1016 74 16093 7.2 90 23:43 23.05.2020
2691 Rain 28 1016 74 16093 7.2 90 23:23 23.05.2020
2692 Clouds 29 1016 66 16093 8.2 80 22:57 23.05.2020
2693 Clouds 29 1016 66 16093 8.2 80 22:38 23.05.2020
2694 Clouds 30 1016 66 16093 8.2 80 22:20 23.05.2020
2695 Rain 29 1017 70 16093 7.7 90 21:57 23.05.2020
2696 Rain 29 1017 70 16093 7.7 90 21:37 23.05.2020
2697 Rain 30 1017 70 16093 7.7 90 21:19 23.05.2020
2698 Rain 30 1017 70 16093 7.7 90 21:19 23.05.2020
2699 Clouds 30 1017 70 16093 7.2 80 20:57 23.05.2020
2700 Clouds 30 1017 70 16093 7.2 80 20:38 23.05.2020
2701 Clouds 29 1017 70 16093 7.2 80 20:18 23.05.2020
2702 Rain 29 1018 74 16093 6.7 80 19:42 23.05.2020
2703 Rain 29 1018 74 16093 6.7 80 19:20 23.05.2020
2704 Clouds 29 1018 62 16093 7.7 90 18:58 23.05.2020
2705 Rain 29 1018 62 16093 7.7 90 18:40 23.05.2020
2706 Rain 29 1018 62 16093 7.7 90 18:21 23.05.2020
2707 Clouds 29 1018 70 16093 7.2 90 17:55 23.05.2020
2708 Rain 29 1018 70 16093 7.2 90 17:37 23.05.2020
2709 Clouds 29 1018 70 16093 7.2 90 17:19 23.05.2020
2710 Clouds 29 1018 74 16093 5.7 80 16:56 23.05.2020
2711 Clouds 29 1018 66 16093 7.7 80 16:38 23.05.2020
2712 Clouds 29 1018 66 16093 7.7 80 16:19 23.05.2020
2713 Rain 28 1018 74 16093 5.7 80 15:42 23.05.2020
2714 Rain 28 1018 74 16093 5.7 80 15:23 23.05.2020
2715 Clouds 28 1018 74 16093 4.6 80 14:57 23.05.2020
2716 Clouds 28 1018 74 16093 4.6 80 14:57 23.05.2020
2717 Clouds 28 1018 74 16093 4.6 80 14:38 23.05.2020
2718 Clouds 27 1018 74 16093 4.6 80 14:20 23.05.2020
2719 Clouds 27 1017 78 16093 4.6 80 13:40 23.05.2020
2720 Clouds 27 1017 78 16093 4.6 80 13:19 23.05.2020
2721 Clouds 27 1017 78 16093 3.6 80 12:55 23.05.2020
2722 Clouds 27 1017 78 16093 3.6 80 12:36 23.05.2020
2723 Clouds 27 1017 78 16093 3.6 80 12:18 23.05.2020
2724 Clouds 27 1017 78 16093 4.1 80 11:42 23.05.2020
2725 Clouds 27 1017 78 16093 4.1 80 11:21 23.05.2020
2726 Clouds 27 1017 78 16093 5.7 80 10:56 23.05.2020
2727 Clouds 27 1017 78 16093 5.7 80 10:38 23.05.2020
2728 Clouds 27 1017 78 16093 5.7 80 10:19 23.05.2020
2729 Clouds 27 1017 78 16093 4.6 80 09:56 23.05.2020
2730 Clouds 27 1017 78 16093 4.6 80 09:38 23.05.2020
2731 Clouds 27 1017 78 16093 4.6 80 09:19 23.05.2020
2732 Clouds 27 1017 78 16093 5.1 90 08:42 23.05.2020
2733 Clouds 27 1017 78 16093 5.1 90 08:19 23.05.2020
2734 Clouds 27 1017 78 16093 5.1 90 08:19 23.05.2020
2735 Clouds 27 1018 78 16093 5.1 90 07:46 23.05.2020
2736 Clouds 27 1018 78 16093 5.1 90 07:28 23.05.2020
2737 Clouds 27 1019 78 16093 6.7 90 06:53 23.05.2020
2738 Clouds 27 1019 78 16093 6.7 90 06:35 23.05.2020
2739 Clouds 27 1018 74 16093 5.1 90 04:49 23.05.2020
2740 Clouds 27 1018 69 16093 7.2 90 03:29 23.05.2020
2741 Clouds 27 1017 69 16093 4.6 100 02:56 23.05.2020
2742 Clouds 28 1017 58 16093 6.2 100 01:55 23.05.2020
2743 Clouds 28 1017 58 16093 6.2 100 01:20 23.05.2020
2744 Clouds 29 1016 66 16093 6.7 90 00:45 23.05.2020
2745 Clouds 29 1016 66 16093 6.7 90 00:23 23.05.2020
2746 Clouds 29 1016 62 16093 7.7 100 23:56 22.05.2020
2747 Clouds 30 1016 62 16093 7.7 100 23:38 22.05.2020
2748 Clouds 30 1016 62 16093 7.7 100 23:18 22.05.2020
2749 Clouds 30 1017 62 16093 7.2 90 22:42 22.05.2020
2750 Clouds 30 1017 62 16093 7.2 90 22:21 22.05.2020
2751 Clouds 31 1018 58 16093 8.2 110 21:57 22.05.2020
2752 Clouds 31 1018 58 16093 8.2 110 21:38 22.05.2020
2753 Clouds 31 1018 58 16093 8.2 110 21:20 22.05.2020
2754 Clouds 30 1018 62 16093 7.7 110 20:45 22.05.2020
2755 Clouds 31 1018 62 16093 7.7 110 20:21 22.05.2020
2756 Clouds 31 1018 62 16093 6.7 110 19:59 22.05.2020
2757 Clouds 30 1018 62 16093 6.7 110 19:37 22.05.2020
2758 Clouds 31 1018 62 16093 6.7 110 19:18 22.05.2020
2759 Clouds 30 1018 70 16093 7.2 80 18:39 22.05.2020
2760 Clouds 30 1018 70 16093 7.2 80 18:19 22.05.2020
2761 Clouds 30 1018 66 16093 5.7 90 17:56 22.05.2020
2762 Clouds 30 1018 66 16093 5.7 90 17:36 22.05.2020
2763 Clouds 30 1018 66 16093 5.7 90 17:18 22.05.2020
2764 Clouds 29 1018 78 16093 4.6 60 16:41 22.05.2020
2765 Clouds 29 1018 78 16093 4.6 60 16:20 22.05.2020
2766 Clouds 29 1018 74 16093 3.1 70 15:57 22.05.2020
2767 Clouds 28 1018 74 16093 3.1 70 15:39 22.05.2020
2768 Clouds 28 1018 74 16093 3.1 70 15:19 22.05.2020
2769 Clouds 26 1018 83 16093 2.1 30 14:42 22.05.2020
2770 Clouds 27 1018 83 16093 2.1 30 14:24 22.05.2020
2771 Rain 25 1018 88 16093 2.1 110 13:45 22.05.2020
2772 Rain 25 1018 88 16093 2.1 110 13:20 22.05.2020
2773 Rain 24 1018 94 11265 3.1 100 12:44 22.05.2020
2774 Rain 25 1017 94 8047 3.1 40 12:26 22.05.2020
2775 Thunderstorm 26 1017 83 16093 4 109 11:59 22.05.2020
2776 Clouds 26 1017 88 16093 1.5 40 11:40 22.05.2020
2777 Clouds 26 1017 88 16093 1.5 40 11:20 22.05.2020
2778 Clouds 26 1017 88 16093 1.5 50 10:55 22.05.2020
2779 Clouds 26 1017 88 16093 1.5 50 10:36 22.05.2020
2780 Clouds 26 1017 88 16093 1.5 50 10:18 22.05.2020
2781 Clouds 26 1017 88 16093 1.5 90 09:41 22.05.2020
2782 Clouds 26 1017 88 16093 1.5 90 09:19 22.05.2020
2783 Clouds 27 1018 83 16093 2.1 110 08:43 22.05.2020
2784 Clouds 27 1018 83 16093 2.1 110 08:43 22.05.2020
2785 Clouds 27 1018 83 16093 2.1 110 08:21 22.05.2020
2786 Clouds 27 1018 83 16093 2.6 100 07:56 22.05.2020
2787 Clouds 27 1018 83 16093 2.6 100 07:27 22.05.2020
2788 Clouds 27 1018 83 16093 3.6 110 06:57 22.05.2020
2789 Clouds 27 1018 83 16093 3.6 110 06:36 22.05.2020
2790 Clouds 27 1018 83 16093 3.6 110 05:39 22.05.2020
2791 Clouds 27 1018 83 16093 3.6 110 05:39 22.05.2020
2792 Clouds 27 1018 74 16093 3.6 100 04:51 22.05.2020
2793 Clouds 27 1018 74 16093 3.6 100 04:24 22.05.2020
2794 Clouds 27 1017 83 16093 4.6 110 03:47 22.05.2020
2795 Clouds 28 1016 74 16093 3.1 100 02:59 22.05.2020
2796 Clouds 28 1016 74 16093 3.1 90 01:56 22.05.2020
2797 Clouds 28 1016 74 16093 3.1 90 01:28 22.05.2020
2798 Clouds 29 1016 74 16093 4.1 120 00:46 22.05.2020
2799 Clouds 29 1016 74 16093 4.1 120 00:27 22.05.2020
2800 Clouds 29 1016 70 16093 4.1 100 23:43 21.05.2020
2801 Clouds 29 1016 70 16093 4.1 100 23:24 21.05.2020
2802 Rain 29 1016 83 16093 6.7 100 22:58 21.05.2020
2803 Rain 29 1016 83 16093 6.7 100 22:38 21.05.2020
2804 Rain 28 1016 83 16093 6.7 100 22:20 21.05.2020
2805 Rain 28 1017 74 16093 2.1 240 21:56 21.05.2020
2806 Rain 28 1017 74 16093 2.1 240 21:38 21.05.2020
2807 Rain 28 1017 74 16093 2.1 240 21:18 21.05.2020
2808 Thunderstorm 29 1017 78 16093 6.2 110 20:42 21.05.2020
2809 Thunderstorm 30 1016 66 16093 5.7 100 20:22 21.05.2020
2810 Thunderstorm 32 1017 55 16093 4.1 150 19:41 21.05.2020
2811 Thunderstorm 31 1017 55 16093 4.1 150 19:21 21.05.2020
2812 Clouds 32 1017 55 16093 4.1 80 18:59 21.05.2020
2813 Clouds 32 1017 55 16093 4.1 80 18:39 21.05.2020
2814 Clouds 32 1017 55 16093 4.1 80 18:19 21.05.2020
2815 Clouds 31 1017 62 16093 4.1 140 17:56 21.05.2020
2816 Clouds 31 1017 62 16093 4.1 140 17:38 21.05.2020
2817 Clouds 31 1017 62 16093 4.1 140 17:38 21.05.2020
2818 Clouds 31 1017 62 16093 4.1 140 17:19 21.05.2020
2819 Clouds 30 1016 70 16093 2.1 140 16:44 21.05.2020
2820 Clouds 30 1016 70 16093 2.1 140 16:22 21.05.2020
2821 Clouds 29 1016 78 16093 2.6 130 15:44 21.05.2020
2822 Clouds 29 1016 78 16093 2.6 130 15:24 21.05.2020
2823 Clouds 28 1016 78 16093 3.42 157 14:43 21.05.2020
2824 Rain 28 1016 78 16093 3.41 157 14:25 21.05.2020
2825 Rain 27 1015 83 16093 2.1 100 14:00 21.05.2020
2826 Rain 25 1015 83 16093 2.1 100 13:39 21.05.2020
2827 Clouds 25 1015 83 16093 2.1 100 13:20 21.05.2020
2828 Rain 25 1015 83 16093 2.6 120 12:40 21.05.2020
2829 Rain 25 1015 83 16093 2.6 120 12:22 21.05.2020
2830 Rain 25 1015 83 16093 2.6 110 11:59 21.05.2020
2831 Clouds 25 1015 83 16093 2.6 110 11:39 21.05.2020
2832 Clouds 25 1015 83 16093 2.6 110 11:21 21.05.2020
2833 Clouds 25 1015 78 16093 1.5 170 10:54 21.05.2020
2834 Clouds 25 1015 78 16093 1.5 170 10:36 21.05.2020
2835 Clouds 25 1015 78 16093 1.5 170 10:18 21.05.2020
2836 Thunderstorm 25 1015 83 16093 2.1 90 09:42 21.05.2020
2837 Thunderstorm 26 1015 83 16093 2.1 90 09:24 21.05.2020
2838 Thunderstorm 26 1016 83 16093 1.96 223 08:57 21.05.2020
2839 Clouds 26 1016 83 16093 2.1 190 08:38 21.05.2020
2840 Clouds 26 1016 83 16093 2.1 190 08:20 21.05.2020
2841 Clouds 26 1016 83 16093 2.1 190 07:42 21.05.2020
2842 Clouds 27 1016 83 16093 2.1 190 07:22 21.05.2020
2843 Clouds 26 1016 83 16093 2.6 220 06:37 21.05.2020
2844 Clouds 27 1016 74 16093 3.6 210 05:50 21.05.2020
2845 Clouds 27 1015 74 16093 2.1 180 04:25 21.05.2020
2846 Clouds 28 1014 70 16093 3.6 190 03:21 21.05.2020
2847 Clouds 28 1014 70 16093 3.6 190 03:21 21.05.2020
2848 Clouds 28 1014 70 16093 3.6 190 03:21 21.05.2020
2849 Clouds 28 1014 70 16093 3.6 190 03:21 21.05.2020
2850 Clouds 29 1013 58 16093 3.6 240 02:31 21.05.2020
2851 Thunderstorm 29 1013 70 16093 4.6 140 01:52 21.05.2020
2852 Thunderstorm 29 1013 70 16093 4.6 140 01:24 21.05.2020
2853 Thunderstorm 29 1013 74 16093 5.1 130 00:59 21.05.2020
2854 Thunderstorm 29 1013 62 16093 6.2 40 00:41 21.05.2020
2855 Thunderstorm 30 1013 62 16093 6.2 40 00:19 21.05.2020
2856 Thunderstorm 31 1013 49 16093 3.6 290 23:40 20.05.2020
2857 Thunderstorm 31 1013 49 16093 3.6 290 23:19 20.05.2020
2858 Clouds 32 1013 43 16093 5.7 260 22:55 20.05.2020
2859 Clouds 32 1013 43 16093 5.7 260 22:55 20.05.2020
2860 Clouds 31 1013 43 16093 5.7 260 22:36 20.05.2020
2861 Clouds 32 1013 43 16093 5.7 260 22:18 20.05.2020
2862 Clouds 32 1014 52 16093 2.6 0 21:40 20.05.2020
2863 Clouds 32 1014 52 16093 2.6 0 21:20 20.05.2020
2864 Clouds 32 1015 62 16093 3.1 310 20:44 20.05.2020
2865 Clouds 32 1015 62 16093 3.1 310 20:24 20.05.2020
2866 Clouds 31 1015 62 16093 3.1 310 19:54 20.05.2020
2867 Thunderstorm 31 1015 66 16093 3.1 270 19:36 20.05.2020
2868 Thunderstorm 31 1015 66 16093 3.1 270 19:18 20.05.2020
2869 Clouds 31 1015 52 16093 5.7 210 18:42 20.05.2020
2870 Clouds 31 1015 52 16093 5.7 210 18:21 20.05.2020
2871 Clouds 31 1015 62 16093 4.6 230 17:41 20.05.2020
2872 Clouds 31 1015 62 16093 4.6 230 17:22 20.05.2020
2873 Clouds 30 1015 74 16093 3.6 210 16:55 20.05.2020
2874 Clouds 30 1015 74 16093 3.6 210 16:37 20.05.2020
2875 Clouds 29 1015 74 16093 3.6 210 16:18 20.05.2020
2876 Clouds 28 1014 88 16093 2.1 220 15:43 20.05.2020
2877 Clouds 28 1014 88 16093 2.1 220 15:25 20.05.2020
2878 Clouds 27 1014 88 16093 3.78 254 14:45 20.05.2020
2879 Clouds 26 1014 88 16093 3.34 247 14:24 20.05.2020
2880 Clouds 25 1014 88 16093 3.34 247 13:56 20.05.2020
2881 Clouds 25 1013 94 11265 2.1 260 13:37 20.05.2020
2882 Clouds 25 1013 94 11265 2.1 260 13:18 20.05.2020
2883 Rain 24 1013 94 9656 1.5 210 12:42 20.05.2020
2884 Rain 24 1013 94 9656 1.5 210 12:21 20.05.2020
2885 Clouds 24 1013 94 16093 1.5 180 11:38 20.05.2020
2886 Clouds 24 1013 94 16093 1.5 180 11:20 20.05.2020
2887 Clouds 24 1012 94 16093 4.59 244 10:44 20.05.2020
2888 Clouds 24 1012 94 16093 4.98 230 10:23 20.05.2020
2889 Clouds 24 1012 94 16093 4.98 230 10:23 20.05.2020
2890 Clouds 24 1012 94 16093 1.5 210 09:58 20.05.2020
2891 Clouds 25 1012 94 16093 1.5 210 09:40 20.05.2020
2892 Clouds 25 1013 83 16093 2.6 210 09:20 20.05.2020
2893 Clouds 25 1013 83 16093 2.6 210 08:42 20.05.2020
2894 Clouds 25 1013 83 16093 2.6 210 08:19 20.05.2020
2895 Clouds 25 1014 94 16093 3.6 180 07:50 20.05.2020
2896 Clouds 25 1014 94 16093 3.6 180 07:23 20.05.2020
2897 Clouds 26 1014 88 16093 2.6 170 06:52 20.05.2020
2898 Clouds 26 1014 88 16093 2.6 110 05:59 20.05.2020
2899 Clouds 26 1013 83 16093 2.1 240 04:38 20.05.2020
2900 Clouds 26 1014 83 16093 5.36 235 03:58 20.05.2020
2901 Clouds 26 1014 83 16093 5.89 228 03:27 20.05.2020
2902 Thunderstorm 27 1012 78 16093 2.6 210 01:33 20.05.2020
2903 Rain 28 1011 78 16093 5.7 200 00:57 20.05.2020
2904 Rain 28 1011 78 16093 5.7 200 00:38 20.05.2020
2905 Rain 28 1011 78 16093 5.7 200 00:19 20.05.2020
2906 Rain 29 1011 66 16093 5.1 210 23:36 19.05.2020
2907 Rain 29 1011 66 16093 5.1 210 23:18 19.05.2020
2908 Clouds 30 1011 66 16093 4.1 190 22:54 19.05.2020
2909 Rain 31 1011 66 16093 4.1 190 22:36 19.05.2020
2910 Clouds 31 1011 66 16093 4.1 190 22:18 19.05.2020
2911 Rain 29 1012 78 16093 3.6 200 21:54 19.05.2020
2912 Rain 28 1012 78 16093 3.6 200 21:36 19.05.2020
2913 Rain 27 1012 78 16093 3.6 200 21:18 19.05.2020
2914 Rain 26 1013 78 16093 5.1 240 20:54 19.05.2020
2915 Thunderstorm 28 1013 83 16093 4.6 210 20:36 19.05.2020
2916 Rain 28 1013 83 16093 4.6 210 20:18 19.05.2020
2917 Rain 29 1013 79 16093 5.7 170 19:37 19.05.2020
2918 Rain 29 1013 79 16093 5.7 170 19:19 19.05.2020
2919 Rain 29 1014 78 16093 6.2 160 18:44 19.05.2020
2920 Rain 29 1014 78 16093 6.2 160 18:22 19.05.2020
2921 Clouds 29 1014 74 16093 6.2 170 17:57 19.05.2020
2922 Clouds 30 1014 74 16093 5.7 160 17:38 19.05.2020
2923 Clouds 29 1014 74 16093 5.7 160 17:19 19.05.2020
2924 Clouds 29 1014 74 16093 5.7 160 17:19 19.05.2020
2925 Clouds 28 1014 78 16093 5.1 170 16:41 19.05.2020
2926 Clouds 28 1014 78 16093 5.1 170 16:22 19.05.2020
2927 Clouds 27 1014 88 16093 2.6 150 15:56 19.05.2020
2928 Clouds 27 1014 88 16093 2.6 150 15:38 19.05.2020
2929 Clouds 27 1014 88 16093 2.6 150 15:38 19.05.2020
2930 Clouds 26 1014 88 16093 2.6 150 15:19 19.05.2020
2931 Clouds 26 1014 88 16093 1.5 150 14:43 19.05.2020
2932 Clouds 26 1014 88 16093 1.5 150 14:22 19.05.2020
2933 Clouds 25 1013 94 16093 2.1 130 13:59 19.05.2020
2934 Clouds 25 1013 94 16093 2.1 130 13:40 19.05.2020
2935 Clouds 25 1013 94 16093 2.1 130 13:22 19.05.2020
2936 Clouds 24 1013 94 16093 2.1 160 12:59 19.05.2020
2937 Clouds 24 1013 94 16093 2.1 160 12:40 19.05.2020
2938 Clouds 24 1013 94 16093 2.1 160 12:22 19.05.2020
2939 Clouds 24 1012 94 16093 1.5 160 11:58 19.05.2020
2940 Clouds 24 1012 94 16093 1.5 160 11:40 19.05.2020
2941 Clouds 24 1012 94 16093 1.5 160 11:40 19.05.2020
2942 Clouds 24 1012 94 16093 1.5 160 11:21 19.05.2020
2943 Rain 24 1013 94 16093 1.5 140 10:48 19.05.2020
2944 Rain 24 1013 94 16093 1.5 140 10:29 19.05.2020
2945 Rain 23 1014 94 16093 3.6 240 09:58 19.05.2020
2946 Rain 23 1014 94 16093 3.6 240 09:58 19.05.2020
2947 Rain 23 1014 94 16093 3.6 240 09:40 19.05.2020
2948 Rain 23 1014 94 16093 3.6 240 09:22 19.05.2020
2949 Clouds 23 1014 94 16093 1.5 120 08:43 19.05.2020
2950 Clouds 23 1014 94 16093 1.5 120 08:24 19.05.2020
2951 Clouds 23 1014 94 16093 1.5 120 08:24 19.05.2020
2952 Clouds 23 1015 94 16093 4.85 210 07:44 19.05.2020
2953 Clouds 23 1015 94 16093 4.52 204 07:26 19.05.2020
2954 Clouds 22 1014 100 16093 2.6 80 06:51 19.05.2020
2955 Clouds 22 1014 100 16093 2.6 80 06:25 19.05.2020
2956 Rain 22 1015 94 16093 2.6 0 05:41 19.05.2020
2957 Rain 22 1016 94 16093 4.8 183 04:56 19.05.2020
2958 Rain 22 1016 94 16093 4.8 183 04:32 19.05.2020
2959 Rain 24 1014 94 16093 1.5 20 01:32 19.05.2020
2960 Rain 24 1014 94 16093 2.6 40 00:47 19.05.2020
2961 Rain 24 1014 88 16093 1.5 70 00:25 19.05.2020
2962 Rain 25 1014 83 16093 4.6 40 23:58 18.05.2020
2963 Rain 25 1013 78 16093 5.7 20 23:39 18.05.2020
2964 Thunderstorm 28 1013 78 16093 5.7 20 23:19 18.05.2020
2965 Clouds 29 1013 74 16093 6.7 160 22:41 18.05.2020
2966 Clouds 30 1013 74 16093 6.7 160 22:22 18.05.2020
2967 Clouds 30 1014 74 16093 6.2 140 21:56 18.05.2020
2968 Clouds 30 1014 74 16093 6.2 140 21:38 18.05.2020
2969 Clouds 30 1014 74 16093 6.2 140 21:38 18.05.2020
2970 Clouds 30 1014 74 16093 6.2 140 21:18 18.05.2020
2971 Clouds 30 1015 70 16093 4.1 130 20:43 18.05.2020
2972 Clouds 29 1016 69 16093 1.5 120 20:22 18.05.2020
2973 Clouds 29 1016 69 16093 1.5 120 19:59 18.05.2020
2974 Clouds 28 1016 69 16093 1.5 120 19:40 18.05.2020
2975 Clouds 28 1016 69 16093 1.5 120 19:19 18.05.2020
2976 Clouds 27 1016 69 16093 2.1 140 18:46 18.05.2020
2977 Clouds 27 1016 69 16093 2.1 140 18:25 18.05.2020
2978 Clear 26 1016 83 16093 2.6 170 17:55 18.05.2020
2979 Clear 26 1016 83 16093 2.6 170 17:36 18.05.2020
2980 Rain 25 1016 83 16093 4.21 184 17:18 18.05.2020
2981 Clouds 26 1016 83 16093 3.1 120 16:43 18.05.2020
2982 Clouds 27 1016 83 16093 3.1 120 16:21 18.05.2020
2983 Thunderstorm 28 1016 78 16093 1.5 0 15:58 18.05.2020
2984 Clouds 28 1016 83 16093 1.5 160 15:39 18.05.2020
2985 Rain 27 1016 83 16093 1.5 160 15:20 18.05.2020
2986 Clouds 26 1015 88 16093 2.53 199 14:56 18.05.2020
2987 Clouds 26 1015 88 16093 2.53 199 14:38 18.05.2020
2988 Clouds 26 1015 88 16093 2.5 214 14:19 18.05.2020
2989 Clouds 24 1015 94 11265 2.5 214 13:41 18.05.2020
2990 Clouds 24 1015 94 11265 2.29 217 13:21 18.05.2020
2991 Clouds 24 1014 94 11265 2.29 217 12:58 18.05.2020
2992 Clouds 24 1014 94 11265 2.29 217 12:40 18.05.2020
2993 Clouds 24 1014 94 11265 2.05 213 12:19 18.05.2020
2994 Rain 24 1015 94 11265 2.05 213 11:59 18.05.2020
2995 Rain 24 1015 94 11265 2.05 213 11:59 18.05.2020
2996 Rain 24 1015 94 11265 2.05 213 11:40 18.05.2020
2997 Clouds 24 1015 94 11265 2 227 11:21 18.05.2020
2998 Clouds 25 1014 94 11265 2 227 10:46 18.05.2020
2999 Clouds 24 1014 94 11265 2.25 223 10:23 18.05.2020
3000 Clouds 24 1014 94 11265 2.25 223 09:45 18.05.2020
3001 Clouds 24 1014 94 16093 2.13 232 09:26 18.05.2020
3002 Clouds 25 1015 94 12874 2.13 232 08:56 18.05.2020
3003 Clouds 25 1015 94 12874 2.13 232 08:38 18.05.2020
3004 Clouds 24 1015 94 12874 2.24 229 08:19 18.05.2020
3005 Clouds 25 1015 88 16093 1.5 120 07:42 18.05.2020
3006 Clouds 25 1015 88 16093 1.5 120 07:21 18.05.2020
3007 Clouds 25 1015 88 16093 1.5 230 06:47 18.05.2020
3008 Clouds 25 1015 88 16093 1.5 230 06:21 18.05.2020
3009 Clouds 26 1015 83 16093 2.84 222 05:42 18.05.2020
3010 Clear 27 1014 69 16093 1.5 190 03:37 18.05.2020
3011 Clouds 27 1014 74 16093 2.6 210 02:31 18.05.2020
3012 Clouds 29 1013 69 16093 4.6 200 01:34 18.05.2020
3013 Rain 28 1013 74 16093 3.1 160 00:28 18.05.2020
3014 -273 0 0 0 0 0 23:59 17.05.2020
3015 Thunderstorm 27 1013 83 16093 6.7 170 23:40 17.05.2020
3016 Thunderstorm 26 1013 83 16093 6.7 170 23:20 17.05.2020
3017 Rain 26 1013 83 16093 10.8 110 22:58 17.05.2020
3018 Thunderstorm 27 1013 83 16093 10.8 110 22:39 17.05.2020
3019 Rain 26 1013 83 16093 10.8 110 22:21 17.05.2020
3020 Rain 28 1014 74 16093 5.7 140 21:58 17.05.2020
3021 Rain 29 1014 74 16093 5.7 140 21:40 17.05.2020
3022 Thunderstorm 30 1014 74 16093 5.7 140 21:19 17.05.2020
3023 Clouds 31 1014 59 16093 4.6 130 20:43 17.05.2020
3024 Clouds 31 1014 59 16093 4.6 130 20:22 17.05.2020
3025 Clouds 31 1014 62 16093 3.6 120 19:58 17.05.2020
3026 Clouds 31 1014 62 16093 3.6 120 19:40 17.05.2020
3027 Clouds 31 1014 62 16093 3.6 120 19:22 17.05.2020
3028 Clouds 30 1015 62 16093 2.1 180 18:55 17.05.2020
3029 Clouds 30 1015 62 16093 2.1 180 18:37 17.05.2020
3030 Clouds 30 1015 62 16093 2.1 180 18:19 17.05.2020
3031 Clouds 29 1015 69 16093 2.1 220 17:40 17.05.2020
3032 Clouds 29 1015 69 16093 2.1 220 17:40 17.05.2020
3033 Clouds 29 1015 69 16093 2.1 220 17:40 17.05.2020
3034 Clouds 29 1015 69 16093 2.1 220 17:21 17.05.2020
3035 Clouds 28 1015 78 16093 2.79 243 16:55 17.05.2020
3036 Clouds 28 1015 83 16093 2.6 210 16:37 17.05.2020
3037 Clouds 27 1015 83 16093 2.6 210 16:19 17.05.2020
3038 Clouds 25 1015 94 16093 3.02 246 15:41 17.05.2020
3039 Clouds 25 1015 94 16093 2.83 249 15:23 17.05.2020
3040 Clouds 25 1014 94 16093 2.83 249 14:56 17.05.2020
3041 Clouds 24 1014 94 16093 2.83 249 14:37 17.05.2020
3042 Clouds 24 1014 94 16093 3.18 250 14:19 17.05.2020
3043 Clouds 23 1013 94 16093 2.1 250 13:41 17.05.2020
3044 Clouds 23 1013 94 16093 2.1 250 13:20 17.05.2020
3045 Clouds 25 1013 69 16093 2.1 300 04:54 17.05.2020
3046 Clouds 27 1012 65 16093 3.6 330 03:30 17.05.2020
3047 Clouds 28 1012 54 16093 5.1 260 02:24 17.05.2020
3048 Clouds 29 1012 62 16093 6.7 260 01:50 17.05.2020
3049 Clouds 31 1010 48 16093 6.2 240 00:45 17.05.2020
3050 Clouds 31 1010 48 16093 6.2 240 00:24 17.05.2020
3051 Clouds 32 1010 49 16093 6.2 230 23:42 16.05.2020
3052 Clouds 32 1010 49 16093 6.2 230 23:21 16.05.2020
3053 Clouds 32 1011 49 16093 5.7 260 22:59 16.05.2020
3054 Clouds 32 1011 49 16093 5.7 260 22:41 16.05.2020
3055 Clouds 32 1011 49 16093 5.7 260 22:21 16.05.2020
3056 Clouds 31 1011 52 16093 6.7 260 21:55 16.05.2020
3057 Clouds 31 1011 52 16093 6.7 260 21:37 16.05.2020
3058 Clouds 31 1011 52 16093 6.7 260 21:19 16.05.2020
3059 Clouds 31 1012 55 16093 4.1 250 20:55 16.05.2020
3060 Clouds 31 1012 55 16093 4.1 250 20:55 16.05.2020
3061 Clouds 31 1012 55 16093 4.1 250 20:36 16.05.2020
3062 Clouds 31 1012 55 16093 4.1 250 20:18 16.05.2020
3063 Clouds 29 1012 69 16093 3.6 270 19:41 16.05.2020
3064 Clouds 29 1012 69 16093 3.6 270 19:22 16.05.2020
3065 Clouds 28 1012 74 16093 4.1 270 18:57 16.05.2020
3066 Clouds 28 1012 74 16093 4.1 270 18:37 16.05.2020
3067 Clouds 27 1012 74 16093 4.1 270 18:18 16.05.2020
3068 Clouds 27 1012 78 16093 4.6 250 17:41 16.05.2020
3069 Clouds 26 1012 78 16093 4.6 250 17:20 16.05.2020
3070 Clouds 25 1012 88 16093 4.1 270 16:44 16.05.2020
3071 Clouds 25 1012 94 16093 3.6 250 16:25 16.05.2020
3072 Clouds 24 1012 94 11265 3.1 240 15:59 16.05.2020
3073 Clouds 24 1012 94 11265 3.1 240 15:41 16.05.2020
3074 Clouds 23 1012 94 11265 3.1 240 15:21 16.05.2020
3075 Mist 23 1012 100 402 4.6 240 14:56 16.05.2020
3076 Mist 23 1012 100 402 4.6 240 14:37 16.05.2020
3077 Mist 23 1012 100 402 4.6 240 14:19 16.05.2020
3078 Mist 22 1011 100 3219 3.1 270 13:42 16.05.2020
3079 Mist 22 1011 100 3219 3.1 270 13:23 16.05.2020
3080 Fog 22 1010 100 402 2.6 250 12:58 16.05.2020
3081 Fog 22 1010 100 402 2.6 250 12:39 16.05.2020
3082 Fog 22 1010 100 402 2.6 250 12:18 16.05.2020
3083 Fog 22 1010 100 201 4.1 280 11:42 16.05.2020
3084 Fog 22 1010 100 201 4.1 280 11:23 16.05.2020
3085 Fog 22 1009 100 201 3.1 280 10:58 16.05.2020
3086 Mist 22 1009 100 1609 2.6 270 10:39 16.05.2020
3087 Mist 22 1009 100 1609 2.6 270 10:20 16.05.2020
3088 Mist 23 1010 94 9656 2.6 320 09:46 16.05.2020
3089 Mist 23 1010 94 9656 2.6 320 09:28 16.05.2020
3090 Rain 23 1010 94 9656 3.1 330 08:55 16.05.2020
3091 Rain 23 1010 94 12874 2.1 320 08:36 16.05.2020
3092 Clouds 23 1010 94 12874 2.1 320 08:18 16.05.2020
3093 Rain 23 1011 94 11265 3.1 320 07:42 16.05.2020
3094 Rain 23 1011 94 11265 3.1 320 07:21 16.05.2020
3095 Rain 23 1011 100 11265 1.5 310 06:47 16.05.2020
3096 Clouds 23 1011 100 12874 2.1 330 06:20 16.05.2020
3097 Rain 23 1012 100 14484 2.6 340 05:42 16.05.2020
3098 Rain 23 1012 100 14484 2.6 340 05:22 16.05.2020
3099 Rain 24 1012 100 6437 5.1 50 03:28 16.05.2020
3100 Rain 23 1012 94 4023 5.1 70 02:47 16.05.2020
3101 Mist 24 1012 100 9656 1.5 0 02:19 16.05.2020
3102 Rain 24 1011 88 16093 2.1 20 01:40 16.05.2020
3103 Rain 24 1012 88 11265 4.1 60 00:58 16.05.2020
3104 Rain 24 1012 88 11265 4.1 60 00:40 16.05.2020
3105 Rain 24 1012 88 11265 4.1 60 00:20 16.05.2020
3106 Rain 25 1012 78 16093 4.6 60 23:40 15.05.2020
3107 Rain 25 1012 78 16093 4.6 60 23:19 15.05.2020
3108 Rain 26 1012 74 16093 6.7 50 22:42 15.05.2020
3109 Rain 26 1012 74 16093 6.7 50 22:22 15.05.2020
3110 Clouds 26 1013 78 16093 6.2 50 21:58 15.05.2020
3111 Clouds 26 1013 78 16093 6.2 50 21:39 15.05.2020
3112 Clouds 26 1013 78 16093 6.2 50 21:21 15.05.2020
3113 Rain 26 1013 78 16093 4.6 60 20:56 15.05.2020
3114 Rain 25 1013 88 11265 4.6 30 20:38 15.05.2020
3115 Rain 25 1013 88 11265 4.6 30 20:20 15.05.2020
3116 Rain 25 1014 74 16093 5.7 60 19:44 15.05.2020
3117 Rain 26 1014 74 16093 5.7 60 19:44 15.05.2020
3118 Rain 26 1014 74 16093 5.7 60 19:24 15.05.2020
3119 Rain 26 1014 78 16093 5.7 80 18:59 15.05.2020
3120 Rain 25 1015 83 16093 4.1 60 18:39 15.05.2020
3121 Rain 25 1015 83 16093 4.1 60 18:21 15.05.2020
3122 Rain 25 1015 94 16093 4.1 40 17:39 15.05.2020
3123 Rain 25 1015 94 16093 4.1 40 17:39 15.05.2020
3124 Rain 24 1015 94 16093 4.1 40 17:19 15.05.2020
3125 Rain 24 1015 100 6437 4.1 70 16:56 15.05.2020
3126 Rain 23 1015 100 6437 4.1 70 16:38 15.05.2020
3127 Rain 23 1015 100 6437 4.1 70 16:19 15.05.2020
3128 Rain 23 1015 94 3219 6.2 20 15:41 15.05.2020
3129 Rain 23 1015 94 3219 6.2 20 15:22 15.05.2020
3130 Thunderstorm 23 1015 94 8047 4.1 40 14:58 15.05.2020
3131 Rain 23 1015 94 8047 4.1 30 14:40 15.05.2020
3132 Rain 23 1015 94 8047 4.1 30 14:22 15.05.2020
3133 Rain 23 1014 88 16093 6.2 50 13:43 15.05.2020
3134 Rain 24 1014 88 16093 6.2 50 13:23 15.05.2020
3135 Rain 24 1014 88 16093 4.1 70 12:59 15.05.2020
3136 Rain 24 1014 88 16093 3.1 60 12:39 15.05.2020
3137 Rain 24 1014 88 16093 3.1 60 12:18 15.05.2020
3138 Rain 24 1014 94 16093 2.6 10 11:56 15.05.2020
3139 Rain 24 1014 94 16093 2.6 10 11:56 15.05.2020
3140 Rain 24 1014 94 16093 1.5 350 11:38 15.05.2020
3141 Rain 24 1014 94 16093 1.5 350 11:19 15.05.2020
3142 Rain 24 1014 94 16093 3.1 50 10:56 15.05.2020
3143 Rain 24 1014 94 16093 3.1 50 10:38 15.05.2020
3144 Rain 24 1014 94 16093 3.1 50 10:20 15.05.2020
3145 Rain 24 1015 94 12874 4.1 70 09:41 15.05.2020
3146 Rain 24 1015 94 12874 4.1 70 09:20 15.05.2020
3147 Rain 24 1015 88 805 9.3 60 08:59 15.05.2020
3148 Rain 24 1015 88 11265 5.7 70 08:38 15.05.2020
3149 Rain 25 1015 88 11265 5.7 70 08:20 15.05.2020
3150 Rain 25 1016 83 16093 6.7 80 07:46 15.05.2020
3151 Rain 25 1016 83 16093 6.7 80 07:46 15.05.2020
3152 Rain 25 1016 83 16093 6.7 80 07:28 15.05.2020
3153 Rain 25 1016 83 16093 6.7 60 06:59 15.05.2020
3154 Rain 25 1017 88 16093 6.7 80 05:56 15.05.2020
3155 Rain 24 1017 88 12874 8.7 100 04:38 15.05.2020
3156 Rain 24 1017 88 6437 12.3 90 03:50 15.05.2020
3157 Clouds 25 1016 74 16093 5.1 60 02:49 15.05.2020
3158 Rain 25 1017 74 14484 7.7 70 01:37 15.05.2020
3159 Rain 25 1017 74 14484 7.7 70 01:18 15.05.2020
3160 Clouds 26 1017 74 14484 6.2 60 00:40 15.05.2020
3161 Clouds 25 1017 74 14484 6.2 60 00:21 15.05.2020
3162 Rain 25 1017 74 14484 6.2 70 23:41 14.05.2020
3163 Rain 25 1017 74 14484 6.2 70 23:19 14.05.2020
3164 Rain 26 1018 74 16093 6.7 70 22:42 14.05.2020
3165 Rain 25 1018 74 16093 6.7 70 22:23 14.05.2020
3166 Clouds 25 1018 74 16093 7.7 70 21:59 14.05.2020
3167 Clouds 26 1018 74 16093 7.7 70 21:40 14.05.2020
3168 Clouds 26 1018 74 16093 7.7 70 21:20 14.05.2020
3169 Clouds 26 1019 69 16093 6.7 70 20:57 14.05.2020
3170 Clouds 26 1019 69 16093 6.7 70 20:39 14.05.2020
3171 Clouds 26 1019 69 16093 6.7 70 20:19 14.05.2020
3172 Clouds 26 1019 69 16093 6.7 70 20:19 14.05.2020
3173 Clouds 26 1019 69 16093 8.2 80 19:56 14.05.2020
3174 Clouds 26 1019 69 16093 8.2 80 19:37 14.05.2020
3175 Clouds 26 1019 69 16093 8.2 80 19:37 14.05.2020
3176 Clouds 26 1019 69 16093 8.2 80 19:19 14.05.2020
3177 Clouds 26 1020 69 16093 7.7 90 18:56 14.05.2020
3178 Clouds 26 1020 65 16093 7.7 80 18:37 14.05.2020
3179 Rain 26 1020 65 16093 7.7 80 18:19 14.05.2020
3180 Rain 26 1020 69 16093 8.2 80 17:56 14.05.2020
3181 Rain 26 1020 69 16093 8.2 80 17:37 14.05.2020
3182 Clouds 26 1020 69 16093 8.2 80 17:18 14.05.2020
3183 Rain 25 1020 73 16093 9.3 80 16:39 14.05.2020
3184 Rain 25 1020 73 16093 9.3 80 16:21 14.05.2020
3185 Clouds 25 1020 73 16093 8.2 80 15:59 14.05.2020
3186 Clouds 25 1020 69 16093 9.3 80 15:40 14.05.2020
3187 Clouds 25 1020 69 16093 9.3 80 15:20 14.05.2020
3188 Clouds 25 1019 69 16093 8.2 70 14:56 14.05.2020
3189 Clouds 25 1019 69 16093 8.2 70 14:38 14.05.2020
3190 Clouds 25 1019 69 16093 8.2 70 14:20 14.05.2020
3191 Clouds 25 1019 69 16093 7.7 70 13:57 14.05.2020
3192 Clouds 25 1019 69 16093 7.7 70 13:38 14.05.2020
3193 Clouds 25 1019 69 16093 7.7 70 13:19 14.05.2020
3194 Clouds 24 1018 73 16093 6.2 70 12:57 14.05.2020
3195 Clouds 24 1018 73 16093 6.2 70 12:37 14.05.2020
3196 Clouds 24 1018 73 16093 6.2 70 12:18 14.05.2020
3197 Clouds 24 1018 73 16093 6.7 70 11:56 14.05.2020
3198 Clouds 24 1018 73 16093 6.7 70 11:37 14.05.2020
3199 Clouds 24 1018 73 16093 6.7 70 11:37 14.05.2020
3200 Clouds 24 1018 73 16093 6.7 70 11:19 14.05.2020
3201 Clouds 24 1019 73 16093 8.7 70 10:42 14.05.2020
3202 Clouds 24 1019 73 16093 8.7 70 10:24 14.05.2020
3203 Clouds 24 1019 73 16093 8.2 70 09:56 14.05.2020
3204 Clouds 24 1019 73 16093 8.2 70 09:56 14.05.2020
3205 Clouds 24 1019 73 16093 8.2 70 09:36 14.05.2020
3206 Clouds 24 1019 73 16093 8.2 70 09:18 14.05.2020
3207 Rain 24 1020 73 16093 7.2 60 08:37 14.05.2020
3208 Rain 24 1020 73 16093 7.2 60 08:19 14.05.2020
3209 Clouds 24 1020 65 16093 5.7 60 07:45 14.05.2020
3210 Clouds 24 1020 65 16093 5.7 60 07:45 14.05.2020
3211 Clouds 25 1020 65 16093 5.7 60 07:22 14.05.2020
3212 Clouds 25 1020 65 16093 9.3 70 06:44 14.05.2020
3213 Clouds 25 1020 65 16093 9.3 70 06:25 14.05.2020
3214 Clouds 25 1020 65 16093 7.2 70 05:42 14.05.2020
3215 Clouds 25 1020 65 16093 7.2 70 05:42 14.05.2020
3216 Clouds 25 1020 65 16093 8.7 70 04:46 14.05.2020
3217 Clouds 25 1020 65 16093 8.2 70 03:43 14.05.2020
3218 Clouds 25 1020 65 16093 8.2 70 03:20 14.05.2020
3219 Clouds 25 1019 65 16093 8.7 70 02:36 14.05.2020
3220 Clouds 25 1019 65 16093 8.7 60 01:52 14.05.2020
3221 Clouds 26 1019 65 16093 10.3 80 00:53 14.05.2020
3222 Clouds 26 1019 65 16093 10.3 80 00:28 14.05.2020
3223 Clouds 26 1019 61 16093 8.2 60 23:45 13.05.2020
3224 Clouds 27 1019 61 16093 8.2 60 23:25 13.05.2020
3225 Clouds 27 1019 61 16093 7.7 60 22:59 13.05.2020
3226 Clouds 27 1019 61 16093 7.7 60 22:41 13.05.2020
3227 Clouds 27 1019 61 16093 7.7 60 22:22 13.05.2020
3228 Clouds 28 1020 58 16093 8.7 70 21:58 13.05.2020
3229 Clouds 28 1020 58 16093 8.7 70 21:39 13.05.2020
3230 Clouds 27 1020 58 16093 8.7 70 21:19 13.05.2020
3231 Clouds 28 1020 54 16093 7.2 70 20:55 13.05.2020
3232 Clouds 27 1020 54 16093 7.2 70 20:37 13.05.2020
3233 Clouds 27 1020 54 16093 7.2 70 20:37 13.05.2020
3234 Clouds 28 1020 54 16093 7.2 70 20:19 13.05.2020
3235 Clouds 27 1021 57 16093 8.7 80 19:41 13.05.2020
3236 Clouds 28 1021 57 16093 8.7 80 19:23 13.05.2020
3237 Clouds 27 1021 54 16093 8.2 80 18:44 13.05.2020
3238 Clouds 27 1021 54 16093 8.2 80 18:22 13.05.2020
3239 Clouds 28 1021 54 16093 8.7 90 17:58 13.05.2020
3240 Clouds 28 1021 54 16093 8.7 90 17:38 13.05.2020
3241 Clouds 28 1021 54 16093 8.7 90 17:18 13.05.2020
3242 Clouds 27 1021 57 16093 7.2 70 16:41 13.05.2020
3243 Clouds 27 1021 57 16093 7.2 70 16:19 13.05.2020
3244 Clouds 26 1020 57 16093 6.7 70 15:55 13.05.2020
3245 Clouds 26 1020 57 16093 6.7 70 15:37 13.05.2020
3246 Clouds 26 1020 57 16093 6.7 70 15:18 13.05.2020
3247 Clouds 25 1020 57 16093 5.1 70 14:54 13.05.2020
3248 Clouds 25 1020 57 16093 5.1 70 14:36 13.05.2020
3249 Clouds 25 1020 57 16093 5.1 70 14:18 13.05.2020
3250 Clouds 24 1020 64 16093 5.7 80 13:42 13.05.2020
3251 Clouds 24 1020 64 16093 5.7 80 13:22 13.05.2020
3252 Clouds 24 1019 64 16093 5.7 70 12:59 13.05.2020
3253 Clouds 24 1019 64 16093 5.7 70 12:41 13.05.2020
3254 Clouds 24 1019 64 16093 5.7 70 12:20 13.05.2020
3255 Clouds 24 1019 60 16093 6.2 80 11:56 13.05.2020
3256 Clouds 24 1019 60 16093 6.2 80 11:37 13.05.2020
3257 Clouds 24 1019 60 16093 6.2 80 11:19 13.05.2020
3258 Clouds 24 1020 60 16093 5.7 80 10:57 13.05.2020
3259 Clouds 24 1020 60 16093 5.7 80 10:38 13.05.2020
3260 Clouds 24 1020 60 16093 5.7 80 10:19 13.05.2020
3261 Clouds 24 1020 60 16093 6.2 70 09:46 13.05.2020
3262 Clouds 24 1020 60 16093 6.2 70 09:24 13.05.2020
3263 Clouds 25 1020 61 16093 5.1 70 08:58 13.05.2020
3264 Clouds 25 1020 61 16093 5.1 70 08:39 13.05.2020
3265 Clouds 25 1021 61 16093 6.2 60 08:20 13.05.2020
3266 Clouds 25 1021 61 16093 6.2 60 07:51 13.05.2020
3267 Clouds 25 1021 61 16093 6.2 60 07:32 13.05.2020
3268 Clouds 25 1021 61 16093 6.7 70 06:52 13.05.2020
3269 Clouds 25 1021 61 16093 6.7 70 06:33 13.05.2020
3270 Clouds 25 1020 65 0 1.79 70 05:37 13.05.2020
3271 Clouds 25 1020 57 16093 6.2 70 03:49 13.05.2020
3272 Clouds 25 1020 57 16093 6.7 60 02:37 13.05.2020
3273 Clouds 26 1019 57 16093 6.7 50 01:46 13.05.2020
3274 Clouds 27 1019 54 16093 6.7 70 00:58 13.05.2020
3275 Clouds 27 1019 54 16093 6.7 70 00:23 13.05.2020
3276 Clouds 27 1019 54 16093 8.7 70 23:58 12.05.2020
3277 Clouds 27 1019 54 16093 8.7 70 23:39 12.05.2020
3278 Clouds 27 1019 54 16093 8.7 70 23:18 12.05.2020
3279 Clouds 28 1019 48 16093 7.2 50 22:42 12.05.2020
3280 Clouds 28 1019 48 16093 7.2 50 22:22 12.05.2020
3281 Clouds 28 1020 48 16093 8.7 60 21:56 12.05.2020
3282 Clouds 28 1020 48 16093 8.7 60 21:38 12.05.2020
3283 Clouds 28 1020 48 16093 8.7 60 21:19 12.05.2020
3284 Clouds 28 1020 48 16093 8.7 70 20:58 12.05.2020
3285 Clouds 28 1020 48 16093 8.7 70 20:39 12.05.2020
3286 Clouds 28 1020 48 16093 8.7 70 20:20 12.05.2020
3287 Clouds 29 1020 45 16093 7.7 70 19:57 12.05.2020
3288 Clouds 29 1020 45 16093 7.7 70 19:39 12.05.2020
3289 Clouds 29 1020 45 16093 7.7 70 19:20 12.05.2020
3290 Clouds 29 1020 42 16093 6.2 40 18:55 12.05.2020
3291 Clouds 29 1020 42 16093 6.2 40 18:36 12.05.2020
3292 Clouds 28 1020 42 16093 6.2 40 18:18 12.05.2020
3293 Clouds 28 1021 45 16093 5.7 40 17:41 12.05.2020
3294 Clouds 28 1021 45 16093 5.7 40 17:23 12.05.2020
3295 Clouds 27 1020 48 16093 5.7 40 16:47 12.05.2020
3296 Clouds 27 1020 48 16093 5.7 40 16:26 12.05.2020
3297 Clouds 26 1020 61 16093 6.2 60 15:56 12.05.2020
3298 Clouds 26 1020 61 16093 6.2 60 15:38 12.05.2020
3299 Clouds 26 1020 61 16093 6.2 60 15:19 12.05.2020
3300 Clouds 25 1019 78 16093 3.6 50 14:57 12.05.2020
3301 Clouds 25 1019 78 16093 3.6 50 14:37 12.05.2020
3302 Clouds 24 1018 78 16093 1.5 10 14:19 12.05.2020
3303 Clouds 24 1018 78 16093 1.5 10 13:57 12.05.2020
3304 Clouds 23 1018 78 16093 1.5 10 13:39 12.05.2020
3305 Clouds 24 1018 78 16093 1.5 10 13:19 12.05.2020
3306 Clouds 24 1018 78 16093 1.5 10 13:19 12.05.2020
3307 Clouds 24 1017 78 16093 2.1 30 12:57 12.05.2020
3308 Clouds 24 1017 78 16093 2.1 30 12:39 12.05.2020
3309 Clouds 23 1017 78 16093 2.1 30 12:21 12.05.2020
3310 Clouds 23 1017 78 16093 2.1 40 11:58 12.05.2020
3311 Clouds 23 1017 78 16093 2.1 40 11:38 12.05.2020
3312 Clouds 23 1017 78 16093 2.1 40 11:20 12.05.2020
3313 Clouds 24 1017 73 16093 2.6 60 10:58 12.05.2020
3314 Clouds 24 1017 73 16093 2.6 60 10:39 12.05.2020
3315 Clouds 24 1017 73 16093 2.6 60 10:20 12.05.2020
3316 Clouds 24 1018 65 16093 3.1 60 09:58 12.05.2020
3317 Clouds 24 1018 65 16093 3.1 60 09:39 12.05.2020
3318 Clouds 24 1018 65 16093 3.1 60 09:20 12.05.2020
3319 Clouds 25 1018 69 16093 3.1 50 08:42 12.05.2020
3320 Clouds 25 1018 69 16093 3.1 50 08:22 12.05.2020
3321 Clouds 25 1019 69 16093 3.1 40 07:58 12.05.2020
3322 Clouds 25 1019 69 16093 3.1 40 07:40 12.05.2020
3323 Clouds 25 1019 69 16093 3.1 40 07:21 12.05.2020
3324 Clear 25 1019 69 16093 4.1 40 06:39 12.05.2020
3325 Clear 25 1019 69 16093 4.1 40 06:21 12.05.2020
3326 Clouds 25 1019 65 16093 3.1 50 05:49 12.05.2020
3327 Clouds 25 1018 65 16093 3.6 40 04:41 12.05.2020
3328 Clouds 26 1018 65 16093 6.7 60 03:24 12.05.2020
3329 Clouds 26 1017 65 16093 6.7 60 02:27 12.05.2020
3330 Clouds 26 1016 57 16093 6.7 50 01:48 12.05.2020
3331 Clouds 27 1016 61 16093 6.7 50 00:59 12.05.2020
3332 Clouds 27 1016 61 16093 6.7 50 00:24 12.05.2020
3333 Clouds 27 1016 58 16093 6.7 50 23:57 11.05.2020
3334 Clouds 28 1016 58 16093 6.7 50 23:38 11.05.2020
3335 Clouds 28 1016 58 16093 6.7 50 23:20 11.05.2020
3336 Clouds 28 1016 54 16093 5.7 40 22:58 11.05.2020
3337 Clouds 28 1016 54 16093 5.7 40 22:40 11.05.2020
3338 Clouds 28 1016 54 16093 5.7 40 22:19 11.05.2020
3339 Clouds 28 1016 54 16093 7.7 40 21:55 11.05.2020
3340 Clouds 28 1016 54 16093 7.7 40 21:37 11.05.2020
3341 Clouds 29 1016 54 16093 7.7 40 21:18 11.05.2020
3342 Clouds 28 1017 58 16093 5.7 50 20:57 11.05.2020
3343 Clouds 28 1017 58 16093 5.7 50 20:38 11.05.2020
3344 Clouds 28 1017 58 16093 5.7 50 20:18 11.05.2020
3345 Rain 27 1017 61 16093 4.6 30 19:41 11.05.2020
3346 Clouds 27 1017 61 16093 4.6 30 19:22 11.05.2020
3347 Clouds 28 1017 58 16093 3.6 360 18:58 11.05.2020
3348 Clouds 27 1017 58 16093 3.6 360 18:39 11.05.2020
3349 Clouds 28 1017 58 16093 3.6 360 18:20 11.05.2020
3350 Clouds 27 1017 61 16093 3.6 360 17:58 11.05.2020
3351 Clouds 27 1017 69 16093 6.2 10 17:40 11.05.2020
3352 Clouds 27 1017 69 16093 6.2 10 17:40 11.05.2020
3353 Clouds 26 1017 69 16093 6.2 10 17:21 11.05.2020
3354 Clouds 26 1017 83 16093 2.6 330 16:57 11.05.2020
3355 Clouds 25 1017 83 16093 2.6 330 16:38 11.05.2020
3356 Clouds 25 1017 83 16093 2.6 330 16:19 11.05.2020
3357 Clouds 24 1016 88 16093 2.1 320 15:54 11.05.2020
3358 Clouds 23 1016 88 16093 2.1 320 15:36 11.05.2020
3359 Clouds 23 1016 88 16093 2.1 320 15:18 11.05.2020
3360 Clouds 22 1017 94 16093 1.5 330 14:41 11.05.2020
3361 Clouds 22 1017 94 16093 1.5 330 14:22 11.05.2020
3362 Clouds 22 1016 94 16093 1.5 310 13:58 11.05.2020
3363 Clouds 22 1016 94 16093 1.5 310 13:39 11.05.2020
3364 Clouds 22 1016 94 16093 1.5 310 13:18 11.05.2020
3365 Clouds 22 1015 88 16093 1.5 330 12:56 11.05.2020
3366 Clouds 22 1015 88 16093 1.5 330 12:38 11.05.2020
3367 Clouds 22 1015 88 16093 1.5 330 12:19 11.05.2020
3368 Clouds 22 1015 94 12874 2.1 340 11:42 11.05.2020
3369 Clouds 22 1015 94 12874 2.1 340 11:22 11.05.2020
3370 Clouds 22 1015 94 11265 3.1 340 10:59 11.05.2020
3371 Clouds 22 1015 94 11265 3.1 340 10:40 11.05.2020
3372 Clouds 22 1015 94 11265 3.1 340 10:22 11.05.2020
3373 Clouds 22 1015 94 12874 3.98 24 09:59 11.05.2020
3374 Clouds 22 1015 94 12874 3.98 24 09:41 11.05.2020
3375 Rain 22 1015 94 12874 3.56 55 09:20 11.05.2020
3376 Rain 22 1016 94 12874 2.1 350 08:56 11.05.2020
3377 Rain 22 1016 94 12874 2.1 350 08:37 11.05.2020
3378 Rain 22 1016 94 12874 2.1 350 08:18 11.05.2020
3379 Rain 22 1017 88 16093 2.6 340 07:46 11.05.2020
3380 Rain 22 1017 88 16093 2.6 340 07:27 11.05.2020
3381 Rain 22 1016 94 14484 2.1 30 06:51 11.05.2020
3382 Rain 22 1017 94 12874 1.5 30 05:58 11.05.2020
3383 Rain 22 1017 94 12874 1.5 30 05:25 11.05.2020
3384 Rain 22 1017 94 16093 1.5 30 04:35 11.05.2020
3385 Rain 22 1017 94 11265 2.1 50 03:33 11.05.2020
3386 Rain 22 1017 94 11265 2.6 60 02:33 11.05.2020
3387 Rain 22 1017 94 11265 2.6 60 01:43 11.05.2020
3388 Rain 23 1017 83 11265 2.6 70 00:53 11.05.2020
3389 Rain 23 1017 78 16093 3.1 60 00:21 11.05.2020
3390 Clouds 23 1017 88 16093 5.7 70 23:44 10.05.2020
3391 Clouds 23 1017 88 16093 5.7 70 23:26 10.05.2020
3392 Clouds 23 1017 83 16093 4.1 70 22:57 10.05.2020
3393 Clouds 23 1017 83 11265 4.1 60 22:39 10.05.2020
3394 Clouds 23 1017 88 16093 3.6 80 22:20 10.05.2020
3395 Mist 22 1018 88 9656 4.6 90 21:44 10.05.2020
3396 Rain 22 1018 88 9656 4.6 90 21:20 10.05.2020
3397 Rain 22 1019 83 16093 4.6 90 20:56 10.05.2020
3398 Rain 22 1019 83 16093 4.6 90 20:38 10.05.2020
3399 Rain 22 1019 83 16093 4.6 90 20:19 10.05.2020
3400 Rain 21 1019 73 9656 3.1 40 19:41 10.05.2020
3401 Rain 22 1019 73 9656 3.1 40 19:23 10.05.2020
3402 Rain 22 1019 73 9656 3.1 30 18:57 10.05.2020
3403 Rain 22 1019 73 9656 3.1 30 18:38 10.05.2020
3404 Rain 22 1019 73 9656 3.1 30 18:19 10.05.2020
3405 Rain 23 1019 65 16093 2.1 40 17:59 10.05.2020
3406 Rain 24 1019 57 16093 2.1 30 17:41 10.05.2020
3407 Rain 25 1019 57 16093 2.1 30 17:22 10.05.2020
3408 Rain 25 1019 61 16093 2.1 70 16:59 10.05.2020
3409 Rain 25 1019 61 16093 2.1 70 16:40 10.05.2020
3410 Rain 25 1019 61 16093 2.1 70 16:19 10.05.2020
3411 Rain 25 1019 61 16093 2.1 70 16:19 10.05.2020
3412 Rain 24 1019 83 16093 2.1 350 15:55 10.05.2020
3413 Rain 24 1019 83 16093 2.1 350 15:36 10.05.2020
3414 Rain 24 1019 83 16093 2.1 350 15:36 10.05.2020
3415 Rain 24 1019 83 16093 2.1 350 15:18 10.05.2020
3416 Rain 24 1018 83 16093 4.1 70 14:39 10.05.2020
3417 Rain 24 1018 83 16093 4.1 70 14:39 10.05.2020
3418 Rain 25 1018 83 16093 4.1 70 14:20 10.05.2020
3419 Rain 24 1018 83 16093 2.6 70 13:59 10.05.2020
3420 Rain 25 1018 83 16093 2.6 70 13:39 10.05.2020
3421 Rain 25 1018 83 16093 2.6 70 13:20 10.05.2020
3422 Rain 25 1017 78 16093 3.1 50 12:58 10.05.2020
3423 Rain 25 1017 78 16093 3.1 50 12:40 10.05.2020
3424 Rain 25 1017 78 16093 3.1 50 12:40 10.05.2020
3425 Rain 25 1017 78 16093 3.1 50 12:21 10.05.2020
3426 Rain 26 1017 74 16093 4.6 70 11:58 10.05.2020
3427 Rain 26 1017 74 16093 4.6 70 11:39 10.05.2020
3428 Rain 26 1017 74 16093 4.6 70 11:20 10.05.2020
3429 Rain 26 1017 74 16093 4.6 70 11:20 10.05.2020
3430 Clouds 25 1017 69 16093 2.1 70 10:47 10.05.2020
3431 Clouds 26 1017 69 16093 2.1 70 10:29 10.05.2020
3432 Clouds 26 1017 65 16093 3.6 70 09:59 10.05.2020
3433 Clouds 26 1017 65 16093 3.6 70 09:40 10.05.2020
3434 Clouds 26 1017 65 16093 3.6 70 09:21 10.05.2020
3435 Clouds 26 1018 65 16093 3.6 90 08:52 10.05.2020
3436 Clouds 26 1018 65 16093 3.6 90 08:24 10.05.2020
3437 Clouds 26 1018 65 16093 4.6 100 07:46 10.05.2020
3438 Clouds 26 1018 65 16093 4.6 100 07:21 10.05.2020
3439 Clouds 26 1018 57 16093 4.1 100 06:58 10.05.2020
3440 Clouds 26 1018 57 16093 4.1 100 06:37 10.05.2020
3441 Clouds 26 1018 57 16093 4.1 100 06:18 10.05.2020
3442 Clouds 26 1019 54 16093 3.6 90 05:42 10.05.2020
3443 Clouds 26 1018 54 16093 2.6 50 04:39 10.05.2020
3444 Clouds 26 1018 54 16093 2.6 50 04:20 10.05.2020
3445 Clouds 26 1018 54 16093 3.1 50 03:39 10.05.2020
3446 Clouds 26 1017 54 16093 4.1 70 02:54 10.05.2020
3447 Clouds 26 1017 54 16093 4.1 70 02:24 10.05.2020
3448 Clouds 27 1017 54 16093 6.7 100 01:43 10.05.2020
3449 Clear 27 1017 57 16093 6.2 90 01:23 10.05.2020
3450 Clouds 27 1016 57 16093 6.2 70 00:57 10.05.2020
3451 Clouds 27 1016 57 16093 6.2 70 00:36 10.05.2020
3452 Clouds 27 1016 57 16093 6.2 70 00:18 10.05.2020
3453 Clouds 28 1016 54 16093 5.1 70 23:39 09.05.2020
3454 Clouds 28 1016 54 16093 5.1 70 23:20 09.05.2020
3455 Clouds 28 1017 51 16093 6.2 90 22:54 09.05.2020
3456 Clouds 29 1017 51 16093 6.2 90 22:36 09.05.2020
3457 Clouds 28 1017 51 16093 6.2 90 22:18 09.05.2020
3458 Clouds 29 1017 51 16093 5.7 80 21:55 09.05.2020
3459 Clouds 28 1017 51 16093 5.7 80 21:36 09.05.2020
3460 Clouds 28 1017 51 16093 5.7 80 21:36 09.05.2020
3461 Clouds 29 1017 51 16093 5.7 80 21:18 09.05.2020
3462 Clouds 29 1017 45 16093 4.6 100 20:54 09.05.2020
3463 Clouds 29 1017 45 16093 4.6 100 20:36 09.05.2020
3464 Clouds 30 1017 45 16093 4.6 100 20:18 09.05.2020
3465 Clouds 30 1018 45 16093 2.1 150 19:39 09.05.2020
3466 Clouds 30 1018 45 16093 2.1 150 19:20 09.05.2020
3467 Clouds 29 1018 48 16093 2.1 0 18:54 09.05.2020
3468 Clouds 29 1018 48 16093 2.1 0 18:54 09.05.2020
3469 Clouds 29 1018 48 16093 2.1 0 18:36 09.05.2020
3470 Clouds 29 1018 48 16093 2.1 0 18:18 09.05.2020
3471 Clouds 28 1018 51 16093 1.5 0 17:40 09.05.2020
3472 Clouds 28 1018 51 16093 1.5 0 17:21 09.05.2020
3473 Clouds 28 1017 57 16093 1.67 51 16:41 09.05.2020
3474 Clouds 27 1017 57 16093 1.04 9 16:20 09.05.2020
3475 Clouds 26 1017 65 16093 2.1 0 15:46 09.05.2020
3476 Clouds 25 1017 65 16093 2.1 0 15:27 09.05.2020
3477 Clear 25 1017 78 16093 1.5 290 14:59 09.05.2020
3478 Clear 24 1017 78 16093 1.5 290 14:41 09.05.2020
3479 Clear 23 1017 78 16093 1.5 290 14:20 09.05.2020
3480 Clear 22 1016 83 16093 0.49 252 13:58 09.05.2020
3481 Clear 22 1016 83 16093 0.49 252 13:40 09.05.2020
3482 Clear 22 1016 83 16093 0.49 252 13:40 09.05.2020
3483 Clear 21 1016 83 16093 1.59 195 13:20 09.05.2020
3484 Clear 21 1016 83 16093 1.5 0 12:43 09.05.2020
3485 Clear 20 1016 83 16093 1.5 0 12:23 09.05.2020
3486 Clear 21 1016 83 16093 1.5 250 11:59 09.05.2020
3487 Clear 21 1016 83 16093 1.5 250 11:41 09.05.2020
3488 Clear 21 1016 83 16093 1.5 250 11:19 09.05.2020
3489 Clear 22 1016 73 16093 1.5 310 10:47 09.05.2020
3490 Clear 22 1016 73 16093 1.5 310 10:25 09.05.2020
3491 Clear 22 1017 73 16093 2.6 250 09:58 09.05.2020
3492 Clear 23 1017 73 16093 2.6 250 09:39 09.05.2020
3493 Clear 22 1017 73 16093 2.6 250 09:19 09.05.2020
3494 Clear 23 1018 73 16093 2.1 0 08:51 09.05.2020
3495 Clear 23 1018 73 16093 2.1 0 08:33 09.05.2020
3496 Clear 23 1018 69 16093 2.29 148 07:51 09.05.2020
3497 Clear 23 1018 69 16093 2.29 148 07:33 09.05.2020
3498 Clouds 23 1018 69 16093 2.59 141 06:55 09.05.2020
3499 Clouds 24 1018 69 16093 3.35 149 06:26 09.05.2020
3500 Clouds 24 1018 64 16093 3.35 149 05:49 09.05.2020
3501 Clouds 24 1017 64 16093 3.1 140 04:43 09.05.2020
3502 Clouds 24 1017 64 16093 3.6 150 03:38 09.05.2020
3503 Clouds 25 1016 61 16093 3.6 140 02:50 09.05.2020
3504 Clouds 25 1016 54 16093 3.6 120 01:54 09.05.2020
3505 Clouds 26 1016 54 16093 3.6 120 01:25 09.05.2020
3506 Clouds 27 1016 51 16093 5.1 120 00:59 09.05.2020
3507 Clouds 27 1016 51 16093 5.1 120 00:38 09.05.2020
3508 Clouds 27 1015 51 16093 4.6 130 23:57 08.05.2020
3509 Clouds 28 1015 51 16093 4.6 130 23:39 08.05.2020
3510 Clouds 28 1015 51 16093 4.6 130 23:19 08.05.2020
3511 Clouds 28 1016 54 16093 4.1 110 22:54 08.05.2020
3512 Clouds 28 1016 54 16093 4.1 110 22:36 08.05.2020
3513 Clouds 28 1016 54 16093 4.1 110 22:18 08.05.2020
3514 Clouds 28 1017 51 16093 5.7 120 21:42 08.05.2020
3515 Clouds 28 1017 51 16093 5.7 120 21:19 08.05.2020
3516 Clouds 28 1017 51 16093 5.7 120 21:19 08.05.2020
3517 Clouds 28 1018 48 16093 5.7 130 20:59 08.05.2020
3518 Clouds 28 1018 48 16093 5.7 130 20:41 08.05.2020
3519 Clouds 28 1018 48 16093 5.7 130 20:23 08.05.2020
3520 Clouds 28 1018 48 16093 5.1 110 19:55 08.05.2020
3521 Clouds 28 1018 48 16093 5.1 110 19:37 08.05.2020
3522 Clouds 28 1018 48 16093 5.1 110 19:19 08.05.2020
3523 Clouds 28 1019 47 16093 3.6 100 18:43 08.05.2020
3524 Clouds 27 1019 47 16093 3.6 100 18:25 08.05.2020
3525 Clouds 27 1019 44 16093 4.1 110 17:42 08.05.2020
3526 Clouds 27 1019 44 16093 4.1 110 17:19 08.05.2020
3527 Clouds 26 1018 47 16093 6.2 130 16:54 08.05.2020
3528 Clouds 26 1018 47 16093 6.2 130 16:36 08.05.2020
3529 Clouds 26 1018 47 16093 6.2 130 16:18 08.05.2020
3530 Clouds 25 1019 50 16093 5.7 110 15:42 08.05.2020
3531 Clouds 25 1019 50 16093 5.7 110 15:19 08.05.2020
3532 Clouds 24 1018 56 16093 1.5 50 14:55 08.05.2020
3533 Clouds 24 1018 56 16093 1.5 50 14:37 08.05.2020
3534 Clouds 23 1018 56 16093 1.5 50 14:18 08.05.2020
3535 Clouds 22 1018 64 16093 1.5 30 13:41 08.05.2020
3536 Clouds 22 1018 64 16093 1.5 30 13:20 08.05.2020
3537 Clouds 21 1018 68 16093 1.5 360 12:55 08.05.2020
3538 Clouds 21 1018 68 16093 1.5 360 12:37 08.05.2020
3539 Clouds 21 1018 68 16093 1.5 360 12:18 08.05.2020
3540 Clouds 22 1017 64 16093 2.1 10 11:44 08.05.2020
3541 Clouds 22 1017 64 16093 2.1 10 11:23 08.05.2020
3542 Clouds 22 1018 64 16093 1.5 360 10:58 08.05.2020
3543 Clouds 22 1018 64 16093 1.5 360 10:40 08.05.2020
3544 Clouds 22 1018 64 16093 1.5 360 10:19 08.05.2020
3545 Clouds 22 1018 64 16093 2.1 20 09:54 08.05.2020
3546 Clouds 22 1018 64 16093 2.1 20 09:36 08.05.2020
3547 Clouds 22 1018 64 16093 2.1 20 09:18 08.05.2020
3548 Clouds 22 1018 64 16093 2.1 20 08:40 08.05.2020
3549 Clouds 22 1018 64 16093 2.1 20 08:21 08.05.2020
3550 Clouds 23 1019 60 16093 7.26 51 07:43 08.05.2020
3551 Clouds 23 1019 60 16093 7.26 51 07:43 08.05.2020
3552 Clouds 23 1019 60 16093 7.89 48 07:23 08.05.2020
3553 Clouds 23 1019 64 16093 3.1 50 06:50 08.05.2020
3554 Clouds 23 1019 64 16093 3.1 50 06:22 08.05.2020
3555 Clouds 23 1019 64 16093 3.6 40 05:41 08.05.2020
3556 Clouds 23 1018 60 16093 3.6 40 04:32 08.05.2020
3557 Clouds 24 1017 57 16093 4.6 60 02:33 08.05.2020
3558 Clouds 25 1016 47 16093 5.1 50 01:47 08.05.2020
3559 Clouds 25 1016 47 16093 5.1 50 01:27 08.05.2020
3560 Clouds 27 1016 25 16093 2.6 0 00:51 08.05.2020
3561 Clouds 27 1016 25 16093 2.6 0 00:29 08.05.2020
3562 Clouds 27 1016 25 16093 3.1 330 23:58 07.05.2020
3563 Clouds 28 1016 25 16093 3.1 330 23:40 07.05.2020
3564 Clouds 28 1016 25 16093 3.1 330 23:40 07.05.2020
3565 Clouds 28 1016 25 16093 3.1 330 23:40 07.05.2020
3566 Clouds 28 1016 25 16093 3.1 330 23:21 07.05.2020
3567 Clouds 28 1016 27 16093 5.1 300 22:56 07.05.2020
3568 Clouds 29 1016 27 16093 5.1 300 22:37 07.05.2020
3569 Clouds 29 1016 27 16093 5.1 300 22:19 07.05.2020
3570 Clouds 29 1016 27 16093 4.6 330 21:55 07.05.2020
3571 Clouds 29 1016 27 16093 4.6 330 21:36 07.05.2020
3572 Clouds 29 1016 27 16093 4.6 330 21:18 07.05.2020
3573 Clouds 29 1017 30 16093 3.6 40 20:42 07.05.2020
3574 Clouds 29 1017 30 16093 3.6 40 20:22 07.05.2020
3575 Clouds 30 1017 28 16093 4.6 320 19:56 07.05.2020
3576 Clouds 30 1017 28 16093 4.6 320 19:38 07.05.2020
3577 Clouds 29 1017 28 16093 4.6 320 19:19 07.05.2020
3578 Clouds 29 1017 34 16093 4.6 330 18:44 07.05.2020
3579 Clouds 28 1017 34 16093 4.6 330 18:26 07.05.2020
3580 Clouds 28 1017 32 16093 5.7 330 17:44 07.05.2020
3581 Clouds 27 1017 32 16093 5.7 330 17:21 07.05.2020
3582 Clouds 26 1017 39 16093 5.7 360 16:59 07.05.2020
3583 Clouds 26 1017 39 16093 5.7 360 16:40 07.05.2020
3584 Clouds 26 1017 39 16093 5.7 360 16:18 07.05.2020
3585 Clouds 25 1016 64 16093 4.6 340 15:56 07.05.2020
3586 Clouds 24 1016 64 16093 4.6 340 15:37 07.05.2020
3587 Clouds 24 1016 64 16093 4.6 340 15:37 07.05.2020
3588 Clouds 24 1016 64 16093 4.6 340 15:18 07.05.2020
3589 Clear 23 1016 83 16093 3.6 330 14:43 07.05.2020
3590 Clear 22 1016 83 16093 3.6 330 14:21 07.05.2020
3591 Clouds 22 1015 83 16093 4.6 320 13:45 07.05.2020
3592 Clouds 22 1015 83 16093 4.6 320 13:26 07.05.2020
3593 Clouds 22 1014 83 16093 2.6 320 12:54 07.05.2020
3594 Clouds 22 1014 83 16093 2.6 320 12:36 07.05.2020
3595 Clouds 22 1014 88 16093 2.6 310 12:18 07.05.2020
3596 Clouds 22 1014 88 16093 2.6 310 11:39 07.05.2020
3597 Clouds 22 1014 88 16093 2.6 310 11:21 07.05.2020
3598 Clear 22 1014 88 16093 2.6 290 10:44 07.05.2020
3599 Clear 22 1014 88 16093 2.6 290 10:25 07.05.2020
3600 Clouds 22 1014 83 16093 2.6 280 09:56 07.05.2020
3601 Clouds 22 1014 83 16093 2.6 280 09:38 07.05.2020
3602 Clouds 23 1014 83 16093 2.6 280 09:18 07.05.2020
3603 Clouds 23 1014 83 16093 2.6 280 09:18 07.05.2020
3604 Clouds 23 1014 83 16093 2.1 280 08:42 07.05.2020
3605 Clouds 23 1014 83 16093 2.1 280 08:22 07.05.2020
3606 Clear 23 1015 78 16093 2.1 280 07:58 07.05.2020
3607 Clear 23 1015 78 16093 2.1 280 07:39 07.05.2020
3608 Clear 23 1015 78 16093 2.1 280 07:19 07.05.2020
3609 Clear 23 1015 78 16093 2.1 280 07:19 07.05.2020
3610 Clear 24 1015 73 16093 3.1 290 06:37 07.05.2020
3611 Clear 25 1015 69 16093 5.1 280 05:58 07.05.2020
3612 Clear 26 1014 61 16093 4.6 250 04:27 07.05.2020
3613 Clouds 26 1013 57 16093 5.7 250 03:31 07.05.2020
3614 Clouds 27 1012 51 16093 5.7 250 02:59 07.05.2020
3615 Clouds 28 1012 51 16093 5.7 250 02:26 07.05.2020
3616 Clouds 30 1012 33 16093 5.1 250 01:28 07.05.2020
3617 Clouds 31 1011 33 16093 5.7 260 00:55 07.05.2020
3618 Clouds 31 1011 33 16093 5.7 260 00:37 07.05.2020
3619 Clouds 32 1011 33 16093 5.7 260 00:18 07.05.2020
3620 Clouds 32 1012 36 16093 5.7 240 23:41 06.05.2020
3621 Clouds 32 1012 36 16093 5.7 240 23:22 06.05.2020
3622 Clouds 32 1012 38 16093 6.7 230 22:55 06.05.2020
3623 Clouds 32 1012 38 16093 6.7 230 22:37 06.05.2020
3624 Clouds 32 1012 38 16093 6.7 230 22:18 06.05.2020
3625 Clouds 30 1013 66 16093 3.6 110 21:55 06.05.2020
3626 Clouds 30 1013 66 16093 3.6 110 21:36 06.05.2020
3627 Clouds 29 1013 66 16093 3.6 110 21:18 06.05.2020
3628 Clouds 30 1014 52 16093 2.6 290 20:39 06.05.2020
3629 Clouds 30 1014 52 16093 2.6 290 20:21 06.05.2020
3630 Clouds 30 1014 51 16093 2.1 320 19:56 06.05.2020
3631 Clouds 30 1014 51 16093 2.1 320 19:38 06.05.2020
3632 Clouds 30 1014 51 16093 2.1 320 19:19 06.05.2020
3633 Clouds 30 1015 58 16093 3.6 250 18:58 06.05.2020
3634 Clouds 30 1015 58 16093 3.6 250 18:58 06.05.2020
3635 Clouds 30 1015 58 16093 3.6 250 18:38 06.05.2020
3636 Clouds 30 1015 58 16093 3.6 250 18:38 06.05.2020
3637 Clouds 30 1015 58 16093 3.6 250 18:20 06.05.2020
3638 Clouds 29 1015 61 16093 1.5 240 17:55 06.05.2020
3639 Clouds 29 1015 61 16093 1.5 240 17:37 06.05.2020
3640 Clouds 29 1015 61 16093 1.5 240 17:37 06.05.2020
3641 Clouds 29 1015 61 16093 1.5 240 17:37 06.05.2020
3642 Clouds 29 1015 61 16093 1.5 240 17:18 06.05.2020
3643 Clouds 29 1016 61 16093 3.1 200 16:58 06.05.2020
3644 Clouds 29 1016 61 16093 3.1 200 16:40 06.05.2020
3645 Clouds 28 1016 61 16093 3.1 200 16:20 06.05.2020
3646 Clouds 28 1015 65 16093 2.6 210 15:56 06.05.2020
3647 Clouds 27 1015 65 16093 2.6 210 15:38 06.05.2020
3648 Clouds 27 1015 65 16093 2.6 210 15:18 06.05.2020
3649 Clouds 26 1015 69 16093 2.1 220 14:40 06.05.2020
3650 Clouds 25 1015 69 16093 2.1 220 14:19 06.05.2020
3651 Clouds 24 1015 73 16093 2.64 230 13:59 06.05.2020
3652 Clouds 23 1015 73 16093 2.64 230 13:39 06.05.2020
3653 Clouds 23 1015 73 16093 2.84 233 13:19 06.05.2020
3654 Clouds 23 1015 83 16093 2.84 233 12:43 06.05.2020
3655 Clouds 22 1015 83 16093 2.92 224 12:25 06.05.2020
3656 Clouds 23 1015 78 16093 1.5 220 11:55 06.05.2020
3657 Clouds 23 1015 78 16093 1.5 220 11:36 06.05.2020
3658 Clouds 23 1015 78 16093 1.5 220 11:18 06.05.2020
3659 Clouds 24 1014 78 16093 1.5 200 10:55 06.05.2020
3660 Clouds 23 1014 78 16093 1.5 200 10:36 06.05.2020
3661 Clouds 23 1014 83 16093 2.6 180 10:18 06.05.2020
3662 Clouds 23 1014 83 16093 2.6 180 09:39 06.05.2020
3663 Clouds 24 1014 83 16093 2.6 180 09:20 06.05.2020
3664 Clouds 24 1015 83 16093 1.5 190 08:44 06.05.2020
3665 Clouds 24 1015 83 16093 1.5 190 08:21 06.05.2020
3666 Clouds 24 1015 78 16093 1.5 170 07:57 06.05.2020
3667 Clouds 24 1015 78 16093 1.5 170 07:38 06.05.2020
3668 Clouds 24 1015 78 16093 1.5 170 07:19 06.05.2020
3669 Clouds 24 1016 74 16093 1.5 170 06:49 06.05.2020
3670 Clouds 25 1016 74 16093 1.5 170 06:21 06.05.2020
3671 Clouds 25 1016 74 16093 1.5 140 05:50 06.05.2020
3672 Clouds 25 1016 74 16093 1.5 140 05:32 06.05.2020
3673 Clouds 26 1015 74 16093 3.6 140 03:55 06.05.2020
3674 Clouds 26 1015 74 16093 3.6 140 03:34 06.05.2020
3675 Clouds 26 1014 74 16093 4.1 140 02:58 06.05.2020
3676 Clouds 26 1014 74 16093 4.1 140 02:28 06.05.2020
3677 Clouds 27 1014 65 16093 5.7 140 01:46 06.05.2020
3678 Clouds 28 1014 65 16093 5.7 140 01:26 06.05.2020
3679 Clouds 29 1014 62 16093 5.1 120 00:45 06.05.2020
3680 Clouds 29 1014 62 16093 5.1 120 00:23 06.05.2020
3681 Clouds 29 1014 62 16093 4.6 140 23:42 05.05.2020
3682 Clouds 29 1014 62 16093 4.6 140 23:20 05.05.2020
3683 Clouds 30 1014 58 16093 5.1 120 22:57 05.05.2020
3684 Clouds 30 1014 58 16093 5.1 120 22:39 05.05.2020
3685 Clouds 30 1014 58 16093 5.1 120 22:19 05.05.2020
3686 Clouds 30 1014 52 16093 4.6 150 21:55 05.05.2020
3687 Clouds 30 1014 52 16093 4.6 150 21:37 05.05.2020
3688 Clouds 30 1014 52 16093 4.6 150 21:19 05.05.2020
3689 Clouds 30 1015 48 16093 5.7 120 20:42 05.05.2020
3690 Clouds 30 1015 48 16093 5.7 120 20:20 05.05.2020
3691 Clouds 30 1015 48 16093 5.7 120 20:20 05.05.2020
3692 Clouds 30 1016 48 16093 2.6 0 20:00 05.05.2020
3693 Clouds 30 1016 48 16093 2.6 0 19:41 05.05.2020
3694 Clouds 30 1016 48 16093 2.6 0 19:23 05.05.2020
3695 Clouds 29 1016 54 16093 4.1 130 18:57 05.05.2020
3696 Clouds 29 1016 54 16093 4.1 130 18:39 05.05.2020
3697 Clouds 29 1016 54 16093 4.1 130 18:20 05.05.2020
3698 Clouds 29 1017 58 16093 4.18 143 17:57 05.05.2020
3699 Clouds 29 1017 58 16093 4.18 143 17:39 05.05.2020
3700 Clouds 29 1017 58 16093 3.7 151 17:20 05.05.2020
3701 Clouds 29 1016 65 16093 1.5 0 16:54 05.05.2020
3702 Clear 28 1016 61 0 0.45 182 16:36 05.05.2020
3703 Clear 27 1015 62 0 0.45 155 16:18 05.05.2020
3704 Clear 27 1016 66 0 2.84 161 15:40 05.05.2020
3705 Clear 25 1016 78 16093 1.5 300 15:21 05.05.2020
3706 Clear 25 1016 78 16093 1.5 300 14:55 05.05.2020
3707 Clear 25 1016 78 16093 1.5 300 14:37 05.05.2020
3708 Clear 24 1016 78 16093 1.5 300 14:19 05.05.2020
3709 Clouds 23 1016 83 16093 1.5 340 13:57 05.05.2020
3710 Clouds 23 1016 83 16093 1.5 340 13:38 05.05.2020
3711 Clouds 23 1016 83 16093 1.5 340 13:19 05.05.2020
3712 Clouds 23 1015 83 16093 1.5 300 12:57 05.05.2020
3713 Clouds 23 1015 83 16093 1.5 300 12:38 05.05.2020
3714 Clouds 22 1015 83 16093 1.5 300 12:19 05.05.2020
3715 Clouds 22 1015 78 16093 2.16 176 11:41 05.05.2020
3716 Clouds 23 1015 78 16093 2.18 166 11:20 05.05.2020
3717 Clouds 23 1014 78 16093 2.18 166 10:56 05.05.2020
3718 Clouds 22 1014 78 16093 2.18 166 10:38 05.05.2020
3719 Clouds 22 1014 78 16093 3.17 166 10:19 05.05.2020
3720 Clear 23 1015 73 16093 3.17 166 09:55 05.05.2020
3721 Clear 23 1015 73 16093 3.17 166 09:37 05.05.2020
3722 Clear 23 1015 73 16093 2.99 160 09:19 05.05.2020
3723 Clear 23 1015 78 16093 2.99 160 08:41 05.05.2020
3724 Clear 23 1015 78 16093 3.01 152 08:19 05.05.2020
3725 Clear 24 1016 73 16093 3.01 152 07:56 05.05.2020
3726 Clear 24 1016 73 16093 3.01 152 07:38 05.05.2020
3727 Clear 24 1016 73 16093 2.83 146 07:18 05.05.2020
3728 Clear 24 1017 73 16093 2.83 146 06:40 05.05.2020
3729 Clear 24 1017 73 16093 2.62 140 06:20 05.05.2020
3730 Clear 25 1016 69 16093 2.62 140 05:34 05.05.2020
3731 Clear 25 1015 61 16093 3.1 140 03:24 05.05.2020
3732 Smoke 27 1015 54 16093 4.6 90 01:25 05.05.2020
3733 Clouds 28 1015 51 16093 6.2 120 00:50 05.05.2020
3734 Clouds 28 1015 51 16093 6.2 120 00:19 05.05.2020
3735 Clouds 28 1015 51 16093 5.7 120 23:43 04.05.2020
3736 Clouds 28 1015 51 16093 5.7 120 23:43 04.05.2020
3737 Clouds 29 1015 51 16093 5.7 120 23:21 04.05.2020
3738 Clouds 29 1015 51 16093 4.1 120 22:56 04.05.2020
3739 Clouds 29 1015 51 16093 4.1 120 22:56 04.05.2020
3740 Clouds 29 1015 51 16093 4.1 120 22:37 04.05.2020
3741 Clouds 29 1015 51 16093 4.1 120 22:19 04.05.2020
3742 Clouds 29 1016 51 16093 4.1 120 21:52 04.05.2020
3743 Clouds 29 1016 51 16093 4.1 120 21:52 04.05.2020
3744 Clouds 29 1016 51 16093 4.1 120 21:52 04.05.2020
3745 Clouds 29 1016 51 16093 4.1 120 21:52 04.05.2020
3746 Clouds 29 1016 51 16093 4.1 120 21:52 04.05.2020
3747 Clouds 29 1016 51 16093 4.1 120 21:30 04.05.2020
3748 Clouds 29 1016 51 16093 4.1 120 21:30 04.05.2020
3749 Clouds 29 1016 51 16093 4.1 120 21:30 04.05.2020
3750 Clouds 29 1016 51 16093 4.1 120 21:30 04.05.2020
3751 Clouds 29 1016 51 16093 4.1 120 21:30 04.05.2020
3752 Clouds 29 1016 48 16093 5.7 120 20:44 04.05.2020
3753 Clouds 30 1016 48 16093 5.7 120 20:23 04.05.2020
3754 Clouds 30 1016 48 16093 5.7 120 20:23 04.05.2020
3755 Clouds 30 1017 48 16093 1.5 0 19:59 04.05.2020
3756 Clouds 30 1017 48 16093 1.5 0 19:40 04.05.2020
3757 Clouds 29 1017 48 16093 1.5 0 19:20 04.05.2020
3758 Clouds 29 1017 45 16093 2.6 0 18:55 04.05.2020
3759 Clouds 29 1017 45 16093 2.6 0 18:36 04.05.2020
3760 Clouds 29 1017 45 16093 2.6 0 18:18 04.05.2020
3761 Clouds 29 1017 48 16093 2.1 350 17:55 04.05.2020
3762 Clouds 29 1017 48 16093 2.1 350 17:55 04.05.2020
3763 Clouds 28 1017 48 16093 2.1 350 17:36 04.05.2020
3764 Clouds 28 1017 48 16093 2.1 350 17:18 04.05.2020
3765 Clouds 27 1017 57 16093 2.1 30 16:42 04.05.2020
3766 Clouds 27 1017 57 16093 2.1 30 16:21 04.05.2020
3767 Clouds 27 1017 65 16093 2.25 130 15:46 04.05.2020
3768 Clouds 26 1017 65 16093 2.2 132 15:25 04.05.2020
3769 Clouds 25 1017 73 16093 2.2 132 14:56 04.05.2020
3770 Clouds 25 1017 73 16093 2.2 132 14:56 04.05.2020
3771 Clouds 24 1017 73 16093 2.2 132 14:38 04.05.2020
3772 Clouds 24 1017 73 16093 2.2 132 14:38 04.05.2020
3773 Clouds 24 1017 73 16093 2.2 132 14:38 04.05.2020
3774 Clouds 24 1017 73 16093 2.2 132 14:38 04.05.2020
3775 Clouds 21 1016 83 16093 1.69 127 13:42 04.05.2020
3776 Clouds 21 1016 83 16093 1.69 127 13:42 04.05.2020
3777 Clouds 22 1016 83 16093 1.5 340 12:46 04.05.2020
3778 Clouds 22 1016 83 16093 1.5 340 12:46 04.05.2020
3779 Clouds 22 1016 83 16093 1.5 340 12:46 04.05.2020
3780 Clouds 22 1016 83 16093 1.5 340 12:46 04.05.2020
3781 Clouds 21 1016 83 16093 2.39 125 12:01 04.05.2020
3782 Clouds 22 1016 73 16093 2.51 133 09:32 04.05.2020
3783 Clouds 23 1017 73 16093 3.21 126 08:50 04.05.2020
3784 Clouds 23 1017 73 16093 3.21 126 08:50 04.05.2020
3785 Clouds 23 1017 73 16093 3.21 126 08:50 04.05.2020
3786 Clouds 23 1017 73 16093 3.21 126 08:50 04.05.2020
3787 Clouds 23 1017 73 16093 3.21 126 08:50 04.05.2020
3788 Clouds 23 1017 73 16093 2.1 120 07:44 04.05.2020
3789 Clouds 23 1017 73 16093 2.1 120 07:44 04.05.2020
3790 Clouds 24 1018 69 16093 3.1 100 06:53 04.05.2020
3791 Clouds 24 1018 69 16093 3.1 100 06:53 04.05.2020
3792 Clouds 24 1018 69 16093 3.1 100 06:53 04.05.2020
3793 Clouds 24 1018 64 16093 4.1 70 04:55 04.05.2020
3794 Clouds 25 1017 61 16093 5.1 80 03:18 04.05.2020
3795 Clouds 25 1017 61 16093 3.6 80 02:30 04.05.2020
3796 Clouds 27 1017 54 16093 3.1 80 00:38 04.05.2020
3797 Clouds 28 1017 51 16093 4.1 70 23:46 03.05.2020
3798 Clouds 28 1017 51 16093 4.1 70 23:24 03.05.2020
3799 Clouds 28 1018 51 16093 4.6 120 22:56 03.05.2020
3800 Clouds 28 1018 51 16093 4.6 120 22:56 03.05.2020
3801 Clouds 28 1018 51 16093 4.6 120 22:38 03.05.2020
3802 Clouds 28 1018 51 16093 4.6 120 22:19 03.05.2020
3803 Clouds 28 1018 51 16093 4.6 110 21:41 03.05.2020
3804 Clouds 28 1018 51 16093 4.6 110 21:41 03.05.2020
3805 Clouds 28 1018 51 16093 4.6 110 21:20 03.05.2020
3806 Clouds 28 1019 48 16093 3.1 90 20:47 03.05.2020
3807 Clouds 28 1019 48 16093 3.1 90 20:23 03.05.2020
3808 Clouds 28 1019 51 16093 2.1 80 19:55 03.05.2020
3809 Clouds 29 1019 51 16093 2.1 80 19:37 03.05.2020
3810 Clouds 28 1019 51 16093 2.1 80 19:18 03.05.2020
3811 Clouds 29 1020 51 16093 4.1 80 18:39 03.05.2020
3812 Clouds 28 1020 51 16093 4.1 80 18:20 03.05.2020
3813 Clouds 28 1020 48 16093 5.7 80 17:54 03.05.2020
3814 Clouds 28 1020 48 16093 5.7 80 17:36 03.05.2020
3815 Clouds 28 1020 48 16093 5.7 80 17:18 03.05.2020
3816 Clouds 27 1020 57 16093 2.6 80 16:40 03.05.2020
3817 Clouds 27 1020 57 16093 2.6 80 16:18 03.05.2020
3818 Clouds 27 1020 54 16093 3.6 70 15:56 03.05.2020
3819 Clouds 26 1020 54 16093 3.6 70 15:38 03.05.2020
3820 Clouds 26 1020 54 16093 3.6 70 15:19 03.05.2020
3821 Clouds 25 1020 64 16093 1.5 360 14:55 03.05.2020
3822 Clouds 25 1020 64 16093 1.5 360 14:37 03.05.2020
3823 Clouds 24 1020 64 16093 1.5 360 14:18 03.05.2020
3824 Clouds 22 1019 73 16093 1.5 10 13:37 03.05.2020
3825 Clouds 22 1019 73 16093 1.5 10 13:37 03.05.2020
3826 Clouds 22 1019 73 16093 1.5 10 13:37 03.05.2020
3827 Clouds 22 1019 73 16093 4.03 77 12:52 03.05.2020
3828 Clouds 21 1019 73 16093 4.03 77 12:29 03.05.2020
3829 Clouds 21 1019 73 16093 4.03 77 12:29 03.05.2020
3830 Clouds 21 1019 73 16093 4.33 77 11:58 03.05.2020
3831 Clouds 21 1019 73 16093 4.33 77 11:40 03.05.2020
3832 Clouds 21 1019 73 16093 4.33 77 11:40 03.05.2020
3833 Clouds 21 1019 73 16093 4.33 77 11:40 03.05.2020
3834 Clouds 21 1019 73 16093 4.33 77 11:40 03.05.2020
3835 Clouds 21 1019 73 16093 4.28 81 11:20 03.05.2020
3836 Clouds 22 1019 64 16093 1.5 40 10:54 03.05.2020
3837 Clouds 22 1019 64 16093 1.5 40 10:25 03.05.2020
3838 Clouds 23 1019 64 16093 2.1 50 09:41 03.05.2020
3839 Clouds 23 1019 64 16093 2.1 50 09:41 03.05.2020
3840 Clouds 23 1019 64 16093 2.1 50 09:41 03.05.2020
3841 Clouds 23 1019 64 16093 2.1 50 09:41 03.05.2020
3842 Clouds 23 1019 64 16093 2.1 50 09:41 03.05.2020
3843 Clouds 23 1020 64 16093 2.1 50 08:59 03.05.2020
3844 Clouds 23 1020 64 16093 2.1 50 08:59 03.05.2020
3845 Clouds 23 1020 64 16093 2.1 50 08:35 03.05.2020
3846 Clouds 24 1020 60 16093 2.1 30 07:44 03.05.2020
3847 Clouds 24 1020 60 16093 2.1 30 07:44 03.05.2020
3848 Clouds 24 1020 60 16093 2.1 30 07:44 03.05.2020
3849 Clouds 24 1020 60 16093 2.1 30 07:44 03.05.2020
3850 Clouds 24 1020 60 16093 2.1 30 07:44 03.05.2020
3851 Clouds 24 1021 60 16093 2.6 40 06:54 03.05.2020
3852 Clouds 24 1021 60 16093 2.6 40 06:54 03.05.2020
3853 Clouds 24 1021 60 16093 2.6 40 06:54 03.05.2020
3854 Clouds 24 1021 60 16093 2.6 40 06:54 03.05.2020
3855 Clouds 24 1021 57 16093 3.6 60 05:56 03.05.2020
3856 Clouds 24 1021 57 16093 3.6 60 05:37 03.05.2020
3857 Clouds 24 1020 57 16093 5.1 70 04:28 03.05.2020
3858 Clouds 24 1020 53 16093 5.7 80 03:41 03.05.2020
3859 Clouds 24 1019 57 16093 5.1 60 02:32 03.05.2020
3860 Clouds 25 1019 54 16093 4.6 70 01:59 03.05.2020
3861 Clouds 25 1019 54 16093 4.6 70 01:39 03.05.2020
3862 Clouds 25 1019 54 16093 4.6 70 01:21 03.05.2020
3863 Clouds 26 1019 47 16093 6.2 80 00:38 03.05.2020
3864 Clouds 27 1019 47 16093 6.2 80 00:20 03.05.2020
3865 Clouds 27 1019 47 16093 4.1 80 23:46 02.05.2020
3866 Clouds 27 1019 47 16093 4.1 80 23:27 02.05.2020
3867 Clouds 27 1020 47 16093 5.1 60 22:57 02.05.2020
3868 Clouds 28 1020 47 16093 5.1 60 22:39 02.05.2020
3869 Clouds 27 1020 47 16093 5.1 60 22:20 02.05.2020
3870 Clouds 28 1020 48 16093 4.1 70 21:41 02.05.2020
3871 Clouds 28 1020 48 16093 4.1 70 21:20 02.05.2020
3872 Clouds 28 1020 48 16093 5.1 100 20:58 02.05.2020
3873 Clouds 28 1020 48 16093 5.1 100 20:38 02.05.2020
3874 Clouds 28 1020 48 16093 5.1 100 20:20 02.05.2020
3875 Clouds 28 1021 48 16093 4.1 90 19:59 02.05.2020
3876 Clouds 28 1021 48 16093 4.1 90 19:39 02.05.2020
3877 Clouds 28 1021 48 16093 4.1 90 19:20 02.05.2020
3878 Clouds 28 1021 45 16093 3.1 100 18:56 02.05.2020
3879 Clouds 28 1021 45 16093 3.1 100 18:38 02.05.2020
3880 Clouds 28 1021 45 16093 3.1 100 18:19 02.05.2020
3881 Clouds 28 1021 45 16093 3.1 100 18:19 02.05.2020
3882 Clouds 27 1021 44 16093 3.6 50 17:56 02.05.2020
3883 Clouds 27 1021 44 16093 3.6 50 17:38 02.05.2020
3884 Clouds 27 1021 44 16093 3.6 50 17:19 02.05.2020
3885 Clouds 27 1021 54 16093 2.6 0 16:44 02.05.2020
3886 Clouds 27 1021 54 16093 2.6 0 16:26 02.05.2020
3887 Clouds 25 1021 60 16093 2.6 350 15:56 02.05.2020
3888 Clouds 25 1021 60 16093 2.6 350 15:37 02.05.2020
3889 Clouds 24 1021 60 16093 2.6 350 15:19 02.05.2020
3890 Clouds 24 1021 60 16093 2.6 350 15:19 02.05.2020
3891 Clouds 23 1020 73 16093 5.76 51 14:42 02.05.2020
3892 Clouds 22 1020 73 16093 5.11 50 14:24 02.05.2020
3893 Clouds 21 1020 77 16093 5.11 50 13:58 02.05.2020
3894 Clouds 20 1020 77 16093 5.11 50 13:38 02.05.2020
3895 Clouds 20 1020 77 16093 4.38 53 13:18 02.05.2020
3896 Clouds 20 1019 77 16093 2.1 350 12:40 02.05.2020
3897 Clouds 20 1019 77 16093 2.1 350 12:20 02.05.2020
3898 Clouds 20 1019 77 16093 1.5 280 11:57 02.05.2020
3899 Clouds 20 1019 77 16093 1.5 280 11:38 02.05.2020
3900 Clouds 21 1019 77 16093 1.5 280 11:20 02.05.2020
3901 Clouds 21 1018 77 16093 1.5 310 10:40 02.05.2020
3902 Clouds 21 1018 77 16093 1.5 310 10:22 02.05.2020
3903 Clouds 21 1018 77 16093 3.84 63 09:59 02.05.2020
3904 Clouds 21 1018 77 16093 3.84 63 09:40 02.05.2020
3905 Clouds 21 1018 77 16093 3.53 68 09:22 02.05.2020
3906 Clear 21 1019 73 16093 3.8 68 08:55 02.05.2020
3907 Clear 22 1019 73 16093 3.8 68 08:37 02.05.2020
3908 Clear 22 1019 73 16093 3.8 68 08:37 02.05.2020
3909 Clear 21 1019 73 16093 3.87 75 08:19 02.05.2020
3910 Clouds 23 1019 64 16093 3.87 75 07:42 02.05.2020
3911 Clouds 23 1019 64 16093 3.83 84 07:23 02.05.2020
3912 Clouds 22 1019 64 16093 3.83 84 06:43 02.05.2020
3913 Clear 23 1019 64 16093 1.5 90 05:28 02.05.2020
3914 Clouds 23 1018 57 16093 2.1 70 04:30 02.05.2020
3915 Clouds 24 1018 53 16093 2.6 60 03:56 02.05.2020
3916 Clouds 24 1017 50 16093 4.6 90 02:42 02.05.2020
3917 Clear 25 1016 42 16093 4.6 90 01:58 02.05.2020
3918 Clear 26 1016 42 16093 4.6 90 01:27 02.05.2020
3919 Clouds 27 1016 39 16093 2.6 30 00:43 02.05.2020
3920 Clouds 27 1016 39 16093 2.6 30 00:24 02.05.2020
3921 Clouds 27 1016 37 16093 4.1 70 23:55 01.05.2020
3922 Clouds 28 1016 37 16093 4.1 70 23:37 01.05.2020
3923 Clouds 27 1016 37 16093 4.1 70 23:18 01.05.2020
3924 Clouds 28 1016 32 16093 5.78 71 22:39 01.05.2020
3925 Clouds 28 1016 32 16093 5.41 71 22:20 01.05.2020
3926 Clouds 28 1017 32 16093 5.41 71 21:57 01.05.2020
3927 Clouds 28 1017 32 16093 5.35 76 21:39 01.05.2020
3928 Clouds 28 1017 32 16093 4.28 76 21:20 01.05.2020
3929 Clouds 27 1017 36 16093 2.1 0 20:57 01.05.2020
3930 Clouds 27 1017 36 16093 2.1 0 20:39 01.05.2020
3931 Clouds 27 1017 36 16093 2.1 0 20:20 01.05.2020
3932 Clouds 27 1018 39 16093 1.5 0 19:56 01.05.2020
3933 Clouds 27 1018 39 16093 1.5 0 19:38 01.05.2020
3934 Clouds 27 1018 39 16093 1.5 0 19:19 01.05.2020
3935 Clear 26 1018 44 16093 4.1 360 18:55 01.05.2020
3936 Clear 26 1018 44 16093 4.1 360 18:37 01.05.2020
3937 Clear 26 1018 44 16093 4.1 360 18:18 01.05.2020
3938 Clear 25 1018 49 16093 4.16 31 17:40 01.05.2020
3939 Clear 24 1018 49 16093 4.89 10 17:21 01.05.2020
3940 Clear 24 1018 53 16093 4.1 310 16:57 01.05.2020
3941 Clear 23 1018 53 16093 4.1 310 16:39 01.05.2020
3942 Clear 23 1018 53 16093 4.1 310 16:20 01.05.2020
3943 Clear 22 1018 60 16093 4.6 340 15:57 01.05.2020
3944 Clear 22 1018 60 16093 4.6 340 15:39 01.05.2020
3945 Clear 21 1018 60 16093 4.6 340 15:19 01.05.2020
3946 Clear 20 1017 63 16093 3.6 340 14:43 01.05.2020
3947 Clear 19 1017 63 16093 3.6 340 14:24 01.05.2020
3948 Clear 18 1017 68 16093 1.5 0 13:56 01.05.2020
3949 Clear 18 1017 68 16093 1.5 0 13:38 01.05.2020
3950 Clear 17 1017 68 16093 1.5 0 13:19 01.05.2020
3951 Clear 18 1016 63 16093 3.1 0 12:54 01.05.2020
3952 Clear 18 1016 63 16093 3.1 0 12:36 01.05.2020
3953 Clear 18 1016 63 16093 3.1 0 12:18 01.05.2020
3954 Clear 19 1015 63 16093 2.6 0 11:41 01.05.2020
3955 Clear 19 1015 63 16093 2.6 0 11:23 01.05.2020
3956 Clouds 19 1015 64 16093 4.1 320 10:57 01.05.2020
3957 Clouds 19 1015 64 16093 4.1 320 10:38 01.05.2020
3958 Clouds 19 1015 64 16093 4.1 320 10:19 01.05.2020
3959 Clouds 20 1015 60 16093 4.1 320 09:43 01.05.2020
3960 Clouds 20 1015 60 16093 4.1 320 09:19 01.05.2020
3961 Clouds 21 1015 56 16093 5.1 320 08:55 01.05.2020
3962 Clouds 21 1015 56 16093 5.1 320 08:37 01.05.2020
3963 Clouds 21 1015 56 16093 5.1 320 08:19 01.05.2020
3964 Clouds 22 1015 83 16093 6.2 320 07:42 01.05.2020
3965 Clouds 23 1015 83 16093 6.2 320 07:22 01.05.2020
3966 Rain 23 1015 94 8047 2.1 260 06:39 01.05.2020
3967 Rain 23 1015 94 8047 2.1 260 06:39 01.05.2020
3968 Clouds 24 1015 83 16093 6.66 306 05:34 01.05.2020
3969 Clouds 23 1014 88 16093 2.1 200 04:21 01.05.2020
3970 Clouds 24 1013 83 16093 2.6 240 03:23 01.05.2020
3971 Clouds 24 1012 73 16093 2.1 240 02:42 01.05.2020
3972 Clouds 25 1012 78 16093 3.1 190 01:59 01.05.2020
3973 Clouds 25 1012 78 16093 3.1 190 01:28 01.05.2020
3974 Clouds 23 1012 88 16093 3.1 230 00:58 01.05.2020
3975 Clouds 23 1012 88 16093 3.1 230 00:37 01.05.2020
3976 Clouds 23 1012 88 16093 3.1 230 00:18 01.05.2020
3977 Rain 23 1013 83 16093 3.1 200 23:54 30.04.2020
3978 Rain 23 1013 83 16093 3.1 200 23:36 30.04.2020
3979 Rain 23 1013 83 16093 3.1 200 23:18 30.04.2020
3980 Rain 23 1014 88 16093 1.5 360 22:40 30.04.2020
3981 Rain 23 1014 88 16093 1.5 360 22:19 30.04.2020
3982 Rain 22 1015 88 16093 3.1 310 21:55 30.04.2020
3983 Rain 22 1015 88 16093 3.1 310 21:37 30.04.2020
3984 Rain 22 1015 88 16093 3.1 310 21:18 30.04.2020
3985 Rain 22 1015 88 805 5.1 300 20:42 30.04.2020
3986 Rain 24 1015 88 805 5.1 300 20:19 30.04.2020
3987 Thunderstorm 29 1013 58 16093 4.6 160 19:58 30.04.2020
3988 Clouds 30 1014 58 16093 5.7 190 19:38 30.04.2020
3989 Clouds 30 1014 58 16093 5.7 190 19:18 30.04.2020
3990 Clouds 29 1014 62 16093 4.6 170 18:55 30.04.2020
3991 Clouds 29 1014 62 16093 4.6 170 18:36 30.04.2020
3992 Clouds 29 1014 62 16093 4.6 170 18:36 30.04.2020
3993 Clouds 29 1014 62 16093 4.6 170 18:18 30.04.2020
3994 Clouds 30 1014 58 16093 5.1 200 17:40 30.04.2020
3995 Clouds 30 1014 58 16093 5.1 200 17:22 30.04.2020
3996 Clouds 29 1014 62 16093 4.1 210 16:59 30.04.2020
3997 Clouds 29 1014 62 16093 4.1 210 16:40 30.04.2020
3998 Clouds 29 1014 62 16093 4.1 210 16:20 30.04.2020
3999 Clouds 28 1014 74 16093 5.1 180 15:57 30.04.2020
4000 Clouds 28 1014 74 16093 5.1 180 15:39 30.04.2020
4001 Clouds 28 1014 74 16093 5.1 180 15:21 30.04.2020
4002 Clouds 27 1014 78 16093 3.6 160 14:41 30.04.2020
4003 Clouds 27 1014 78 16093 3.6 160 14:20 30.04.2020
4004 Clouds 26 1014 83 16093 2.1 170 13:58 30.04.2020
4005 Clouds 26 1014 83 16093 2.1 170 13:39 30.04.2020
4006 Clouds 26 1014 83 16093 2.1 170 13:39 30.04.2020
4007 Clouds 26 1014 83 16093 2.1 170 13:21 30.04.2020
4008 Clouds 26 1014 83 16093 3.1 150 12:55 30.04.2020
4009 Clouds 26 1014 83 16093 3.1 150 12:37 30.04.2020
4010 Clouds 26 1014 83 16093 3.1 150 12:18 30.04.2020
4011 Clouds 26 1014 83 16093 2.6 0 11:38 30.04.2020
4012 Clouds 26 1014 83 16093 2.6 0 11:18 30.04.2020
4013 Clouds 26 1014 78 16093 3.1 160 10:56 30.04.2020
4014 Clouds 26 1014 78 16093 3.1 160 10:38 30.04.2020
4015 Clouds 26 1014 78 16093 3.1 160 10:18 30.04.2020
4016 Clouds 26 1014 83 16093 3.6 150 09:44 30.04.2020
4017 Clouds 26 1014 83 16093 3.6 150 09:23 30.04.2020
4018 Clouds 26 1015 78 16093 2.6 140 08:58 30.04.2020
4019 Clouds 26 1015 78 16093 2.6 140 08:39 30.04.2020
4020 Clouds 26 1015 78 16093 2.6 140 08:20 30.04.2020
4021 Clouds 26 1016 78 16093 3.1 140 07:43 30.04.2020
4022 Clouds 26 1016 78 16093 3.1 140 07:24 30.04.2020
4023 Clouds 26 1016 78 16093 4.1 120 06:48 30.04.2020
4024 Clouds 26 1016 74 16093 4.1 110 05:50 30.04.2020
4025 Clouds 26 1016 74 16093 4.1 110 05:30 30.04.2020
4026 Clouds 26 1016 74 16093 4.1 120 04:33 30.04.2020
4027 Clouds 26 1015 69 16093 5.1 120 03:53 30.04.2020
4028 Clouds 27 1015 69 16093 6.2 120 02:45 30.04.2020
4029 Clouds 27 1015 69 16093 6.2 120 02:24 30.04.2020
4030 Clouds 27 1014 65 16093 5.7 120 01:35 30.04.2020
4031 Clouds 28 1014 61 16093 6.7 120 00:42 30.04.2020
4032 Clouds 28 1014 61 16093 6.7 120 00:19 30.04.2020
4033 Clouds 29 1015 54 16093 6.7 120 23:57 29.04.2020
4034 Clouds 29 1015 54 16093 6.7 120 23:37 29.04.2020
4035 Clouds 29 1015 54 16093 6.7 120 23:18 29.04.2020
4036 Clouds 29 1015 58 16093 5.7 130 22:40 29.04.2020
4037 Clouds 29 1015 58 16093 5.7 130 22:21 29.04.2020
4038 Clouds 30 1016 55 16093 7.2 120 21:57 29.04.2020
4039 Clouds 29 1016 55 16093 7.2 120 21:37 29.04.2020
4040 Clouds 30 1016 55 16093 7.2 120 21:18 29.04.2020
4041 Clouds 30 1017 55 16093 7.2 110 20:55 29.04.2020
4042 Clouds 30 1017 55 16093 7.2 110 20:36 29.04.2020
4043 Clouds 30 1017 55 16093 7.2 110 20:18 29.04.2020
4044 Clouds 29 1018 54 16093 6.2 120 19:42 29.04.2020
4045 Clouds 29 1018 54 16093 6.2 120 19:20 29.04.2020
4046 Clouds 29 1018 62 16093 7.2 100 18:43 29.04.2020
4047 Clouds 29 1018 62 16093 7.2 100 18:25 29.04.2020
4048 Clouds 28 1018 61 16093 6.2 110 17:59 29.04.2020
4049 Clouds 28 1018 61 16093 6.2 110 17:41 29.04.2020
4050 Clouds 28 1018 61 16093 6.2 110 17:21 29.04.2020
4051 Clouds 28 1018 61 16093 5.7 120 16:39 29.04.2020
4052 Clouds 28 1018 61 16093 5.7 120 16:20 29.04.2020
4053 Clouds 27 1018 65 16093 6.2 110 15:58 29.04.2020
4054 Clouds 27 1018 65 16093 6.2 110 15:40 29.04.2020
4055 Clouds 27 1018 65 16093 6.2 110 15:21 29.04.2020
4056 Clouds 27 1018 65 16093 6.2 110 15:21 29.04.2020
4057 Clouds 26 1018 65 16093 5.1 110 14:59 29.04.2020
4058 Clouds 26 1018 65 16093 5.1 110 14:41 29.04.2020
4059 Clouds 25 1018 65 16093 5.1 110 14:22 29.04.2020
4060 Clouds 25 1017 69 16093 3.1 100 13:55 29.04.2020
4061 Clouds 24 1017 69 16093 3.1 100 13:37 29.04.2020
4062 Clouds 24 1017 69 16093 3.1 100 13:18 29.04.2020
4063 Clouds 24 1017 69 16093 3.6 110 12:40 29.04.2020
4064 Clouds 24 1017 69 16093 3.6 110 12:19 29.04.2020
4065 Clouds 24 1017 69 16093 3.6 90 11:58 29.04.2020
4066 Clouds 24 1017 69 16093 3.6 90 11:36 29.04.2020
4067 Clouds 24 1017 69 16093 3.6 90 11:18 29.04.2020
4068 Clouds 24 1017 64 16093 3.6 110 10:38 29.04.2020
4069 Clouds 24 1017 64 16093 3.6 110 10:20 29.04.2020
4070 Clouds 24 1018 57 16093 5.1 100 09:58 29.04.2020
4071 Clouds 24 1018 57 16093 5.1 100 09:40 29.04.2020
4072 Clouds 24 1018 57 16093 5.1 100 09:18 29.04.2020
4073 Clouds 24 1018 60 16093 4.6 90 08:43 29.04.2020
4074 Clouds 24 1018 60 16093 4.6 90 08:24 29.04.2020
4075 Clouds 24 1019 60 16093 5.1 80 07:50 29.04.2020
4076 Clouds 24 1019 60 16093 5.1 80 07:26 29.04.2020
4077 Clouds 24 1019 57 16093 5.7 90 06:52 29.04.2020
4078 Clouds 25 1019 57 16093 5.7 90 06:31 29.04.2020
4079 Clouds 25 1020 57 16093 7.2 90 05:38 29.04.2020
4080 Clouds 25 1020 57 16093 7.2 90 05:18 29.04.2020
4081 Clouds 25 1020 54 16093 5.1 90 04:19 29.04.2020
4082 Clouds 24 1019 57 16093 4.1 50 02:50 29.04.2020
4083 Clouds 25 1019 47 16093 4.6 80 01:45 29.04.2020
4084 Clouds 26 1019 47 16093 4.6 80 01:26 29.04.2020
4085 Clouds 26 1019 47 16093 5.7 70 00:51 29.04.2020
4086 Clouds 26 1019 47 16093 5.7 70 00:21 29.04.2020
4087 Clouds 27 1019 51 16093 6.2 90 23:56 28.04.2020
4088 Clouds 27 1019 51 16093 6.2 90 23:37 28.04.2020
4089 Clouds 27 1019 51 16093 6.2 90 23:18 28.04.2020
4090 Clouds 28 1020 47 16093 8.2 90 22:38 28.04.2020
4091 Clouds 27 1020 47 16093 8.2 90 22:20 28.04.2020
4092 Clouds 28 1020 45 16093 7.2 80 21:58 28.04.2020
4093 Clouds 28 1020 45 16093 7.2 80 21:40 28.04.2020
4094 Clouds 28 1020 45 16093 7.2 80 21:21 28.04.2020
4095 Clouds 28 1021 45 16093 4.1 70 20:56 28.04.2020
4096 Clouds 28 1021 45 16093 4.1 70 20:38 28.04.2020
4097 Clouds 28 1021 45 16093 4.1 70 20:20 28.04.2020
4098 Clouds 28 1021 42 16093 6.2 90 19:43 28.04.2020
4099 Clouds 27 1021 42 16093 6.2 90 19:23 28.04.2020
4100 Clouds 27 1021 44 16093 4.1 80 19:00 28.04.2020
4101 Clouds 27 1021 44 16093 4.1 80 18:41 28.04.2020
4102 Clouds 27 1021 44 16093 4.1 80 18:20 28.04.2020
4103 Clouds 27 1021 44 16093 4.1 80 18:20 28.04.2020
4104 Clouds 27 1022 44 16093 4.1 80 17:59 28.04.2020
4105 Clouds 27 1022 44 16093 4.1 80 17:37 28.04.2020
4106 Clouds 27 1022 44 16093 4.1 80 17:18 28.04.2020
4107 Clouds 26 1021 50 16093 4.6 70 16:56 28.04.2020
4108 Clouds 26 1021 50 16093 4.6 70 16:37 28.04.2020
4109 Clouds 26 1021 50 16093 4.6 70 16:18 28.04.2020
4110 Clouds 26 1021 50 16093 4.6 70 16:18 28.04.2020
4111 Clouds 25 1021 57 16093 4.6 60 15:54 28.04.2020
4112 Clouds 25 1021 57 16093 4.6 60 15:36 28.04.2020
4113 Clouds 25 1021 57 16093 4.6 60 15:18 28.04.2020
4114 Clouds 23 1021 68 16093 2.1 30 14:41 28.04.2020
4115 Clouds 23 1021 68 16093 2.1 30 14:22 28.04.2020
4116 Clouds 21 1020 68 16093 2.1 360 13:59 28.04.2020
4117 Clouds 21 1020 68 16093 2.1 360 13:59 28.04.2020
4118 Clouds 21 1020 68 16093 2.1 360 13:40 28.04.2020
4119 Clouds 21 1020 68 16093 2.1 360 13:21 28.04.2020
4120 Clouds 21 1020 64 16093 1.5 360 12:57 28.04.2020
4121 Clouds 21 1020 64 16093 1.5 360 12:37 28.04.2020
4122 Clouds 21 1020 64 16093 1.5 360 12:19 28.04.2020
4123 Clear 21 1020 64 16093 1.5 360 11:41 28.04.2020
4124 Clear 21 1020 64 16093 1.5 360 11:21 28.04.2020
4125 Clear 21 1019 64 16093 2.1 360 10:56 28.04.2020
4126 Clear 21 1019 64 16093 2.1 360 10:37 28.04.2020
4127 Clear 22 1019 64 16093 2.1 360 10:18 28.04.2020
4128 Clear 22 1019 60 16093 2.6 360 09:42 28.04.2020
4129 Clear 22 1019 60 16093 2.6 360 09:42 28.04.2020
4130 Clear 23 1019 60 16093 2.6 360 09:24 28.04.2020
4131 Clear 23 1020 64 16093 1.5 20 08:50 28.04.2020
4132 Clear 23 1020 64 16093 1.5 20 08:30 28.04.2020
4133 Clear 23 1020 64 16093 2.1 20 07:59 28.04.2020
4134 Clear 23 1020 64 16093 2.1 20 07:40 28.04.2020
4135 Clear 23 1020 64 16093 2.1 20 07:18 28.04.2020
4136 Clear 23 1020 64 16093 2.1 50 06:39 28.04.2020
4137 Clear 24 1020 60 16093 3.6 40 05:48 28.04.2020
4138 Clear 24 1020 60 16093 3.6 40 05:30 28.04.2020
4139 Clear 24 1020 60 16093 2.1 40 04:33 28.04.2020
4140 Clouds 24 1019 57 16093 5.1 70 02:38 28.04.2020
4141 Clouds 26 1019 47 16093 5.7 50 01:37 28.04.2020
4142 Clouds 26 1019 47 16093 5.7 50 01:18 28.04.2020
4143 Clouds 27 1018 48 16093 5.7 70 00:31 28.04.2020
4144 Clouds 27 1018 39 16093 5.1 60 23:56 27.04.2020
4145 Clouds 28 1018 39 16093 5.1 60 23:38 27.04.2020
4146 Clouds 28 1018 39 16093 5.1 60 23:19 27.04.2020
4147 Clouds 28 1018 42 16093 3.6 60 22:42 27.04.2020
4148 Clouds 28 1018 42 16093 3.6 60 22:23 27.04.2020
4149 Clouds 29 1019 29 16093 4.1 300 21:57 27.04.2020
4150 Clouds 29 1019 29 16093 4.1 300 21:38 27.04.2020
4151 Clouds 29 1019 29 16093 4.1 300 21:38 27.04.2020
4152 Clouds 29 1019 29 16093 4.1 300 21:19 27.04.2020
4153 Clouds 29 1019 28 16093 1.5 0 20:56 27.04.2020
4154 Clouds 29 1019 28 16093 1.5 0 20:38 27.04.2020
4155 Clouds 29 1019 28 16093 1.5 0 20:19 27.04.2020
4156 Clouds 29 1020 32 16093 2.6 0 19:40 27.04.2020
4157 Clouds 28 1020 32 16093 2.6 0 19:22 27.04.2020
4158 Clouds 28 1020 36 16093 3.1 10 18:59 27.04.2020
4159 Clouds 28 1020 36 16093 3.1 10 18:40 27.04.2020
4160 Clouds 27 1020 36 16093 3.1 10 18:20 27.04.2020
4161 Clouds 26 1020 39 16093 4.6 360 17:58 27.04.2020
4162 Clouds 26 1020 39 16093 4.6 360 17:40 27.04.2020
4163 Clouds 26 1020 53 16093 4.6 340 17:19 27.04.2020
4164 Clouds 25 1020 53 16093 4.6 340 16:40 27.04.2020
4165 Clouds 25 1020 53 16093 4.6 340 16:40 27.04.2020
4166 Clouds 24 1020 53 16093 4.6 340 16:22 27.04.2020
4167 Clouds 24 1019 60 16093 3.1 350 15:57 27.04.2020
4168 Clouds 23 1019 60 16093 3.1 350 15:38 27.04.2020
4169 Clouds 23 1019 60 16093 3.1 350 15:19 27.04.2020
4170 Clouds 22 1019 78 16093 3.1 0 14:58 27.04.2020
4171 Clouds 22 1019 78 16093 3.1 0 14:40 27.04.2020
4172 Clouds 22 1019 78 16093 3.1 0 14:19 27.04.2020
4173 Clouds 22 1018 78 16093 3.1 340 13:56 27.04.2020
4174 Clouds 21 1018 78 16093 3.1 340 13:36 27.04.2020
4175 Clouds 21 1018 78 16093 3.1 340 13:18 27.04.2020
4176 Clouds 22 1018 78 16093 3.1 330 12:42 27.04.2020
4177 Clouds 22 1018 78 16093 3.1 330 12:21 27.04.2020
4178 Clouds 23 1017 73 16093 3.1 310 11:42 27.04.2020
4179 Clouds 23 1017 73 16093 3.1 310 11:22 27.04.2020
4180 -273 0 0 0 0 0 10:59 27.04.2020
4181 Clouds 23 1017 88 16093 4.1 330 10:40 27.04.2020
4182 Clouds 23 1017 78 16093 2.1 310 10:22 27.04.2020
4183 Clouds 23 1017 83 16093 2.1 310 09:55 27.04.2020
4184 Clouds 23 1017 83 16093 2.1 310 09:36 27.04.2020
4185 Clouds 23 1017 83 16093 2.1 310 09:36 27.04.2020
4186 Clouds 23 1017 83 16093 2.1 310 09:18 27.04.2020
4187 Clouds 23 1018 83 16093 4.13 308 08:45 27.04.2020
4188 Clouds 23 1018 83 16093 4.13 308 08:27 27.04.2020
4189 Clouds 23 1018 88 16093 4.13 308 07:45 27.04.2020
4190 Clouds 23 1018 88 16093 4.13 308 07:23 27.04.2020
4191 Clouds 23 1018 88 16093 1.5 130 06:57 27.04.2020
4192 Clouds 23 1018 88 16093 1.5 130 06:28 27.04.2020
4193 Clouds 23 1018 88 16093 3.06 239 05:55 27.04.2020
4194 Clouds 23 1018 88 16093 1.5 280 04:55 27.04.2020
4195 Clouds 23 1018 88 16093 1.5 280 04:36 27.04.2020
4196 Clouds 23 1017 83 16093 3.06 239 03:45 27.04.2020
4197 Rain 23 1017 78 16093 3.1 260 01:51 27.04.2020
4198 Rain 23 1017 78 16093 3.1 260 01:19 27.04.2020
4199 Clouds 23 1016 83 16093 6.2 190 00:21 27.04.2020
4200 Rain 22 1018 88 16093 2.1 60 23:59 26.04.2020
4201 Rain 22 1018 88 16093 2.1 60 23:41 26.04.2020
4202 Rain 22 1018 88 16093 2.1 60 23:22 26.04.2020
4203 Thunderstorm 21 1018 88 6437 3.6 110 22:58 26.04.2020
4204 Rain 20 1019 94 1609 4.6 350 22:40 26.04.2020
4205 Rain 20 1019 94 1609 4.6 350 22:40 26.04.2020
4206 Rain 20 1019 94 1609 4.6 350 22:21 26.04.2020
4207 Rain 21 1019 83 8047 8.2 340 21:58 26.04.2020
4208 Clouds 25 1018 65 16093 6.7 10 21:39 26.04.2020
4209 Clouds 27 1018 65 16093 6.7 10 21:18 26.04.2020
4210 Clouds 27 1018 65 16093 6.7 10 21:18 26.04.2020
4211 Thunderstorm 30 1017 66 16093 2.1 200 20:55 26.04.2020
4212 Clouds 30 1018 62 16093 3.6 250 20:37 26.04.2020
4213 Clouds 30 1018 62 16093 3.6 250 20:37 26.04.2020
4214 Clouds 30 1018 62 16093 3.6 250 20:19 26.04.2020
4215 Clouds 29 1018 70 16093 3.1 190 19:57 26.04.2020
4216 Clouds 29 1018 70 16093 3.1 190 19:36 26.04.2020
4217 Clouds 29 1018 70 16093 3.1 190 19:18 26.04.2020
4218 Clouds 28 1018 74 16093 3.1 170 18:43 26.04.2020
4219 Clouds 28 1018 74 16093 3.1 170 18:24 26.04.2020
4220 Clouds 27 1019 78 16093 1.5 170 17:44 26.04.2020
4221 Clouds 27 1019 78 16093 1.5 170 17:23 26.04.2020
4222 Clouds 27 1018 74 16093 1.5 220 16:58 26.04.2020
4223 Clouds 27 1018 74 16093 1.5 220 16:39 26.04.2020
4224 Clouds 27 1018 74 16093 1.5 220 16:20 26.04.2020
4225 Clear 27 1018 74 16093 2.85 236 15:57 26.04.2020
4226 Clear 27 1018 74 16093 2.85 236 15:37 26.04.2020
4227 Clear 27 1018 74 16093 2.9 235 15:18 26.04.2020
4228 Clouds 26 1017 83 16093 2.1 180 14:41 26.04.2020
4229 Clouds 26 1017 83 16093 2.1 180 14:20 26.04.2020
4230 Clouds 26 1016 83 16093 2.6 210 13:59 26.04.2020
4231 Clouds 26 1016 83 16093 2.6 210 13:40 26.04.2020
4232 Clouds 26 1016 83 16093 2.6 210 13:22 26.04.2020
4233 Clouds 26 1016 83 16093 3.6 180 12:57 26.04.2020
4234 Clouds 26 1016 83 16093 3.6 180 12:39 26.04.2020
4235 Clouds 26 1016 83 16093 3.6 180 12:20 26.04.2020
4236 Clouds 26 1016 83 16093 2.6 160 11:55 26.04.2020
4237 Clouds 26 1016 83 16093 2.6 160 11:37 26.04.2020
4238 Clouds 26 1016 83 16093 2.6 160 11:19 26.04.2020
4239 Clouds 26 1016 83 16093 3.6 150 10:55 26.04.2020
4240 Clouds 26 1016 83 16093 3.6 150 10:36 26.04.2020
4241 Clouds 26 1016 83 16093 3.6 150 10:18 26.04.2020
4242 Clouds 26 1015 78 16093 2.6 290 09:39 26.04.2020
4243 Clouds 26 1015 78 16093 2.6 290 09:20 26.04.2020
4244 Clouds 26 1016 83 16093 3.86 194 08:43 26.04.2020
4245 Clouds 26 1016 83 16093 3.86 194 08:23 26.04.2020
4246 Clouds 26 1016 78 16093 3.86 194 07:58 26.04.2020
4247 Clouds 26 1016 78 16093 3.86 194 07:40 26.04.2020
4248 Clouds 26 1016 78 16093 3.86 194 07:18 26.04.2020
4249 Clouds 27 1017 74 16093 3.86 194 06:39 26.04.2020
4250 Clouds 27 1016 74 16093 1.14 196 05:55 26.04.2020
4251 Clouds 27 1016 74 16093 1.14 196 05:36 26.04.2020
4252 Clear 27 1016 78 16093 2.1 270 04:44 26.04.2020
4253 Clouds 28 1015 70 16093 2.6 270 03:50 26.04.2020
4254 Clouds 29 1015 66 16093 5.1 290 02:46 26.04.2020
4255 Clouds 29 1015 66 16093 5.1 290 02:26 26.04.2020
4256 Clouds 30 1014 59 16093 5.7 210 01:40 26.04.2020
4257 Clouds 30 1014 59 16093 5.7 210 01:21 26.04.2020
4258 Clouds 31 1014 59 16093 4.1 210 00:39 26.04.2020
4259 Clouds 31 1014 59 16093 4.1 210 00:18 26.04.2020
4260 Clouds 32 1014 52 16093 5.7 210 23:38 25.04.2020
4261 Clouds 32 1014 52 16093 5.7 210 23:20 25.04.2020
4262 Clouds 31 1014 55 16093 4.1 230 22:55 25.04.2020
4263 Clouds 31 1014 55 16093 4.1 230 22:37 25.04.2020
4264 Clouds 31 1014 55 16093 4.1 230 22:18 25.04.2020
4265 Clouds 31 1014 55 16093 4.1 230 22:18 25.04.2020
4266 Thunderstorm 32 1015 55 16093 4.6 230 21:40 25.04.2020
4267 Thunderstorm 32 1015 55 16093 4.6 230 21:20 25.04.2020
4268 Rain 31 1015 66 16093 4.1 240 20:57 25.04.2020
4269 Thunderstorm 32 1015 55 16093 5.7 230 20:39 25.04.2020
4270 Thunderstorm 32 1015 55 16093 5.7 230 20:20 25.04.2020
4271 Clouds 32 1015 62 16093 5.1 230 19:42 25.04.2020
4272 Clouds 32 1015 62 16093 5.1 230 19:23 25.04.2020
4273 Clouds 31 1015 66 16093 3.6 230 18:59 25.04.2020
4274 Clouds 31 1015 66 16093 3.6 230 18:39 25.04.2020
4275 Clouds 31 1015 66 16093 3.6 230 18:21 25.04.2020
4276 Clouds 30 1016 74 16093 5.1 230 17:58 25.04.2020
4277 Clouds 30 1016 74 16093 5.1 230 17:58 25.04.2020
4278 Clouds 30 1016 74 16093 5.1 230 17:38 25.04.2020
4279 Clouds 30 1016 74 16093 5.1 230 17:19 25.04.2020
4280 Clouds 29 1016 78 16093 3.1 160 16:55 25.04.2020
4281 Clouds 28 1016 78 16093 3.1 160 16:37 25.04.2020
4282 Clouds 28 1016 78 16093 3.1 160 16:18 25.04.2020
4283 Clouds 27 1015 78 16093 3.6 130 15:41 25.04.2020
4284 Clouds 27 1015 78 16093 3.6 130 15:41 25.04.2020
4285 Clouds 27 1015 78 16093 3.6 130 15:20 25.04.2020
4286 Clouds 27 1015 78 16093 3.6 130 15:20 25.04.2020
4287 Clouds 26 1015 83 16093 4.6 140 14:58 25.04.2020
4288 Clouds 26 1015 83 16093 4.6 140 14:39 25.04.2020
4289 Clouds 26 1015 83 16093 4.6 140 14:20 25.04.2020
4290 Rain 26 1015 78 16093 2.6 80 13:43 25.04.2020
4291 Rain 25 1015 78 16093 2.6 80 13:22 25.04.2020
4292 Rain 25 1013 83 16093 5.7 120 12:59 25.04.2020
4293 Rain 25 1013 83 16093 5.7 120 12:41 25.04.2020
4294 Clouds 25 1013 83 16093 5.7 120 12:21 25.04.2020
4295 Clouds 25 1014 88 16093 3.6 120 11:59 25.04.2020
4296 Clouds 24 1014 88 16093 3.6 120 11:40 25.04.2020
4297 Rain 25 1014 88 16093 3.6 120 11:22 25.04.2020
4298 Rain 25 1014 88 16093 3.6 120 11:22 25.04.2020
4299 Rain 25 1014 78 16093 5.1 110 10:45 25.04.2020
4300 Clouds 25 1014 78 16093 5.1 110 10:25 25.04.2020
4301 Rain 25 1014 78 16093 4.1 70 09:57 25.04.2020
4302 Rain 25 1014 78 16093 4.1 70 09:39 25.04.2020
4303 Rain 25 1014 78 16093 4.1 70 09:21 25.04.2020
4304 Rain 26 1015 74 0 2.6 50 08:41 25.04.2020
4305 Thunderstorm 26 1015 74 0 2.6 50 08:22 25.04.2020
4306 Clouds 27 1013 61 16093 7.2 70 07:59 25.04.2020
4307 Clouds 27 1013 61 16093 7.2 70 07:41 25.04.2020
4308 Clouds 27 1014 61 16093 6.2 70 06:57 25.04.2020
4309 Clouds 27 1014 61 16093 6.2 70 06:36 25.04.2020
4310 Clouds 26 1015 69 16093 4.6 60 05:42 25.04.2020
4311 Clouds 26 1015 69 16093 4.6 60 05:23 25.04.2020
4312 Clouds 26 1014 61 16093 5.1 50 03:29 25.04.2020
4313 Clouds 26 1013 61 16093 5.1 20 02:28 25.04.2020
4314 Clouds 27 1012 74 16093 5.7 330 01:56 25.04.2020
4315 Clouds 27 1012 74 16093 5.7 330 01:37 25.04.2020
4316 Clouds 28 1012 74 16093 5.7 330 01:19 25.04.2020
4317 Clouds 31 1011 49 16093 5.7 230 00:38 25.04.2020
4318 Clouds 31 1011 49 16093 5.7 230 00:18 25.04.2020
4319 Clouds 32 1011 46 16093 6.2 210 23:40 24.04.2020
4320 Clouds 32 1011 46 16093 6.2 210 23:40 24.04.2020
4321 Clouds 32 1011 46 16093 6.2 210 23:20 24.04.2020
4322 Clouds 33 1012 46 16093 6.2 200 22:41 24.04.2020
4323 Clouds 33 1012 46 16093 6.2 200 22:20 24.04.2020
4324 Clouds 34 1013 44 16093 6.2 220 21:58 24.04.2020
4325 Clouds 34 1013 44 16093 6.2 220 21:40 24.04.2020
4326 Clouds 34 1013 44 16093 6.2 220 21:22 24.04.2020
4327 Clouds 33 1013 49 16093 5.7 230 20:57 24.04.2020
4328 Clouds 33 1013 49 16093 5.7 230 20:57 24.04.2020
4329 Clouds 33 1013 49 16093 5.7 230 20:38 24.04.2020
4330 Clouds 33 1013 49 16093 5.7 230 20:18 24.04.2020
4331 Clouds 33 1014 49 16093 5.1 220 19:44 24.04.2020
4332 Clouds 33 1014 49 16093 5.1 220 19:25 24.04.2020
4333 Clouds 33 1014 52 16093 6.2 200 18:56 24.04.2020
4334 Clouds 33 1014 52 16093 6.2 200 18:38 24.04.2020
4335 Clouds 33 1014 52 16093 6.2 200 18:38 24.04.2020
4336 Clouds 33 1014 52 16093 6.2 200 18:19 24.04.2020
4337 Clouds 32 1014 59 16093 5.7 230 17:42 24.04.2020
4338 Clouds 32 1014 59 16093 5.7 230 17:23 24.04.2020
4339 Clouds 31 1014 62 16093 6.7 210 16:59 24.04.2020
4340 Clouds 31 1014 62 16093 6.7 210 16:40 24.04.2020
4341 Clouds 31 1014 62 16093 6.7 210 16:40 24.04.2020
4342 Clouds 31 1014 62 16093 6.7 210 16:40 24.04.2020
4343 Clouds 30 1014 62 16093 6.7 210 16:21 24.04.2020
4344 Clouds 30 1014 74 16093 5.1 220 15:59 24.04.2020
4345 Clouds 29 1014 74 16093 5.1 220 15:37 24.04.2020
4346 Clouds 29 1014 74 16093 5.1 220 15:18 24.04.2020
4347 Clouds 28 1014 83 16093 3.6 200 14:40 24.04.2020
4348 Rain 28 1014 83 16093 3.6 200 14:20 24.04.2020
4349 Rain 28 1013 83 16093 3.6 170 13:56 24.04.2020
4350 Rain 28 1013 83 16093 3.6 170 13:38 24.04.2020
4351 Rain 28 1013 83 16093 3.6 170 13:18 24.04.2020
4352 Clouds 28 1013 78 16093 6.2 180 12:41 24.04.2020
4353 Clouds 28 1013 78 16093 6.2 180 12:22 24.04.2020
4354 Clouds 28 1012 78 16093 4.6 160 11:58 24.04.2020
4355 Clouds 28 1012 78 16093 4.6 160 11:37 24.04.2020
4356 Clouds 28 1012 78 16093 4.6 160 11:19 24.04.2020
4357 Clouds 28 1012 83 16093 6.7 150 10:54 24.04.2020
4358 Clouds 28 1012 83 16093 6.7 150 10:36 24.04.2020
4359 Clouds 28 1012 83 16093 6.7 150 10:18 24.04.2020
4360 Clouds 28 1013 78 16093 4.6 150 09:45 24.04.2020
4361 Clouds 28 1013 78 16093 4.6 150 09:24 24.04.2020
4362 Clouds 28 1013 78 16093 6.2 150 08:57 24.04.2020
4363 Clouds 28 1013 78 16093 6.2 150 08:37 24.04.2020
4364 Clouds 28 1013 78 16093 6.2 150 08:18 24.04.2020
4365 Clouds 28 1014 78 16093 7.2 160 07:44 24.04.2020
4366 Clouds 28 1014 78 16093 7.2 160 07:26 24.04.2020
4367 Clouds 28 1014 78 16093 5.7 140 06:51 24.04.2020
4368 Clouds 28 1014 78 16093 5.7 140 06:32 24.04.2020
4369 Clouds 28 1014 74 16093 4.6 140 05:44 24.04.2020
4370 Clouds 27 1014 74 16093 5.1 130 04:26 24.04.2020
4371 Clouds 28 1014 74 16093 6.2 130 02:59 24.04.2020
4372 Clouds 28 1014 74 16093 6.2 130 02:38 24.04.2020
4373 Clouds 28 1014 74 16093 6.2 130 02:20 24.04.2020
4374 Clouds 28 1014 70 16093 5.7 110 01:18 24.04.2020
4375 Clouds 29 1014 66 16093 6.7 140 00:36 24.04.2020
4376 Clouds 29 1014 66 16093 6.7 140 00:18 24.04.2020
4377 Clouds 30 1014 58 16093 6.7 130 23:42 23.04.2020
4378 Clouds 30 1014 58 16093 6.7 130 23:23 23.04.2020
4379 Clouds 30 1015 58 16093 7.2 130 22:55 23.04.2020
4380 Clouds 30 1015 58 16093 7.2 130 22:36 23.04.2020
4381 Clouds 30 1015 58 16093 7.2 130 22:18 23.04.2020
4382 Clouds 30 1015 58 16093 7.7 130 21:56 23.04.2020
4383 Clouds 31 1015 58 16093 7.7 130 21:37 23.04.2020
4384 Clouds 30 1015 58 16093 7.7 130 21:19 23.04.2020
4385 Clouds 30 1016 62 16093 7.2 130 20:42 23.04.2020
4386 Clouds 30 1016 62 16093 7.2 130 20:22 23.04.2020
4387 Clouds 30 1016 58 16093 5.7 150 19:59 23.04.2020
4388 Clouds 30 1016 58 16093 5.7 150 19:40 23.04.2020
4389 Clouds 30 1016 58 16093 5.7 150 19:21 23.04.2020
4390 Clouds 30 1017 55 16093 7.7 130 18:57 23.04.2020
4391 Clouds 30 1017 55 16093 7.7 130 18:38 23.04.2020
4392 Clouds 30 1017 55 16093 7.7 130 18:20 23.04.2020
4393 Clouds 30 1017 51 16093 7.2 120 17:55 23.04.2020
4394 Clouds 30 1017 51 16093 7.2 120 17:36 23.04.2020
4395 Clouds 30 1017 51 16093 7.2 120 17:18 23.04.2020
4396 Clouds 29 1017 54 16093 7.7 110 16:43 23.04.2020
4397 Clouds 29 1017 54 16093 7.7 110 16:19 23.04.2020
4398 Clouds 28 1016 58 16093 7.2 130 15:43 23.04.2020
4399 Clouds 28 1016 58 16093 7.2 130 15:43 23.04.2020
4400 Clouds 28 1016 58 16093 7.2 130 15:23 23.04.2020
4401 Clouds 27 1016 61 16093 5.1 140 14:59 23.04.2020
4402 Clouds 27 1016 61 16093 5.1 140 14:39 23.04.2020
4403 Clouds 27 1016 61 16093 5.1 140 14:21 23.04.2020
4404 Clouds 26 1015 65 16093 5.1 130 13:57 23.04.2020
4405 Clouds 26 1015 65 16093 5.1 130 13:38 23.04.2020
4406 Clouds 26 1015 65 16093 5.1 130 13:19 23.04.2020
4407 Clear 26 1016 65 16093 4.6 130 12:55 23.04.2020
4408 Clear 26 1016 65 16093 4.6 130 12:37 23.04.2020
4409 Clouds 26 1015 61 16093 5.1 130 12:19 23.04.2020
4410 Clouds 26 1015 65 16093 5.7 130 11:44 23.04.2020
4411 Clouds 26 1015 65 16093 5.7 130 11:26 23.04.2020
4412 Clouds 26 1015 61 16093 6.2 130 10:56 23.04.2020
4413 Clouds 26 1015 61 16093 6.2 130 10:56 23.04.2020
4414 Clouds 26 1015 61 16093 6.2 130 10:38 23.04.2020
4415 Clouds 26 1015 61 16093 6.2 130 10:19 23.04.2020
4416 Clouds 26 1016 57 16093 4.1 120 09:37 23.04.2020
4417 Clouds 26 1016 57 16093 4.1 120 09:18 23.04.2020
4418 Clouds 26 1016 57 16093 4.1 100 08:46 23.04.2020
4419 Clouds 26 1016 57 16093 4.1 100 08:27 23.04.2020
4420 Clouds 26 1016 57 16093 5.7 110 07:44 23.04.2020
4421 Clouds 26 1016 57 16093 5.7 110 07:24 23.04.2020
4422 Clouds 26 1017 57 16093 6.2 110 06:57 23.04.2020
4423 Clouds 26 1017 57 16093 6.2 110 06:39 23.04.2020
4424 Clouds 27 1017 61 16093 4.6 100 05:32 23.04.2020
4425 Clouds 27 1017 61 16093 6.7 90 04:54 23.04.2020
4426 Clouds 27 1015 58 16093 5.1 100 02:40 23.04.2020
4427 Clouds 27 1015 58 16093 5.1 100 02:22 23.04.2020
4428 Clouds 28 1015 51 16093 5.7 80 01:35 23.04.2020
4429 Clouds 29 1015 51 16093 4.6 70 00:49 23.04.2020
4430 Clouds 29 1015 51 16093 4.6 70 00:24 23.04.2020
4431 Clouds 30 1015 45 16093 5.1 80 23:53 22.04.2020
4432 Clouds 30 1015 45 16093 5.1 80 23:26 22.04.2020
4433 Clouds 30 1016 43 16093 6.2 90 22:58 22.04.2020
4434 Clouds 30 1016 43 16093 6.2 90 22:39 22.04.2020
4435 Clouds 30 1016 43 16093 6.2 90 22:19 22.04.2020
4436 Clouds 31 1016 38 16093 4.1 80 21:56 22.04.2020
4437 Clouds 31 1016 38 16093 4.1 80 21:38 22.04.2020
4438 Clouds 31 1016 38 16093 4.1 80 21:20 22.04.2020
4439 Clouds 31 1016 29 16093 4.6 50 20:54 22.04.2020
4440 Clouds 31 1016 29 16093 4.6 50 20:36 22.04.2020
4441 Clouds 31 1017 27 16093 3.6 140 20:18 22.04.2020
4442 Clouds 31 1017 27 16093 3.6 140 19:54 22.04.2020
4443 Clouds 31 1017 27 16093 3.6 140 19:54 22.04.2020
4444 Clouds 31 1017 27 16093 3.6 140 19:36 22.04.2020
4445 Clouds 31 1017 27 16093 3.6 140 19:18 22.04.2020
4446 Clouds 31 1018 20 16093 1.5 0 18:55 22.04.2020
4447 Clouds 31 1018 20 16093 1.5 0 18:36 22.04.2020
4448 Clouds 30 1018 20 16093 1.5 0 18:18 22.04.2020
4449 Clouds 29 1018 30 16093 1.5 0 17:42 22.04.2020
4450 Clouds 29 1018 30 16093 1.5 0 17:23 22.04.2020
4451 Clouds 28 1018 44 16093 2.6 30 16:47 22.04.2020
4452 Clouds 27 1018 44 16093 2.6 30 16:28 22.04.2020
4453 Clouds 25 1018 53 16093 3.1 360 15:58 22.04.2020
4454 Clouds 25 1018 53 16093 3.1 360 15:38 22.04.2020
4455 Clouds 24 1018 53 16093 3.1 360 15:19 22.04.2020
4456 Clouds 23 1017 64 16093 1.5 30 14:55 22.04.2020
4457 Clouds 23 1017 64 16093 1.5 30 14:36 22.04.2020
4458 Clouds 22 1017 64 16093 1.5 30 14:18 22.04.2020
4459 Clear 20 1016 77 16093 2.1 10 13:43 22.04.2020
4460 Clear 20 1016 77 16093 2.1 10 13:20 22.04.2020
4461 Clear 20 1016 77 16093 1.5 0 12:43 22.04.2020
4462 Clear 19 1016 77 16093 1.5 0 12:23 22.04.2020
4463 Clear 20 1015 68 16093 2.1 320 11:58 22.04.2020
4464 Clear 20 1015 77 16093 3.1 330 11:39 22.04.2020
4465 Clear 20 1015 68 16093 2.1 320 11:19 22.04.2020
4466 Clear 21 1015 73 16093 2.1 300 10:44 22.04.2020
4467 Clear 21 1015 73 16093 2.1 300 10:24 22.04.2020
4468 Clear 21 1015 68 16093 2.6 290 09:55 22.04.2020
4469 Clear 21 1015 68 16093 2.6 290 09:36 22.04.2020
4470 Clear 22 1016 53 16093 1.5 270 09:18 22.04.2020
4471 Clear 22 1016 53 16093 1.5 270 08:41 22.04.2020
4472 Clear 22 1016 53 16093 1.5 270 08:23 22.04.2020
4473 Clear 23 1016 44 16093 2.1 280 07:55 22.04.2020
4474 Clear 23 1016 44 16093 2.1 280 07:36 22.04.2020
4475 Clear 23 1016 44 16093 2.1 280 07:18 22.04.2020
4476 Clear 24 1016 34 16093 2.6 300 06:41 22.04.2020
4477 Clear 25 1016 32 16093 2.1 290 05:40 22.04.2020
4478 Clear 25 1016 32 16093 2.1 290 05:40 22.04.2020
4479 Clear 26 1015 51 16093 2.6 250 04:46 22.04.2020
4480 Clouds 28 1014 70 16093 2.6 130 02:59 22.04.2020
4481 Clouds 28 1014 70 16093 2.6 130 02:28 22.04.2020
4482 Clouds 28 1014 70 16093 2.6 130 02:28 22.04.2020
4483 Clouds 29 1013 45 16093 1.52 296 01:41 22.04.2020
4484 Clouds 30 1013 45 16093 1.52 296 01:21 22.04.2020
4485 Clouds 33 1012 41 16093 4.1 300 00:41 22.04.2020
4486 Clouds 33 1012 41 16093 4.1 300 00:20 22.04.2020
4487 Clouds 34 1012 41 16093 4.1 270 23:44 21.04.2020
4488 Clouds 34 1012 41 16093 4.1 270 23:22 21.04.2020
4489 Clouds 33 1012 43 16093 4.1 280 22:58 21.04.2020
4490 Clouds 33 1012 43 16093 4.1 280 22:39 21.04.2020
4491 Clouds 33 1012 43 16093 4.1 280 22:19 21.04.2020
4492 Clouds 33 1013 49 16093 5.1 270 21:55 21.04.2020
4493 Clouds 33 1013 49 16093 5.1 270 21:37 21.04.2020
4494 Clouds 33 1013 49 16093 5.1 270 21:18 21.04.2020
4495 Clouds 33 1013 49 16093 4.6 300 20:40 21.04.2020
4496 Clouds 33 1013 49 16093 4.6 300 20:22 21.04.2020
4497 Clouds 32 1014 55 16093 5.1 280 19:58 21.04.2020
4498 Clouds 32 1014 55 16093 5.1 280 19:38 21.04.2020
4499 Clouds 32 1014 55 16093 5.1 280 19:38 21.04.2020
4500 Clouds 32 1014 55 16093 5.1 280 19:18 21.04.2020
4501 Clouds 31 1015 70 16093 3.1 280 18:55 21.04.2020
4502 Clouds 31 1015 70 16093 3.1 280 18:36 21.04.2020
4503 Clouds 30 1015 70 16093 3.1 280 18:18 21.04.2020
4504 Rain 29 1014 74 16093 3.6 300 17:39 21.04.2020
4505 Rain 29 1014 74 16093 3.6 300 17:20 21.04.2020
4506 Rain 29 1014 74 16093 3.1 0 16:57 21.04.2020
4507 Clouds 29 1014 74 16093 3.1 0 16:37 21.04.2020
4508 Clouds 29 1014 74 16093 3.1 0 16:18 21.04.2020
4509 Clouds 28 1014 78 16093 3.6 260 15:55 21.04.2020
4510 Clouds 28 1014 78 16093 3.6 260 15:37 21.04.2020
4511 Clouds 28 1014 78 16093 3.6 260 15:18 21.04.2020
4512 Clouds 27 1013 83 16093 3.1 240 14:45 21.04.2020
4513 Clouds 27 1013 83 16093 3.1 240 14:24 21.04.2020
4514 Clouds 26 1012 83 16093 3.1 240 13:56 21.04.2020
4515 Clouds 26 1012 83 16093 3.1 240 13:37 21.04.2020
4516 Clouds 26 1012 83 16093 3.1 240 13:18 21.04.2020
4517 Clouds 26 1012 83 16093 3.1 270 12:38 21.04.2020
4518 Clouds 26 1012 83 16093 3.1 250 12:19 21.04.2020
4519 Clouds 26 1011 83 16093 2.6 240 11:57 21.04.2020
4520 Clouds 26 1011 83 16093 2.6 240 11:38 21.04.2020
4521 Clouds 26 1011 83 16093 2.6 240 11:19 21.04.2020
4522 Clouds 26 1011 78 16093 3.6 240 10:59 21.04.2020
4523 Clouds 26 1011 78 16093 3.6 240 10:39 21.04.2020
4524 Clouds 26 1011 78 16093 3.6 240 10:21 21.04.2020
4525 Clouds 26 1012 78 16093 3.1 240 09:55 21.04.2020
4526 Clouds 26 1012 78 16093 3.1 240 09:36 21.04.2020
4527 Clouds 26 1012 78 16093 3.1 240 09:18 21.04.2020
4528 Clouds 27 1013 74 16093 4.6 250 08:43 21.04.2020
4529 Clouds 27 1013 74 16093 4.6 250 08:24 21.04.2020
4530 Clouds 27 1013 74 16093 2.6 250 07:50 21.04.2020
4531 Clouds 27 1013 74 16093 2.6 250 07:27 21.04.2020
4532 Clouds 27 1013 74 16093 3.1 230 06:50 21.04.2020
4533 Clouds 27 1013 74 16093 3.1 230 06:31 21.04.2020
4534 Clouds 27 1013 74 16093 4.1 250 05:49 21.04.2020
4535 Clouds 28 1012 74 16093 3.6 250 04:55 21.04.2020
4536 Clouds 28 1012 66 16093 3.6 250 03:45 21.04.2020
4537 Clear 29 1011 62 16093 5.7 270 02:40 21.04.2020
4538 Clouds 30 1011 48 16093 7.7 250 01:30 21.04.2020
4539 Clouds 32 1010 38 16093 8.2 240 00:38 21.04.2020
4540 Clouds 33 1010 34 16093 9.8 250 23:55 20.04.2020
4541 Clouds 33 1010 34 16093 9.8 250 23:37 20.04.2020
4542 Clouds 34 1010 34 16093 9.8 250 23:19 20.04.2020
4543 Clouds 34 1010 34 16093 9.3 230 22:54 20.04.2020
4544 Clouds 34 1010 34 16093 9.3 230 22:36 20.04.2020
4545 Clouds 35 1010 34 16093 9.3 230 22:18 20.04.2020
4546 Clouds 35 1010 34 16093 8.7 230 21:54 20.04.2020
4547 Clouds 35 1010 34 16093 8.7 230 21:54 20.04.2020
4548 Clouds 35 1010 34 16093 8.7 230 21:36 20.04.2020
4549 Clouds 34 1010 34 16093 8.7 230 21:18 20.04.2020
4550 Clouds 35 1011 34 16093 7.7 220 20:40 20.04.2020
4551 Clouds 34 1011 34 16093 7.7 220 20:19 20.04.2020
4552 Clouds 34 1012 39 16093 9.8 220 19:59 20.04.2020
4553 Clouds 34 1012 39 16093 9.8 220 19:40 20.04.2020
4554 Clouds 34 1012 39 16093 9.8 220 19:20 20.04.2020
4555 Clouds 33 1012 46 16093 10.3 220 18:55 20.04.2020
4556 Clouds 33 1012 46 16093 10.3 220 18:36 20.04.2020
4557 Clouds 33 1012 46 16093 10.3 220 18:18 20.04.2020
4558 Clouds 32 1013 55 16093 8.7 220 17:43 20.04.2020
4559 Clouds 32 1013 55 16093 8.7 220 17:22 20.04.2020
4560 Clouds 31 1012 66 16093 7.2 220 16:59 20.04.2020
4561 Clouds 31 1012 66 16093 7.2 220 16:40 20.04.2020
4562 Clouds 30 1012 66 16093 7.2 220 16:19 20.04.2020
4563 Clouds 30 1012 74 16093 6.2 220 15:55 20.04.2020
4564 Clouds 29 1012 74 16093 6.2 220 15:36 20.04.2020
4565 Clouds 29 1012 74 16093 6.2 220 15:18 20.04.2020
4566 Clouds 29 1012 74 16093 6.2 220 15:18 20.04.2020
4567 Clouds 28 1011 78 16093 4.1 220 14:40 20.04.2020
4568 Clouds 28 1011 78 16093 4.1 220 14:19 20.04.2020
4569 Clouds 27 1011 83 16093 3.1 210 13:56 20.04.2020
4570 Clouds 27 1011 83 16093 3.1 210 13:56 20.04.2020
4571 Clouds 27 1011 83 16093 3.1 210 13:56 20.04.2020
4572 Clouds 27 1011 83 16093 3.1 210 13:37 20.04.2020
4573 Clouds 27 1011 83 16093 3.1 210 13:37 20.04.2020
4574 Clouds 27 1011 83 16093 3.1 210 13:19 20.04.2020
4575 Clouds 27 1011 83 16093 3.1 200 12:43 20.04.2020
4576 Clouds 27 1011 83 16093 3.1 200 12:43 20.04.2020
4577 Clouds 27 1011 83 16093 3.1 200 12:22 20.04.2020
4578 Clouds 27 1011 83 16093 2.6 170 11:54 20.04.2020
4579 Clouds 27 1011 83 16093 2.6 170 11:36 20.04.2020
4580 Clouds 27 1011 83 16093 2.6 170 11:18 20.04.2020
4581 Clouds 27 1011 78 16093 2.1 160 10:54 20.04.2020
4582 Clouds 27 1011 78 16093 2.1 160 10:36 20.04.2020
4583 Clouds 27 1011 78 16093 2.1 160 10:18 20.04.2020
4584 Clouds 27 1011 78 16093 3.1 170 09:40 20.04.2020
4585 Clouds 27 1011 78 16093 3.1 170 09:21 20.04.2020
4586 Clouds 27 1012 78 16093 3.1 160 08:43 20.04.2020
4587 Clouds 27 1012 78 16093 3.1 160 08:23 20.04.2020
4588 Clouds 27 1013 78 16093 2.1 0 07:59 20.04.2020
4589 Clouds 27 1013 78 16093 2.1 0 07:39 20.04.2020
4590 Clouds 27 1013 78 16093 2.1 0 07:19 20.04.2020
4591 Clear 27 1013 78 16093 3.1 170 06:37 20.04.2020
4592 Clear 27 1013 83 16093 3.6 170 05:57 20.04.2020
4593 Clear 27 1013 74 16093 3.1 160 04:49 20.04.2020
4594 Smoke 28 1012 74 16093 4.6 160 02:49 20.04.2020
4595 Smoke 28 1012 74 16093 4.6 160 02:27 20.04.2020
4596 Clouds 29 1013 62 16093 5.1 170 01:29 20.04.2020
4597 Clouds 30 1013 58 16093 5.7 180 00:45 20.04.2020
4598 Clouds 30 1013 58 16093 5.7 180 00:22 20.04.2020
4599 Clouds 31 1013 59 16093 5.1 140 23:40 19.04.2020
4600 Clouds 31 1013 59 16093 5.1 140 23:21 19.04.2020
4601 Clouds 31 1013 55 16093 7.2 140 22:57 19.04.2020
4602 Clouds 31 1013 55 16093 7.2 140 22:37 19.04.2020
4603 Clouds 31 1013 55 16093 7.2 140 22:19 19.04.2020
4604 Clouds 31 1014 52 16093 7.2 180 21:42 19.04.2020
4605 Clouds 31 1014 52 16093 7.2 180 21:24 19.04.2020
4606 Clouds 31 1015 59 16093 4.6 160 20:58 19.04.2020
4607 Clouds 31 1015 59 16093 4.6 160 20:40 19.04.2020
4608 Clouds 31 1015 59 16093 4.6 160 20:20 19.04.2020
4609 Clouds 31 1016 55 16093 5.7 170 19:56 19.04.2020
4610 Clouds 31 1016 55 16093 5.7 170 19:38 19.04.2020
4611 Clouds 31 1016 55 16093 5.7 170 19:20 19.04.2020
4612 Clouds 31 1016 58 16093 4.6 170 18:57 19.04.2020
4613 Clouds 31 1016 58 16093 4.6 170 18:38 19.04.2020
4614 Clouds 31 1016 58 16093 4.6 170 18:19 19.04.2020
4615 Clouds 31 1016 58 16093 4.6 170 18:19 19.04.2020
4616 Clouds 31 1016 58 16093 4.6 170 18:19 19.04.2020
4617 Clouds 30 1016 66 16093 4.6 160 17:56 19.04.2020
4618 Clouds 30 1016 66 16093 4.6 160 17:38 19.04.2020
4619 Clouds 30 1016 66 16093 4.6 160 17:19 19.04.2020
4620 Clouds 29 1016 70 16093 4.6 130 16:41 19.04.2020
4621 Clouds 29 1016 70 16093 4.6 130 16:21 19.04.2020
4622 Clouds 29 1016 74 16093 2.1 0 15:59 19.04.2020
4623 Clouds 28 1016 74 16093 2.1 0 15:40 19.04.2020
4624 Clouds 28 1016 74 16093 2.1 0 15:19 19.04.2020
4625 Clear 26 1016 88 16093 1.6 176 14:39 19.04.2020
4626 Clear 25 1016 88 16093 1.6 176 14:21 19.04.2020
4627 Clouds 24 1016 94 16093 1.6 176 13:58 19.04.2020
4628 Clouds 24 1016 94 16093 1.6 176 13:38 19.04.2020
4629 Clouds 23 1016 94 16093 1.6 176 13:19 19.04.2020
4630 Clear 24 1016 94 16093 1.6 176 12:49 19.04.2020
4631 Clear 23 1016 94 16093 1.39 277 12:25 19.04.2020
4632 Clear 23 1016 88 16093 1.5 10 11:55 19.04.2020
4633 Clear 23 1016 88 16093 1.5 10 11:37 19.04.2020
4634 Clear 23 1016 88 16093 1.5 10 11:18 19.04.2020
4635 Clear 24 1016 88 16093 1.39 277 10:55 19.04.2020
4636 Clear 24 1016 88 16093 1.39 277 10:37 19.04.2020
4637 Clear 24 1016 88 16093 1.39 277 10:18 19.04.2020
4638 Clear 24 1016 83 16093 1.5 330 09:44 19.04.2020
4639 Clear 24 1016 83 16093 1.5 330 09:25 19.04.2020
4640 Clear 25 1017 83 16093 3.14 240 08:40 19.04.2020
4641 Clear 25 1017 83 16093 3.14 240 08:21 19.04.2020
4642 Clear 25 1017 78 16093 2.13 249 07:58 19.04.2020
4643 Clear 25 1017 78 16093 2.13 249 07:40 19.04.2020
4644 Clear 25 1017 78 16093 2.13 249 07:21 19.04.2020
4645 Clear 25 1017 83 16093 1.5 210 06:27 19.04.2020
4646 Clear 25 1017 83 16093 1.5 190 05:46 19.04.2020
4647 Clouds 26 1017 83 16093 2.1 180 04:28 19.04.2020
4648 Clouds 26 1016 74 16093 2.6 120 02:59 19.04.2020
4649 Clouds 26 1016 74 16093 2.6 120 02:21 19.04.2020
4650 Clouds 27 1016 69 16093 6.2 90 01:37 19.04.2020
4651 Clouds 28 1015 69 16093 3.1 40 00:42 19.04.2020
4652 Rain 28 1016 69 16093 5.7 20 00:22 19.04.2020
4653 Rain 28 1016 69 16093 5.7 20 23:47 18.04.2020
4654 Rain 28 1016 69 16093 5.7 20 23:22 18.04.2020
4655 Rain 27 1016 65 14484 6.2 320 22:59 18.04.2020
4656 Rain 27 1016 65 14484 6.2 320 22:40 18.04.2020
4657 Rain 26 1016 65 14484 6.2 320 22:21 18.04.2020
4658 Clouds 29 1016 62 16093 6.2 180 21:56 18.04.2020
4659 Clouds 30 1016 62 16093 6.2 180 21:37 18.04.2020
4660 Rain 31 1016 62 16093 6.2 180 21:19 18.04.2020
4661 Rain 31 1017 52 16093 3.1 220 20:42 18.04.2020
4662 Rain 31 1017 52 16093 3.1 220 20:22 18.04.2020
4663 Clouds 32 1018 49 16093 5.25 188 19:56 18.04.2020
4664 Clouds 32 1018 49 16093 5.25 188 19:56 18.04.2020
4665 Clouds 32 1018 49 16093 5.25 188 19:37 18.04.2020
4666 Clouds 32 1018 49 16093 5.25 188 19:19 18.04.2020
4667 Clouds 31 1018 55 16093 3.6 250 18:37 18.04.2020
4668 Clouds 32 1018 55 16093 3.6 250 18:19 18.04.2020
4669 Clouds 31 1018 55 16093 3.6 250 18:19 18.04.2020
4670 Clouds 31 1018 58 16093 5.1 210 17:43 18.04.2020
4671 Clouds 31 1018 58 16093 5.1 210 17:21 18.04.2020
4672 Clouds 30 1018 70 16093 5.7 180 16:58 18.04.2020
4673 Clouds 29 1018 70 16093 5.7 180 16:38 18.04.2020
4674 Clouds 29 1018 70 16093 5.7 180 16:20 18.04.2020
4675 Clouds 28 1018 78 16093 5.1 200 15:40 18.04.2020
4676 Clouds 28 1018 78 16093 5.1 200 15:22 18.04.2020
4677 Clouds 27 1017 88 16093 2.98 199 14:47 18.04.2020
4678 Clouds 27 1017 88 16093 2.98 199 14:47 18.04.2020
4679 Clouds 26 1017 88 16093 3.29 191 14:29 18.04.2020
4680 Clear 25 1017 88 16093 3.29 191 13:59 18.04.2020
4681 Clear 25 1017 88 16093 3.29 191 13:41 18.04.2020
4682 Clear 24 1017 88 16093 3.29 191 13:20 18.04.2020
4683 Clouds 25 1017 83 16093 3.29 191 12:42 18.04.2020
4684 Clouds 25 1017 83 16093 3.27 198 12:24 18.04.2020
4685 Clouds 25 1017 88 11265 1.5 270 11:57 18.04.2020
4686 Clouds 25 1017 88 11265 1.5 270 11:38 18.04.2020
4687 Clouds 25 1017 88 11265 1.5 270 11:19 18.04.2020
4688 Clouds 25 1017 88 16093 1.5 250 10:42 18.04.2020
4689 Clouds 25 1017 88 16093 1.5 250 10:21 18.04.2020
4690 Clouds 25 1018 88 16093 1.5 280 09:58 18.04.2020
4691 Clouds 25 1018 88 16093 1.5 280 09:39 18.04.2020
4692 Clouds 26 1018 88 16093 1.5 280 09:20 18.04.2020
4693 Clouds 26 1018 83 16093 3.03 193 08:42 18.04.2020
4694 Clouds 26 1018 83 16093 3.03 193 08:21 18.04.2020
4695 Clouds 26 1018 83 16093 2.6 210 07:42 18.04.2020
4696 Clouds 26 1018 83 16093 2.6 210 07:23 18.04.2020
4697 Clouds 27 1019 83 16093 1.5 170 06:39 18.04.2020
4698 Clouds 27 1019 83 16093 1.5 0 05:48 18.04.2020
4699 Clouds 27 1019 78 16093 3.1 150 04:54 18.04.2020
4700 Clouds 27 1019 78 16093 3.1 150 04:30 18.04.2020
4701 Clouds 27 1018 74 16093 3.1 150 03:18 18.04.2020
4702 Clouds 28 1018 78 16093 4.6 140 02:40 18.04.2020
4703 Clouds 28 1018 78 16093 4.6 140 02:20 18.04.2020
4704 Clouds 28 1017 74 16093 3.6 140 01:40 18.04.2020
4705 Clouds 28 1017 70 16093 4.6 130 00:59 18.04.2020
4706 Clouds 29 1017 70 16093 4.6 130 00:24 18.04.2020
4707 Clouds 29 1018 70 16093 7.2 110 23:58 17.04.2020
4708 Clouds 29 1018 70 16093 7.2 110 23:40 17.04.2020
4709 Clouds 29 1018 70 16093 7.2 110 23:19 17.04.2020
4710 Clouds 29 1018 70 16093 5.7 130 22:58 17.04.2020
4711 Clouds 30 1018 70 16093 5.7 130 22:40 17.04.2020
4712 Clouds 30 1018 70 16093 5.7 130 22:20 17.04.2020
4713 Clouds 30 1019 66 16093 6.7 110 21:57 17.04.2020
4714 Clouds 30 1019 66 16093 6.7 110 21:38 17.04.2020
4715 Clouds 31 1019 66 16093 6.7 110 21:18 17.04.2020
4716 Clouds 30 1019 66 16093 5.1 130 20:55 17.04.2020
4717 Clouds 30 1019 66 16093 5.1 130 20:36 17.04.2020
4718 Clouds 30 1019 66 16093 5.1 130 20:36 17.04.2020
4719 Clouds 30 1019 66 16093 5.1 130 20:36 17.04.2020
4720 Clouds 29 1020 62 16093 5.7 100 20:18 17.04.2020
4721 Clouds 30 1020 62 16093 5.7 100 19:42 17.04.2020
4722 Clouds 30 1020 62 16093 5.7 100 19:23 17.04.2020
4723 Clouds 30 1021 62 16093 6.2 110 18:47 17.04.2020
4724 Clouds 29 1021 62 16093 6.2 110 18:24 17.04.2020
4725 Clouds 28 1021 74 16093 5.7 90 17:58 17.04.2020
4726 Clouds 29 1021 74 16093 5.7 90 17:37 17.04.2020
4727 Clouds 29 1021 74 16093 5.7 90 17:37 17.04.2020
4728 Clouds 28 1021 74 16093 5.7 90 17:19 17.04.2020
4729 Clouds 28 1020 74 16093 4.1 110 16:44 17.04.2020
4730 Clouds 28 1020 74 16093 4.1 110 16:23 17.04.2020
4731 Clouds 28 1020 74 16093 5.1 110 15:58 17.04.2020
4732 Clouds 27 1020 74 16093 4.6 90 15:37 17.04.2020
4733 Clouds 27 1020 74 16093 4.6 90 15:19 17.04.2020
4734 Clouds 27 1020 78 16093 5.1 90 14:40 17.04.2020
4735 Clouds 27 1020 78 16093 5.1 90 14:22 17.04.2020
4736 Clouds 26 1019 78 16093 4.1 80 13:56 17.04.2020
4737 Clouds 26 1019 78 16093 4.1 80 13:37 17.04.2020
4738 Clouds 26 1019 78 16093 4.1 80 13:18 17.04.2020
4739 Clouds 26 1018 78 16093 3.6 80 12:46 17.04.2020
4740 Clouds 26 1018 78 16093 3.6 80 12:25 17.04.2020
4741 Clouds 26 1018 78 16093 5.1 70 11:42 17.04.2020
4742 Clouds 26 1018 78 16093 5.1 70 11:20 17.04.2020
4743 Clouds 26 1018 78 16093 5.7 80 10:57 17.04.2020
4744 Clouds 26 1018 78 16093 5.7 80 10:39 17.04.2020
4745 Clouds 26 1018 78 16093 5.7 80 10:19 17.04.2020
4746 Clouds 25 1018 78 16093 5.7 70 09:41 17.04.2020
4747 Clouds 25 1018 78 16093 5.7 70 09:22 17.04.2020
4748 Clouds 25 1018 85 0 0.45 155 08:59 17.04.2020
4749 Clouds 25 1020 83 14484 5.7 70 08:40 17.04.2020
4750 Clouds 25 1020 78 16093 6.7 50 08:21 17.04.2020
4751 Clouds 25 1020 78 16093 6.7 50 07:44 17.04.2020
4752 Clouds 25 1020 78 16093 6.7 50 07:24 17.04.2020
4753 Clouds 25 1020 78 16093 6.7 50 07:24 17.04.2020
4754 Clouds 25 1020 78 16093 4.1 50 06:52 17.04.2020
4755 Clouds 25 1020 78 16093 4.1 50 06:23 17.04.2020
4756 Clouds 25 1020 78 16093 3.6 40 05:38 17.04.2020
4757 Clouds 25 1019 78 16093 3.1 0 03:21 17.04.2020
4758 Clouds 26 1019 74 16093 3.6 30 02:37 17.04.2020
4759 Clouds 26 1018 69 16093 3.6 20 01:30 17.04.2020
4760 Clouds 27 1017 70 16093 5.7 350 00:58 17.04.2020
4761 Clouds 27 1017 70 16093 5.7 350 00:20 17.04.2020
4762 Clouds 28 1016 62 16093 4.1 330 23:45 16.04.2020
4763 Clouds 28 1016 62 16093 4.1 330 23:23 16.04.2020
4764 Clouds 29 1016 66 16093 4.6 340 22:58 16.04.2020
4765 Clouds 29 1016 66 16093 4.6 340 22:38 16.04.2020
4766 Clouds 29 1016 66 16093 4.6 340 22:20 16.04.2020
4767 Clouds 30 1016 59 16093 3.6 160 21:56 16.04.2020
4768 Clouds 30 1016 59 16093 3.6 160 21:37 16.04.2020
4769 Clouds 31 1016 59 16093 3.6 160 21:18 16.04.2020
4770 Clouds 31 1016 62 16093 5.7 140 20:40 16.04.2020
4771 Clouds 31 1016 62 16093 5.7 140 20:22 16.04.2020
4772 Clouds 32 1017 55 16093 4.6 120 19:56 16.04.2020
4773 Clouds 32 1017 55 16093 4.6 120 19:37 16.04.2020
4774 Clouds 32 1017 55 16093 4.6 120 19:19 16.04.2020
4775 Clouds 31 1017 52 16093 2.1 210 18:45 16.04.2020
4776 Clouds 31 1017 52 16093 2.1 210 18:26 16.04.2020
4777 Clouds 31 1017 58 16093 3.6 210 17:58 16.04.2020
4778 Clouds 31 1017 58 16093 3.6 210 17:40 16.04.2020
4779 Clouds 30 1017 58 16093 3.6 210 17:21 16.04.2020
4780 Clouds 30 1017 66 16093 2.1 0 16:44 16.04.2020
4781 Clouds 29 1017 66 16093 2.1 0 16:26 16.04.2020
4782 Clouds 28 1017 74 16093 1.5 210 15:57 16.04.2020
4783 Clouds 28 1017 74 16093 1.5 210 15:39 16.04.2020
4784 Clouds 28 1017 74 16093 1.5 210 15:18 16.04.2020
4785 Clouds 26 1017 78 16093 1.5 200 14:45 16.04.2020
4786 Clouds 27 1017 78 16093 1.5 200 14:45 16.04.2020
4787 Clouds 26 1017 78 16093 1.5 200 14:25 16.04.2020
4788 Clouds 25 1016 83 16093 1.11 276 13:59 16.04.2020
4789 Clouds 25 1016 83 16093 1.11 276 13:59 16.04.2020
4790 Clouds 25 1016 83 16093 1.11 276 13:41 16.04.2020
4791 Clouds 25 1016 83 16093 1.11 276 13:23 16.04.2020
4792 Clouds 25 1015 83 14484 2.6 210 12:58 16.04.2020
4793 Clouds 25 1015 83 14484 2.6 210 12:39 16.04.2020
4794 Clouds 25 1015 83 14484 2.6 210 12:20 16.04.2020
4795 Clouds 25 1015 83 14484 2.6 210 12:20 16.04.2020
4796 Clouds 25 1015 83 12874 2.6 200 11:59 16.04.2020
4797 Clouds 25 1015 83 12874 2.6 200 11:40 16.04.2020
4798 Clouds 25 1015 83 12874 2.6 200 11:21 16.04.2020
4799 Clouds 25 1015 83 16093 2.1 190 10:55 16.04.2020
4800 Clouds 25 1015 83 16093 2.1 190 10:37 16.04.2020
4801 Clouds 25 1015 83 16093 2.1 190 10:18 16.04.2020
4802 Clear 25 1015 83 16093 2.12 289 09:39 16.04.2020
4803 Clear 25 1015 83 16093 2.66 292 09:20 16.04.2020
4804 Clear 25 1015 78 16093 2.8 290 08:57 16.04.2020
4805 Clear 25 1015 78 16093 2.8 290 08:39 16.04.2020
4806 Clear 25 1015 78 16093 2.8 290 08:21 16.04.2020
4807 Clear 26 1016 78 16093 1.5 270 07:44 16.04.2020
4808 Clear 26 1016 78 16093 1.5 270 07:24 16.04.2020
4809 Clear 26 1016 78 16093 2.8 290 06:42 16.04.2020
4810 Clear 26 1016 78 16093 3.4 262 06:24 16.04.2020
4811 Clear 28 1016 74 16093 3.6 260 04:54 16.04.2020
4812 Clear 28 1016 74 16093 3.6 260 04:54 16.04.2020
4813 Clear 28 1015 70 16093 4.1 250 03:47 16.04.2020
4814 Clear 29 1015 70 16093 4.1 250 03:22 16.04.2020
4815 Clouds 29 1014 62 16093 5.1 260 02:43 16.04.2020
4816 Clouds 30 1013 62 16093 5.1 210 01:59 16.04.2020
4817 Clouds 31 1013 62 16093 5.1 210 01:18 16.04.2020
4818 Clouds 32 1013 59 16093 5.7 210 00:27 16.04.2020
4819 Clouds 32 1012 55 16093 4.1 180 23:57 15.04.2020
4820 Clouds 32 1012 55 16093 4.1 180 23:39 15.04.2020
4821 Clouds 32 1012 55 16093 4.1 180 23:20 15.04.2020
4822 Clouds 32 1012 55 16093 6.7 200 22:40 15.04.2020
4823 Clouds 33 1012 55 16093 6.7 200 22:21 15.04.2020
4824 Clouds 32 1013 59 16093 5.7 170 21:58 15.04.2020
4825 Clouds 32 1013 59 16093 5.7 170 21:40 15.04.2020
4826 Clouds 32 1013 59 16093 5.7 170 21:22 15.04.2020
4827 Clouds 32 1013 62 16093 5.7 150 20:57 15.04.2020
4828 Clouds 32 1013 62 16093 5.7 150 20:57 15.04.2020
4829 Clouds 32 1013 62 16093 5.7 150 20:39 15.04.2020
4830 Clouds 32 1013 62 16093 5.7 150 20:21 15.04.2020
4831 Clouds 32 1014 55 16093 6.7 150 19:42 15.04.2020
4832 Clouds 32 1014 55 16093 6.7 150 19:21 15.04.2020
4833 Clouds 32 1015 55 16093 4.6 190 18:55 15.04.2020
4834 Clouds 32 1015 55 16093 4.6 190 18:36 15.04.2020
4835 Clouds 31 1015 55 16093 4.6 190 18:18 15.04.2020
4836 Clouds 31 1016 66 16093 5.1 190 17:40 15.04.2020
4837 Clouds 31 1016 66 16093 5.1 190 17:40 15.04.2020
4838 Clouds 30 1016 66 16093 5.1 190 17:21 15.04.2020
4839 Clouds 30 1016 66 16093 5.1 170 16:58 15.04.2020
4840 Clouds 30 1016 66 16093 5.1 170 16:39 15.04.2020
4841 Clouds 29 1016 66 16093 5.1 170 16:20 15.04.2020
4842 Clouds 29 1016 74 16093 4.6 170 15:59 15.04.2020
4843 Clouds 29 1016 74 16093 4.6 170 15:40 15.04.2020
4844 Clouds 28 1016 74 16093 4.6 170 15:20 15.04.2020
4845 Clouds 28 1016 74 16093 4.6 170 15:20 15.04.2020
4846 Clouds 27 1016 78 16093 2.6 170 14:58 15.04.2020
4847 Clouds 27 1016 78 16093 2.6 170 14:40 15.04.2020
4848 Clouds 27 1016 78 16093 2.6 170 14:21 15.04.2020
4849 Clouds 26 1016 78 16093 3.1 160 13:58 15.04.2020
4850 Clouds 26 1016 78 16093 3.1 160 13:39 15.04.2020
4851 Clouds 26 1016 78 16093 3.1 160 13:20 15.04.2020
4852 Clouds 26 1015 78 16093 2.6 160 12:56 15.04.2020
4853 Clouds 26 1015 78 16093 2.6 160 12:38 15.04.2020
4854 Clouds 26 1015 78 16093 2.6 160 12:20 15.04.2020
4855 Clouds 26 1015 78 16093 3.6 170 11:44 15.04.2020
4856 Clouds 26 1015 78 16093 3.6 170 11:25 15.04.2020
4857 Clouds 26 1015 78 16093 4.6 170 10:58 15.04.2020
4858 Clouds 26 1015 78 16093 4.6 170 10:37 15.04.2020
4859 Clouds 26 1015 78 16093 4.6 170 10:19 15.04.2020
4860 Clouds 26 1016 78 16093 2.6 160 09:55 15.04.2020
4861 Clouds 26 1016 78 16093 2.6 160 09:37 15.04.2020
4862 Clouds 26 1016 78 16093 2.6 160 09:18 15.04.2020
4863 Clouds 26 1016 83 16093 2.6 140 08:41 15.04.2020
4864 Clouds 26 1016 83 16093 2.6 140 08:21 15.04.2020
4865 Clouds 26 1017 78 16093 2.6 150 07:56 15.04.2020
4866 Clouds 26 1017 78 16093 2.6 150 07:36 15.04.2020
4867 Clouds 26 1017 78 16093 2.6 120 06:49 15.04.2020
4868 Clear 26 1017 78 16093 2.1 140 05:57 15.04.2020
4869 Clear 26 1017 78 16093 2.1 140 05:22 15.04.2020
4870 Clouds 27 1017 78 16093 3.6 160 04:45 15.04.2020
4871 Clouds 27 1016 74 16093 3.6 160 03:51 15.04.2020
4872 Clouds 27 1016 74 16093 3.6 160 03:20 15.04.2020
4873 Clouds 28 1016 74 16093 4.1 160 02:39 15.04.2020
4874 Clouds 28 1016 70 16093 5.7 140 01:48 15.04.2020
4875 Clouds 29 1016 70 16093 5.7 140 01:22 15.04.2020
4876 Clouds 30 1016 62 16093 6.2 150 00:37 15.04.2020
4877 Clouds 31 1016 62 16093 6.2 150 00:19 15.04.2020
4878 Clouds 31 1016 58 16093 4.1 170 23:55 14.04.2020
4879 Clouds 31 1016 58 16093 4.1 170 23:55 14.04.2020
4880 Clouds 31 1016 58 16093 4.1 170 23:36 14.04.2020
4881 Clouds 31 1016 58 16093 4.1 170 23:18 14.04.2020
4882 Clouds 32 1016 52 16093 5.7 170 22:55 14.04.2020
4883 Clouds 32 1016 52 16093 5.7 170 22:37 14.04.2020
4884 Clouds 32 1016 52 16093 5.7 170 22:19 14.04.2020
4885 Clear 32 1017 52 16093 5.7 190 21:55 14.04.2020
4886 Clear 32 1017 52 16093 5.7 190 21:37 14.04.2020
4887 Clouds 32 1018 55 16093 7.7 130 21:18 14.04.2020
4888 Clouds 32 1018 55 16093 7.7 130 20:41 14.04.2020
4889 Clouds 32 1018 55 16093 7.7 130 20:22 14.04.2020
4890 Clouds 32 1018 55 16093 6.2 140 19:58 14.04.2020
4891 Clouds 32 1018 55 16093 6.2 140 19:40 14.04.2020
4892 Clouds 32 1018 55 16093 6.2 140 19:21 14.04.2020
4893 Clouds 31 1019 62 16093 5.7 130 18:56 14.04.2020
4894 Clouds 31 1019 62 16093 5.7 130 18:38 14.04.2020
4895 Clouds 31 1019 62 16093 5.7 130 18:19 14.04.2020
4896 Clouds 31 1019 66 16093 4.1 150 17:56 14.04.2020
4897 Clouds 31 1019 66 16093 4.1 150 17:37 14.04.2020
4898 Clouds 30 1019 66 16093 4.1 150 17:19 14.04.2020
4899 Clouds 30 1018 70 16093 5.7 140 16:41 14.04.2020
4900 Clouds 30 1018 70 16093 5.7 140 16:23 14.04.2020
4901 Clouds 29 1018 70 16093 6.2 160 15:58 14.04.2020
4902 Clouds 29 1018 70 16093 6.2 160 15:39 14.04.2020
4903 Clouds 28 1018 78 16093 5.1 140 15:21 14.04.2020
4904 Clouds 27 1018 83 16093 3.1 140 14:58 14.04.2020
4905 Clouds 27 1018 83 16093 3.1 140 14:40 14.04.2020
4906 Clouds 27 1018 83 16093 3.1 140 14:21 14.04.2020
4907 Clouds 26 1018 83 16093 3.1 140 13:56 14.04.2020
4908 Clouds 26 1018 83 16093 3.1 140 13:37 14.04.2020
4909 Clouds 26 1018 83 16093 3.1 140 13:19 14.04.2020
4910 Clouds 26 1018 88 16093 2.6 160 12:41 14.04.2020
4911 Clouds 26 1018 88 16093 2.6 160 12:20 14.04.2020
4912 Clouds 26 1018 83 16093 2.6 150 11:55 14.04.2020
4913 Clouds 26 1018 83 16093 2.6 150 11:36 14.04.2020
4914 Clouds 26 1018 83 16093 2.6 150 11:18 14.04.2020
4915 Clouds 26 1018 83 16093 2.6 150 10:43 14.04.2020
4916 Clouds 26 1018 83 16093 2.6 150 10:23 14.04.2020
4917 Clouds 26 1018 83 16093 2.6 150 09:43 14.04.2020
4918 Clouds 26 1018 83 16093 2.6 150 09:25 14.04.2020
4919 Clouds 26 1018 83 16093 2.6 150 08:59 14.04.2020
4920 Clouds 26 1018 81 0 5.03 163 08:40 14.04.2020
4921 Clouds 26 1019 83 16093 3.1 140 08:21 14.04.2020
4922 Clear 26 1019 83 16093 1.5 150 07:53 14.04.2020
4923 Clear 26 1019 83 16093 1.5 150 07:29 14.04.2020
4924 Clear 26 1019 83 16093 3.1 140 06:47 14.04.2020
4925 Clouds 26 1019 83 16093 3.1 150 05:55 14.04.2020
4926 Clouds 27 1018 83 16093 3.6 140 03:52 14.04.2020
4927 Clouds 28 1017 78 0 1.79 231 02:53 14.04.2020
4928 Clouds 28 1017 70 16093 5.1 170 01:39 14.04.2020
4929 Clouds 29 1017 70 16093 5.1 170 01:18 14.04.2020
4930 Clouds 30 1017 70 16093 6.2 170 00:33 14.04.2020
4931 Clouds 30 1017 62 16093 6.2 150 23:59 13.04.2020
4932 Clouds 30 1017 62 16093 6.2 150 23:39 13.04.2020
4933 Clouds 31 1017 62 16093 6.2 150 23:21 13.04.2020
4934 Clouds 31 1017 66 16093 6.7 150 22:56 13.04.2020
4935 Clouds 31 1017 66 16093 6.7 150 22:38 13.04.2020
4936 Clouds 31 1017 66 16093 6.7 150 22:20 13.04.2020
4937 Clouds 32 1018 66 16093 6.7 140 21:55 13.04.2020
4938 Clouds 32 1018 66 16093 6.7 140 21:36 13.04.2020
4939 Clouds 31 1018 66 16093 6.7 140 21:18 13.04.2020
4940 Clouds 31 1018 62 16093 5.7 160 20:41 13.04.2020
4941 Clouds 31 1018 62 16093 5.7 150 20:20 13.04.2020
4942 Clouds 31 1018 62 16093 5.7 150 19:59 13.04.2020
4943 Clouds 31 1019 62 16093 6.2 170 19:37 13.04.2020
4944 Clouds 31 1019 62 16093 6.2 170 19:19 13.04.2020
4945 Clouds 30 1019 66 16093 5.7 160 18:58 13.04.2020
4946 Clouds 30 1019 66 16093 5.7 160 18:39 13.04.2020
4947 Clouds 30 1019 66 16093 5.7 160 18:20 13.04.2020
4948 Clouds 30 1019 66 16093 5.7 160 18:20 13.04.2020
4949 Clouds 30 1019 70 16093 6.2 170 17:58 13.04.2020
4950 Clouds 30 1019 70 16093 6.2 170 17:58 13.04.2020
4951 Clouds 30 1019 70 16093 6.2 170 17:38 13.04.2020
4952 Clouds 29 1019 70 16093 6.2 170 17:19 13.04.2020
4953 Clouds 29 1018 70 16093 6.2 170 16:58 13.04.2020
4954 Clouds 29 1018 70 16093 6.2 170 16:40 13.04.2020
4955 Clouds 29 1018 70 16093 6.2 170 16:20 13.04.2020
4956 Clouds 29 1018 74 16093 6.7 170 15:57 13.04.2020
4957 Clouds 28 1018 74 16093 6.7 170 15:38 13.04.2020
4958 Clouds 28 1018 78 16093 5.1 170 15:20 13.04.2020
4959 Clouds 28 1018 78 16093 4.6 160 14:54 13.04.2020
4960 Clouds 27 1018 78 16093 4.6 160 14:36 13.04.2020
4961 Clouds 27 1018 78 16093 4.6 160 14:18 13.04.2020
4962 Clouds 27 1018 78 16093 4.6 160 14:18 13.04.2020
4963 Clouds 27 1017 78 16093 5.7 150 13:54 13.04.2020
4964 Clouds 27 1017 78 16093 5.7 150 13:36 13.04.2020
4965 Clouds 27 1017 78 16093 5.7 150 13:18 13.04.2020
4966 Clouds 27 1017 78 16093 4.6 160 12:55 13.04.2020
4967 Clouds 27 1017 78 16093 4.6 160 12:37 13.04.2020
4968 Clouds 27 1017 78 16093 4.6 160 12:18 13.04.2020
4969 Clouds 27 1017 78 16093 4.1 160 11:41 13.04.2020
4970 Clouds 27 1017 78 16093 6.2 150 11:18 13.04.2020
4971 Clouds 27 1017 78 16093 6.7 160 10:56 13.04.2020
4972 Clouds 27 1017 78 16093 6.7 160 10:37 13.04.2020
4973 Clouds 27 1017 78 16093 6.7 160 10:19 13.04.2020
4974 Clouds 27 1017 83 16093 6.7 160 09:45 13.04.2020
4975 Clouds 27 1017 83 16093 6.7 160 09:26 13.04.2020
4976 Clouds 27 1017 83 16093 8.2 130 08:51 13.04.2020
4977 Clouds 27 1017 83 16093 8.2 130 08:31 13.04.2020
4978 Clouds 27 1018 78 16093 8.2 130 07:59 13.04.2020
4979 Clouds 27 1018 78 16093 8.2 130 07:39 13.04.2020
4980 Clouds 27 1018 78 16093 8.2 130 07:20 13.04.2020
4981 Clouds 27 1018 78 16093 8.2 130 06:47 13.04.2020
4982 Clouds 27 1018 78 16093 8.2 130 06:24 13.04.2020
4983 Clouds 27 1018 78 16093 6.7 120 05:31 13.04.2020
4984 Clouds 27 1017 78 16093 6.7 130 04:53 13.04.2020
4985 Clouds 27 1017 78 16093 6.7 130 04:23 13.04.2020
4986 Clouds 27 1017 78 16093 6.2 130 03:47 13.04.2020
4987 Clouds 27 1017 78 16093 6.2 130 02:59 13.04.2020
4988 Clouds 28 1017 78 16093 6.2 110 01:56 13.04.2020
4989 Clouds 28 1017 74 16093 7.2 120 01:37 13.04.2020
4990 Clouds 28 1017 74 16093 6.7 120 00:58 13.04.2020
4991 Clouds 28 1017 74 16093 6.7 120 00:39 13.04.2020
4992 Clouds 29 1017 74 16093 6.7 120 00:18 13.04.2020
4993 Clouds 29 1017 74 16093 7.7 130 23:45 12.04.2020
4994 Clouds 29 1017 74 16093 7.7 130 23:22 12.04.2020
4995 Clouds 29 1017 70 16093 6.7 120 22:58 12.04.2020
4996 Clouds 29 1017 70 16093 6.7 120 22:37 12.04.2020
4997 Clouds 30 1017 70 16093 6.7 120 22:19 12.04.2020
4998 Clouds 30 1017 74 16093 6.2 120 21:40 12.04.2020
4999 Clouds 30 1017 74 16093 6.2 120 21:21 12.04.2020
5000 Clouds 30 1018 66 16093 7.2 130 20:58 12.04.2020
5001 Clouds 30 1018 66 16093 7.2 130 20:39 12.04.2020
5002 Clouds 30 1018 66 16093 7.2 130 20:39 12.04.2020
5003 Clouds 30 1018 66 16093 7.2 130 20:21 12.04.2020
5004 Clouds 30 1018 70 16093 9.3 130 19:56 12.04.2020
5005 Clouds 30 1018 70 16093 9.3 130 19:37 12.04.2020
5006 Clouds 30 1018 70 16093 9.3 130 19:18 12.04.2020
5007 Clouds 29 1019 74 16093 6.2 130 18:40 12.04.2020
5008 Clouds 29 1019 74 16093 6.2 130 18:22 12.04.2020
5009 Clouds 29 1018 74 16093 8.7 120 17:57 12.04.2020
5010 Clouds 29 1018 74 16093 8.7 120 17:38 12.04.2020
5011 Clouds 29 1018 74 16093 8.7 120 17:20 12.04.2020
5012 Clouds 29 1018 78 16093 6.2 140 16:56 12.04.2020
5013 Clouds 28 1018 78 16093 6.2 140 16:37 12.04.2020
5014 Clouds 28 1018 78 16093 6.2 140 16:19 12.04.2020
5015 Clouds 28 1018 78 16093 7.7 120 15:42 12.04.2020
5016 Clouds 27 1018 78 16093 7.7 120 15:24 12.04.2020
5017 Clouds 27 1017 83 14484 4.6 120 14:41 12.04.2020
5018 Clouds 26 1017 83 14484 4.6 120 14:22 12.04.2020
5019 Clouds 26 1017 83 14484 4.6 120 13:59 12.04.2020
5020 Clouds 26 1017 83 14484 4.6 120 13:40 12.04.2020
5021 Clouds 26 1017 83 14484 4.6 120 13:22 12.04.2020
5022 Clouds 26 1016 88 11265 4.6 110 12:48 12.04.2020
5023 Clouds 26 1016 88 11265 4.6 110 12:23 12.04.2020
5024 Clouds 26 1016 88 11265 4.6 110 11:59 12.04.2020
5025 Clouds 26 1016 88 11265 4.6 110 11:40 12.04.2020
5026 Clouds 26 1016 88 11265 4.6 110 11:21 12.04.2020
5027 Clouds 26 1016 88 11265 4.6 110 11:21 12.04.2020
5028 Clouds 26 1016 83 11265 4.1 100 10:58 12.04.2020
5029 Clouds 26 1016 83 11265 4.1 100 10:39 12.04.2020
5030 Clouds 26 1016 83 11265 4.1 100 10:21 12.04.2020
5031 Clouds 26 1016 83 11265 4.1 100 10:21 12.04.2020
5032 Clouds 25 1016 83 11265 4.1 100 09:59 12.04.2020
5033 Clouds 25 1016 83 16093 5.1 120 09:39 12.04.2020
5034 Clouds 25 1016 83 16093 3.6 120 09:20 12.04.2020
5035 Clouds 25 1016 83 12874 5.1 110 08:51 12.04.2020
5036 Clouds 25 1016 83 12874 5.1 110 08:33 12.04.2020
5037 Clouds 25 1017 83 16093 4.1 100 07:57 12.04.2020
5038 Clouds 25 1017 83 16093 4.1 100 07:39 12.04.2020
5039 Clouds 25 1017 83 16093 4.1 100 07:18 12.04.2020
5040 Clouds 25 1017 94 16093 5.1 110 06:32 12.04.2020
5041 Clouds 25 1018 88 16093 4.6 90 05:49 12.04.2020
5042 Clouds 25 1018 88 16093 4.6 90 05:27 12.04.2020
5043 Thunderstorm 25 1017 94 16093 3.6 100 03:34 12.04.2020
5044 Thunderstorm 25 1016 94 4828 5.7 100 02:57 12.04.2020
5045 Thunderstorm 25 1016 94 4828 5.7 100 02:34 12.04.2020
5046 Thunderstorm 25 1015 88 9656 8.2 110 01:34 12.04.2020
5047 Rain 25 1015 83 16093 4.1 80 00:57 12.04.2020
5048 Rain 26 1015 83 16093 4.1 80 00:39 12.04.2020
5049 Rain 26 1015 83 16093 4.1 80 00:19 12.04.2020
5050 Rain 26 1015 74 16093 6.2 120 23:46 11.04.2020
5051 Thunderstorm 27 1015 69 16093 6.2 100 23:24 11.04.2020
5052 Clouds 28 1015 66 16093 6.7 110 22:41 11.04.2020
5053 Clouds 28 1015 66 16093 6.7 110 22:22 11.04.2020
5054 Clouds 28 1016 66 16093 5.7 90 21:57 11.04.2020
5055 Clouds 28 1016 66 16093 5.7 90 21:37 11.04.2020
5056 Clouds 28 1016 66 16093 5.7 90 21:37 11.04.2020
5057 Clouds 28 1016 66 16093 5.7 90 21:19 11.04.2020
5058 Clouds 28 1016 66 16093 7.2 80 20:58 11.04.2020
5059 Clouds 28 1016 66 16093 7.2 80 20:39 11.04.2020
5060 Clouds 28 1016 66 16093 6.7 100 20:20 11.04.2020
5061 Clouds 28 1016 66 16093 6.7 100 20:20 11.04.2020
5062 Clouds 28 1017 69 16093 6.2 80 19:58 11.04.2020
5063 Clouds 28 1017 69 16093 6.2 80 19:39 11.04.2020
5064 Clouds 28 1017 69 16093 6.2 80 19:19 11.04.2020
5065 Clouds 28 1017 69 16093 6.2 90 18:56 11.04.2020
5066 Clouds 28 1017 69 16093 6.2 90 18:56 11.04.2020
5067 Clouds 28 1017 69 16093 6.2 90 18:38 11.04.2020
5068 Clouds 27 1017 69 16093 6.2 90 18:20 11.04.2020
5069 Clouds 27 1017 69 16093 4.6 80 17:58 11.04.2020
5070 Clouds 27 1017 69 16093 4.6 80 17:40 11.04.2020
5071 Clouds 27 1017 69 16093 4.6 80 17:20 11.04.2020
5072 Clouds 27 1016 69 16093 4.6 90 16:55 11.04.2020
5073 Clouds 27 1016 69 16093 4.6 90 16:37 11.04.2020
5074 Clouds 27 1016 69 16093 4.6 90 16:19 11.04.2020
5075 Clouds 26 1016 74 16093 4.6 90 15:37 11.04.2020
5076 Clouds 26 1016 74 16093 4.6 90 15:19 11.04.2020
5077 Clouds 26 1015 78 16093 3.1 60 14:43 11.04.2020
5078 Clouds 25 1015 78 16093 3.1 60 14:24 11.04.2020
5079 Clouds 25 1015 78 16093 3.1 60 14:24 11.04.2020
5080 Clouds 25 1014 78 14484 2.6 50 13:59 11.04.2020
5081 Clouds 25 1014 78 14484 2.6 50 13:59 11.04.2020
5082 Clouds 25 1014 78 14484 2.6 50 13:59 11.04.2020
5083 Clouds 25 1014 78 14484 2.6 50 13:39 11.04.2020
5084 Clouds 25 1014 78 14484 2.6 50 13:19 11.04.2020
5085 Rain 25 1014 78 16093 3.1 30 12:42 11.04.2020
5086 Rain 25 1014 78 16093 3.1 30 12:20 11.04.2020
5087 Clouds 25 1013 78 16093 3.1 50 11:58 11.04.2020
5088 Clouds 25 1013 78 16093 3.1 50 11:39 11.04.2020
5089 Clouds 25 1013 78 16093 3.1 50 11:19 11.04.2020
5090 Clouds 25 1013 78 16093 3.1 70 10:43 11.04.2020
5091 Clouds 25 1013 78 16093 3.1 70 10:23 11.04.2020
5092 Clouds 25 1013 78 16093 3.1 70 09:59 11.04.2020
5093 Clouds 25 1013 83 16093 2.6 50 09:40 11.04.2020
5094 Clouds 25 1013 83 16093 2.6 80 09:21 11.04.2020
5095 Clouds 25 1013 83 16093 3.1 40 08:51 11.04.2020
5096 Clouds 25 1013 83 16093 3.1 40 08:29 11.04.2020
5097 Clouds 25 1013 83 16093 2.6 50 07:55 11.04.2020
5098 Clouds 25 1013 83 16093 2.6 50 07:37 11.04.2020
5099 Clouds 25 1013 83 16093 2.6 50 07:18 11.04.2020
5100 Clouds 25 1013 78 16093 2.6 40 06:35 11.04.2020
5101 Clouds 26 1013 78 16093 3.6 30 05:56 11.04.2020
5102 Clouds 26 1012 74 16093 4.1 260 03:42 11.04.2020
5103 Clouds 28 1011 70 16093 5.7 250 02:50 11.04.2020
5104 Clouds 30 1010 55 16093 5.7 260 01:26 11.04.2020
5105 Clouds 32 1009 38 16093 4.1 270 00:54 11.04.2020
5106 Clouds 33 1009 38 16093 4.1 270 00:36 11.04.2020
5107 Clouds 33 1009 38 16093 4.1 270 00:18 11.04.2020
5108 Clouds 33 1009 38 16093 3.1 280 23:41 10.04.2020
5109 Clouds 34 1009 38 16093 3.1 280 23:19 10.04.2020
5110 Clouds 34 1009 38 16093 4.6 260 22:57 10.04.2020
5111 Clouds 34 1009 38 16093 4.6 260 22:37 10.04.2020
5112 Clouds 34 1009 38 16093 4.6 260 22:19 10.04.2020
5113 Clouds 34 1010 41 16093 4.6 280 21:41 10.04.2020
5114 Clouds 34 1010 41 16093 4.6 280 21:21 10.04.2020
5115 Clouds 33 1011 49 16093 5.1 250 20:57 10.04.2020
5116 Clouds 33 1011 49 16093 5.1 250 20:38 10.04.2020
5117 Clouds 33 1011 49 16093 5.1 250 20:19 10.04.2020
5118 Clouds 32 1012 52 16093 4.6 270 19:55 10.04.2020
5119 Clouds 32 1012 52 16093 4.6 270 19:37 10.04.2020
5120 Clouds 32 1012 52 16093 4.6 270 19:18 10.04.2020
5121 Clouds 31 1013 58 16093 5.7 250 18:55 10.04.2020
5122 Clouds 31 1013 58 16093 5.7 250 18:37 10.04.2020
5123 Clouds 30 1013 58 16093 5.7 250 18:18 10.04.2020
5124 Clouds 30 1013 62 16093 5.7 260 17:56 10.04.2020
5125 Clouds 30 1013 62 16093 5.7 260 17:38 10.04.2020
5126 Clouds 29 1013 66 16093 3.6 270 17:18 10.04.2020
5127 Clouds 28 1012 74 16093 4.6 270 16:42 10.04.2020
5128 Clouds 28 1012 78 16093 4.6 250 16:23 10.04.2020
5129 Clouds 27 1012 78 16093 3.6 260 15:58 10.04.2020
5130 Clouds 26 1012 78 16093 3.6 260 15:39 10.04.2020
5131 Clouds 26 1012 78 16093 3.6 260 15:21 10.04.2020
5132 Clouds 25 1011 88 16093 3.6 250 14:58 10.04.2020
5133 Clouds 25 1011 88 16093 3.6 250 14:40 10.04.2020
5134 Clouds 24 1011 88 16093 3.6 250 14:21 10.04.2020
5135 Clouds 24 1011 94 16093 3.6 240 13:49 10.04.2020
5136 Clouds 24 1011 94 16093 3.6 240 13:23 10.04.2020
5137 Mist 24 1011 94 9656 2.6 260 12:59 10.04.2020
5138 Mist 24 1011 94 9656 2.6 260 12:41 10.04.2020
5139 Mist 24 1011 94 9656 2.6 260 12:21 10.04.2020
5140 Clouds 24 1010 94 11265 3.1 250 11:43 10.04.2020
5141 Clouds 24 1010 94 11265 3.1 250 11:24 10.04.2020
5142 Clouds 24 1010 94 12874 3.1 260 10:58 10.04.2020
5143 Clouds 24 1010 94 12874 3.1 260 10:39 10.04.2020
5144 Clouds 24 1010 94 12874 3.1 260 10:21 10.04.2020
5145 Clear 24 1010 88 16093 2.6 260 09:43 10.04.2020
5146 Clear 24 1010 88 16093 2.6 260 09:23 10.04.2020
5147 Clouds 24 1011 88 16093 3.1 250 08:50 10.04.2020
5148 Clouds 24 1011 88 16093 3.1 250 08:27 10.04.2020
5149 Clear 24 1011 94 16093 3.6 280 07:58 10.04.2020
5150 Clear 25 1011 83 16093 3.6 250 07:40 10.04.2020
5151 Clear 25 1011 83 16093 3.6 250 07:21 10.04.2020
5152 Clear 25 1012 83 16093 3.6 250 06:39 10.04.2020
5153 Clear 25 1012 83 16093 3.6 250 06:21 10.04.2020
5154 Clear 26 1012 78 16093 4.6 250 05:33 10.04.2020
5155 Clouds 26 1012 74 16093 4.1 250 04:56 10.04.2020
5156 Clouds 27 1011 65 16093 4.6 260 03:36 10.04.2020
5157 Clouds 27 1011 65 16093 4.6 260 03:36 10.04.2020
5158 Clear 28 1010 62 16093 3.6 250 02:52 10.04.2020
5159 Clear 28 1010 62 16093 3.6 250 02:34 10.04.2020
5160 Clouds 29 1010 55 16093 5.7 250 01:50 10.04.2020
5161 Clouds 30 1010 55 16093 5.7 250 01:28 10.04.2020
5162 Clouds 31 1010 49 16093 5.7 250 00:47 10.04.2020
5163 Clouds 32 1010 49 16093 5.7 250 00:21 10.04.2020
5164 Clouds 33 1010 43 16093 7.2 250 23:44 09.04.2020
5165 Clouds 33 1010 43 16093 7.2 250 23:24 09.04.2020
5166 Clouds 33 1010 41 16093 5.7 220 22:59 09.04.2020
5167 Clouds 33 1010 41 16093 5.7 220 22:40 09.04.2020
5168 Clouds 34 1010 41 16093 5.7 220 22:22 09.04.2020
5169 Clouds 34 1011 38 16093 4.6 260 21:42 09.04.2020
5170 Clouds 34 1011 38 16093 4.6 260 21:24 09.04.2020
5171 Clouds 34 1012 38 16093 4.1 280 20:55 09.04.2020
5172 Clouds 33 1012 38 16093 4.1 280 20:37 09.04.2020
5173 Clouds 33 1012 38 16093 4.1 280 20:18 09.04.2020
5174 Clouds 32 1013 49 16093 4.6 250 19:40 09.04.2020
5175 Clouds 32 1013 49 16093 4.6 250 19:22 09.04.2020
5176 Clouds 31 1014 55 16093 4.6 250 18:42 09.04.2020
5177 Clouds 31 1014 55 16093 4.6 250 18:42 09.04.2020
5178 Clouds 30 1014 55 16093 4.6 250 18:21 09.04.2020
5179 Clouds 29 1014 69 16093 3.1 250 17:58 09.04.2020
5180 Clouds 29 1014 69 16093 3.1 250 17:39 09.04.2020
5181 Clouds 29 1014 69 16093 3.1 250 17:19 09.04.2020
5182 Clouds 27 1014 69 16093 3.1 260 16:40 09.04.2020
5183 Clouds 27 1014 74 16093 3.1 0 16:20 09.04.2020
5184 Clouds 26 1014 83 16093 2.1 240 15:57 09.04.2020
5185 Clouds 25 1014 83 16093 2.1 240 15:38 09.04.2020
5186 Clouds 25 1014 83 16093 2.1 240 15:38 09.04.2020
5187 Clouds 25 1014 83 16093 2.1 240 15:19 09.04.2020
5188 Clouds 24 1014 88 16093 2.6 290 14:56 09.04.2020
5189 Clouds 24 1014 88 16093 2.6 290 14:36 09.04.2020
5190 Clouds 23 1014 88 16093 2.6 290 14:18 09.04.2020
5191 Clouds 23 1013 88 16093 1.5 0 13:42 09.04.2020
5192 Clouds 23 1013 88 16093 1.5 0 13:23 09.04.2020
5193 Clouds 23 1012 88 16093 2.6 260 12:55 09.04.2020
5194 Clouds 23 1012 88 16093 2.6 260 12:36 09.04.2020
5195 Clouds 23 1012 88 16093 2.1 240 12:18 09.04.2020
5196 Clouds 23 1012 88 16093 3.1 260 11:43 09.04.2020
5197 Clouds 23 1012 88 16093 3.1 270 11:20 09.04.2020
5198 Clouds 23 1012 88 16093 3.1 270 11:20 09.04.2020
5199 Clouds 23 1012 88 16093 3.1 260 10:59 09.04.2020
5200 Clouds 23 1012 88 16093 3.1 260 10:41 09.04.2020
5201 Clouds 23 1012 88 16093 3.1 260 10:21 09.04.2020
5202 Clouds 23 1013 83 16093 2.6 250 09:57 09.04.2020
5203 Clouds 23 1013 83 16093 2.6 250 09:39 09.04.2020
5204 Clouds 23 1013 83 16093 2.6 250 09:20 09.04.2020
5205 Clear 23 1014 83 16093 3.1 260 08:44 09.04.2020
5206 Clear 23 1014 83 16093 3.1 260 08:24 09.04.2020
5207 Clear 24 1014 78 16093 3.6 260 07:59 09.04.2020
5208 Clear 24 1014 78 16093 3.6 260 07:36 09.04.2020
5209 Clear 24 1014 78 16093 3.6 260 07:18 09.04.2020
5210 Clear 25 1014 74 16093 4.1 240 06:26 09.04.2020
5211 Clear 25 1015 74 16093 4.1 240 05:46 09.04.2020
5212 Clear 26 1014 65 16093 4.6 240 04:39 09.04.2020
5213 Clouds 28 1013 65 16093 5.1 180 02:33 09.04.2020
5214 Clouds 28 1012 58 16093 5.7 160 01:45 09.04.2020
5215 Clouds 29 1012 58 16093 5.7 160 01:27 09.04.2020
5216 Clouds 29 1012 62 16093 6.7 140 00:44 09.04.2020
5217 Clouds 29 1012 62 16093 6.7 140 00:20 09.04.2020
5218 Clouds 30 1013 58 16093 5.1 140 23:59 08.04.2020
5219 Clouds 30 1013 58 16093 5.1 140 23:41 08.04.2020
5220 Clouds 30 1013 58 16093 5.1 140 23:22 08.04.2020
5221 Clouds 31 1013 58 16093 5.7 120 22:44 08.04.2020
5222 Clouds 31 1013 58 16093 5.7 120 22:24 08.04.2020
5223 Clouds 31 1014 58 16093 4.6 130 21:57 08.04.2020
5224 Clouds 31 1014 58 16093 4.6 130 21:39 08.04.2020
5225 Clouds 31 1014 58 16093 4.6 130 21:21 08.04.2020
5226 Clouds 31 1015 46 16093 2.1 0 20:59 08.04.2020
5227 Clouds 31 1015 46 16093 2.1 0 20:40 08.04.2020
5228 Clouds 31 1015 46 16093 2.1 0 20:20 08.04.2020
5229 Clouds 31 1015 52 16093 2.1 0 19:58 08.04.2020
5230 Clouds 31 1015 52 16093 2.1 0 19:38 08.04.2020
5231 Clouds 31 1016 58 16093 2.1 280 19:20 08.04.2020
5232 Clouds 30 1016 58 16093 2.1 280 18:45 08.04.2020
5233 Clouds 30 1016 58 16093 2.1 280 18:26 08.04.2020
5234 Clouds 29 1016 62 16093 2.1 0 17:56 08.04.2020
5235 Clouds 29 1016 62 16093 2.1 0 17:38 08.04.2020
5236 Clouds 29 1016 69 16093 2.6 240 17:19 08.04.2020
5237 Clouds 28 1016 69 16093 2.6 240 16:43 08.04.2020
5238 Clouds 28 1016 69 16093 2.6 240 16:24 08.04.2020
5239 Clouds 27 1016 69 16093 2.6 240 15:59 08.04.2020
5240 Clear 27 1016 78 16093 1.5 0 15:38 08.04.2020
5241 Clear 26 1016 78 16093 1.5 0 15:20 08.04.2020
5242 Clouds 25 1015 83 16093 3.15 208 14:54 08.04.2020
5243 Clouds 25 1015 83 16093 3.33 208 14:36 08.04.2020
5244 Clouds 24 1015 83 16093 3.33 208 14:18 08.04.2020
5245 Clear 23 1015 88 16093 3.33 208 13:43 08.04.2020
5246 Clear 23 1015 88 16093 3.33 208 13:43 08.04.2020
5247 Clear 23 1015 88 16093 3.33 208 13:21 08.04.2020
5248 Clouds 23 1014 83 16093 3.33 208 12:43 08.04.2020
5249 Clouds 23 1014 83 16093 2.88 165 12:19 08.04.2020
5250 Clouds 24 1014 83 16093 2.88 165 11:59 08.04.2020
5251 Clouds 24 1014 83 16093 2.88 165 11:40 08.04.2020
5252 Clouds 24 1014 83 16093 2.88 165 11:22 08.04.2020
5253 Clouds 24 1015 88 16093 2.88 165 10:57 08.04.2020
5254 Clouds 24 1015 88 16093 2.88 165 10:39 08.04.2020
5255 Clouds 24 1015 88 16093 2.88 165 10:20 08.04.2020
5256 Clouds 24 1015 83 16093 1.5 140 09:56 08.04.2020
5257 Clouds 24 1015 83 16093 1.5 140 09:38 08.04.2020
5258 Clouds 25 1015 83 16093 1.5 140 09:18 08.04.2020
5259 Clouds 25 1016 83 16093 2.6 120 08:42 08.04.2020
5260 Clouds 25 1016 83 16093 2.6 120 08:23 08.04.2020
5261 Clouds 25 1016 83 16093 2.6 120 08:23 08.04.2020
5262 Clouds 25 1017 78 16093 2.6 120 07:57 08.04.2020
5263 Clouds 25 1017 78 16093 2.6 120 07:39 08.04.2020
5264 Clouds 25 1017 78 16093 2.6 120 07:19 08.04.2020
5265 Clouds 25 1017 78 16093 3.6 110 06:21 08.04.2020
5266 Clouds 25 1017 78 16093 4.6 110 04:20 08.04.2020
5267 Clouds 26 1016 74 16093 4.1 130 02:49 08.04.2020
5268 Clouds 26 1016 74 16093 4.1 130 02:21 08.04.2020
5269 Clouds 26 1016 69 16093 5.1 120 01:51 08.04.2020
5270 Clouds 27 1016 69 16093 5.1 120 01:27 08.04.2020
5271 Clouds 27 1016 69 16093 5.7 120 00:41 08.04.2020
5272 Clouds 28 1016 69 16093 5.7 120 00:22 08.04.2020
5273 Clouds 28 1016 62 16093 6.2 110 23:40 07.04.2020
5274 Clouds 28 1016 62 16093 6.2 110 23:21 07.04.2020
5275 Clouds 29 1016 58 16093 6.7 110 22:58 07.04.2020
5276 Clouds 29 1016 58 16093 6.7 110 22:39 07.04.2020
5277 Clouds 29 1016 58 16093 6.7 110 22:20 07.04.2020
5278 Clouds 29 1017 62 16093 5.1 110 21:57 07.04.2020
5279 Clouds 29 1017 62 16093 5.1 110 21:39 07.04.2020
5280 Clouds 29 1017 62 16093 5.1 110 21:20 07.04.2020
5281 Clouds 29 1018 62 16093 5.7 110 20:57 07.04.2020
5282 Clouds 29 1018 62 16093 5.7 110 20:38 07.04.2020
5283 Clouds 29 1018 62 16093 5.7 110 20:20 07.04.2020
5284 Clouds 29 1018 62 16093 5.7 110 20:20 07.04.2020
5285 Clouds 29 1018 58 16093 6.2 90 19:57 07.04.2020
5286 Clouds 29 1018 58 16093 6.2 90 19:37 07.04.2020
5287 Clouds 29 1018 58 16093 6.2 90 19:18 07.04.2020
5288 Clouds 29 1019 62 16093 4.6 120 18:56 07.04.2020
5289 Clouds 29 1019 62 16093 4.6 120 18:38 07.04.2020
5290 Clouds 29 1019 62 16093 5.1 100 18:19 07.04.2020
5291 Clouds 28 1019 62 16093 5.1 100 17:44 07.04.2020
5292 Clouds 28 1019 62 16093 5.1 100 17:21 07.04.2020
5293 -273 0 0 0 0 0 16:47 07.04.2020
5294 Clouds 28 1019 65 16093 4.6 100 16:47 07.04.2020
5295 Clouds 27 1019 69 16093 4.6 80 16:28 07.04.2020
5296 Clouds 27 1019 74 16093 4.1 120 15:57 07.04.2020
5297 Clouds 26 1019 74 16093 4.1 120 15:38 07.04.2020
5298 Clouds 26 1019 69 16093 4.1 110 15:20 07.04.2020
5299 Clouds 25 1018 78 16093 2.6 100 14:41 07.04.2020
5300 Clouds 25 1018 78 16093 2.6 100 14:22 07.04.2020
5301 Clouds 24 1017 83 16093 3.1 90 13:57 07.04.2020
5302 Clouds 24 1017 83 16093 3.1 90 13:37 07.04.2020
5303 Clouds 24 1017 83 16093 3.1 90 13:18 07.04.2020
5304 Clouds 24 1017 83 16093 2.1 70 12:55 07.04.2020
5305 Clouds 24 1017 83 16093 2.1 70 12:36 07.04.2020
5306 Clouds 24 1017 83 16093 2.1 70 12:36 07.04.2020
5307 Clouds 24 1017 83 16093 2.1 70 12:18 07.04.2020
5308 Clouds 24 1017 83 16093 2.1 70 12:18 07.04.2020
5309 Clouds 24 1016 78 16093 3.6 90 11:42 07.04.2020
5310 Clouds 24 1016 78 16093 3.6 90 11:24 07.04.2020
5311 Clouds 24 1017 83 16093 3.1 100 10:58 07.04.2020
5312 Clouds 24 1017 83 16093 3.1 100 10:37 07.04.2020
5313 Clouds 24 1017 83 16093 3.1 100 10:19 07.04.2020
5314 Clouds 24 1017 78 16093 3.6 90 09:45 07.04.2020
5315 Clouds 24 1017 78 16093 3.6 90 09:19 07.04.2020
5316 Clouds 24 1017 78 16093 3.6 100 08:55 07.04.2020
5317 Clouds 24 1017 78 16093 3.6 100 08:36 07.04.2020
5318 Clouds 24 1017 78 16093 3.6 100 08:18 07.04.2020
5319 Clouds 25 1018 74 16093 5.7 90 07:40 07.04.2020
5320 Clouds 25 1018 74 16093 5.7 90 07:21 07.04.2020
5321 Clouds 24 1018 78 16093 4.6 100 06:51 07.04.2020
5322 Clouds 25 1018 78 16093 4.6 100 06:23 07.04.2020
5323 Clouds 24 1018 78 16093 6.2 90 05:40 07.04.2020
5324 Clouds 25 1018 74 16093 6.7 90 04:56 07.04.2020
5325 Clouds 25 1017 83 16093 6.7 90 03:31 07.04.2020
5326 Clouds 25 1016 83 16093 6.2 100 02:59 07.04.2020
5327 Rain 25 1016 78 16093 6.2 70 01:57 07.04.2020
5328 Clouds 25 1016 78 16093 6.2 70 01:29 07.04.2020
5329 Clouds 26 1015 74 16093 8.2 70 00:29 07.04.2020
5330 Clouds 26 1015 74 16093 6.7 70 23:57 06.04.2020
5331 Clouds 26 1015 74 16093 6.7 70 23:38 06.04.2020
5332 Clouds 26 1015 74 16093 6.7 70 23:19 06.04.2020
5333 Clouds 27 1015 69 16093 5.1 70 22:41 06.04.2020
5334 Clouds 27 1015 66 16093 4.6 90 22:22 06.04.2020
5335 Clouds 28 1016 62 16093 6.2 100 21:58 06.04.2020
5336 Clouds 28 1016 62 16093 6.2 100 21:39 06.04.2020
5337 Clouds 28 1016 62 16093 6.2 100 21:19 06.04.2020
5338 Clouds 28 1016 62 16093 2.6 0 20:55 06.04.2020
5339 Clouds 28 1016 62 16093 2.6 0 20:55 06.04.2020
5340 Clouds 28 1016 62 16093 2.6 0 20:37 06.04.2020
5341 Clouds 28 1016 62 16093 2.6 0 20:19 06.04.2020
5342 Clouds 28 1016 66 16093 3.6 90 19:41 06.04.2020
5343 Clouds 28 1017 69 16093 4.1 70 19:23 06.04.2020
5344 Clouds 28 1017 69 16093 3.1 0 18:59 06.04.2020
5345 Clouds 28 1017 69 16093 3.1 0 18:40 06.04.2020
5346 Clouds 28 1017 69 16093 3.1 0 18:22 06.04.2020
5347 Clouds 27 1017 69 16093 1.25 317 17:55 06.04.2020
5348 Clouds 27 1017 69 16093 1.25 317 17:36 06.04.2020
5349 Clouds 27 1017 69 16093 1.25 317 17:18 06.04.2020
5350 Clouds 26 1017 78 16093 1.25 317 16:44 06.04.2020
5351 Clouds 26 1017 78 16093 1.25 317 16:26 06.04.2020
5352 Clouds 24 1016 88 16093 2.1 40 14:44 06.04.2020
5353 Clouds 24 1016 88 16093 2.1 40 14:44 06.04.2020
5354 Clouds 24 1016 88 16093 2.1 40 14:44 06.04.2020
5355 Clouds 24 1016 88 16093 2.1 40 14:44 06.04.2020
5356 Clouds 24 1016 88 16093 2.1 40 14:44 06.04.2020
5357 Clouds 23 1015 88 16093 1.5 40 13:43 06.04.2020
5358 Clouds 23 1015 88 16093 2.1 40 13:20 06.04.2020
5359 Rain 23 1015 94 16093 2.1 40 12:26 06.04.2020
5360 Rain 23 1015 94 16093 2.1 40 12:26 06.04.2020
5361 Rain 23 1015 94 16093 2.1 40 12:26 06.04.2020
5362 Rain 23 1015 94 16093 2.1 40 12:26 06.04.2020
5363 Rain 23 1015 94 16093 2.1 40 12:26 06.04.2020
5364 Rain 23 1015 94 16093 2.1 40 11:56 06.04.2020
5365 Rain 23 1015 88 16093 2.6 10 11:34 06.04.2020
5366 Rain 23 1015 88 16093 2.6 10 11:34 06.04.2020
5367 Rain 23 1015 88 16093 2.6 10 11:34 06.04.2020
5368 Clouds 23 1015 88 16093 3.31 222 10:52 06.04.2020
5369 Clouds 23 1015 88 16093 3.31 222 10:52 06.04.2020
5370 Clouds 23 1015 88 16093 3.31 222 10:52 06.04.2020
5371 Clouds 23 1015 88 16093 3.31 222 10:52 06.04.2020
5372 Clouds 23 1015 88 16093 3.31 222 10:52 06.04.2020
5373 Clouds 23 1015 88 16093 3.31 222 10:22 06.04.2020
5374 Clouds 23 1015 88 16093 3.31 222 10:22 06.04.2020
5375 Clouds 23 1015 88 16093 3.31 222 09:51 06.04.2020
5376 Clouds 23 1015 88 16093 3.31 222 09:51 06.04.2020
5377 Clouds 23 1015 94 16093 1.5 340 09:23 06.04.2020
5378 Clouds 23 1015 88 16093 2.6 300 08:55 06.04.2020
5379 Clouds 23 1015 78 16093 3.84 177 08:33 06.04.2020
5380 Clouds 23 1015 78 16093 3.84 177 07:54 06.04.2020
5381 Clouds 23 1016 73 16093 2.1 240 06:57 06.04.2020
5382 Clouds 23 1016 73 16093 1.5 260 06:25 06.04.2020
5383 Clouds 24 1016 73 16093 1.5 280 04:50 06.04.2020
5384 Clouds 24 1016 73 16093 1.5 280 04:50 06.04.2020
5385 Clouds 24 1015 65 16093 2.6 170 03:27 06.04.2020
5386 Rain 25 1014 65 16093 4.1 160 02:48 06.04.2020
5387 Rain 25 1014 65 16093 6.2 170 01:49 06.04.2020
5388 Clouds 26 1014 57 16093 5.1 150 00:46 06.04.2020
5389 Clouds 27 1014 57 16093 5.1 150 00:25 06.04.2020
5390 Clouds 27 1014 54 16093 5.7 140 23:47 05.04.2020
5391 Clouds 27 1014 54 16093 5.7 140 23:29 05.04.2020
5392 Clouds 27 1014 54 16093 5.7 140 23:29 05.04.2020
5393 Clouds 27 1014 54 16093 5.7 140 23:29 05.04.2020
5394 Clouds 28 1014 54 16093 5.7 140 22:56 05.04.2020
5395 Clouds 28 1014 58 16093 5.7 130 22:38 05.04.2020
5396 Clouds 28 1014 58 16093 5.7 130 22:19 05.04.2020
5397 Clouds 28 1014 58 16093 5.7 130 21:57 05.04.2020
5398 Clouds 28 1015 58 16093 4.1 140 21:39 05.04.2020
5399 Clouds 28 1015 58 16093 4.1 140 21:20 05.04.2020
5400 Clouds 28 1015 58 16093 4.1 140 21:20 05.04.2020
5401 Clouds 28 1015 58 16093 4.1 140 21:20 05.04.2020
5402 Clouds 28 1015 58 16093 4.1 140 21:20 05.04.2020
5403 Clouds 28 1015 54 16093 5.1 140 20:20 05.04.2020
5404 Clouds 28 1015 54 16093 5.1 140 20:20 05.04.2020
5405 Clouds 28 1015 54 16093 5.1 140 20:20 05.04.2020
5406 Clouds 28 1017 61 16093 4.1 140 19:40 05.04.2020
5407 Clouds 28 1017 61 16093 4.1 140 19:22 05.04.2020
5408 Clouds 28 1017 61 16093 4.1 140 19:22 05.04.2020
5409 Clouds 28 1017 54 16093 2.6 190 18:45 05.04.2020
5410 Clouds 28 1017 54 16093 2.6 190 18:45 05.04.2020
5411 Clouds 28 1017 54 16093 2.6 190 17:58 05.04.2020
5412 Clouds 28 1017 54 16093 2.6 190 17:58 05.04.2020
5413 Clouds 28 1017 54 16093 2.6 190 17:58 05.04.2020
5414 Clouds 28 1016 61 16093 3.6 180 17:39 05.04.2020
5415 Clouds 27 1016 61 16093 3.6 180 17:20 05.04.2020
5416 Clouds 27 1016 57 16093 2.1 180 16:41 05.04.2020
5417 Clouds 27 1016 57 16093 2.1 180 16:41 05.04.2020
5418 Clouds 27 1016 57 16093 2.1 180 16:41 05.04.2020
5419 Clouds 27 1016 57 16093 2.1 180 16:41 05.04.2020
5420 Clouds 27 1016 57 16093 2.1 180 16:41 05.04.2020
5421 Clouds 27 1016 57 16093 2.1 180 16:18 05.04.2020
5422 Clouds 26 1015 65 16093 1.5 150 15:43 05.04.2020
5423 Clouds 26 1015 65 16093 1.5 150 15:24 05.04.2020
5424 Clouds 24 1015 73 16093 2.48 187 14:47 05.04.2020
5425 Clouds 24 1015 73 16093 2.48 187 14:47 05.04.2020
5426 Clouds 24 1015 73 16093 2.48 187 14:47 05.04.2020
5427 Clouds 24 1015 73 16093 2.48 187 14:47 05.04.2020
5428 Clouds 24 1015 73 16093 2.48 187 14:47 05.04.2020
5429 Clouds 22 1014 78 16093 2.29 188 13:44 05.04.2020
5430 Clouds 22 1014 78 16093 2.29 188 12:56 05.04.2020
5431 Clouds 22 1013 73 16093 2.61 180 11:58 05.04.2020
5432 Clouds 22 1013 73 16093 2.61 180 11:57 05.04.2020
5433 Clouds 22 1013 73 16093 2.61 180 11:57 05.04.2020
5434 Clouds 22 1013 73 16093 2.61 180 11:57 05.04.2020
5435 Clouds 22 1013 73 16093 2.61 180 11:37 05.04.2020
5436 Clouds 22 1013 73 16093 2.61 180 11:18 05.04.2020
5437 Clouds 22 1013 73 16093 2.61 180 10:42 05.04.2020
5438 Clouds 22 1013 73 16093 2.61 180 10:19 05.04.2020
5439 Clouds 23 1014 73 16093 1.5 110 09:44 05.04.2020
5440 Clouds 23 1014 73 16093 1.5 110 09:24 05.04.2020
5441 Clouds 23 1014 73 16093 1.5 110 09:24 05.04.2020
5442 Clouds 23 1014 73 16093 1.5 110 09:24 05.04.2020
5443 Clouds 23 1014 73 16093 1.5 110 09:24 05.04.2020
5444 Clouds 23 1014 73 16093 1.5 110 09:24 05.04.2020
5445 Clouds 23 1015 69 16093 3.25 159 07:44 05.04.2020
5446 Clouds 23 1015 69 16093 3.25 159 07:44 05.04.2020
5447 Clouds 24 1015 64 16093 2.6 160 04:40 05.04.2020
5448 Clouds 25 1015 61 16093 3.1 170 03:34 05.04.2020
5449 Clouds 25 1015 61 16093 3.1 170 02:52 05.04.2020
5450 Clouds 25 1013 57 16093 5.1 160 01:48 05.04.2020
5451 Clouds 25 1013 57 16093 5.1 160 01:30 05.04.2020
5452 Clouds 25 1013 57 16093 5.1 160 01:30 05.04.2020
5453 Clouds 26 1013 54 16093 5.1 140 00:46 05.04.2020
5454 Clouds 27 1013 54 16093 5.1 140 00:22 05.04.2020
5455 Clouds 27 1013 54 16093 5.1 140 23:56 04.04.2020
5456 Clouds 27 1013 54 16093 5.1 140 23:37 04.04.2020
5457 Clouds 27 1013 54 16093 5.1 140 23:19 04.04.2020
5458 Clouds 28 1013 51 16093 5.7 150 22:41 04.04.2020
5459 Clouds 28 1013 51 16093 5.7 150 22:22 04.04.2020
5460 Clouds 28 1013 51 16093 5.7 150 21:59 04.04.2020
5461 Clouds 28 1014 54 16093 6.2 110 21:40 04.04.2020
5462 Clouds 29 1014 54 16093 6.2 110 21:20 04.04.2020
5463 Clouds 28 1014 54 16093 6.2 110 20:59 04.04.2020
5464 Clouds 28 1014 48 16093 3.1 180 20:41 04.04.2020
5465 Clouds 29 1014 48 16093 3.1 180 20:22 04.04.2020
5466 Clouds 28 1014 48 16093 3.1 180 19:58 04.04.2020
5467 Clouds 28 1015 51 16093 3.1 0 19:37 04.04.2020
5468 Clouds 28 1015 51 16093 3.1 0 19:19 04.04.2020
5469 Clouds 28 1015 51 16093 3.1 0 18:57 04.04.2020
5470 Clouds 28 1016 48 16093 1.5 130 18:38 04.04.2020
5471 Clouds 28 1016 48 16093 1.5 130 18:19 04.04.2020
5472 Clouds 28 1016 48 16093 1.5 130 17:56 04.04.2020
5473 Clouds 27 1016 54 16093 1.5 0 17:38 04.04.2020
5474 Clouds 27 1016 54 16093 1.5 0 17:38 04.04.2020
5475 Clouds 27 1016 54 16093 1.5 0 17:18 04.04.2020
5476 Clouds 26 1016 57 16093 0.19 209 16:42 04.04.2020
5477 Clouds 26 1016 57 16093 0.77 159 16:42 04.04.2020
5478 Clouds 26 1016 57 16093 0.19 209 16:22 04.04.2020
5479 Clouds 25 1016 57 16093 0.19 209 15:55 04.04.2020
5480 Clouds 25 1015 64 16093 0.19 209 15:37 04.04.2020
5481 Clouds 24 1015 64 16093 1.65 191 15:18 04.04.2020
5482 Clouds 23 1015 73 16093 1.5 290 14:43 04.04.2020
5483 Clouds 22 1015 73 16093 1.5 290 14:23 04.04.2020
5484 Clear 21 1015 77 16093 2.1 320 13:56 04.04.2020
5485 Clear 20 1015 77 16093 2.1 320 13:38 04.04.2020
5486 Clouds 20 1014 69 16093 1.49 173 13:19 04.04.2020
5487 Clouds 20 1014 69 16093 1.49 173 13:19 04.04.2020
5488 Clouds 20 1014 69 16093 1.49 173 13:19 04.04.2020
5489 Clouds 21 1013 69 16093 1.49 173 12:45 04.04.2020
5490 Clouds 21 1013 69 16093 1.49 173 12:26 04.04.2020
5491 Clouds 21 1013 69 16093 2.08 197 11:59 04.04.2020
5492 Clouds 21 1013 69 16093 2.1 190 11:39 04.04.2020
5493 Clouds 22 1013 69 16093 2.1 190 11:20 04.04.2020
5494 Clouds 22 1013 69 16093 2.1 190 10:56 04.04.2020
5495 Clouds 22 1014 69 16093 2.08 197 10:38 04.04.2020
5496 Clouds 22 1014 69 16093 2.08 197 10:19 04.04.2020
5497 Clouds 22 1014 69 16093 2.08 197 09:55 04.04.2020
5498 Clouds 22 1014 69 16093 2.1 190 09:37 04.04.2020
5499 Clouds 22 1014 69 16093 2.1 190 09:37 04.04.2020
5500 Clouds 22 1014 69 16093 2.1 190 09:18 04.04.2020
5501 Clouds 22 1015 69 16093 1.38 168 08:42 04.04.2020
5502 Clouds 22 1015 69 16093 1.38 168 08:21 04.04.2020
5503 Clouds 22 1015 64 16093 1.38 168 07:47 04.04.2020
5504 Clouds 22 1015 64 16093 1.38 168 07:27 04.04.2020
5505 Clouds 22 1015 64 16093 1.38 168 06:56 04.04.2020
5506 Clouds 22 1015 64 16093 1.5 160 06:20 04.04.2020
5507 Clouds 23 1015 60 16093 2.1 110 05:43 04.04.2020
5508 Clouds 23 1015 60 16093 2.1 110 05:24 04.04.2020
5509 Clear 23 1015 64 16093 2.1 140 04:33 04.04.2020
5510 Clear 23 1015 64 16093 2.1 140 03:55 04.04.2020
5511 Clear 23 1015 64 16093 2.6 120 03:22 04.04.2020
5512 Clouds 24 1015 57 16093 4.1 90 02:38 04.04.2020
5513 Clouds 24 1015 57 16093 4.1 90 02:20 04.04.2020
5514 Clouds 24 1014 53 16093 3.6 140 01:26 04.04.2020
5515 Clouds 25 1014 53 16093 3.6 140 00:52 04.04.2020
5516 Clouds 26 1014 50 16093 4.6 110 00:30 04.04.2020
5517 Clouds 27 1014 47 16093 5.1 120 23:41 03.04.2020
5518 Clouds 27 1014 47 16093 5.1 120 23:41 03.04.2020
5519 Clouds 27 1014 47 16093 5.1 120 23:22 03.04.2020
5520 Clouds 27 1014 47 16093 5.1 120 22:59 03.04.2020
5521 Clouds 27 1014 51 16093 4.6 130 22:40 03.04.2020
5522 Clouds 27 1014 51 16093 4.6 130 22:19 03.04.2020
5523 Clouds 27 1014 51 16093 3.1 100 21:45 03.04.2020
5524 Clouds 28 1014 51 16093 3.1 100 21:27 03.04.2020
5525 Clouds 27 1014 51 16093 3.1 100 20:59 03.04.2020
5526 Clouds 28 1015 45 16093 6.2 90 20:40 03.04.2020
5527 Clouds 27 1015 45 16093 6.2 90 20:22 03.04.2020
5528 Clouds 27 1015 45 16093 6.2 90 19:58 03.04.2020
5529 Clouds 28 1016 42 16093 2.6 110 19:40 03.04.2020
5530 Clouds 27 1016 42 16093 2.6 110 19:21 03.04.2020
5531 Clouds 27 1016 42 16093 2.6 110 19:00 03.04.2020
5532 Clouds 27 1016 42 16093 3.14 105 18:41 03.04.2020
5533 Clouds 27 1016 42 16093 3.14 105 18:23 03.04.2020
5534 Clouds 26 1016 42 16093 2.82 83 17:58 03.04.2020
5535 Clouds 26 1017 42 16093 3.6 40 17:39 03.04.2020
5536 Clouds 26 1017 42 16093 3.6 40 17:19 03.04.2020
5537 Clouds 26 1016 47 16093 2.1 0 16:46 03.04.2020
5538 Clouds 25 1016 47 16093 2.1 0 16:22 03.04.2020
5539 Clouds 25 1016 47 16093 2.1 0 15:59 03.04.2020
5540 Clouds 24 1016 60 16093 3.6 60 15:40 03.04.2020
5541 Clouds 23 1016 60 16093 3.6 60 15:22 03.04.2020
5542 Clear 23 1015 73 16093 2.84 69 14:56 03.04.2020
5543 Clouds 22 1015 66 0 2.84 69 14:38 03.04.2020
5544 Clouds 21 1015 68 16093 2.1 40 14:20 03.04.2020
5545 Clouds 20 1015 68 16093 2.1 40 13:45 03.04.2020
5546 Clouds 20 1015 68 16093 2.1 40 13:26 03.04.2020
5547 Clouds 21 1015 68 16093 2.1 40 12:56 03.04.2020
5548 Clouds 21 1014 64 16093 1.5 30 12:37 03.04.2020
5549 Clouds 21 1014 64 16093 1.5 30 12:18 03.04.2020
5550 Clouds 21 1014 64 16093 1.5 30 11:55 03.04.2020
5551 Clouds 21 1014 64 16093 2.1 90 11:37 03.04.2020
5552 Clouds 21 1014 64 16093 2.1 90 11:18 03.04.2020
5553 Clouds 21 1014 64 16093 2.1 90 10:56 03.04.2020
5554 Clouds 21 1014 64 16093 2.1 110 10:37 03.04.2020
5555 Clouds 21 1014 64 16093 2.1 110 10:37 03.04.2020
5556 Clouds 21 1014 64 16093 2.1 110 10:18 03.04.2020
5557 Clouds 21 1014 64 16093 2.1 110 09:54 03.04.2020
5558 Clouds 21 1014 64 16093 2.6 100 09:36 03.04.2020
5559 Clouds 22 1014 64 16093 2.6 100 09:18 03.04.2020
5560 Clouds 22 1015 64 16093 2.1 100 08:41 03.04.2020
5561 Clouds 22 1015 64 16093 2.1 100 08:22 03.04.2020
5562 Clouds 22 1015 60 16093 2.1 130 07:50 03.04.2020
5563 Clouds 22 1015 60 16093 2.1 130 07:32 03.04.2020
5564 Clouds 22 1015 60 16093 2.1 130 06:55 03.04.2020
5565 Clear 22 1015 60 16093 2.6 120 06:25 03.04.2020
5566 Clouds 22 1015 60 16093 3.6 100 05:42 03.04.2020
5567 Clouds 22 1015 60 16093 3.1 120 03:47 03.04.2020
5568 Clouds 22 1015 60 16093 3.1 120 03:29 03.04.2020
5569 Clouds 23 1014 56 16093 3.1 100 02:29 03.04.2020
5570 Clouds 24 1014 53 16093 4.6 110 01:24 03.04.2020
5571 Clouds 25 1013 47 16093 3.1 90 00:41 03.04.2020
5572 Clouds 25 1013 47 16093 3.1 90 00:20 03.04.2020
5573 Clouds 26 1013 44 16093 5.7 120 23:42 02.04.2020
5574 Clouds 26 1013 44 16093 5.7 120 23:42 02.04.2020
5575 Clouds 26 1013 44 16093 5.7 120 23:23 02.04.2020
5576 Clouds 26 1013 44 16093 5.7 120 22:59 02.04.2020
5577 Clouds 26 1013 44 16093 3.6 120 22:41 02.04.2020
5578 Clouds 27 1013 44 16093 3.6 120 22:20 02.04.2020
5579 Clouds 27 1013 44 16093 3.6 120 21:55 02.04.2020
5580 Clouds 27 1014 44 16093 6.2 90 21:36 02.04.2020
5581 Clouds 27 1014 44 16093 6.2 90 21:18 02.04.2020
5582 Clouds 27 1015 42 16093 3.1 360 20:42 02.04.2020
5583 Clouds 27 1015 42 16093 3.1 360 20:23 02.04.2020
5584 Clouds 26 1015 42 16093 3.1 360 19:55 02.04.2020
5585 Clouds 26 1015 44 16093 3.1 70 19:37 02.04.2020
5586 Clouds 26 1015 44 16093 3.1 70 19:18 02.04.2020
5587 Clouds 26 1016 42 16093 2.1 0 18:41 02.04.2020
5588 Clouds 26 1016 42 16093 2.1 0 18:21 02.04.2020
5589 Clouds 26 1016 42 16093 2.1 0 18:21 02.04.2020
5590 Clouds 25 1016 42 16093 2.1 0 17:57 02.04.2020
5591 Clouds 25 1016 47 16093 3.1 70 17:39 02.04.2020
5592 Clouds 25 1016 47 16093 3.1 70 17:20 02.04.2020
5593 Clouds 25 1016 47 16093 3.1 70 16:56 02.04.2020
5594 Clouds 24 1016 57 16093 3.1 30 16:38 02.04.2020
5595 Clouds 24 1016 57 16093 3.1 30 16:20 02.04.2020
5596 Clouds 23 1016 57 16093 3.1 30 15:54 02.04.2020
5597 Clouds 22 1015 60 16093 2.1 0 15:36 02.04.2020
5598 Clouds 22 1015 60 16093 2.1 0 15:18 02.04.2020
5599 Clouds 20 1015 68 16093 1.5 10 14:40 02.04.2020
5600 Clouds 19 1015 68 16093 1.5 10 14:21 02.04.2020
5601 Clouds 18 1015 68 16093 1.5 10 13:58 02.04.2020
5602 Clouds 18 1014 82 16093 1.5 0 13:39 02.04.2020
5603 Clouds 17 1014 82 16093 1.5 0 13:21 02.04.2020
5604 Clouds 18 1014 82 16093 1.5 0 12:56 02.04.2020
5605 Clouds 18 1013 82 16093 4.78 34 12:38 02.04.2020
5606 Clouds 18 1013 82 16093 5.08 38 12:19 02.04.2020
5607 Clouds 18 1013 82 16093 5.08 38 12:19 02.04.2020
5608 Clouds 19 1013 82 16093 2.1 320 11:57 02.04.2020
5609 Clouds 19 1013 82 16093 2.1 320 11:38 02.04.2020
5610 Clouds 19 1013 82 16093 2.1 320 11:19 02.04.2020
5611 Clouds 20 1013 82 16093 2.1 320 10:55 02.04.2020
5612 Clouds 20 1013 73 16093 2.1 330 10:37 02.04.2020
5613 Clouds 20 1013 73 16093 2.1 330 10:37 02.04.2020
5614 Clouds 20 1013 73 16093 2.1 330 10:19 02.04.2020
5615 Clouds 21 1013 68 16093 5.08 38 09:43 02.04.2020
5616 Clouds 20 1013 68 16093 4.65 33 09:25 02.04.2020
5617 Clouds 21 1013 68 16093 4.86 43 08:59 02.04.2020
5618 Clouds 21 1013 73 16093 2.1 20 08:40 02.04.2020
5619 Clouds 21 1013 73 16093 2.1 20 08:22 02.04.2020
5620 Clouds 21 1013 73 16093 1.5 20 07:45 02.04.2020
5621 Clouds 21 1013 73 16093 1.5 20 07:20 02.04.2020
5622 Clouds 21 1013 73 16093 1.5 20 06:58 02.04.2020
5623 Clouds 21 1013 69 16093 2.6 20 06:21 02.04.2020
5624 Clear 22 1013 64 16093 2.6 40 05:45 02.04.2020
5625 Clear 22 1012 64 16093 2.6 50 04:35 02.04.2020
5626 Clouds 24 1010 54 16093 4.1 40 01:51 02.04.2020
5627 Clouds 28 1009 35 16093 3.1 0 00:48 02.04.2020
5628 Clouds 28 1009 35 16093 3.1 0 00:27 02.04.2020
5629 Clouds 29 1009 35 16093 3.1 0 23:55 01.04.2020
5630 Clouds 29 1008 30 16093 3.1 300 23:37 01.04.2020
5631 Clouds 30 1008 30 16093 3.1 300 23:18 01.04.2020
5632 Clouds 30 1008 29 16093 4.1 270 22:40 01.04.2020
5633 Clouds 30 1008 29 16093 4.1 270 22:22 01.04.2020
5634 Clouds 30 1008 29 16093 4.1 270 21:55 01.04.2020
5635 Clouds 29 1009 33 16093 5.1 270 21:37 01.04.2020
5636 Clouds 29 1009 33 16093 5.1 270 21:18 01.04.2020
5637 Clouds 29 1009 33 16093 5.1 270 20:54 01.04.2020
5638 Clouds 29 1009 33 16093 5.1 270 20:54 01.04.2020
5639 Clouds 29 1009 45 16093 6.2 320 20:36 01.04.2020
5640 Clouds 28 1009 45 16093 6.2 320 20:18 01.04.2020
5641 Clouds 28 1010 58 16093 5.7 320 19:42 01.04.2020
5642 Clouds 28 1010 58 16093 5.7 320 19:22 01.04.2020
5643 Clouds 27 1010 58 16093 5.7 320 18:56 01.04.2020
5644 Clouds 27 1010 58 16093 5.7 320 18:56 01.04.2020
5645 Clouds 27 1010 61 16093 5.1 300 18:38 01.04.2020
5646 Clouds 27 1010 61 16093 5.1 300 18:38 01.04.2020
5647 Clouds 27 1010 61 16093 5.1 300 18:20 01.04.2020
5648 Clouds 26 1010 61 16093 5.1 300 17:55 01.04.2020
5649 Rain 26 1010 78 16093 3.1 280 17:36 01.04.2020
5650 Rain 26 1010 78 16093 3.1 280 17:18 01.04.2020
5651 Rain 26 1010 78 16093 3.1 280 17:18 01.04.2020
5652 Rain 25 1010 88 6437 3.1 240 16:42 01.04.2020
5653 Rain 25 1010 88 6437 3.1 240 16:42 01.04.2020
5654 Rain 24 1010 88 6437 3.1 240 16:24 01.04.2020
5655 Rain 24 1010 88 6437 3.1 240 15:59 01.04.2020
5656 Rain 24 1010 88 16093 3.1 290 15:41 01.04.2020
5657 Rain 23 1010 88 16093 3.1 290 15:21 01.04.2020
5658 Rain 23 1010 88 16093 3.1 290 14:57 01.04.2020
5659 Rain 23 1009 88 16093 3.6 260 14:38 01.04.2020
5660 Rain 23 1009 88 16093 3.6 260 14:38 01.04.2020
5661 Rain 22 1009 88 16093 3.6 260 14:19 01.04.2020
5662 Rain 22 1009 88 16093 3.6 260 14:19 01.04.2020
5663 Rain 22 1009 88 16093 3.6 260 13:58 01.04.2020
5664 Rain 22 1009 88 9656 3.6 290 13:38 01.04.2020
5665 Rain 22 1009 88 9656 3.6 290 13:19 01.04.2020
5666 Rain 23 1009 88 9656 3.6 290 12:55 01.04.2020
5667 Rain 23 1008 88 9656 5.1 280 12:36 01.04.2020
5668 Clouds 24 1008 83 16093 5.1 250 12:18 01.04.2020
5669 Clouds 24 1007 83 16093 4.6 240 11:42 01.04.2020
5670 Clouds 24 1007 83 16093 4.6 240 11:23 01.04.2020
5671 Clear 24 1007 83 16093 4.6 230 10:58 01.04.2020
5672 Clear 24 1007 83 16093 4.6 230 10:38 01.04.2020
5673 Clear 24 1007 83 16093 4.6 230 10:19 01.04.2020
5674 Clear 24 1007 83 16093 4.6 230 09:57 01.04.2020
5675 Clear 24 1008 83 16093 5.1 240 09:39 01.04.2020
5676 Clear 24 1008 83 16093 5.1 240 09:18 01.04.2020
5677 Clouds 24 1009 88 16093 3.6 230 08:41 01.04.2020
5678 Clouds 24 1009 88 16093 3.6 230 08:18 01.04.2020
5679 Clouds 24 1009 88 16093 3.6 240 07:44 01.04.2020
5680 Clouds 24 1009 88 16093 3.6 240 07:21 01.04.2020
5681 Clouds 24 1010 88 16093 3.6 250 06:48 01.04.2020
5682 Clouds 24 1010 88 16093 3.6 250 06:26 01.04.2020
5683 Clouds 25 1010 88 16093 3.6 250 05:58 01.04.2020
5684 Clouds 25 1011 78 16093 5.1 250 04:33 01.04.2020
5685 Clouds 26 1010 69 16093 5.1 250 03:32 01.04.2020
5686 Clouds 26 1010 69 16093 5.1 250 02:56 01.04.2020
5687 Clouds 28 1010 61 16093 6.2 240 01:59 01.04.2020
5688 Clouds 28 1009 54 16093 5.1 260 01:39 01.04.2020
5689 Clouds 29 1009 54 16093 5.1 260 01:18 01.04.2020
5690 Clouds 30 1009 48 16093 7.2 260 00:46 01.04.2020
5691 Clouds 31 1009 48 16093 7.2 260 00:21 01.04.2020
5692 Clouds 31 1009 43 16093 5.1 260 23:42 31.03.2020
5693 Clouds 32 1009 43 16093 5.1 260 23:23 31.03.2020
5694 Clouds 32 1010 41 16093 7.2 240 22:58 31.03.2020
5695 Clouds 32 1010 41 16093 7.2 240 22:37 31.03.2020
5696 Clouds 32 1010 41 16093 7.2 240 22:19 31.03.2020
5697 Clouds 31 1011 43 16093 4.1 250 21:56 31.03.2020
5698 Clouds 31 1011 43 16093 4.1 250 21:38 31.03.2020
5699 Clouds 32 1011 43 16093 4.1 250 21:19 31.03.2020
5700 Clouds 32 1012 46 16093 5.7 230 20:55 31.03.2020
5701 Clouds 31 1012 46 16093 5.7 230 20:36 31.03.2020
5702 Clouds 31 1012 46 16093 5.7 230 20:18 31.03.2020
5703 Clouds 31 1013 45 16093 4.6 200 19:42 31.03.2020
5704 Clouds 31 1013 45 16093 4.6 200 19:23 31.03.2020
5705 Clouds 30 1013 45 16093 4.6 200 18:58 31.03.2020
5706 Clouds 30 1014 51 16093 4.1 210 18:39 31.03.2020
5707 Clouds 30 1014 51 16093 4.1 210 18:18 31.03.2020
5708 Clouds 29 1014 54 16093 5.1 160 17:55 31.03.2020
5709 Clouds 29 1014 54 16093 5.1 160 17:37 31.03.2020
5710 Clouds 28 1014 54 16093 5.1 160 17:18 31.03.2020
5711 Clouds 28 1014 69 16093 4.6 190 16:40 31.03.2020
5712 Clouds 27 1014 69 16093 4.6 190 16:19 31.03.2020
5713 Clouds 27 1014 69 16093 4.6 190 15:57 31.03.2020
5714 Clouds 26 1015 74 16093 3.1 210 15:39 31.03.2020
5715 Clouds 26 1015 74 16093 3.1 210 15:20 31.03.2020
5716 Clouds 25 1015 74 16093 3.1 210 14:57 31.03.2020
5717 Clouds 24 1015 88 16093 3.06 205 14:38 31.03.2020
5718 Clouds 23 1015 88 16093 3.06 205 14:20 31.03.2020
5719 Clouds 23 1015 94 16093 3.21 205 13:43 31.03.2020
5720 Clouds 22 1015 94 16093 3.21 205 13:19 31.03.2020
5721 Clouds 22 1015 94 16093 3.21 205 13:19 31.03.2020
5722 Clouds 23 1015 94 16093 3.21 205 12:56 31.03.2020
5723 Clouds 23 1014 94 16093 3.21 205 12:38 31.03.2020
5724 Clouds 22 1014 94 16093 2.63 196 12:19 31.03.2020
5725 Clouds 23 1015 88 16093 2.63 196 11:39 31.03.2020
5726 Clouds 23 1015 88 16093 2.63 196 11:20 31.03.2020
5727 Clouds 23 1015 88 16093 2.63 196 10:58 31.03.2020
5728 Clouds 23 1015 88 16093 1.5 270 10:40 31.03.2020
5729 Clouds 23 1015 88 16093 1.5 270 10:21 31.03.2020
5730 Clouds 23 1015 88 16093 1.5 270 09:56 31.03.2020
5731 Clouds 23 1015 88 16093 2.63 196 09:37 31.03.2020
5732 Clouds 23 1015 88 16093 2.7 166 09:19 31.03.2020
5733 Clouds 23 1015 88 16093 2.7 166 08:56 31.03.2020
5734 Clouds 23 1015 88 16093 2.7 166 08:38 31.03.2020
5735 Clouds 23 1015 88 16093 2.7 166 08:19 31.03.2020
5736 Clouds 24 1015 88 16093 2.7 166 07:55 31.03.2020
5737 Clouds 24 1015 88 16093 2.7 166 07:55 31.03.2020
5738 Clear 24 1016 88 16093 1.5 160 07:37 31.03.2020
5739 Clear 24 1016 88 16093 1.5 160 07:18 31.03.2020
5740 Clouds 24 1017 88 16093 1.5 150 06:42 31.03.2020
5741 Clouds 24 1017 88 16093 1.5 150 05:57 31.03.2020
5742 Clouds 25 1017 83 16093 2.6 130 05:38 31.03.2020
5743 Clouds 25 1017 78 16093 3.6 140 03:27 31.03.2020
5744 Clouds 26 1017 78 16093 4.6 140 01:52 31.03.2020
5745 Clouds 26 1016 74 16093 5.7 130 01:33 31.03.2020
5746 Clouds 26 1016 74 16093 5.7 130 01:33 31.03.2020
5747 Clouds 28 1017 69 16093 5.7 120 00:46 31.03.2020
5748 Clouds 28 1017 69 16093 5.7 120 00:24 31.03.2020
5749 Clouds 29 1017 62 16093 5.1 140 23:41 30.03.2020
5750 Clouds 29 1017 62 16093 5.1 140 23:20 30.03.2020
5751 Clouds 29 1017 62 16093 5.1 140 22:58 30.03.2020
5752 Clouds 30 1017 58 16093 4.6 130 22:39 30.03.2020
5753 Clouds 30 1017 58 16093 4.6 130 22:20 30.03.2020
5754 Clouds 30 1017 58 16093 4.6 130 21:58 30.03.2020
5755 Clouds 30 1018 55 16093 4.6 120 21:39 30.03.2020
5756 Clouds 30 1018 55 16093 4.6 120 21:39 30.03.2020
5757 Clouds 30 1018 55 16093 4.6 120 21:20 30.03.2020
5758 Clouds 30 1018 55 16093 4.6 120 21:20 30.03.2020
5759 Clouds 30 1018 55 16093 4.6 120 20:59 30.03.2020
5760 Clouds 30 1019 58 16093 3.61 137 20:39 30.03.2020
5761 Clouds 30 1019 58 16093 3.61 137 20:39 30.03.2020
5762 Clouds 30 1019 58 16093 3.61 137 20:20 30.03.2020
5763 Clouds 30 1019 58 16093 3.61 137 19:57 30.03.2020
5764 Clouds 30 1020 58 16093 4.1 150 19:39 30.03.2020
5765 Clouds 30 1020 58 16093 4.1 150 19:20 30.03.2020
5766 Clouds 29 1021 58 16093 3.6 140 18:43 30.03.2020
5767 Clouds 29 1021 58 16093 3.6 140 18:25 30.03.2020
5768 Clouds 29 1021 58 16093 3.6 140 17:58 30.03.2020
5769 Clouds 29 1021 58 16093 3.1 120 17:39 30.03.2020
5770 Clouds 28 1021 58 16093 3.1 120 17:21 30.03.2020
5771 Clouds 28 1021 58 16093 3.1 120 16:59 30.03.2020
5772 Clouds 28 1021 65 16093 2.1 0 16:40 30.03.2020
5773 Clouds 28 1021 65 16093 2.1 0 16:20 30.03.2020
5774 Clouds 28 1021 65 16093 2.1 0 16:20 30.03.2020
5775 Clouds 28 1021 65 16093 2.1 0 16:20 30.03.2020
5776 Clouds 27 1021 65 16093 2.1 0 15:56 30.03.2020
5777 Clouds 27 1021 74 16093 2.6 120 15:38 30.03.2020
5778 Clouds 27 1021 74 16093 2.6 120 15:38 30.03.2020
5779 Clouds 26 1021 74 16093 2.6 120 15:20 30.03.2020
5780 Clouds 25 1021 74 16093 2.6 120 14:56 30.03.2020
5781 Clouds 25 1021 78 16093 2.1 90 14:37 30.03.2020
5782 Clouds 24 1021 78 16093 2.1 90 14:18 30.03.2020
5783 Clouds 23 1021 78 16093 2.1 90 13:55 30.03.2020
5784 Clouds 23 1020 83 16093 2.1 130 13:37 30.03.2020
5785 Clouds 23 1020 83 16093 2.1 130 13:19 30.03.2020
5786 Clouds 23 1019 83 16093 2.6 120 12:44 30.03.2020
5787 Clouds 23 1019 83 16093 2.6 120 12:21 30.03.2020
5788 Clouds 23 1019 83 16093 2.6 120 12:21 30.03.2020
5789 Clouds 24 1019 83 16093 2.6 120 11:57 30.03.2020
5790 Clouds 23 1019 83 16093 3.1 120 11:39 30.03.2020
5791 Clouds 24 1019 83 16093 3.1 120 11:21 30.03.2020
5792 Clouds 23 1019 83 16093 3.54 132 10:42 30.03.2020
5793 Clouds 23 1019 83 16093 3.54 132 10:23 30.03.2020
5794 Clouds 24 1019 83 16093 3.54 132 09:59 30.03.2020
5795 Clouds 24 1019 83 16093 2.6 100 09:40 30.03.2020
5796 Clouds 24 1019 83 16093 2.6 100 09:19 30.03.2020
5797 Clouds 24 1019 83 16093 2.6 100 08:54 30.03.2020
5798 Clouds 24 1020 78 16093 3.6 110 08:36 30.03.2020
5799 Clouds 24 1020 78 16093 3.6 110 08:18 30.03.2020
5800 Clouds 24 1021 74 16093 4.6 80 07:41 30.03.2020
5801 Clouds 24 1021 74 16093 4.6 80 07:20 30.03.2020
5802 Clouds 24 1021 78 16093 4.6 80 06:39 30.03.2020
5803 Clouds 25 1021 78 16093 4.6 80 06:19 30.03.2020
5804 Clouds 25 1021 74 16093 3.6 100 05:39 30.03.2020
5805 Clouds 25 1021 74 16093 4.1 100 04:29 30.03.2020
5806 Clouds 25 1021 74 16093 4.1 100 03:53 30.03.2020
5807 Clouds 25 1020 65 16093 3.6 100 02:44 30.03.2020
5808 Clouds 26 1020 65 16093 3.6 100 01:55 30.03.2020
5809 Clouds 27 1019 65 16093 3.6 140 00:57 30.03.2020
5810 Clouds 28 1019 61 16093 4.1 110 00:27 30.03.2020
5811 Clouds 28 1019 61 16093 4.1 110 23:55 29.03.2020
5812 Clouds 29 1019 58 16093 5.1 130 23:36 29.03.2020
5813 Clouds 29 1019 58 16093 5.1 130 23:18 29.03.2020
5814 Clouds 29 1020 62 16093 4.6 160 22:40 29.03.2020
5815 Clouds 29 1020 62 16093 4.6 160 22:20 29.03.2020
5816 Clouds 29 1020 62 16093 4.6 160 21:59 29.03.2020
5817 Clouds 29 1021 58 16093 4.6 110 21:38 29.03.2020
5818 Clouds 30 1021 58 16093 4.6 110 21:20 29.03.2020
5819 Clouds 30 1021 58 16093 4.6 110 20:55 29.03.2020
5820 Clouds 30 1021 58 16093 4.6 110 20:55 29.03.2020
5821 Clouds 30 1021 62 16093 5.1 150 20:37 29.03.2020
5822 Clouds 29 1021 62 16093 5.1 150 20:19 29.03.2020
5823 Clouds 29 1021 62 16093 5.1 150 19:56 29.03.2020
5824 Clouds 29 1022 62 16093 6.2 150 19:38 29.03.2020
5825 Clouds 29 1022 62 16093 6.2 150 19:38 29.03.2020
5826 Clouds 29 1022 62 16093 6.2 150 19:19 29.03.2020
5827 Clouds 29 1022 62 16093 5.7 130 18:57 29.03.2020
5828 Clouds 29 1022 62 16093 5.7 130 18:38 29.03.2020
5829 Clouds 29 1022 62 16093 5.7 130 18:18 29.03.2020
5830 Clouds 29 1022 65 16093 6.7 120 17:55 29.03.2020
5831 Clouds 28 1022 65 16093 6.7 120 17:37 29.03.2020
5832 Clouds 28 1022 65 16093 6.7 120 17:18 29.03.2020
5833 Clouds 28 1022 65 16093 6.7 120 16:55 29.03.2020
5834 Clouds 27 1022 74 16093 5.1 130 16:36 29.03.2020
5835 Clouds 27 1022 74 16093 5.1 130 16:18 29.03.2020
5836 Clouds 26 1021 74 16093 5.1 130 15:41 29.03.2020
5837 Clouds 26 1021 74 16093 5.1 130 15:23 29.03.2020
5838 Clouds 26 1021 74 16093 5.1 130 15:23 29.03.2020
5839 Clouds 25 1021 74 16093 5.1 130 14:57 29.03.2020
5840 Clouds 25 1020 78 16093 3.1 120 14:39 29.03.2020
5841 Clouds 24 1020 78 16093 3.1 120 14:20 29.03.2020
5842 Clouds 23 1020 78 16093 3.1 120 13:57 29.03.2020
5843 Clouds 23 1020 78 16093 2.6 110 13:57 29.03.2020
5844 Clouds 23 1020 78 16093 2.6 110 13:39 29.03.2020
5845 Clouds 23 1020 78 16093 2.6 110 13:19 29.03.2020
5846 Clouds 23 1019 83 16093 2.6 120 12:55 29.03.2020
5847 Clouds 23 1019 83 16093 2.6 120 12:37 29.03.2020
5848 Clouds 23 1019 83 16093 2.6 120 12:18 29.03.2020
5849 Clouds 24 1018 78 16093 4.6 110 11:40 29.03.2020
5850 Clouds 24 1018 78 16093 4.6 110 11:21 29.03.2020
5851 Clouds 24 1018 78 16093 4.6 110 10:59 29.03.2020
5852 Clouds 24 1018 83 16093 6.2 100 10:38 29.03.2020
5853 Clouds 24 1018 83 16093 6.2 100 10:18 29.03.2020
5854 Clouds 24 1018 83 16093 6.2 100 10:18 29.03.2020
5855 Clouds 24 1018 78 16093 4.6 110 09:41 29.03.2020
5856 Clouds 24 1018 78 16093 4.6 110 09:20 29.03.2020
5857 Clouds 24 1018 78 16093 4.6 110 08:54 29.03.2020
5858 Clouds 24 1018 74 16093 4.6 100 08:30 29.03.2020
5859 Clouds 24 1018 74 16093 4.6 100 07:59 29.03.2020
5860 Clouds 24 1019 78 16093 3.6 100 07:40 29.03.2020
5861 Clouds 24 1019 83 16093 3.1 100 07:20 29.03.2020
5862 Clouds 24 1019 78 16093 2.1 110 05:41 29.03.2020
5863 Clouds 24 1019 78 16093 2.6 110 03:58 29.03.2020
5864 Clouds 25 1019 69 16093 3.1 120 03:28 29.03.2020
5865 Clouds 25 1018 69 16093 3.6 110 01:51 29.03.2020
5866 Clouds 25 1018 69 16093 3.6 110 01:23 29.03.2020
5867 Clouds 25 1018 69 16093 3.6 110 00:55 29.03.2020
5868 Clouds 25 1018 65 16093 4.6 130 00:32 29.03.2020
5869 Clouds 26 1018 61 16093 5.7 120 23:43 28.03.2020
5870 Clouds 26 1018 61 16093 5.7 120 23:43 28.03.2020
5871 Clouds 27 1018 61 16093 5.7 120 23:24 28.03.2020
5872 Clouds 27 1018 61 16093 5.7 120 22:59 28.03.2020
5873 Clouds 27 1018 57 16093 4.1 140 22:38 28.03.2020
5874 -273 0 0 0 0 0 22:20 28.03.2020
5875 Clouds 28 1018 57 16093 4.1 140 21:54 28.03.2020
5876 Clouds 28 1018 57 16093 6.2 110 21:36 28.03.2020
5877 Clouds 28 1018 57 16093 6.2 110 21:18 28.03.2020
5878 Clouds 28 1018 58 16093 5.7 110 20:41 28.03.2020
5879 Clouds 28 1018 58 16093 5.7 110 20:23 28.03.2020
5880 Clouds 28 1018 58 16093 5.7 110 19:57 28.03.2020
5881 Clouds 28 1019 54 16093 6.2 110 19:39 28.03.2020
5882 Clouds 28 1019 54 16093 6.2 110 19:20 28.03.2020
5883 Clouds 28 1019 54 16093 6.2 110 18:58 28.03.2020
5884 Clouds 28 1020 54 16093 4.6 130 18:38 28.03.2020
5885 Clouds 28 1020 54 16093 4.6 130 18:19 28.03.2020
5886 Clouds 28 1020 54 16093 6.2 120 17:39 28.03.2020
5887 Clouds 28 1020 54 16093 6.2 120 17:20 28.03.2020
5888 Clouds 27 1020 57 16093 6.2 110 16:43 28.03.2020
5889 Clouds 27 1020 57 16093 6.2 110 16:20 28.03.2020
5890 Clouds 27 1020 57 16093 6.2 110 16:20 28.03.2020
5891 Clouds 27 1020 57 16093 6.2 110 16:20 28.03.2020
5892 Clouds 27 1020 57 16093 6.2 110 15:59 28.03.2020
5893 Clouds 26 1019 61 16093 5.7 120 15:39 28.03.2020
5894 Clouds 26 1019 61 16093 5.7 120 15:19 28.03.2020
5895 Clouds 26 1019 61 16093 5.7 120 14:55 28.03.2020
5896 Clouds 25 1019 69 16093 4.6 110 14:37 28.03.2020
5897 Clouds 25 1019 69 16093 4.6 110 14:18 28.03.2020
5898 Clouds 23 1018 78 16093 2.6 110 13:40 28.03.2020
5899 Clouds 23 1018 78 16093 2.6 110 13:21 28.03.2020
5900 Clouds 22 1017 78 16093 2.1 100 12:40 28.03.2020
5901 Clouds 22 1017 78 16093 2.1 100 12:22 28.03.2020
5902 Clear 22 1017 78 16093 2.6 100 11:43 28.03.2020
5903 Clear 22 1017 78 16093 2.6 100 11:23 28.03.2020
5904 Clear 22 1017 78 16093 2.6 100 10:58 28.03.2020
5905 Clouds 22 1017 73 16093 2.6 100 10:38 28.03.2020
5906 Clouds 22 1017 73 16093 2.6 100 10:18 28.03.2020
5907 Clear 22 1017 73 16093 2.1 100 09:42 28.03.2020
5908 Clear 22 1017 73 16093 2.1 100 09:23 28.03.2020
5909 Clear 22 1017 73 16093 2.1 100 08:55 28.03.2020
5910 Clear 22 1017 69 16093 2.6 100 08:37 28.03.2020
5911 Clear 23 1017 69 16093 2.6 100 08:18 28.03.2020
5912 Clear 22 1018 73 16093 4.6 100 07:41 28.03.2020
5913 Clear 23 1018 73 16093 4.6 100 06:58 28.03.2020
5914 Clouds 23 1018 69 16093 4.1 90 06:34 28.03.2020
5915 Clouds 23 1019 73 16093 4.1 100 05:42 28.03.2020
5916 Clouds 23 1019 73 16093 4.1 100 05:21 28.03.2020
5917 Clouds 24 1019 69 16093 4.6 90 04:40 28.03.2020
5918 Clouds 24 1018 69 16093 5.1 100 03:34 28.03.2020
5919 Clouds 25 1018 65 16093 4.6 80 01:53 28.03.2020
5920 Clouds 25 1017 65 16093 4.6 100 01:25 28.03.2020
5921 Clouds 25 1017 65 16093 4.6 100 00:56 28.03.2020
5922 Clouds 26 1017 61 16093 4.1 90 00:36 28.03.2020
5923 Clouds 27 1017 54 16093 5.7 90 23:55 27.03.2020
5924 Clouds 27 1017 54 16093 5.7 90 23:37 27.03.2020
5925 Clouds 27 1017 54 16093 5.7 90 23:37 27.03.2020
5926 Clouds 27 1017 54 16093 5.7 90 23:18 27.03.2020
5927 Clouds 28 1016 58 16093 5.1 90 22:55 27.03.2020
5928 Clouds 28 1016 58 16093 5.1 90 22:37 27.03.2020
5929 Clouds 28 1016 58 16093 5.1 90 22:37 27.03.2020
5930 Clouds 28 1016 58 16093 5.1 90 22:18 27.03.2020
5931 Clouds 29 1016 58 16093 4.1 110 21:43 27.03.2020
5932 Clouds 29 1016 58 16093 4.1 110 21:24 27.03.2020
5933 Clouds 29 1016 58 16093 4.1 110 20:58 27.03.2020
5934 Clouds 30 1017 55 16093 5.7 110 20:40 27.03.2020
5935 Clouds 30 1017 55 16093 5.7 110 20:20 27.03.2020
5936 Clouds 30 1017 55 16093 5.7 110 19:57 27.03.2020
5937 Clouds 30 1017 55 16093 3.6 100 19:39 27.03.2020
5938 Clouds 30 1017 55 16093 3.6 100 19:20 27.03.2020
5939 Clouds 30 1017 51 16093 4.1 110 18:44 27.03.2020
5940 Clouds 30 1017 51 16093 4.1 110 18:24 27.03.2020
5941 Clouds 30 1017 51 16093 4.1 110 17:58 27.03.2020
5942 Clouds 29 1018 54 16093 4.1 100 17:39 27.03.2020
5943 Clouds 29 1018 54 16093 4.1 100 17:19 27.03.2020
5944 Clouds 29 1018 58 16093 1.5 0 16:44 27.03.2020
5945 Clouds 28 1018 58 16093 1.5 0 16:25 27.03.2020
5946 Clouds 28 1018 58 16093 1.5 0 15:56 27.03.2020
5947 Clouds 28 1017 61 16093 1.5 110 15:38 27.03.2020
5948 Clouds 27 1017 61 16093 1.5 110 15:19 27.03.2020
5949 Clouds 26 1017 74 16093 3.8 96 14:43 27.03.2020
5950 Clouds 26 1017 74 16093 3.8 96 14:24 27.03.2020
5951 Clouds 25 1017 74 16093 2.11 68 13:55 27.03.2020
5952 Clouds 23 1016 83 16093 2.11 68 13:37 27.03.2020
5953 Clouds 22 1016 83 16093 1.8 64 13:18 27.03.2020
5954 Clouds 22 1016 83 16093 1.8 64 12:43 27.03.2020
5955 Clouds 21 1016 83 16093 1.8 64 12:19 27.03.2020
5956 Clouds 21 1016 83 16093 1.8 64 11:57 27.03.2020
5957 Clouds 22 1015 83 16093 1.8 64 11:39 27.03.2020
5958 Clouds 21 1015 83 16093 1.8 64 11:21 27.03.2020
5959 Clear 21 1015 83 16093 0.35 350 10:42 27.03.2020
5960 Clear 21 1015 83 16093 0.35 350 10:23 27.03.2020
5961 Clear 21 1015 83 16093 0.35 350 09:59 27.03.2020
5962 Clouds 21 1016 83 16093 0.35 350 09:41 27.03.2020
5963 Clouds 21 1016 83 16093 0.35 350 09:23 27.03.2020
5964 Clouds 22 1016 83 16093 0.35 350 08:59 27.03.2020
5965 Clouds 22 1016 83 16093 0.35 350 08:40 27.03.2020
5966 Clouds 22 1016 83 16093 0.17 321 08:22 27.03.2020
5967 Clouds 22 1016 83 16093 1.22 212 07:59 27.03.2020
5968 Clouds 22 1017 78 16093 1.22 212 07:41 27.03.2020
5969 Clouds 23 1017 78 16093 1.22 212 07:21 27.03.2020
5970 Clouds 23 1017 78 16093 1.22 212 06:40 27.03.2020
5971 Clouds 23 1017 73 16093 1.5 120 05:51 27.03.2020
5972 Clouds 24 1017 78 16093 1.5 0 03:34 27.03.2020
5973 Clear 25 1016 78 16093 2.1 160 01:56 27.03.2020
5974 Clouds 25 1016 74 16093 2.6 140 01:19 27.03.2020
5975 Clouds 26 1015 61 16093 4.1 140 00:42 27.03.2020
5976 Clouds 26 1015 61 16093 4.1 140 00:19 27.03.2020
5977 Clouds 27 1015 62 16093 4.1 130 23:40 26.03.2020
5978 Clouds 27 1015 62 16093 4.1 130 23:18 26.03.2020
5979 Clouds 28 1015 54 16093 4.6 120 22:57 26.03.2020
5980 Clouds 28 1015 54 16093 4.6 120 22:36 26.03.2020
5981 Clouds 28 1015 54 16093 4.6 120 22:18 26.03.2020
5982 Clouds 29 1015 54 16093 5.1 80 21:40 26.03.2020
5983 Clouds 28 1015 54 16093 5.1 80 21:21 26.03.2020
5984 Clouds 29 1015 54 16093 5.1 80 20:59 26.03.2020
5985 Clouds 29 1016 58 16093 4.1 70 20:39 26.03.2020
5986 Clouds 29 1016 58 16093 4.1 70 20:21 26.03.2020
5987 Clouds 29 1016 58 16093 4.1 70 19:58 26.03.2020
5988 Clouds 30 1016 38 16093 2.6 360 19:40 26.03.2020
5989 Clouds 30 1016 38 16093 2.6 360 19:21 26.03.2020
5990 Clouds 30 1016 38 16093 2.6 360 18:58 26.03.2020
5991 Clouds 29 1017 45 16093 3.1 0 18:40 26.03.2020
5992 Clouds 29 1017 45 16093 3.1 0 18:21 26.03.2020
5993 Clouds 29 1017 51 16093 3.14 39 17:45 26.03.2020
5994 Clouds 29 1017 51 16093 4.12 351 17:20 26.03.2020
5995 Clouds 28 1017 61 16093 4.1 330 16:57 26.03.2020
5996 Clouds 27 1017 61 16093 4.1 330 16:38 26.03.2020
5997 Clouds 27 1017 61 16093 4.1 330 16:38 26.03.2020
5998 Clouds 27 1017 61 16093 4.1 330 16:19 26.03.2020
5999 Clouds 27 1017 61 16093 4.1 330 15:55 26.03.2020
6000 Clouds 26 1017 78 16093 3.1 300 15:37 26.03.2020
6001 Clouds 25 1017 78 16093 3.1 300 15:18 26.03.2020
6002 Clouds 24 1017 88 16093 2.6 340 14:43 26.03.2020
6003 Clouds 24 1017 88 16093 2.6 340 14:24 26.03.2020
6004 Clouds 23 1017 88 16093 2.6 340 13:55 26.03.2020
6005 Clouds 22 1016 88 16093 1.5 0 13:37 26.03.2020
6006 Clouds 22 1016 88 16093 1.5 0 13:19 26.03.2020
6007 Clouds 22 1015 94 16093 1.5 300 12:38 26.03.2020
6008 Clouds 21 1015 94 16093 1.5 300 12:20 26.03.2020
6009 Clouds 21 1015 94 16093 2.6 300 11:46 26.03.2020
6010 Clouds 21 1015 94 16093 2.6 300 11:23 26.03.2020
6011 Clouds 22 1015 94 16093 2.6 300 10:57 26.03.2020
6012 Clear 22 1014 94 16093 1.5 290 10:39 26.03.2020
6013 Clear 22 1014 94 16093 1.5 290 10:19 26.03.2020
6014 Clear 22 1015 88 16093 2.1 300 09:44 26.03.2020
6015 Clear 22 1015 88 16093 2.1 300 09:21 26.03.2020
6016 Clear 22 1015 88 16093 2.1 300 08:57 26.03.2020
6017 Clear 22 1015 88 16093 2.6 290 08:38 26.03.2020
6018 Clear 22 1015 88 16093 2.6 290 08:19 26.03.2020
6019 Clear 22 1015 88 16093 2.6 280 07:45 26.03.2020
6020 Clear 22 1015 88 16093 2.6 280 07:23 26.03.2020
6021 Clear 23 1015 88 16093 2.6 280 06:57 26.03.2020
6022 Clear 23 1016 83 16093 2.6 280 06:32 26.03.2020
6023 Clear 23 1016 73 16093 3.6 270 05:29 26.03.2020
6024 Clear 25 1015 61 16093 2.6 260 03:45 26.03.2020
6025 Clear 25 1015 61 16093 2.6 260 02:56 26.03.2020
6026 Clouds 26 1015 61 16093 3.6 250 01:51 26.03.2020
6027 Clouds 27 1014 51 16093 3.6 260 01:18 26.03.2020
6028 Clouds 28 1014 45 16093 5.7 250 00:23 26.03.2020
6029 Clouds 29 1014 40 16093 4.6 270 23:42 25.03.2020
6030 Clouds 29 1014 40 16093 4.6 270 23:22 25.03.2020
6031 Clouds 30 1014 38 16093 2.6 270 22:42 25.03.2020
6032 Clouds 31 1014 38 16093 2.6 270 22:22 25.03.2020
6033 Clouds 31 1014 38 16093 2.6 270 21:59 25.03.2020
6034 Clouds 30 1014 54 16093 4.1 130 21:40 25.03.2020
6035 Clouds 30 1014 54 16093 4.1 130 21:22 25.03.2020
6036 Clouds 30 1014 54 16093 4.1 130 20:57 25.03.2020
6037 Clouds 30 1015 43 16093 2.6 210 20:37 25.03.2020
6038 Clouds 30 1015 43 16093 2.6 210 20:18 25.03.2020
6039 Clouds 30 1016 43 16093 3.6 230 19:43 25.03.2020
6040 Clouds 29 1016 43 16093 3.6 230 19:23 25.03.2020
6041 Clouds 29 1016 43 16093 3.6 230 18:59 25.03.2020
6042 Clouds 29 1017 45 16093 2.6 230 18:40 25.03.2020
6043 Clouds 29 1017 45 16093 2.6 230 18:40 25.03.2020
6044 Clouds 30 1017 45 16093 2.6 230 18:22 25.03.2020
6045 Clouds 29 1017 45 16093 3.1 0 17:57 25.03.2020
6046 Clouds 29 1017 45 16093 3.1 0 17:39 25.03.2020
6047 Clouds 29 1017 45 16093 3.1 0 17:21 25.03.2020
6048 Clouds 28 1018 61 16093 4.1 210 16:55 25.03.2020
6049 Clouds 28 1018 61 16093 4.1 210 16:36 25.03.2020
6050 Clouds 28 1018 61 16093 4.1 210 16:18 25.03.2020
6051 Clouds 27 1018 69 16093 4.1 190 15:41 25.03.2020
6052 Clouds 27 1018 69 16093 4.1 190 15:20 25.03.2020
6053 Clouds 26 1018 69 16093 4.1 190 14:55 25.03.2020
6054 Clouds 25 1017 78 16093 2.1 220 14:37 25.03.2020
6055 Clouds 25 1017 78 16093 2.1 220 14:18 25.03.2020
6056 Clouds 23 1017 83 16093 1.5 220 13:42 25.03.2020
6057 Clouds 22 1017 83 16093 1.5 220 13:22 25.03.2020
6058 Clouds 22 1016 83 16093 1.5 210 12:38 25.03.2020
6059 Clouds 22 1016 83 16093 1.5 210 12:19 25.03.2020
6060 Clouds 22 1016 83 16093 1.5 210 11:56 25.03.2020
6061 Clouds 22 1016 88 16093 3.1 0 11:37 25.03.2020
6062 Clouds 22 1016 88 16093 3.1 0 11:19 25.03.2020
6063 Clouds 22 1016 88 16093 3.1 0 10:56 25.03.2020
6064 Clouds 22 1016 88 16093 1.5 240 10:38 25.03.2020
6065 Clouds 22 1016 88 16093 1.5 240 10:18 25.03.2020
6066 Clouds 22 1016 83 16093 2.1 210 09:43 25.03.2020
6067 Clouds 22 1016 83 16093 2.1 210 09:24 25.03.2020
6068 Clouds 22 1016 83 16093 2.1 210 08:57 25.03.2020
6069 Clouds 22 1017 83 16093 1.5 190 08:39 25.03.2020
6070 Clouds 22 1017 83 16093 1.5 190 08:19 25.03.2020
6071 Clouds 23 1018 78 16093 2.6 210 07:41 25.03.2020
6072 Clouds 22 1018 78 16093 2.6 210 07:22 25.03.2020
6073 Clear 23 1018 78 16093 3.02 179 06:50 25.03.2020
6074 Clear 22 1018 78 16093 3.02 179 06:28 25.03.2020
6075 Clear 22 1018 78 16093 3.02 179 06:28 25.03.2020
6076 Clouds 22 1019 78 16093 3.02 179 05:56 25.03.2020
6077 Clouds 23 1019 78 16093 3.02 179 05:30 25.03.2020
6078 Clouds 24 1019 73 16093 1.5 150 04:39 25.03.2020
6079 Clear 24 1019 73 16093 2.1 170 03:36 25.03.2020
6080 Clear 25 1018 69 16093 3.6 160 02:40 25.03.2020
6081 Clouds 25 1018 65 16093 4.6 140 01:23 25.03.2020
6082 Clouds 25 1018 61 16093 4.6 150 00:49 25.03.2020
6083 Clouds 26 1018 61 16093 4.6 150 00:24 25.03.2020
6084 Clouds 27 1018 58 16093 4.6 140 23:45 24.03.2020
6085 Clouds 27 1018 58 16093 4.6 140 23:26 24.03.2020
6086 Clouds 28 1018 58 16093 4.6 140 22:57 24.03.2020
6087 Clouds 28 1018 48 16093 6.7 120 22:38 24.03.2020
6088 Clouds 28 1018 48 16093 6.7 120 22:19 24.03.2020
6089 Clouds 28 1018 48 16093 6.7 120 21:56 24.03.2020
6090 Clouds 28 1018 51 16093 4.6 160 21:37 24.03.2020
6091 Clouds 28 1018 51 16093 4.6 160 21:18 24.03.2020
6092 Clouds 28 1018 51 16093 4.6 160 20:56 24.03.2020
6093 Clouds 29 1019 51 16093 6.2 110 20:38 24.03.2020
6094 Clouds 29 1019 51 16093 6.2 110 20:19 24.03.2020
6095 Clouds 29 1020 51 16093 5.7 140 19:41 24.03.2020
6096 Clouds 29 1020 51 16093 5.7 140 19:19 24.03.2020
6097 Clouds 28 1020 51 16093 5.7 140 18:56 24.03.2020
6098 Clouds 28 1021 57 16093 5.1 150 18:37 24.03.2020
6099 Clouds 28 1021 57 16093 5.1 150 18:18 24.03.2020
6100 Clouds 28 1021 57 16093 5.1 150 18:18 24.03.2020
6101 Clouds 27 1022 69 16093 3.1 160 17:42 24.03.2020
6102 Clouds 27 1022 69 16093 3.1 160 17:23 24.03.2020
6103 Clouds 27 1021 54 16093 6.2 190 16:58 24.03.2020
6104 Clouds 28 1021 61 16093 6.2 180 16:40 24.03.2020
6105 Clouds 28 1021 61 16093 6.2 180 16:22 24.03.2020
6106 Clouds 27 1021 61 16093 6.2 180 15:59 24.03.2020
6107 Clouds 27 1021 65 16093 4.1 160 15:39 24.03.2020
6108 Clouds 27 1021 65 16093 4.1 160 15:20 24.03.2020
6109 -273 0 0 0 0 0 15:20 24.03.2020
6110 Clouds 25 1021 73 16093 2.6 130 14:43 24.03.2020
6111 Clouds 25 1021 73 16093 2.6 130 14:21 24.03.2020
6112 Clouds 25 1021 73 16093 2.6 130 13:55 24.03.2020
6113 Clouds 24 1021 78 16093 1.5 150 13:36 24.03.2020
6114 Clouds 24 1021 78 16093 1.5 150 13:18 24.03.2020
6115 Clouds 23 1020 78 16093 2.1 140 12:41 24.03.2020
6116 Clouds 23 1020 78 16093 2.1 140 12:22 24.03.2020
6117 Clouds 24 1020 73 16093 1.5 130 11:41 24.03.2020
6118 Clouds 23 1020 73 16093 1.5 130 11:20 24.03.2020
6119 Clouds 23 1020 78 16093 1.5 140 10:55 24.03.2020
6120 Clouds 23 1020 78 16093 1.5 140 10:36 24.03.2020
6121 Clouds 22 1020 78 16093 1.5 140 10:18 24.03.2020
6122 Clouds 23 1020 73 16093 1.5 140 09:43 24.03.2020
6123 Clouds 22 1020 73 16093 1.5 140 09:24 24.03.2020
6124 Clouds 23 1021 73 16093 5.22 146 08:40 24.03.2020
6125 Clouds 23 1021 73 16093 5 144 08:21 24.03.2020
6126 Clouds 23 1021 73 16093 5 135 07:52 24.03.2020
6127 Clouds 23 1022 73 16093 5 135 07:25 24.03.2020
6128 Clouds 23 1022 73 16093 5 135 06:59 24.03.2020
6129 Clouds 23 1022 69 16093 1.5 120 06:34 24.03.2020
6130 Clouds 23 1022 73 16093 1.5 120 05:30 24.03.2020
6131 Clouds 24 1022 73 16093 3.6 110 04:50 24.03.2020
6132 Clouds 24 1022 73 16093 3.1 110 03:19 24.03.2020
6133 Clouds 24 1022 69 16093 3.6 120 02:25 24.03.2020
6134 Clouds 25 1022 69 16093 4.6 120 00:53 24.03.2020
6135 Clouds 26 1022 61 16093 4.6 110 00:26 24.03.2020
6136 Clear 26 1022 65 16093 4.1 140 23:55 23.03.2020
6137 Clouds 27 1021 57 16093 4.6 120 23:36 23.03.2020
6138 Clouds 27 1021 57 16093 4.6 120 23:18 23.03.2020
6139 Clouds 28 1021 54 16093 4.6 150 22:42 23.03.2020
6140 Clouds 28 1021 54 16093 4.6 150 22:22 23.03.2020
6141 Clouds 28 1021 54 16093 4.6 150 21:54 23.03.2020
6142 Clear 28 1022 54 16093 6.2 130 21:36 23.03.2020
6143 Clear 28 1022 54 16093 6.2 130 21:18 23.03.2020
6144 Clouds 28 1022 54 16093 5.7 120 20:41 23.03.2020
6145 Clouds 28 1022 54 16093 5.7 120 20:23 23.03.2020
6146 Clouds 28 1022 54 16093 5.7 120 19:55 23.03.2020
6147 Clouds 28 1022 54 16093 5.7 120 19:55 23.03.2020
6148 Clouds 28 1022 54 16093 5.7 120 19:55 23.03.2020
6149 Clouds 28 1023 58 16093 5.1 140 19:37 23.03.2020
6150 Clouds 28 1023 58 16093 5.1 140 19:18 23.03.2020
6151 Clouds 28 1024 51 16093 4.1 150 18:43 23.03.2020
6152 Clouds 28 1024 51 16093 4.1 150 18:24 23.03.2020
6153 Clouds 27 1024 51 16093 4.6 120 17:58 23.03.2020
6154 Rain 27 1024 61 16093 3.1 150 17:39 23.03.2020
6155 Rain 27 1024 61 16093 3.1 150 17:19 23.03.2020
6156 Clouds 26 1024 69 16093 3.1 110 16:43 23.03.2020
6157 Rain 26 1024 69 16093 8.2 110 16:25 23.03.2020
6158 Rain 26 1024 69 9656 2.6 0 15:44 23.03.2020
6159 Clouds 26 1024 65 16093 2.1 140 15:21 23.03.2020
6160 Clouds 26 1024 65 16093 2.1 140 14:57 23.03.2020
6161 Clouds 25 1023 65 16093 3.1 110 14:37 23.03.2020
6162 Clouds 25 1023 65 16093 3.1 110 14:18 23.03.2020
6163 Clouds 24 1023 65 16093 3.1 110 13:54 23.03.2020
6164 Clouds 24 1023 65 16093 3.1 110 13:54 23.03.2020
6165 Clouds 23 1023 78 16093 2.1 110 13:36 23.03.2020
6166 Clouds 23 1023 78 16093 2.1 110 13:36 23.03.2020
6167 Clouds 22 1023 78 16093 2.1 110 13:18 23.03.2020
6168 Clouds 23 1022 73 16093 4.79 129 12:41 23.03.2020
6169 Clouds 23 1022 73 16093 4.79 129 12:22 23.03.2020
6170 Clouds 23 1023 73 16093 2.1 120 11:55 23.03.2020
6171 Clouds 23 1022 73 16093 2.1 120 11:37 23.03.2020
6172 Clouds 23 1022 73 16093 2.1 120 11:18 23.03.2020
6173 Clouds 23 1022 73 16093 2.1 120 10:41 23.03.2020
6174 Clouds 23 1022 73 16093 2.1 120 10:23 23.03.2020
6175 Clouds 23 1022 73 16093 2.1 120 09:59 23.03.2020
6176 Clouds 23 1022 73 16093 3.6 110 09:40 23.03.2020
6177 Clouds 23 1022 73 16093 3.6 110 09:19 23.03.2020
6178 Clouds 23 1023 69 16093 3.6 110 08:38 23.03.2020
6179 Clouds 23 1023 69 16093 3.6 110 08:19 23.03.2020
6180 Clear 23 1023 69 16093 3.6 100 07:51 23.03.2020
6181 Clear 23 1023 69 16093 3.6 100 07:33 23.03.2020
6182 Clear 23 1023 69 16093 3.6 100 06:55 23.03.2020
6183 Clouds 24 1023 69 16093 5.1 100 06:33 23.03.2020
6184 Clouds 24 1023 69 16093 4.6 100 05:44 23.03.2020
6185 Clouds 24 1023 65 16093 5.1 90 03:54 23.03.2020
6186 Clouds 24 1023 69 16093 4.6 90 02:44 23.03.2020
6187 Clouds 25 1023 61 16093 4.6 90 01:42 23.03.2020
6188 Clouds 25 1022 61 16093 4.6 110 00:46 23.03.2020
6189 Clouds 25 1022 61 16093 4.6 110 00:26 23.03.2020
6190 Clouds 26 1022 61 16093 5.1 120 23:42 22.03.2020
6191 Clouds 26 1022 61 16093 5.1 120 23:24 22.03.2020
6192 Clouds 27 1021 65 16093 6.2 130 22:41 22.03.2020
6193 Clouds 27 1021 65 16093 6.2 130 22:20 22.03.2020
6194 Clouds 28 1021 61 16093 5.1 100 21:41 22.03.2020
6195 Clouds 28 1021 61 16093 5.1 100 21:23 22.03.2020
6196 Clouds 28 1022 54 16093 5.7 140 20:59 22.03.2020
6197 Clouds 28 1022 54 16093 6.2 110 20:40 22.03.2020
6198 Clouds 29 1022 54 16093 6.2 110 20:22 22.03.2020
6199 Clouds 28 1022 54 16093 6.2 110 19:56 22.03.2020
6200 Clouds 28 1023 58 16093 6.2 110 19:38 22.03.2020
6201 Clouds 28 1023 58 16093 6.2 110 19:19 22.03.2020
6202 Clouds 28 1023 58 16093 6.2 110 18:57 22.03.2020
6203 Clouds 28 1024 54 16093 4.6 110 18:39 22.03.2020
6204 Clouds 28 1024 54 16093 4.6 110 18:20 22.03.2020
6205 Clouds 28 1024 54 16093 4.6 110 17:57 22.03.2020
6206 Clouds 28 1024 51 16093 5.1 120 17:38 22.03.2020
6207 Clouds 28 1024 51 16093 5.1 120 17:20 22.03.2020
6208 Clouds 27 1024 51 16093 5.1 120 16:57 22.03.2020
6209 Clouds 27 1024 51 16093 5.1 120 16:57 22.03.2020
6210 Clouds 27 1024 54 16093 5.1 110 16:39 22.03.2020
6211 Clouds 27 1024 54 16093 5.1 110 16:20 22.03.2020
6212 Clouds 27 1023 61 16093 3.1 50 15:40 22.03.2020
6213 Clouds 26 1023 61 16093 3.1 50 15:19 22.03.2020
6214 Clouds 25 1023 61 16093 4.6 110 14:46 22.03.2020
6215 Clouds 25 1023 61 16093 4.6 110 14:18 22.03.2020
6216 Clouds 23 1022 69 16093 3.6 100 13:43 22.03.2020
6217 Clouds 23 1022 69 16093 3.6 100 13:20 22.03.2020
6218 Clouds 22 1022 69 16093 3.6 100 12:57 22.03.2020
6219 Clouds 22 1022 78 16093 5.55 96 12:38 22.03.2020
6220 Clouds 22 1022 78 16093 5.55 96 12:18 22.03.2020
6221 Clouds 22 1021 73 16093 5.55 96 11:43 22.03.2020
6222 Clouds 22 1021 73 16093 5.55 96 11:25 22.03.2020
6223 Clouds 22 1021 73 16093 5.48 108 10:58 22.03.2020
6224 Clouds 22 1021 73 16093 5.48 108 10:39 22.03.2020
6225 Clouds 22 1021 73 16093 5.48 108 10:21 22.03.2020
6226 Clouds 22 1022 78 16093 2.6 110 09:43 22.03.2020
6227 Clouds 22 1022 78 16093 2.6 110 09:43 22.03.2020
6228 Clouds 22 1022 78 16093 2.6 110 09:24 22.03.2020
6229 Clouds 23 1022 73 16093 2.6 90 08:48 22.03.2020
6230 Clouds 23 1022 73 16093 2.6 90 08:48 22.03.2020
6231 Clouds 23 1022 73 16093 2.6 90 08:29 22.03.2020
6232 Clouds 23 1022 73 16093 2.6 90 07:54 22.03.2020
6233 Clouds 23 1023 73 16093 3.1 110 07:36 22.03.2020
6234 Clouds 23 1023 78 16093 3.6 90 06:41 22.03.2020
6235 Clear 23 1023 73 16093 4.1 90 05:41 22.03.2020
6236 Clear 23 1024 69 16093 4.1 90 04:34 22.03.2020
6237 Clouds 24 1023 65 16093 4.6 80 01:36 22.03.2020
6238 Clouds 25 1022 61 16093 4.6 90 00:49 22.03.2020
6239 Clouds 25 1022 61 16093 4.6 90 00:30 22.03.2020
6240 Clear 26 1022 54 16093 5.1 90 23:45 21.03.2020
6241 Clear 27 1022 54 16093 5.1 90 23:21 21.03.2020
6242 Clear 27 1022 54 16093 5.1 90 22:58 21.03.2020
6243 Clouds 27 1022 54 16093 6.2 90 22:37 21.03.2020
6244 Clouds 27 1022 54 16093 6.2 90 22:19 21.03.2020
6245 Clouds 28 1022 54 16093 6.2 90 21:57 21.03.2020
6246 Clouds 28 1023 51 16093 5.7 80 21:38 21.03.2020
6247 Clouds 28 1023 51 16093 5.7 80 21:19 21.03.2020
6248 Clouds 28 1023 51 16093 5.7 80 20:42 21.03.2020
6249 Clouds 28 1023 51 16093 5.7 80 20:22 21.03.2020
6250 Clouds 28 1023 51 16093 5.7 80 19:55 21.03.2020
6251 Clouds 28 1024 54 16093 5.7 80 19:36 21.03.2020
6252 Clouds 28 1024 54 16093 5.7 80 19:18 21.03.2020
6253 Clouds 28 1024 54 16093 5.7 80 19:18 21.03.2020
6254 Clouds 28 1025 57 16093 4.1 110 18:41 21.03.2020
6255 Clouds 28 1025 57 16093 4.1 110 18:20 21.03.2020
6256 Clouds 28 1025 57 16093 4.1 110 17:58 21.03.2020
6257 Clouds 28 1025 61 16093 5.7 80 17:40 21.03.2020
6258 Clouds 28 1025 61 16093 5.7 80 17:22 21.03.2020
6259 Clouds 27 1025 54 16093 5.7 110 16:42 21.03.2020
6260 Clouds 27 1025 54 16093 5.7 110 16:23 21.03.2020
6261 Clouds 27 1025 54 16093 5.7 110 15:58 21.03.2020
6262 Clouds 27 1025 61 16093 5.7 120 15:40 21.03.2020
6263 Clouds 26 1025 61 16093 5.7 120 15:21 21.03.2020
6264 Clouds 26 1025 65 16093 5.1 120 14:56 21.03.2020
6265 Clouds 25 1024 65 16093 6.2 110 14:37 21.03.2020
6266 Clouds 25 1024 65 16093 6.2 110 14:19 21.03.2020
6267 Clear 24 1024 78 16093 3.6 110 13:57 21.03.2020
6268 Clouds 24 1023 73 16093 4.1 110 13:38 21.03.2020
6269 Clouds 24 1023 73 16093 4.1 110 13:20 21.03.2020
6270 Clouds 23 1024 73 16093 4.1 140 12:54 21.03.2020
6271 Clouds 23 1023 83 16093 2.6 100 12:36 21.03.2020
6272 Clouds 23 1023 83 16093 2.6 100 12:18 21.03.2020
6273 Clouds 23 1024 78 16093 2.1 120 11:54 21.03.2020
6274 Clouds 23 1023 73 16093 4.6 110 11:36 21.03.2020
6275 Clouds 23 1023 73 16093 4.6 110 11:18 21.03.2020
6276 Clouds 23 1022 78 16093 3.6 90 10:55 21.03.2020
6277 Clouds 23 1022 78 16093 3.6 90 10:55 21.03.2020
6278 Rain 23 1022 78 16093 5.1 120 10:37 21.03.2020
6279 Rain 24 1022 78 16093 5.1 120 10:18 21.03.2020
6280 Clouds 24 1022 78 16093 4.1 90 09:40 21.03.2020
6281 Clouds 24 1023 78 16093 4.6 100 09:21 21.03.2020
6282 Clouds 24 1023 78 16093 4.6 100 08:56 21.03.2020
6283 Clouds 24 1023 83 16093 3.6 110 08:38 21.03.2020
6284 Clouds 24 1023 83 16093 3.6 110 08:20 21.03.2020
6285 Clouds 24 1024 78 16093 3.6 120 07:39 21.03.2020
6286 Clouds 24 1024 78 16093 3.6 120 07:20 21.03.2020
6287 Clouds 24 1024 78 16093 3.6 120 07:20 21.03.2020
6288 Clouds 24 1023 83 16093 5.1 90 06:45 21.03.2020
6289 Clouds 24 1024 73 16093 6.2 100 06:25 21.03.2020
6290 Clouds 24 1025 73 16093 5.1 100 05:41 21.03.2020
6291 Clouds 24 1025 73 16093 6.2 80 04:34 21.03.2020
6292 Clouds 24 1024 69 16093 4.6 70 02:38 21.03.2020
6293 Clouds 24 1024 69 16093 4.6 70 01:54 21.03.2020
6294 Clouds 25 1024 69 16093 4.6 100 01:28 21.03.2020
6295 Clouds 25 1024 61 16093 4.1 100 00:43 21.03.2020
6296 Clouds 25 1024 61 16093 4.1 100 00:43 21.03.2020
6297 Clouds 25 1024 61 16093 4.1 100 00:24 21.03.2020
6298 Clouds 26 1024 57 16093 4.6 80 23:45 20.03.2020
6299 Clouds 27 1024 57 16093 4.6 80 23:22 20.03.2020
6300 Clouds 27 1024 57 16093 5.1 110 22:44 20.03.2020
6301 Clouds 27 1024 57 16093 5.1 110 22:25 20.03.2020
6302 Clouds 28 1024 57 16093 5.1 110 21:59 20.03.2020
6303 Clouds 28 1024 54 16093 4.6 130 21:41 20.03.2020
6304 Clouds 28 1024 54 16093 4.6 130 21:20 20.03.2020
6305 Clouds 28 1024 54 16093 4.6 130 20:59 20.03.2020
6306 Clouds 28 1025 51 16093 5.1 120 20:41 20.03.2020
6307 Clouds 28 1025 51 16093 5.1 120 20:21 20.03.2020
6308 Clouds 28 1025 51 16093 5.1 120 19:58 20.03.2020
6309 Clouds 28 1024 58 16093 4.1 120 19:39 20.03.2020
6310 Clouds 28 1025 54 16093 8.2 110 19:18 20.03.2020
6311 Clouds 28 1025 61 16093 6.7 80 18:39 20.03.2020
6312 Clouds 28 1025 61 16093 6.7 80 18:39 20.03.2020
6313 Clouds 28 1025 61 16093 6.7 80 18:20 20.03.2020
6314 Clouds 28 1026 54 16093 7.7 100 17:56 20.03.2020
6315 Clouds 28 1026 54 16093 7.2 100 17:38 20.03.2020
6316 Clouds 27 1026 54 16093 7.2 100 17:19 20.03.2020
6317 Clouds 27 1026 54 16093 7.2 100 17:19 20.03.2020
6318 Clouds 27 1026 54 16093 7.7 110 16:43 20.03.2020
6319 Clouds 27 1026 54 16093 7.7 110 16:21 20.03.2020
6320 Clouds 27 1026 54 16093 7.7 110 15:58 20.03.2020
6321 Clouds 27 1026 57 16093 6.2 120 15:39 20.03.2020
6322 Clouds 26 1026 65 16093 7.2 100 15:20 20.03.2020
6323 Clouds 26 1026 65 16093 5.7 100 14:42 20.03.2020
6324 Clouds 25 1026 65 16093 5.7 100 14:21 20.03.2020
6325 Clear 25 1025 69 16093 4.6 110 13:51 20.03.2020
6326 Clouds 24 1025 69 16093 6.7 100 13:26 20.03.2020
6327 Clouds 24 1025 69 16093 6.7 100 12:59 20.03.2020
6328 Clouds 24 1025 73 16093 5.7 100 12:38 20.03.2020
6329 Clouds 24 1025 73 16093 5.7 100 12:20 20.03.2020
6330 Clouds 24 1024 73 16093 6.2 100 11:41 20.03.2020
6331 Clouds 24 1024 73 16093 6.2 100 11:21 20.03.2020
6332 Clouds 24 1024 73 16093 6.2 100 10:59 20.03.2020
6333 Clouds 24 1024 73 16093 5.1 120 10:41 20.03.2020
6334 Clouds 24 1024 73 16093 5.7 100 10:20 20.03.2020
6335 Clouds 24 1023 73 16093 5.7 90 09:47 20.03.2020
6336 Clouds 24 1024 73 16093 6.2 100 09:21 20.03.2020
6337 Clouds 24 1024 73 16093 6.2 100 08:59 20.03.2020
6338 Clouds 24 1024 78 16093 4.6 80 08:40 20.03.2020
6339 Rain 24 1025 83 16093 4.1 120 08:19 20.03.2020
6340 Clouds 24 1025 69 16093 5.1 110 07:45 20.03.2020
6341 Clouds 24 1025 78 16093 6.2 110 07:26 20.03.2020
6342 Clouds 24 1025 83 16093 5.7 100 06:47 20.03.2020
6343 Clouds 24 1025 83 16093 6.7 100 06:29 20.03.2020
6344 Clouds 24 1025 78 16093 4.1 70 04:49 20.03.2020
6345 Clouds 24 1025 69 16093 6.7 90 03:19 20.03.2020
6346 Clouds 24 1024 78 16093 3.6 60 01:51 20.03.2020
6347 Clouds 25 1024 61 16093 5.7 100 00:46 20.03.2020
6348 Clouds 25 1024 61 16093 5.7 100 00:25 20.03.2020
6349 Clouds 26 1023 69 16093 4.1 70 23:44 19.03.2020
6350 Clouds 26 1024 57 16093 6.2 90 23:25 19.03.2020
6351 Clouds 26 1024 54 16093 6.2 90 22:56 19.03.2020
6352 Clouds 27 1024 51 16093 7.2 110 22:37 19.03.2020
6353 Clouds 27 1024 51 16093 7.2 110 22:18 19.03.2020
6354 Clouds 27 1024 51 16093 8.2 100 21:41 19.03.2020
6355 Clouds 28 1024 51 16093 8.2 100 21:20 19.03.2020
6356 Clouds 28 1024 51 16093 8.2 100 20:56 19.03.2020
6357 Clouds 27 1024 57 16093 7.7 110 20:38 19.03.2020
6358 Clouds 28 1024 57 16093 7.7 110 20:19 19.03.2020
6359 Clouds 28 1024 57 16093 7.7 110 19:55 19.03.2020
6360 Clouds 28 1025 58 16093 8.2 130 19:36 19.03.2020
6361 Clouds 28 1025 58 16093 8.2 130 19:18 19.03.2020
6362 Clouds 28 1026 58 16093 6.7 90 18:42 19.03.2020
6363 Clouds 28 1026 58 16093 6.7 90 18:22 19.03.2020
6364 Clouds 28 1025 65 16093 6.2 80 17:56 19.03.2020
6365 Clouds 28 1026 57 16093 8.7 100 17:38 19.03.2020
6366 Clouds 27 1026 57 16093 8.7 100 17:18 19.03.2020
6367 Clouds 28 1026 54 16093 6.7 100 16:43 19.03.2020
6368 Clouds 27 1026 58 16093 7.7 110 16:22 19.03.2020
6369 Clouds 27 1026 61 16093 7.2 100 15:44 19.03.2020
6370 Clouds 27 1026 61 16093 7.7 100 15:25 19.03.2020
6371 Clouds 26 1025 61 16093 8.2 110 14:55 19.03.2020
6372 Clouds 26 1025 69 16093 6.7 110 14:37 19.03.2020
6373 Clouds 25 1025 69 16093 6.7 110 14:18 19.03.2020
6374 Clouds 24 1024 73 16093 5.7 110 13:39 19.03.2020
6375 Clouds 24 1024 73 16093 5.7 110 13:18 19.03.2020
6376 Clouds 24 1024 73 16093 6.2 110 12:42 19.03.2020
6377 Clouds 24 1024 73 16093 5.1 100 12:24 19.03.2020
6378 Clouds 24 1024 78 16093 3.6 100 11:59 19.03.2020
6379 Clouds 24 1023 73 16093 5.1 100 11:41 19.03.2020
6380 Clouds 24 1023 73 16093 5.1 100 11:22 19.03.2020
6381 Clouds 23 1023 73 16093 5.1 110 10:44 19.03.2020
6382 Clouds 23 1023 73 16093 5.1 110 10:22 19.03.2020
6383 Clouds 24 1023 73 16093 5.1 110 09:58 19.03.2020
6384 Clouds 23 1023 73 16093 7.2 100 09:40 19.03.2020
6385 Clouds 24 1023 73 16093 7.2 100 09:20 19.03.2020
6386 Clouds 23 1024 73 16093 4.6 100 08:46 19.03.2020
6387 Clouds 24 1024 73 16093 4.6 100 08:22 19.03.2020
6388 Clouds 24 1023 78 16093 5.1 80 07:48 19.03.2020
6389 Clouds 24 1023 73 16093 4.6 80 07:30 19.03.2020
6390 Clouds 24 1024 78 16093 5.1 80 06:51 19.03.2020
6391 Clouds 24 1024 78 16093 4.6 60 05:53 19.03.2020
6392 Clouds 24 1025 73 16093 4.6 80 05:22 19.03.2020
6393 Clouds 23 1025 73 16093 4.1 80 04:41 19.03.2020
6394 Clouds 23 1024 83 16093 2.6 70 03:36 19.03.2020
6395 Clouds 24 1024 73 16093 2.6 70 01:45 19.03.2020
6396 Clouds 24 1023 54 16093 4.6 90 00:38 19.03.2020
6397 Clouds 25 1023 54 16093 4.1 90 23:58 18.03.2020
6398 Clouds 25 1023 54 16093 4.1 90 23:39 18.03.2020
6399 Clouds 26 1023 54 16093 4.1 90 23:18 18.03.2020
6400 Clouds 27 1023 54 16093 5.7 80 22:42 18.03.2020
6401 Clouds 27 1023 54 16093 5.7 80 22:22 18.03.2020
6402 Clouds 27 1023 54 16093 5.7 80 21:54 18.03.2020
6403 Clouds 27 1023 51 16093 6.7 90 21:36 18.03.2020
6404 Clouds 27 1023 51 16093 6.7 90 21:18 18.03.2020
6405 Clouds 28 1023 51 16093 6.7 90 20:54 18.03.2020
6406 Clouds 28 1024 51 16093 6.2 100 20:36 18.03.2020
6407 Clouds 28 1024 51 16093 6.2 100 20:18 18.03.2020
6408 Clouds 28 1024 48 16093 5.7 80 19:40 18.03.2020
6409 Clouds 28 1024 48 16093 5.7 80 19:21 18.03.2020
6410 Clouds 27 1025 51 16093 5.7 100 18:56 18.03.2020
6411 Clouds 28 1025 51 16093 5.7 100 18:38 18.03.2020
6412 Clouds 27 1025 51 16093 5.7 100 18:19 18.03.2020
6413 Clouds 27 1025 48 16093 5.7 90 17:54 18.03.2020
6414 Clouds 27 1025 48 16093 5.7 90 17:36 18.03.2020
6415 Clouds 27 1025 48 16093 5.7 90 17:18 18.03.2020
6416 Clouds 26 1025 54 16093 7.2 110 16:42 18.03.2020
6417 Clouds 26 1025 54 16093 7.2 110 16:20 18.03.2020
6418 Clouds 26 1025 54 16093 7.2 110 15:56 18.03.2020
6419 Clouds 26 1024 57 16093 5.1 90 15:37 18.03.2020
6420 Clouds 26 1024 57 16093 5.1 90 15:19 18.03.2020
6421 Clouds 25 1024 61 16093 4.6 100 14:42 18.03.2020
6422 Clouds 25 1024 61 16093 4.6 100 14:21 18.03.2020
6423 Clouds 25 1024 61 16093 4.6 100 14:21 18.03.2020
6424 Clouds 23 1023 73 16093 4.1 80 13:41 18.03.2020
6425 Clouds 23 1023 73 16093 2.1 90 13:19 18.03.2020
6426 Clouds 23 1023 73 16093 4.1 120 12:54 18.03.2020
6427 Clouds 22 1023 69 16093 2.6 100 12:36 18.03.2020
6428 Clouds 22 1023 69 16093 2.6 100 12:18 18.03.2020
6429 Clouds 22 1023 69 16093 2.6 100 12:18 18.03.2020
6430 Clouds 22 1022 69 16093 2.6 90 11:38 18.03.2020
6431 Clouds 22 1022 69 16093 2.6 90 11:19 18.03.2020
6432 Clouds 22 1021 78 16093 3.1 70 10:56 18.03.2020
6433 Clouds 23 1022 64 16093 4.6 90 10:37 18.03.2020
6434 Clouds 23 1022 64 16093 4.6 90 10:18 18.03.2020
6435 Clouds 23 1022 64 16093 4.6 90 10:18 18.03.2020
6436 Clouds 23 1022 64 16093 4.6 90 10:18 18.03.2020
6437 Clouds 23 1022 69 16093 4.1 80 09:42 18.03.2020
6438 Clouds 23 1022 69 16093 4.1 80 09:23 18.03.2020
6439 Clouds 23 1022 69 16093 4.1 80 08:55 18.03.2020
6440 Clouds 23 1022 69 16093 4.1 80 08:55 18.03.2020
6441 Clouds 23 1022 78 16093 3.1 90 08:36 18.03.2020
6442 Clouds 23 1022 73 16093 5.1 90 08:18 18.03.2020
6443 Clouds 23 1023 73 16093 4.1 90 07:40 18.03.2020
6444 Clouds 23 1023 73 16093 4.1 90 07:22 18.03.2020
6445 Clouds 23 1023 78 16093 5.1 90 06:42 18.03.2020
6446 Clouds 23 1023 69 16093 4.6 90 05:47 18.03.2020
6447 Clouds 23 1023 69 16093 4.6 90 05:19 18.03.2020
6448 Clouds 24 1023 73 16093 5.1 90 03:53 18.03.2020
6449 Clouds 24 1022 69 16093 5.1 70 02:37 18.03.2020
6450 Clouds 24 1022 69 16093 5.1 70 02:37 18.03.2020
6451 Clouds 24 1022 69 16093 4.6 80 01:46 18.03.2020
6452 Clouds 24 1022 69 16093 4.6 80 01:20 18.03.2020
6453 Clouds 25 1022 61 16093 5.1 120 00:23 18.03.2020
6454 Clouds 26 1022 57 16093 4.1 110 23:43 17.03.2020
6455 Clouds 26 1022 57 16093 4.1 110 23:23 17.03.2020
6456 Clear 27 1022 61 16093 4.6 100 22:47 17.03.2020
6457 Clouds 27 1022 57 16093 4.6 140 22:28 17.03.2020
6458 Clouds 27 1022 57 16093 4.6 140 21:57 17.03.2020
6459 Clouds 28 1022 54 16093 6.2 110 21:37 17.03.2020
6460 Clouds 28 1022 54 16093 6.2 110 21:19 17.03.2020
6461 Clouds 28 1022 57 16093 4.1 120 20:38 17.03.2020
6462 Clouds 28 1022 54 16093 4.6 120 20:20 17.03.2020
6463 Clouds 28 1022 54 16093 4.6 120 19:54 17.03.2020
6464 Clouds 28 1023 58 16093 5.7 100 19:36 17.03.2020
6465 Clouds 28 1023 58 16093 5.7 100 19:18 17.03.2020
6466 Clouds 28 1024 57 16093 5.1 120 18:54 17.03.2020
6467 Clouds 28 1024 57 16093 5.1 120 18:36 17.03.2020
6468 Clouds 28 1024 57 16093 5.1 120 18:36 17.03.2020
6469 Clouds 28 1024 57 16093 5.1 120 18:18 17.03.2020
6470 Clouds 28 1024 58 16093 6.2 90 17:39 17.03.2020
6471 Clouds 27 1024 61 16093 6.7 110 17:20 17.03.2020
6472 Clouds 26 1024 57 16093 6.2 110 16:44 17.03.2020
6473 Clouds 26 1024 57 16093 6.2 110 16:20 17.03.2020
6474 Clouds 26 1024 57 16093 6.2 110 15:56 17.03.2020
6475 Clouds 26 1023 69 16093 7.7 100 15:38 17.03.2020
6476 Clouds 26 1023 57 16093 6.2 120 15:18 17.03.2020
6477 Rain 25 1023 69 16093 6.2 120 14:41 17.03.2020
6478 Rain 25 1023 69 16093 6.2 90 14:18 17.03.2020
6479 Rain 24 1023 78 16093 4.6 100 13:43 17.03.2020
6480 Clouds 24 1022 73 16093 6.7 80 13:24 17.03.2020
6481 Clouds 23 1022 83 16093 7.54 80 12:48 17.03.2020
6482 Clouds 23 1021 88 16093 7.54 80 12:26 17.03.2020
6483 Clouds 23 1021 69 16093 4.1 90 11:59 17.03.2020
6484 Clouds 23 1021 94 16093 2.6 80 11:40 17.03.2020
6485 Rain 23 1021 73 16093 3.6 80 11:22 17.03.2020
6486 Clear 23 1021 88 16093 1.5 60 10:55 17.03.2020
6487 Clouds 23 1021 73 16093 2.6 90 10:36 17.03.2020
6488 Clouds 23 1021 73 16093 2.6 90 10:18 17.03.2020
6489 Clouds 23 1021 73 16093 4.1 70 09:45 17.03.2020
6490 Clouds 23 1021 69 16093 2.6 90 09:20 17.03.2020
6491 Clouds 23 1021 69 16093 2.6 90 08:58 17.03.2020
6492 Clouds 23 1022 69 16093 2.6 90 08:40 17.03.2020
6493 Clouds 23 1022 69 16093 2.6 90 08:18 17.03.2020
6494 Clouds 23 1022 69 16093 5.1 70 07:49 17.03.2020
6495 Clouds 23 1022 73 16093 3.1 90 07:21 17.03.2020
6496 Clouds 23 1022 69 16093 4.6 80 06:49 17.03.2020
6497 Clouds 23 1022 69 16093 4.6 100 06:25 17.03.2020
6498 Clouds 23 1023 69 16093 4.1 70 05:26 17.03.2020
6499 Clouds 24 1022 73 16093 3.1 70 03:34 17.03.2020
6500 Clouds 24 1022 65 16093 4.6 60 02:31 17.03.2020
6501 Clouds 24 1022 73 16093 4.1 100 01:38 17.03.2020
6502 Clouds 24 1022 61 16093 5.7 70 00:53 17.03.2020
6503 Clouds 25 1021 57 16093 4.6 80 00:19 17.03.2020
6504 Clouds 26 1021 54 16093 6.2 60 23:38 16.03.2020
6505 Clouds 26 1021 54 16093 6.2 60 23:19 16.03.2020
6506 Clouds 27 1021 48 16093 6.2 80 22:38 16.03.2020
6507 Clouds 27 1021 48 16093 6.2 80 22:20 16.03.2020
6508 Clouds 27 1022 51 16093 6.7 90 21:45 16.03.2020
6509 Clouds 27 1022 51 16093 6.7 90 21:27 16.03.2020
6510 Clouds 28 1022 51 16093 6.7 90 20:59 16.03.2020
6511 Clouds 28 1022 48 16093 8.2 90 20:39 16.03.2020
6512 Clouds 28 1022 48 16093 8.2 90 20:20 16.03.2020
6513 Clouds 28 1023 51 16093 4.6 80 19:46 16.03.2020
6514 Clouds 28 1023 51 16093 4.6 80 19:25 16.03.2020
6515 Clouds 28 1023 51 16093 4.6 80 18:59 16.03.2020
6516 Clouds 28 1023 48 16093 6.2 60 18:39 16.03.2020
6517 Clouds 28 1023 48 16093 6.2 60 18:20 16.03.2020
6518 Clouds 28 1023 51 16093 4.6 80 17:46 16.03.2020
6519 Clouds 28 1023 51 16093 4.6 80 17:25 16.03.2020
6520 Clouds 27 1023 51 16093 4.6 80 16:57 16.03.2020
6521 Clouds 27 1023 51 16093 5.1 90 16:39 16.03.2020
6522 Clouds 27 1023 51 16093 5.1 90 16:39 16.03.2020
6523 Clouds 27 1023 51 16093 5.1 90 16:20 16.03.2020
6524 Clouds 26 1023 54 16093 5.7 90 15:43 16.03.2020
6525 Clouds 26 1023 54 16093 5.7 90 15:23 16.03.2020
6526 Clouds 25 1022 69 16093 3.6 70 14:47 16.03.2020
6527 Clouds 24 1022 69 16093 3.6 70 14:23 16.03.2020
6528 Clouds 23 1023 65 16093 2.1 90 13:48 16.03.2020
6529 Clouds 22 1022 73 16093 5.7 87 13:28 16.03.2020
6530 Clouds 22 1022 73 16093 5.81 83 12:58 16.03.2020
6531 Clouds 21 1021 77 16093 5.81 83 12:39 16.03.2020
6532 Clouds 21 1021 77 16093 5.81 83 12:20 16.03.2020
6533 Clouds 21 1021 78 16093 5.81 83 11:43 16.03.2020
6534 Clouds 21 1021 78 16093 5.81 83 11:25 16.03.2020
6535 Clouds 22 1021 77 16093 5.87 86 10:45 16.03.2020
6536 Clouds 21 1021 77 16093 5.87 86 10:24 16.03.2020
6537 Clouds 21 1021 77 16093 5.87 86 09:59 16.03.2020
6538 Clouds 22 1021 73 16093 5.87 86 09:38 16.03.2020
6539 Clouds 22 1021 73 16093 5.87 86 09:19 16.03.2020
6540 Clouds 22 1021 93 16093 5.87 86 08:43 16.03.2020
6541 Clouds 22 1022 78 16093 5.71 83 08:23 16.03.2020
6542 Clouds 23 1021 78 16093 5.57 90 07:43 16.03.2020
6543 Clouds 22 1022 64 16093 5.57 90 07:21 16.03.2020
6544 Clouds 23 1022 78 16093 2.1 70 06:41 16.03.2020
6545 Clear 23 1023 64 16093 2.1 60 06:22 16.03.2020
6546 Clear 23 1023 64 16093 4.1 90 04:26 16.03.2020
6547 Clear 24 1023 73 16093 3.6 90 01:47 16.03.2020
6548 Clouds 25 1022 61 16093 4.6 90 00:45 16.03.2020
6549 Clouds 25 1022 61 16093 4.6 90 00:27 16.03.2020
6550 Clouds 26 1022 54 16093 3.6 80 23:40 15.03.2020
6551 Clouds 27 1022 54 16093 3.6 80 23:19 15.03.2020
6552 Clouds 27 1021 54 16093 4.6 120 22:42 15.03.2020
6553 Clouds 28 1021 54 16093 4.6 120 22:21 15.03.2020
6554 Clouds 28 1022 54 16093 5.1 140 21:39 15.03.2020
6555 Clouds 28 1022 54 16093 5.1 140 21:21 15.03.2020
6556 Clouds 28 1022 54 16093 5.1 140 20:58 15.03.2020
6557 Clouds 28 1022 51 16093 5.1 100 20:40 15.03.2020
6558 Clouds 28 1022 51 16093 5.1 100 20:19 15.03.2020
6559 Clouds 28 1022 51 16093 5.1 100 19:55 15.03.2020
6560 Clouds 28 1023 54 16093 4.6 130 19:37 15.03.2020
6561 Clouds 28 1023 54 16093 4.6 130 19:18 15.03.2020
6562 Clouds 28 1024 54 16093 6.7 100 18:42 15.03.2020
6563 Clouds 28 1024 54 16093 6.7 100 18:24 15.03.2020
6564 Clouds 28 1024 54 16093 6.7 100 17:59 15.03.2020
6565 Clouds 28 1024 54 16093 4.1 70 17:39 15.03.2020
6566 Clouds 27 1024 54 16093 4.1 70 17:20 15.03.2020
6567 Clouds 27 1024 54 16093 4.6 100 16:55 15.03.2020
6568 Clouds 27 1024 54 16093 4.6 100 16:37 15.03.2020
6569 Clouds 27 1024 54 16093 4.6 100 16:18 15.03.2020
6570 Clouds 26 1024 61 16093 4.1 110 15:42 15.03.2020
6571 Clouds 26 1024 61 16093 4.1 110 15:22 15.03.2020
6572 Clouds 25 1024 69 16093 4.1 120 14:47 15.03.2020
6573 Clouds 25 1023 65 16093 3.1 110 14:28 15.03.2020
6574 Clouds 24 1023 65 16093 3.1 110 13:59 15.03.2020
6575 Clouds 23 1023 69 16093 3.1 100 13:39 15.03.2020
6576 Clouds 23 1023 69 16093 3.1 100 13:21 15.03.2020
6577 Clouds 22 1023 69 16093 3.1 100 12:57 15.03.2020
6578 Clouds 22 1022 73 16093 3.1 100 12:38 15.03.2020
6579 Clouds 22 1022 73 16093 3.1 100 12:20 15.03.2020
6580 Clouds 23 1022 88 16093 2.6 110 11:40 15.03.2020
6581 Clouds 23 1022 73 16093 2.6 100 11:22 15.03.2020
6582 Clouds 23 1022 73 16093 3.1 90 10:56 15.03.2020
6583 Clouds 23 1022 73 16093 3.1 90 10:38 15.03.2020
6584 Clouds 23 1022 73 16093 3.1 90 10:20 15.03.2020
6585 Clouds 23 1022 78 16093 3.6 90 09:41 15.03.2020
6586 Clouds 23 1022 78 16093 3.6 90 09:22 15.03.2020
6587 Clouds 23 1022 78 16093 3.6 90 08:54 15.03.2020
6588 Clouds 23 1023 73 16093 3.6 90 08:36 15.03.2020
6589 Clouds 23 1023 73 16093 3.6 90 08:18 15.03.2020
6590 Clouds 23 1023 73 16093 4.1 90 07:44 15.03.2020
6591 Clouds 23 1023 73 16093 4.1 90 06:54 15.03.2020
6592 Clouds 23 1024 83 16093 2.1 90 06:24 15.03.2020
6593 Clouds 24 1024 73 16093 3.6 80 05:21 15.03.2020
6594 Clouds 24 1024 73 16093 4.6 80 04:43 15.03.2020
6595 Clouds 24 1024 73 16093 4.6 80 04:25 15.03.2020
6596 Clouds 24 1024 73 16093 4.6 80 03:54 15.03.2020
6597 Clouds 24 1023 83 16093 2.1 60 02:44 15.03.2020
6598 Clouds 24 1023 69 16093 4.1 90 01:35 15.03.2020
6599 Clouds 25 1022 65 16093 5.1 100 00:46 15.03.2020
6600 Clouds 25 1022 65 16093 5.1 100 00:27 15.03.2020
6601 Clouds 26 1023 69 14484 5.1 100 23:55 14.03.2020
6602 Clouds 26 1022 61 16093 4.6 70 23:37 14.03.2020
6603 Clouds 26 1022 61 16093 4.6 70 23:37 14.03.2020
6604 Clouds 27 1022 61 16093 4.6 70 23:18 14.03.2020
6605 Clouds 27 1022 57 16093 5.7 100 22:44 14.03.2020
6606 Clouds 27 1022 57 16093 5.7 100 22:26 14.03.2020
6607 Clouds 27 1022 57 16093 5.7 100 21:57 14.03.2020
6608 Clouds 28 1022 57 16093 6.2 130 21:36 14.03.2020
6609 Clouds 28 1022 57 16093 6.2 130 21:18 14.03.2020
6610 Clouds 28 1022 57 16093 6.2 130 20:59 14.03.2020
6611 Clouds 28 1023 54 16093 6.2 120 20:40 14.03.2020
6612 Clouds 28 1023 54 16093 6.2 120 20:19 14.03.2020
6613 Clouds 28 1023 54 16093 6.7 110 19:44 14.03.2020
6614 Clouds 28 1023 54 16093 6.2 110 19:25 14.03.2020
6615 Clouds 28 1023 69 16093 4.6 80 18:56 14.03.2020
6616 Clouds 28 1024 58 16093 6.2 110 18:37 14.03.2020
6617 Clouds 28 1024 58 16093 6.2 110 18:19 14.03.2020
6618 Clouds 27 1024 58 16093 6.7 100 17:39 14.03.2020
6619 Clouds 27 1024 58 16093 6.7 100 17:20 14.03.2020
6620 Clouds 27 1024 69 16093 5.1 100 16:41 14.03.2020
6621 Clouds 27 1024 57 16093 6.7 110 16:23 14.03.2020
6622 Clouds 27 1024 57 16093 6.7 110 16:23 14.03.2020
6623 Clouds 26 1024 57 16093 6.7 110 15:59 14.03.2020
6624 Clouds 26 1024 65 16093 7.2 110 15:27 14.03.2020
6625 Clouds 26 1024 65 16093 7.2 110 14:59 14.03.2020
6626 Clouds 25 1023 65 16093 5.7 90 14:37 14.03.2020
6627 Clouds 25 1023 65 16093 5.7 90 14:19 14.03.2020
6628 Clouds 24 1023 65 16093 5.7 90 13:54 14.03.2020
6629 Clear 23 1023 78 16093 2.6 90 13:36 14.03.2020
6630 Clear 23 1023 78 16093 2.6 90 13:18 14.03.2020
6631 Clouds 23 1022 73 16093 3.1 80 12:42 14.03.2020
6632 Clouds 23 1022 73 16093 3.1 80 12:23 14.03.2020
6633 Clouds 23 1022 69 16093 4.6 90 11:43 14.03.2020
6634 Clouds 23 1022 69 16093 4.6 90 11:24 14.03.2020
6635 Clouds 23 1022 88 16093 3.6 110 10:47 14.03.2020
6636 Clouds 23 1021 73 16093 4.1 110 10:28 14.03.2020
6637 Clouds 23 1021 73 16093 4.1 110 09:59 14.03.2020
6638 Clouds 23 1021 83 16093 3.1 100 09:40 14.03.2020
6639 Clouds 23 1021 73 16093 4.1 100 09:21 14.03.2020
6640 Clouds 23 1022 88 16093 2.1 100 08:46 14.03.2020
6641 Clouds 23 1022 88 16093 2.1 100 08:26 14.03.2020
6642 Rain 23 1022 73 16093 1.5 40 07:40 14.03.2020
6643 Rain 23 1022 73 16093 1.5 40 07:21 14.03.2020
6644 Clouds 23 1022 73 16093 1.5 40 06:55 14.03.2020
6645 Clouds 23 1023 73 16093 4.1 80 06:34 14.03.2020
6646 Clouds 24 1023 69 16093 4.6 80 04:55 14.03.2020
6647 Clouds 24 1023 78 16093 4.6 60 03:37 14.03.2020
6648 Clouds 24 1022 65 16093 4.1 40 02:53 14.03.2020
6649 Clear 24 1021 69 16093 4.6 70 01:46 14.03.2020
6650 Clear 25 1020 69 16093 4.6 60 00:34 14.03.2020
6651 Clouds 26 1020 51 16093 5.1 60 23:42